<?xml version="1.0"?>
<gpx creator="GPS Visualizer http://www.gpsvisualizer.com/" version="1.1" xmlns="http://www.topografix.com/GPX/1/1" xmlns:xsi="http://www.w3.org/2001/XMLSchema-instance" xsi:schemaLocation="http://www.topografix.com/GPX/1/1 http://www.topografix.com/GPX/1/1/gpx.xsd">
<trk>
  <name>2014-05-18-01</name>
  <trkseg>
    <trkpt lat="48.488667" lon="2.646597">
      <ele>97.6</ele>
      <time>2014-05-18T07:23:30Z</time>
    </trkpt>
    <trkpt lat="48.488693" lon="2.646733">
      <ele>97.9</ele>
      <time>2014-05-18T07:23:45Z</time>
    </trkpt>
    <trkpt lat="48.488629" lon="2.646876">
      <ele>97.9</ele>
      <time>2014-05-18T07:23:48Z</time>
    </trkpt>
    <trkpt lat="48.488562" lon="2.647026">
      <ele>98.0</ele>
      <time>2014-05-18T07:23:51Z</time>
    </trkpt>
    <trkpt lat="48.488509" lon="2.64718">
      <ele>98.1</ele>
      <time>2014-05-18T07:23:53Z</time>
    </trkpt>
    <trkpt lat="48.488463" lon="2.647312">
      <ele>98.2</ele>
      <time>2014-05-18T07:23:55Z</time>
    </trkpt>
    <trkpt lat="48.488412" lon="2.647427">
      <ele>98.2</ele>
      <time>2014-05-18T07:23:57Z</time>
    </trkpt>
    <trkpt lat="48.488358" lon="2.647543">
      <ele>98.2</ele>
      <time>2014-05-18T07:23:59Z</time>
    </trkpt>
    <trkpt lat="48.48827" lon="2.647599">
      <ele>97.9</ele>
      <time>2014-05-18T07:24:01Z</time>
    </trkpt>
    <trkpt lat="48.488211" lon="2.647731">
      <ele>97.9</ele>
      <time>2014-05-18T07:24:03Z</time>
    </trkpt>
    <trkpt lat="48.48815" lon="2.647846">
      <ele>97.8</ele>
      <time>2014-05-18T07:24:05Z</time>
    </trkpt>
    <trkpt lat="48.48808" lon="2.647979">
      <ele>97.6</ele>
      <time>2014-05-18T07:24:08Z</time>
    </trkpt>
    <trkpt lat="48.488003" lon="2.648103">
      <ele>97.3</ele>
      <time>2014-05-18T07:24:11Z</time>
    </trkpt>
    <trkpt lat="48.487929" lon="2.648268">
      <ele>97.0</ele>
      <time>2014-05-18T07:24:14Z</time>
    </trkpt>
    <trkpt lat="48.487853" lon="2.648368">
      <ele>96.6</ele>
      <time>2014-05-18T07:24:16Z</time>
    </trkpt>
    <trkpt lat="48.48783" lon="2.6485">
      <ele>96.7</ele>
      <time>2014-05-18T07:24:18Z</time>
    </trkpt>
    <trkpt lat="48.48778" lon="2.648661">
      <ele>96.8</ele>
      <time>2014-05-18T07:24:21Z</time>
    </trkpt>
    <trkpt lat="48.487692" lon="2.648781">
      <ele>96.6</ele>
      <time>2014-05-18T07:24:23Z</time>
    </trkpt>
    <trkpt lat="48.487633" lon="2.648885">
      <ele>96.6</ele>
      <time>2014-05-18T07:24:25Z</time>
    </trkpt>
    <trkpt lat="48.48757" lon="2.649062">
      <ele>96.9</ele>
      <time>2014-05-18T07:24:28Z</time>
    </trkpt>
    <trkpt lat="48.487524" lon="2.649186">
      <ele>97.1</ele>
      <time>2014-05-18T07:24:30Z</time>
    </trkpt>
    <trkpt lat="48.487444" lon="2.649299">
      <ele>97.2</ele>
      <time>2014-05-18T07:24:32Z</time>
    </trkpt>
    <trkpt lat="48.487392" lon="2.649423">
      <ele>97.4</ele>
      <time>2014-05-18T07:24:34Z</time>
    </trkpt>
    <trkpt lat="48.487304" lon="2.649575">
      <ele>97.5</ele>
      <time>2014-05-18T07:24:37Z</time>
    </trkpt>
    <trkpt lat="48.487241" lon="2.649677">
      <ele>97.5</ele>
      <time>2014-05-18T07:24:39Z</time>
    </trkpt>
    <trkpt lat="48.487178" lon="2.649792">
      <ele>97.5</ele>
      <time>2014-05-18T07:24:41Z</time>
    </trkpt>
    <trkpt lat="48.487097" lon="2.649914">
      <ele>97.4</ele>
      <time>2014-05-18T07:24:44Z</time>
    </trkpt>
    <trkpt lat="48.487031" lon="2.650063">
      <ele>97.5</ele>
      <time>2014-05-18T07:24:47Z</time>
    </trkpt>
    <trkpt lat="48.48695" lon="2.650203">
      <ele>97.5</ele>
      <time>2014-05-18T07:24:50Z</time>
    </trkpt>
    <trkpt lat="48.486901" lon="2.650329">
      <ele>97.6</ele>
      <time>2014-05-18T07:24:52Z</time>
    </trkpt>
    <trkpt lat="48.48682" lon="2.650483">
      <ele>97.7</ele>
      <time>2014-05-18T07:24:55Z</time>
    </trkpt>
    <trkpt lat="48.486737" lon="2.650623">
      <ele>97.7</ele>
      <time>2014-05-18T07:24:58Z</time>
    </trkpt>
    <trkpt lat="48.48668" lon="2.650848">
      <ele>98.1</ele>
      <time>2014-05-18T07:25:01Z</time>
    </trkpt>
    <trkpt lat="48.486606" lon="2.651009">
      <ele>98.4</ele>
      <time>2014-05-18T07:25:04Z</time>
    </trkpt>
    <trkpt lat="48.486465" lon="2.651284">
      <ele>99.0</ele>
      <time>2014-05-18T07:25:10Z</time>
    </trkpt>
    <trkpt lat="48.486356" lon="2.651379">
      <ele>99.1</ele>
      <time>2014-05-18T07:25:13Z</time>
    </trkpt>
    <trkpt lat="48.486273" lon="2.651505">
      <ele>99.2</ele>
      <time>2014-05-18T07:25:16Z</time>
    </trkpt>
    <trkpt lat="48.486192" lon="2.651635">
      <ele>99.4</ele>
      <time>2014-05-18T07:25:19Z</time>
    </trkpt>
    <trkpt lat="48.486099" lon="2.651801">
      <ele>99.6</ele>
      <time>2014-05-18T07:25:22Z</time>
    </trkpt>
    <trkpt lat="48.48603" lon="2.651993">
      <ele>99.8</ele>
      <time>2014-05-18T07:25:25Z</time>
    </trkpt>
    <trkpt lat="48.485998" lon="2.652165">
      <ele>100.0</ele>
      <time>2014-05-18T07:25:27Z</time>
    </trkpt>
    <trkpt lat="48.485952" lon="2.652346">
      <ele>100.2</ele>
      <time>2014-05-18T07:25:30Z</time>
    </trkpt>
    <trkpt lat="48.485904" lon="2.652498">
      <ele>100.3</ele>
      <time>2014-05-18T07:25:33Z</time>
    </trkpt>
    <trkpt lat="48.485844" lon="2.652604">
      <ele>100.4</ele>
      <time>2014-05-18T07:25:35Z</time>
    </trkpt>
    <trkpt lat="48.485789" lon="2.652718">
      <ele>100.7</ele>
      <time>2014-05-18T07:25:37Z</time>
    </trkpt>
    <trkpt lat="48.485728" lon="2.652837">
      <ele>101.1</ele>
      <time>2014-05-18T07:25:39Z</time>
    </trkpt>
    <trkpt lat="48.485667" lon="2.652939">
      <ele>101.3</ele>
      <time>2014-05-18T07:25:41Z</time>
    </trkpt>
    <trkpt lat="48.485538" lon="2.652981">
      <ele>101.1</ele>
      <time>2014-05-18T07:25:43Z</time>
    </trkpt>
    <trkpt lat="48.485459" lon="2.653058">
      <ele>101.1</ele>
      <time>2014-05-18T07:25:45Z</time>
    </trkpt>
    <trkpt lat="48.485464" lon="2.653263">
      <ele>101.5</ele>
      <time>2014-05-18T07:25:47Z</time>
    </trkpt>
    <trkpt lat="48.485447" lon="2.653399">
      <ele>101.6</ele>
      <time>2014-05-18T07:25:49Z</time>
    </trkpt>
    <trkpt lat="48.485401" lon="2.65356">
      <ele>101.5</ele>
      <time>2014-05-18T07:25:51Z</time>
    </trkpt>
    <trkpt lat="48.485366" lon="2.653703">
      <ele>101.4</ele>
      <time>2014-05-18T07:25:53Z</time>
    </trkpt>
    <trkpt lat="48.485348" lon="2.653851">
      <ele>101.4</ele>
      <time>2014-05-18T07:25:55Z</time>
    </trkpt>
    <trkpt lat="48.485321" lon="2.654059">
      <ele>101.4</ele>
      <time>2014-05-18T07:25:58Z</time>
    </trkpt>
    <trkpt lat="48.485323" lon="2.654211">
      <ele>101.4</ele>
      <time>2014-05-18T07:26:00Z</time>
    </trkpt>
    <trkpt lat="48.485307" lon="2.654397">
      <ele>101.4</ele>
      <time>2014-05-18T07:26:03Z</time>
    </trkpt>
    <trkpt lat="48.485302" lon="2.654583">
      <ele>101.4</ele>
      <time>2014-05-18T07:26:06Z</time>
    </trkpt>
    <trkpt lat="48.48529" lon="2.654868">
      <ele>101.3</ele>
      <time>2014-05-18T07:26:10Z</time>
    </trkpt>
    <trkpt lat="48.485245" lon="2.655017">
      <ele>101.3</ele>
      <time>2014-05-18T07:26:12Z</time>
    </trkpt>
    <trkpt lat="48.48521" lon="2.655153">
      <ele>101.3</ele>
      <time>2014-05-18T07:26:14Z</time>
    </trkpt>
    <trkpt lat="48.485197" lon="2.655352">
      <ele>101.5</ele>
      <time>2014-05-18T07:26:17Z</time>
    </trkpt>
    <trkpt lat="48.485196" lon="2.655493">
      <ele>101.5</ele>
      <time>2014-05-18T07:26:19Z</time>
    </trkpt>
    <trkpt lat="48.485185" lon="2.655654">
      <ele>101.7</ele>
      <time>2014-05-18T07:26:21Z</time>
    </trkpt>
    <trkpt lat="48.485166" lon="2.655873">
      <ele>101.8</ele>
      <time>2014-05-18T07:26:24Z</time>
    </trkpt>
    <trkpt lat="48.485146" lon="2.656023">
      <ele>101.9</ele>
      <time>2014-05-18T07:26:26Z</time>
    </trkpt>
    <trkpt lat="48.485114" lon="2.656185">
      <ele>102.0</ele>
      <time>2014-05-18T07:26:28Z</time>
    </trkpt>
    <trkpt lat="48.485081" lon="2.656376">
      <ele>102.0</ele>
      <time>2014-05-18T07:26:31Z</time>
    </trkpt>
    <trkpt lat="48.485068" lon="2.656517">
      <ele>102.1</ele>
      <time>2014-05-18T07:26:33Z</time>
    </trkpt>
    <trkpt lat="48.485004" lon="2.656713">
      <ele>101.9</ele>
      <time>2014-05-18T07:26:35Z</time>
    </trkpt>
    <trkpt lat="48.484953" lon="2.656919">
      <ele>101.6</ele>
      <time>2014-05-18T07:26:37Z</time>
    </trkpt>
    <trkpt lat="48.484931" lon="2.657072">
      <ele>101.4</ele>
      <time>2014-05-18T07:26:39Z</time>
    </trkpt>
    <trkpt lat="48.484918" lon="2.65722">
      <ele>101.2</ele>
      <time>2014-05-18T07:26:41Z</time>
    </trkpt>
    <trkpt lat="48.484892" lon="2.657402">
      <ele>101.1</ele>
      <time>2014-05-18T07:26:44Z</time>
    </trkpt>
    <trkpt lat="48.484885" lon="2.657564">
      <ele>100.9</ele>
      <time>2014-05-18T07:26:46Z</time>
    </trkpt>
    <trkpt lat="48.484902" lon="2.657749">
      <ele>100.7</ele>
      <time>2014-05-18T07:26:50Z</time>
    </trkpt>
    <trkpt lat="48.484874" lon="2.657928">
      <ele>100.5</ele>
      <time>2014-05-18T07:26:52Z</time>
    </trkpt>
    <trkpt lat="48.484858" lon="2.658077">
      <ele>100.3</ele>
      <time>2014-05-18T07:26:54Z</time>
    </trkpt>
    <trkpt lat="48.48484" lon="2.658231">
      <ele>100.1</ele>
      <time>2014-05-18T07:26:56Z</time>
    </trkpt>
    <trkpt lat="48.484813" lon="2.658382">
      <ele>100.0</ele>
      <time>2014-05-18T07:26:58Z</time>
    </trkpt>
    <trkpt lat="48.48479" lon="2.658532">
      <ele>99.9</ele>
      <time>2014-05-18T07:27:00Z</time>
    </trkpt>
    <trkpt lat="48.484757" lon="2.658685">
      <ele>99.8</ele>
      <time>2014-05-18T07:27:02Z</time>
    </trkpt>
    <trkpt lat="48.48475" lon="2.658868">
      <ele>99.6</ele>
      <time>2014-05-18T07:27:05Z</time>
    </trkpt>
    <trkpt lat="48.484717" lon="2.659056">
      <ele>99.4</ele>
      <time>2014-05-18T07:27:07Z</time>
    </trkpt>
    <trkpt lat="48.484689" lon="2.659375">
      <ele>99.8</ele>
      <time>2014-05-18T07:27:12Z</time>
    </trkpt>
    <trkpt lat="48.484663" lon="2.659621">
      <ele>100.4</ele>
      <time>2014-05-18T07:27:15Z</time>
    </trkpt>
    <trkpt lat="48.484609" lon="2.65987">
      <ele>101.1</ele>
      <time>2014-05-18T07:27:18Z</time>
    </trkpt>
    <trkpt lat="48.484577" lon="2.660021">
      <ele>101.6</ele>
      <time>2014-05-18T07:27:20Z</time>
    </trkpt>
    <trkpt lat="48.484536" lon="2.660174">
      <ele>102.1</ele>
      <time>2014-05-18T07:27:22Z</time>
    </trkpt>
    <trkpt lat="48.484494" lon="2.660362">
      <ele>102.7</ele>
      <time>2014-05-18T07:27:25Z</time>
    </trkpt>
    <trkpt lat="48.484453" lon="2.66052">
      <ele>103.3</ele>
      <time>2014-05-18T07:27:27Z</time>
    </trkpt>
    <trkpt lat="48.484423" lon="2.660715">
      <ele>104.0</ele>
      <time>2014-05-18T07:27:30Z</time>
    </trkpt>
    <trkpt lat="48.484388" lon="2.660849">
      <ele>104.5</ele>
      <time>2014-05-18T07:27:32Z</time>
    </trkpt>
    <trkpt lat="48.484356" lon="2.661013">
      <ele>105.0</ele>
      <time>2014-05-18T07:27:35Z</time>
    </trkpt>
    <trkpt lat="48.484309" lon="2.661188">
      <ele>105.5</ele>
      <time>2014-05-18T07:27:38Z</time>
    </trkpt>
    <trkpt lat="48.48425" lon="2.661335">
      <ele>106.0</ele>
      <time>2014-05-18T07:27:42Z</time>
    </trkpt>
    <trkpt lat="48.48421" lon="2.661506">
      <ele>106.5</ele>
      <time>2014-05-18T07:27:45Z</time>
    </trkpt>
    <trkpt lat="48.484135" lon="2.661622">
      <ele>106.8</ele>
      <time>2014-05-18T07:27:49Z</time>
    </trkpt>
    <trkpt lat="48.484094" lon="2.661778">
      <ele>107.4</ele>
      <time>2014-05-18T07:27:53Z</time>
    </trkpt>
    <trkpt lat="48.484086" lon="2.661914">
      <ele>108.0</ele>
      <time>2014-05-18T07:27:57Z</time>
    </trkpt>
    <trkpt lat="48.484025" lon="2.662025">
      <ele>108.5</ele>
      <time>2014-05-18T07:28:01Z</time>
    </trkpt>
    <trkpt lat="48.483981" lon="2.662152">
      <ele>109.0</ele>
      <time>2014-05-18T07:28:05Z</time>
    </trkpt>
    <trkpt lat="48.48396" lon="2.662286">
      <ele>109.7</ele>
      <time>2014-05-18T07:28:10Z</time>
    </trkpt>
    <trkpt lat="48.483913" lon="2.662589">
      <ele>111.1</ele>
      <time>2014-05-18T07:28:28Z</time>
    </trkpt>
    <trkpt lat="48.483882" lon="2.662743">
      <ele>111.8</ele>
      <time>2014-05-18T07:28:35Z</time>
    </trkpt>
    <trkpt lat="48.483856" lon="2.662882">
      <ele>112.5</ele>
      <time>2014-05-18T07:28:41Z</time>
    </trkpt>
    <trkpt lat="48.483828" lon="2.663048">
      <ele>113.4</ele>
      <time>2014-05-18T07:28:46Z</time>
    </trkpt>
    <trkpt lat="48.483813" lon="2.663215">
      <ele>114.2</ele>
      <time>2014-05-18T07:28:50Z</time>
    </trkpt>
    <trkpt lat="48.483756" lon="2.663349">
      <ele>115.0</ele>
      <time>2014-05-18T07:28:54Z</time>
    </trkpt>
    <trkpt lat="48.483725" lon="2.663521">
      <ele>114.7</ele>
      <time>2014-05-18T07:28:58Z</time>
    </trkpt>
    <trkpt lat="48.483698" lon="2.66369">
      <ele>114.5</ele>
      <time>2014-05-18T07:29:02Z</time>
    </trkpt>
    <trkpt lat="48.483666" lon="2.663855">
      <ele>114.2</ele>
      <time>2014-05-18T07:29:06Z</time>
    </trkpt>
    <trkpt lat="48.48364" lon="2.664008">
      <ele>113.9</ele>
      <time>2014-05-18T07:29:09Z</time>
    </trkpt>
    <trkpt lat="48.483594" lon="2.664177">
      <ele>113.6</ele>
      <time>2014-05-18T07:29:12Z</time>
    </trkpt>
    <trkpt lat="48.483546" lon="2.664509">
      <ele>112.4</ele>
      <time>2014-05-18T07:29:18Z</time>
    </trkpt>
    <trkpt lat="48.483511" lon="2.664646">
      <ele>111.9</ele>
      <time>2014-05-18T07:29:20Z</time>
    </trkpt>
    <trkpt lat="48.483446" lon="2.664811">
      <ele>111.4</ele>
      <time>2014-05-18T07:29:23Z</time>
    </trkpt>
    <trkpt lat="48.483378" lon="2.664932">
      <ele>111.1</ele>
      <time>2014-05-18T07:29:25Z</time>
    </trkpt>
    <trkpt lat="48.483295" lon="2.665034">
      <ele>111.0</ele>
      <time>2014-05-18T07:29:28Z</time>
    </trkpt>
    <trkpt lat="48.483191" lon="2.665081">
      <ele>110.9</ele>
      <time>2014-05-18T07:29:31Z</time>
    </trkpt>
    <trkpt lat="48.483093" lon="2.665071">
      <ele>110.9</ele>
      <time>2014-05-18T07:29:34Z</time>
    </trkpt>
    <trkpt lat="48.482989" lon="2.665027">
      <ele>111.0</ele>
      <time>2014-05-18T07:29:37Z</time>
    </trkpt>
    <trkpt lat="48.4829" lon="2.664954">
      <ele>111.1</ele>
      <time>2014-05-18T07:29:41Z</time>
    </trkpt>
    <trkpt lat="48.482862" lon="2.664786">
      <ele>111.2</ele>
      <time>2014-05-18T07:29:46Z</time>
    </trkpt>
    <trkpt lat="48.482827" lon="2.664628">
      <ele>111.3</ele>
      <time>2014-05-18T07:29:49Z</time>
    </trkpt>
    <trkpt lat="48.482785" lon="2.664484">
      <ele>111.2</ele>
      <time>2014-05-18T07:29:52Z</time>
    </trkpt>
    <trkpt lat="48.48274" lon="2.66432">
      <ele>111.1</ele>
      <time>2014-05-18T07:29:55Z</time>
    </trkpt>
    <trkpt lat="48.482706" lon="2.66419">
      <ele>111.0</ele>
      <time>2014-05-18T07:29:57Z</time>
    </trkpt>
    <trkpt lat="48.482664" lon="2.663991">
      <ele>110.5</ele>
      <time>2014-05-18T07:30:00Z</time>
    </trkpt>
    <trkpt lat="48.482644" lon="2.663824">
      <ele>110.2</ele>
      <time>2014-05-18T07:30:02Z</time>
    </trkpt>
    <trkpt lat="48.482567" lon="2.663627">
      <ele>109.2</ele>
      <time>2014-05-18T07:30:04Z</time>
    </trkpt>
    <trkpt lat="48.482521" lon="2.663445">
      <ele>108.5</ele>
      <time>2014-05-18T07:30:06Z</time>
    </trkpt>
    <trkpt lat="48.482464" lon="2.663235">
      <ele>107.3</ele>
      <time>2014-05-18T07:30:08Z</time>
    </trkpt>
    <trkpt lat="48.482449" lon="2.663089">
      <ele>106.7</ele>
      <time>2014-05-18T07:30:10Z</time>
    </trkpt>
    <trkpt lat="48.48242" lon="2.662911">
      <ele>105.8</ele>
      <time>2014-05-18T07:30:12Z</time>
    </trkpt>
    <trkpt lat="48.482312" lon="2.662536">
      <ele>103.8</ele>
      <time>2014-05-18T07:30:16Z</time>
    </trkpt>
    <trkpt lat="48.482272" lon="2.662359">
      <ele>103.2</ele>
      <time>2014-05-18T07:30:18Z</time>
    </trkpt>
    <trkpt lat="48.482255" lon="2.662177">
      <ele>102.8</ele>
      <time>2014-05-18T07:30:21Z</time>
    </trkpt>
    <trkpt lat="48.482193" lon="2.66198">
      <ele>102.2</ele>
      <time>2014-05-18T07:30:23Z</time>
    </trkpt>
    <trkpt lat="48.482107" lon="2.661776">
      <ele>101.3</ele>
      <time>2014-05-18T07:30:25Z</time>
    </trkpt>
    <trkpt lat="48.482047" lon="2.661585">
      <ele>100.5</ele>
      <time>2014-05-18T07:30:27Z</time>
    </trkpt>
    <trkpt lat="48.481942" lon="2.661351">
      <ele>99.1</ele>
      <time>2014-05-18T07:30:29Z</time>
    </trkpt>
    <trkpt lat="48.481894" lon="2.661229">
      <ele>98.4</ele>
      <time>2014-05-18T07:30:30Z</time>
    </trkpt>
    <trkpt lat="48.481815" lon="2.661014">
      <ele>97.4</ele>
      <time>2014-05-18T07:30:32Z</time>
    </trkpt>
    <trkpt lat="48.481753" lon="2.660824">
      <ele>96.5</ele>
      <time>2014-05-18T07:30:34Z</time>
    </trkpt>
    <trkpt lat="48.481734" lon="2.660667">
      <ele>96.2</ele>
      <time>2014-05-18T07:30:36Z</time>
    </trkpt>
    <trkpt lat="48.481696" lon="2.660481">
      <ele>95.7</ele>
      <time>2014-05-18T07:30:38Z</time>
    </trkpt>
    <trkpt lat="48.481602" lon="2.660243">
      <ele>95.2</ele>
      <time>2014-05-18T07:30:40Z</time>
    </trkpt>
    <trkpt lat="48.481555" lon="2.66012">
      <ele>95.0</ele>
      <time>2014-05-18T07:30:41Z</time>
    </trkpt>
    <trkpt lat="48.481465" lon="2.659923">
      <ele>94.7</ele>
      <time>2014-05-18T07:30:43Z</time>
    </trkpt>
    <trkpt lat="48.481388" lon="2.659759">
      <ele>94.6</ele>
      <time>2014-05-18T07:30:45Z</time>
    </trkpt>
    <trkpt lat="48.481336" lon="2.659587">
      <ele>94.4</ele>
      <time>2014-05-18T07:30:47Z</time>
    </trkpt>
    <trkpt lat="48.481292" lon="2.65942">
      <ele>94.2</ele>
      <time>2014-05-18T07:30:49Z</time>
    </trkpt>
    <trkpt lat="48.481247" lon="2.659233">
      <ele>94.0</ele>
      <time>2014-05-18T07:30:51Z</time>
    </trkpt>
    <trkpt lat="48.481186" lon="2.659056">
      <ele>94.0</ele>
      <time>2014-05-18T07:30:53Z</time>
    </trkpt>
    <trkpt lat="48.481122" lon="2.658885">
      <ele>93.9</ele>
      <time>2014-05-18T07:30:55Z</time>
    </trkpt>
    <trkpt lat="48.481053" lon="2.658738">
      <ele>93.8</ele>
      <time>2014-05-18T07:30:57Z</time>
    </trkpt>
    <trkpt lat="48.481012" lon="2.658588">
      <ele>93.7</ele>
      <time>2014-05-18T07:30:59Z</time>
    </trkpt>
    <trkpt lat="48.480963" lon="2.658435">
      <ele>93.6</ele>
      <time>2014-05-18T07:31:01Z</time>
    </trkpt>
    <trkpt lat="48.480928" lon="2.658268">
      <ele>93.5</ele>
      <time>2014-05-18T07:31:03Z</time>
    </trkpt>
    <trkpt lat="48.480888" lon="2.658138">
      <ele>93.5</ele>
      <time>2014-05-18T07:31:05Z</time>
    </trkpt>
    <trkpt lat="48.480798" lon="2.657975">
      <ele>93.4</ele>
      <time>2014-05-18T07:31:07Z</time>
    </trkpt>
    <trkpt lat="48.480742" lon="2.657805">
      <ele>93.6</ele>
      <time>2014-05-18T07:31:09Z</time>
    </trkpt>
    <trkpt lat="48.480694" lon="2.657663">
      <ele>93.8</ele>
      <time>2014-05-18T07:31:11Z</time>
    </trkpt>
    <trkpt lat="48.480654" lon="2.65754">
      <ele>94.0</ele>
      <time>2014-05-18T07:31:13Z</time>
    </trkpt>
    <trkpt lat="48.48055" lon="2.657245">
      <ele>93.4</ele>
      <time>2014-05-18T07:31:17Z</time>
    </trkpt>
    <trkpt lat="48.480497" lon="2.657094">
      <ele>93.0</ele>
      <time>2014-05-18T07:31:19Z</time>
    </trkpt>
    <trkpt lat="48.480443" lon="2.656938">
      <ele>92.7</ele>
      <time>2014-05-18T07:31:21Z</time>
    </trkpt>
    <trkpt lat="48.480395" lon="2.656787">
      <ele>92.3</ele>
      <time>2014-05-18T07:31:23Z</time>
    </trkpt>
    <trkpt lat="48.48034" lon="2.656647">
      <ele>92.0</ele>
      <time>2014-05-18T07:31:25Z</time>
    </trkpt>
    <trkpt lat="48.480282" lon="2.656487">
      <ele>91.6</ele>
      <time>2014-05-18T07:31:28Z</time>
    </trkpt>
    <trkpt lat="48.480232" lon="2.656366">
      <ele>91.4</ele>
      <time>2014-05-18T07:31:31Z</time>
    </trkpt>
    <trkpt lat="48.480184" lon="2.656186">
      <ele>91.0</ele>
      <time>2014-05-18T07:31:34Z</time>
    </trkpt>
    <trkpt lat="48.48013" lon="2.656027">
      <ele>90.6</ele>
      <time>2014-05-18T07:31:36Z</time>
    </trkpt>
    <trkpt lat="48.480063" lon="2.655857">
      <ele>90.1</ele>
      <time>2014-05-18T07:31:39Z</time>
    </trkpt>
    <trkpt lat="48.480027" lon="2.655713">
      <ele>90.2</ele>
      <time>2014-05-18T07:31:41Z</time>
    </trkpt>
    <trkpt lat="48.479976" lon="2.655536">
      <ele>90.4</ele>
      <time>2014-05-18T07:31:44Z</time>
    </trkpt>
    <trkpt lat="48.479934" lon="2.65536">
      <ele>90.6</ele>
      <time>2014-05-18T07:31:47Z</time>
    </trkpt>
    <trkpt lat="48.4799" lon="2.655189">
      <ele>90.8</ele>
      <time>2014-05-18T07:31:51Z</time>
    </trkpt>
    <trkpt lat="48.479862" lon="2.655055">
      <ele>90.9</ele>
      <time>2014-05-18T07:31:57Z</time>
    </trkpt>
    <trkpt lat="48.479811" lon="2.654935">
      <ele>91.0</ele>
      <time>2014-05-18T07:31:59Z</time>
    </trkpt>
    <trkpt lat="48.47978" lon="2.654804">
      <ele>90.9</ele>
      <time>2014-05-18T07:32:02Z</time>
    </trkpt>
    <trkpt lat="48.479755" lon="2.654652">
      <ele>90.8</ele>
      <time>2014-05-18T07:32:06Z</time>
    </trkpt>
    <trkpt lat="48.479736" lon="2.654506">
      <ele>90.8</ele>
      <time>2014-05-18T07:32:09Z</time>
    </trkpt>
    <trkpt lat="48.47966" lon="2.654362">
      <ele>90.9</ele>
      <time>2014-05-18T07:32:11Z</time>
    </trkpt>
    <trkpt lat="48.47961" lon="2.654247">
      <ele>90.9</ele>
      <time>2014-05-18T07:32:13Z</time>
    </trkpt>
    <trkpt lat="48.479503" lon="2.653925">
      <ele>90.7</ele>
      <time>2014-05-18T07:32:19Z</time>
    </trkpt>
    <trkpt lat="48.479447" lon="2.65376">
      <ele>90.5</ele>
      <time>2014-05-18T07:32:22Z</time>
    </trkpt>
    <trkpt lat="48.479395" lon="2.653578">
      <ele>90.4</ele>
      <time>2014-05-18T07:32:25Z</time>
    </trkpt>
    <trkpt lat="48.479359" lon="2.653427">
      <ele>90.2</ele>
      <time>2014-05-18T07:32:28Z</time>
    </trkpt>
    <trkpt lat="48.479317" lon="2.653294">
      <ele>90.3</ele>
      <time>2014-05-18T07:32:31Z</time>
    </trkpt>
    <trkpt lat="48.479259" lon="2.653142">
      <ele>90.5</ele>
      <time>2014-05-18T07:32:34Z</time>
    </trkpt>
    <trkpt lat="48.47921" lon="2.652978">
      <ele>90.5</ele>
      <time>2014-05-18T07:32:37Z</time>
    </trkpt>
    <trkpt lat="48.47913" lon="2.652828">
      <ele>90.5</ele>
      <time>2014-05-18T07:32:40Z</time>
    </trkpt>
    <trkpt lat="48.479054" lon="2.652727">
      <ele>90.5</ele>
      <time>2014-05-18T07:32:43Z</time>
    </trkpt>
    <trkpt lat="48.478966" lon="2.652613">
      <ele>90.4</ele>
      <time>2014-05-18T07:32:47Z</time>
    </trkpt>
    <trkpt lat="48.478877" lon="2.65251">
      <ele>90.4</ele>
      <time>2014-05-18T07:32:50Z</time>
    </trkpt>
    <trkpt lat="48.478775" lon="2.652453">
      <ele>90.4</ele>
      <time>2014-05-18T07:32:53Z</time>
    </trkpt>
    <trkpt lat="48.478684" lon="2.652488">
      <ele>90.6</ele>
      <time>2014-05-18T07:32:56Z</time>
    </trkpt>
    <trkpt lat="48.478589" lon="2.652569">
      <ele>90.9</ele>
      <time>2014-05-18T07:32:59Z</time>
    </trkpt>
    <trkpt lat="48.478513" lon="2.652653">
      <ele>91.3</ele>
      <time>2014-05-18T07:33:01Z</time>
    </trkpt>
    <trkpt lat="48.478431" lon="2.652714">
      <ele>91.6</ele>
      <time>2014-05-18T07:33:03Z</time>
    </trkpt>
    <trkpt lat="48.478347" lon="2.652784">
      <ele>92.0</ele>
      <time>2014-05-18T07:33:05Z</time>
    </trkpt>
    <trkpt lat="48.478227" lon="2.652872">
      <ele>92.4</ele>
      <time>2014-05-18T07:33:08Z</time>
    </trkpt>
    <trkpt lat="48.478144" lon="2.652929">
      <ele>92.5</ele>
      <time>2014-05-18T07:33:10Z</time>
    </trkpt>
    <trkpt lat="48.478068" lon="2.653005">
      <ele>92.8</ele>
      <time>2014-05-18T07:33:12Z</time>
    </trkpt>
    <trkpt lat="48.47795" lon="2.653084">
      <ele>92.9</ele>
      <time>2014-05-18T07:33:15Z</time>
    </trkpt>
    <trkpt lat="48.477757" lon="2.653257">
      <ele>93.2</ele>
      <time>2014-05-18T07:33:20Z</time>
    </trkpt>
    <trkpt lat="48.477675" lon="2.653354">
      <ele>93.2</ele>
      <time>2014-05-18T07:33:22Z</time>
    </trkpt>
    <trkpt lat="48.4776" lon="2.653445">
      <ele>93.0</ele>
      <time>2014-05-18T07:33:24Z</time>
    </trkpt>
    <trkpt lat="48.477485" lon="2.653536">
      <ele>92.7</ele>
      <time>2014-05-18T07:33:27Z</time>
    </trkpt>
    <trkpt lat="48.477383" lon="2.653613">
      <ele>92.2</ele>
      <time>2014-05-18T07:33:29Z</time>
    </trkpt>
    <trkpt lat="48.477272" lon="2.653628">
      <ele>91.8</ele>
      <time>2014-05-18T07:33:31Z</time>
    </trkpt>
    <trkpt lat="48.477189" lon="2.653689">
      <ele>91.6</ele>
      <time>2014-05-18T07:33:33Z</time>
    </trkpt>
    <trkpt lat="48.477064" lon="2.65375">
      <ele>91.2</ele>
      <time>2014-05-18T07:33:36Z</time>
    </trkpt>
    <trkpt lat="48.476986" lon="2.653821">
      <ele>91.0</ele>
      <time>2014-05-18T07:33:38Z</time>
    </trkpt>
    <trkpt lat="48.476898" lon="2.653914">
      <ele>90.9</ele>
      <time>2014-05-18T07:33:40Z</time>
    </trkpt>
    <trkpt lat="48.476811" lon="2.653982">
      <ele>90.8</ele>
      <time>2014-05-18T07:33:42Z</time>
    </trkpt>
    <trkpt lat="48.476688" lon="2.654069">
      <ele>90.8</ele>
      <time>2014-05-18T07:33:45Z</time>
    </trkpt>
    <trkpt lat="48.476601" lon="2.654144">
      <ele>90.8</ele>
      <time>2014-05-18T07:33:47Z</time>
    </trkpt>
    <trkpt lat="48.476485" lon="2.654252">
      <ele>90.7</ele>
      <time>2014-05-18T07:33:50Z</time>
    </trkpt>
    <trkpt lat="48.476402" lon="2.654313">
      <ele>90.6</ele>
      <time>2014-05-18T07:33:52Z</time>
    </trkpt>
    <trkpt lat="48.476284" lon="2.654407">
      <ele>90.5</ele>
      <time>2014-05-18T07:33:55Z</time>
    </trkpt>
    <trkpt lat="48.47619" lon="2.65451">
      <ele>90.5</ele>
      <time>2014-05-18T07:33:58Z</time>
    </trkpt>
    <trkpt lat="48.476108" lon="2.654576">
      <ele>90.5</ele>
      <time>2014-05-18T07:34:00Z</time>
    </trkpt>
    <trkpt lat="48.476029" lon="2.654665">
      <ele>90.5</ele>
      <time>2014-05-18T07:34:02Z</time>
    </trkpt>
    <trkpt lat="48.475939" lon="2.65471">
      <ele>90.5</ele>
      <time>2014-05-18T07:34:04Z</time>
    </trkpt>
    <trkpt lat="48.475851" lon="2.654763">
      <ele>90.5</ele>
      <time>2014-05-18T07:34:07Z</time>
    </trkpt>
    <trkpt lat="48.475754" lon="2.654833">
      <ele>90.4</ele>
      <time>2014-05-18T07:34:10Z</time>
    </trkpt>
    <trkpt lat="48.475669" lon="2.654908">
      <ele>90.4</ele>
      <time>2014-05-18T07:34:12Z</time>
    </trkpt>
    <trkpt lat="48.475589" lon="2.654985">
      <ele>90.4</ele>
      <time>2014-05-18T07:34:14Z</time>
    </trkpt>
    <trkpt lat="48.475476" lon="2.655061">
      <ele>90.2</ele>
      <time>2014-05-18T07:34:16Z</time>
    </trkpt>
    <trkpt lat="48.475292" lon="2.65522">
      <ele>90.1</ele>
      <time>2014-05-18T07:34:20Z</time>
    </trkpt>
    <trkpt lat="48.475193" lon="2.655346">
      <ele>90.2</ele>
      <time>2014-05-18T07:34:22Z</time>
    </trkpt>
    <trkpt lat="48.475105" lon="2.655447">
      <ele>90.3</ele>
      <time>2014-05-18T07:34:24Z</time>
    </trkpt>
    <trkpt lat="48.475017" lon="2.655503">
      <ele>90.2</ele>
      <time>2014-05-18T07:34:26Z</time>
    </trkpt>
    <trkpt lat="48.474907" lon="2.655607">
      <ele>90.3</ele>
      <time>2014-05-18T07:34:29Z</time>
    </trkpt>
    <trkpt lat="48.474813" lon="2.655671">
      <ele>90.3</ele>
      <time>2014-05-18T07:34:31Z</time>
    </trkpt>
    <trkpt lat="48.474727" lon="2.655752">
      <ele>90.4</ele>
      <time>2014-05-18T07:34:33Z</time>
    </trkpt>
    <trkpt lat="48.474623" lon="2.655853">
      <ele>90.5</ele>
      <time>2014-05-18T07:34:36Z</time>
    </trkpt>
    <trkpt lat="48.47453" lon="2.65595">
      <ele>90.4</ele>
      <time>2014-05-18T07:34:38Z</time>
    </trkpt>
    <trkpt lat="48.474433" lon="2.65604">
      <ele>90.2</ele>
      <time>2014-05-18T07:34:40Z</time>
    </trkpt>
    <trkpt lat="48.47435" lon="2.656119">
      <ele>90.0</ele>
      <time>2014-05-18T07:34:42Z</time>
    </trkpt>
    <trkpt lat="48.474245" lon="2.656203">
      <ele>89.7</ele>
      <time>2014-05-18T07:34:45Z</time>
    </trkpt>
    <trkpt lat="48.474164" lon="2.656269">
      <ele>89.5</ele>
      <time>2014-05-18T07:34:47Z</time>
    </trkpt>
    <trkpt lat="48.474081" lon="2.656365">
      <ele>88.8</ele>
      <time>2014-05-18T07:34:49Z</time>
    </trkpt>
    <trkpt lat="48.473983" lon="2.656442">
      <ele>88.0</ele>
      <time>2014-05-18T07:34:51Z</time>
    </trkpt>
    <trkpt lat="48.47388" lon="2.656523">
      <ele>87.3</ele>
      <time>2014-05-18T07:34:53Z</time>
    </trkpt>
    <trkpt lat="48.473788" lon="2.656617">
      <ele>86.7</ele>
      <time>2014-05-18T07:34:55Z</time>
    </trkpt>
    <trkpt lat="48.473702" lon="2.656683">
      <ele>86.2</ele>
      <time>2014-05-18T07:34:57Z</time>
    </trkpt>
    <trkpt lat="48.473612" lon="2.656735">
      <ele>85.7</ele>
      <time>2014-05-18T07:34:59Z</time>
    </trkpt>
    <trkpt lat="48.473496" lon="2.656805">
      <ele>85.0</ele>
      <time>2014-05-18T07:35:02Z</time>
    </trkpt>
    <trkpt lat="48.473381" lon="2.656883">
      <ele>84.5</ele>
      <time>2014-05-18T07:35:05Z</time>
    </trkpt>
    <trkpt lat="48.47325" lon="2.656964">
      <ele>84.2</ele>
      <time>2014-05-18T07:35:08Z</time>
    </trkpt>
    <trkpt lat="48.473166" lon="2.657038">
      <ele>84.0</ele>
      <time>2014-05-18T07:35:10Z</time>
    </trkpt>
    <trkpt lat="48.473055" lon="2.65716">
      <ele>83.9</ele>
      <time>2014-05-18T07:35:13Z</time>
    </trkpt>
    <trkpt lat="48.472963" lon="2.657221">
      <ele>83.8</ele>
      <time>2014-05-18T07:35:15Z</time>
    </trkpt>
    <trkpt lat="48.472869" lon="2.657294">
      <ele>83.6</ele>
      <time>2014-05-18T07:35:17Z</time>
    </trkpt>
    <trkpt lat="48.472678" lon="2.657447">
      <ele>83.4</ele>
      <time>2014-05-18T07:35:21Z</time>
    </trkpt>
    <trkpt lat="48.472588" lon="2.657524">
      <ele>83.2</ele>
      <time>2014-05-18T07:35:23Z</time>
    </trkpt>
    <trkpt lat="48.472512" lon="2.657597">
      <ele>83.1</ele>
      <time>2014-05-18T07:35:25Z</time>
    </trkpt>
    <trkpt lat="48.472411" lon="2.65768">
      <ele>83.1</ele>
      <time>2014-05-18T07:35:27Z</time>
    </trkpt>
    <trkpt lat="48.472318" lon="2.657758">
      <ele>83.0</ele>
      <time>2014-05-18T07:35:29Z</time>
    </trkpt>
    <trkpt lat="48.472204" lon="2.657849">
      <ele>82.9</ele>
      <time>2014-05-18T07:35:31Z</time>
    </trkpt>
    <trkpt lat="48.472124" lon="2.657923">
      <ele>82.8</ele>
      <time>2014-05-18T07:35:33Z</time>
    </trkpt>
    <trkpt lat="48.472022" lon="2.658038">
      <ele>82.7</ele>
      <time>2014-05-18T07:35:36Z</time>
    </trkpt>
    <trkpt lat="48.471905" lon="2.658152">
      <ele>82.5</ele>
      <time>2014-05-18T07:35:38Z</time>
    </trkpt>
    <trkpt lat="48.471822" lon="2.658209">
      <ele>82.3</ele>
      <time>2014-05-18T07:35:40Z</time>
    </trkpt>
    <trkpt lat="48.471736" lon="2.658291">
      <ele>82.2</ele>
      <time>2014-05-18T07:35:42Z</time>
    </trkpt>
    <trkpt lat="48.471618" lon="2.658381">
      <ele>82.2</ele>
      <time>2014-05-18T07:35:45Z</time>
    </trkpt>
    <trkpt lat="48.471522" lon="2.65847">
      <ele>82.7</ele>
      <time>2014-05-18T07:35:48Z</time>
    </trkpt>
    <trkpt lat="48.471419" lon="2.658485">
      <ele>83.1</ele>
      <time>2014-05-18T07:35:53Z</time>
    </trkpt>
    <trkpt lat="48.471294" lon="2.658567">
      <ele>83.9</ele>
      <time>2014-05-18T07:35:56Z</time>
    </trkpt>
    <trkpt lat="48.471188" lon="2.658609">
      <ele>84.6</ele>
      <time>2014-05-18T07:35:58Z</time>
    </trkpt>
    <trkpt lat="48.471051" lon="2.658653">
      <ele>85.6</ele>
      <time>2014-05-18T07:36:00Z</time>
    </trkpt>
    <trkpt lat="48.470937" lon="2.658671">
      <ele>86.3</ele>
      <time>2014-05-18T07:36:02Z</time>
    </trkpt>
    <trkpt lat="48.470795" lon="2.658672">
      <ele>87.0</ele>
      <time>2014-05-18T07:36:05Z</time>
    </trkpt>
    <trkpt lat="48.470691" lon="2.658682">
      <ele>87.5</ele>
      <time>2014-05-18T07:36:07Z</time>
    </trkpt>
    <trkpt lat="48.4706" lon="2.658665">
      <ele>87.7</ele>
      <time>2014-05-18T07:36:09Z</time>
    </trkpt>
    <trkpt lat="48.470504" lon="2.658671">
      <ele>88.2</ele>
      <time>2014-05-18T07:36:11Z</time>
    </trkpt>
    <trkpt lat="48.470399" lon="2.658658">
      <ele>88.5</ele>
      <time>2014-05-18T07:36:14Z</time>
    </trkpt>
    <trkpt lat="48.470296" lon="2.658646">
      <ele>88.9</ele>
      <time>2014-05-18T07:36:17Z</time>
    </trkpt>
    <trkpt lat="48.470186" lon="2.658656">
      <ele>89.4</ele>
      <time>2014-05-18T07:36:20Z</time>
    </trkpt>
    <trkpt lat="48.46993" lon="2.658653">
      <ele>90.4</ele>
      <time>2014-05-18T07:36:26Z</time>
    </trkpt>
    <trkpt lat="48.4698" lon="2.65862">
      <ele>90.8</ele>
      <time>2014-05-18T07:36:29Z</time>
    </trkpt>
    <trkpt lat="48.469662" lon="2.658596">
      <ele>91.3</ele>
      <time>2014-05-18T07:36:32Z</time>
    </trkpt>
    <trkpt lat="48.469562" lon="2.658589">
      <ele>91.7</ele>
      <time>2014-05-18T07:36:34Z</time>
    </trkpt>
    <trkpt lat="48.469461" lon="2.658602">
      <ele>92.1</ele>
      <time>2014-05-18T07:36:36Z</time>
    </trkpt>
    <trkpt lat="48.469351" lon="2.658597">
      <ele>92.6</ele>
      <time>2014-05-18T07:36:38Z</time>
    </trkpt>
    <trkpt lat="48.469247" lon="2.658602">
      <ele>93.0</ele>
      <time>2014-05-18T07:36:40Z</time>
    </trkpt>
    <trkpt lat="48.469156" lon="2.658596">
      <ele>93.3</ele>
      <time>2014-05-18T07:36:42Z</time>
    </trkpt>
    <trkpt lat="48.46905" lon="2.658589">
      <ele>93.4</ele>
      <time>2014-05-18T07:36:45Z</time>
    </trkpt>
    <trkpt lat="48.468945" lon="2.658588">
      <ele>93.6</ele>
      <time>2014-05-18T07:36:48Z</time>
    </trkpt>
    <trkpt lat="48.468836" lon="2.658568">
      <ele>93.7</ele>
      <time>2014-05-18T07:36:51Z</time>
    </trkpt>
    <trkpt lat="48.468727" lon="2.658591">
      <ele>93.8</ele>
      <time>2014-05-18T07:36:54Z</time>
    </trkpt>
    <trkpt lat="48.468598" lon="2.658583">
      <ele>94.0</ele>
      <time>2014-05-18T07:36:57Z</time>
    </trkpt>
    <trkpt lat="48.468477" lon="2.658554">
      <ele>94.1</ele>
      <time>2014-05-18T07:37:00Z</time>
    </trkpt>
    <trkpt lat="48.468384" lon="2.658529">
      <ele>94.2</ele>
      <time>2014-05-18T07:37:03Z</time>
    </trkpt>
    <trkpt lat="48.468279" lon="2.658535">
      <ele>94.4</ele>
      <time>2014-05-18T07:37:07Z</time>
    </trkpt>
    <trkpt lat="48.468169" lon="2.658511">
      <ele>94.6</ele>
      <time>2014-05-18T07:37:11Z</time>
    </trkpt>
    <trkpt lat="48.468075" lon="2.658499">
      <ele>94.8</ele>
      <time>2014-05-18T07:37:14Z</time>
    </trkpt>
    <trkpt lat="48.467955" lon="2.658492">
      <ele>95.0</ele>
      <time>2014-05-18T07:37:17Z</time>
    </trkpt>
    <trkpt lat="48.467864" lon="2.658484">
      <ele>95.2</ele>
      <time>2014-05-18T07:37:19Z</time>
    </trkpt>
    <trkpt lat="48.467726" lon="2.658444">
      <ele>95.5</ele>
      <time>2014-05-18T07:37:23Z</time>
    </trkpt>
    <trkpt lat="48.467482" lon="2.658396">
      <ele>96.0</ele>
      <time>2014-05-18T07:37:28Z</time>
    </trkpt>
    <trkpt lat="48.467391" lon="2.658407">
      <ele>96.3</ele>
      <time>2014-05-18T07:37:30Z</time>
    </trkpt>
    <trkpt lat="48.467281" lon="2.65835">
      <ele>96.5</ele>
      <time>2014-05-18T07:37:33Z</time>
    </trkpt>
    <trkpt lat="48.467163" lon="2.658355">
      <ele>96.8</ele>
      <time>2014-05-18T07:37:36Z</time>
    </trkpt>
    <trkpt lat="48.467071" lon="2.658336">
      <ele>97.0</ele>
      <time>2014-05-18T07:37:38Z</time>
    </trkpt>
    <trkpt lat="48.466948" lon="2.658356">
      <ele>97.3</ele>
      <time>2014-05-18T07:37:41Z</time>
    </trkpt>
    <trkpt lat="48.466837" lon="2.658359">
      <ele>97.6</ele>
      <time>2014-05-18T07:37:44Z</time>
    </trkpt>
    <trkpt lat="48.466733" lon="2.658323">
      <ele>97.8</ele>
      <time>2014-05-18T07:37:46Z</time>
    </trkpt>
    <trkpt lat="48.466634" lon="2.658308">
      <ele>98.0</ele>
      <time>2014-05-18T07:37:48Z</time>
    </trkpt>
    <trkpt lat="48.466541" lon="2.658305">
      <ele>98.0</ele>
      <time>2014-05-18T07:37:50Z</time>
    </trkpt>
    <trkpt lat="48.466407" lon="2.658278">
      <ele>98.0</ele>
      <time>2014-05-18T07:37:53Z</time>
    </trkpt>
    <trkpt lat="48.466316" lon="2.65822">
      <ele>98.1</ele>
      <time>2014-05-18T07:37:56Z</time>
    </trkpt>
    <trkpt lat="48.466197" lon="2.658238">
      <ele>98.1</ele>
      <time>2014-05-18T07:37:59Z</time>
    </trkpt>
    <trkpt lat="48.466091" lon="2.658289">
      <ele>98.1</ele>
      <time>2014-05-18T07:38:02Z</time>
    </trkpt>
    <trkpt lat="48.465995" lon="2.658334">
      <ele>98.0</ele>
      <time>2014-05-18T07:38:06Z</time>
    </trkpt>
    <trkpt lat="48.465897" lon="2.6584">
      <ele>98.0</ele>
      <time>2014-05-18T07:38:09Z</time>
    </trkpt>
    <trkpt lat="48.465792" lon="2.658403">
      <ele>98.1</ele>
      <time>2014-05-18T07:38:12Z</time>
    </trkpt>
    <trkpt lat="48.465723" lon="2.658314">
      <ele>98.3</ele>
      <time>2014-05-18T07:38:14Z</time>
    </trkpt>
    <trkpt lat="48.465622" lon="2.658269">
      <ele>98.7</ele>
      <time>2014-05-18T07:38:16Z</time>
    </trkpt>
    <trkpt lat="48.465503" lon="2.658295">
      <ele>98.9</ele>
      <time>2014-05-18T07:38:19Z</time>
    </trkpt>
    <trkpt lat="48.465387" lon="2.65832">
      <ele>99.1</ele>
      <time>2014-05-18T07:38:22Z</time>
    </trkpt>
    <trkpt lat="48.465279" lon="2.658333">
      <ele>99.3</ele>
      <time>2014-05-18T07:38:24Z</time>
    </trkpt>
    <trkpt lat="48.465072" lon="2.658395">
      <ele>99.8</ele>
      <time>2014-05-18T07:38:29Z</time>
    </trkpt>
    <trkpt lat="48.464962" lon="2.658372">
      <ele>100.0</ele>
      <time>2014-05-18T07:38:33Z</time>
    </trkpt>
    <trkpt lat="48.464838" lon="2.658358">
      <ele>100.2</ele>
      <time>2014-05-18T07:38:37Z</time>
    </trkpt>
    <trkpt lat="48.464724" lon="2.658361">
      <ele>100.3</ele>
      <time>2014-05-18T07:38:41Z</time>
    </trkpt>
    <trkpt lat="48.464625" lon="2.658375">
      <ele>100.4</ele>
      <time>2014-05-18T07:38:44Z</time>
    </trkpt>
    <trkpt lat="48.464525" lon="2.65843">
      <ele>100.5</ele>
      <time>2014-05-18T07:38:47Z</time>
    </trkpt>
    <trkpt lat="48.464437" lon="2.658527">
      <ele>100.6</ele>
      <time>2014-05-18T07:38:50Z</time>
    </trkpt>
    <trkpt lat="48.464336" lon="2.658651">
      <ele>100.7</ele>
      <time>2014-05-18T07:38:53Z</time>
    </trkpt>
    <trkpt lat="48.464216" lon="2.658753">
      <ele>100.9</ele>
      <time>2014-05-18T07:38:56Z</time>
    </trkpt>
    <trkpt lat="48.464111" lon="2.658827">
      <ele>101.0</ele>
      <time>2014-05-18T07:38:59Z</time>
    </trkpt>
    <trkpt lat="48.464001" lon="2.658906">
      <ele>101.1</ele>
      <time>2014-05-18T07:39:02Z</time>
    </trkpt>
    <trkpt lat="48.463923" lon="2.658983">
      <ele>101.2</ele>
      <time>2014-05-18T07:39:04Z</time>
    </trkpt>
    <trkpt lat="48.463836" lon="2.659045">
      <ele>101.3</ele>
      <time>2014-05-18T07:39:06Z</time>
    </trkpt>
    <trkpt lat="48.463757" lon="2.659119">
      <ele>101.5</ele>
      <time>2014-05-18T07:39:08Z</time>
    </trkpt>
    <trkpt lat="48.463642" lon="2.659227">
      <ele>101.6</ele>
      <time>2014-05-18T07:39:11Z</time>
    </trkpt>
    <trkpt lat="48.463548" lon="2.659305">
      <ele>101.7</ele>
      <time>2014-05-18T07:39:14Z</time>
    </trkpt>
    <trkpt lat="48.463464" lon="2.659384">
      <ele>101.8</ele>
      <time>2014-05-18T07:39:17Z</time>
    </trkpt>
    <trkpt lat="48.463373" lon="2.659441">
      <ele>101.9</ele>
      <time>2014-05-18T07:39:19Z</time>
    </trkpt>
    <trkpt lat="48.463294" lon="2.659509">
      <ele>101.9</ele>
      <time>2014-05-18T07:39:21Z</time>
    </trkpt>
    <trkpt lat="48.463174" lon="2.659595">
      <ele>101.5</ele>
      <time>2014-05-18T07:39:24Z</time>
    </trkpt>
    <trkpt lat="48.463" lon="2.659742">
      <ele>101.1</ele>
      <time>2014-05-18T07:39:30Z</time>
    </trkpt>
    <trkpt lat="48.462919" lon="2.659818">
      <ele>100.9</ele>
      <time>2014-05-18T07:39:33Z</time>
    </trkpt>
    <trkpt lat="48.462845" lon="2.659898">
      <ele>100.8</ele>
      <time>2014-05-18T07:39:36Z</time>
    </trkpt>
    <trkpt lat="48.462742" lon="2.659979">
      <ele>100.6</ele>
      <time>2014-05-18T07:39:39Z</time>
    </trkpt>
    <trkpt lat="48.462629" lon="2.660051">
      <ele>100.2</ele>
      <time>2014-05-18T07:39:42Z</time>
    </trkpt>
    <trkpt lat="48.462538" lon="2.660127">
      <ele>99.9</ele>
      <time>2014-05-18T07:39:46Z</time>
    </trkpt>
    <trkpt lat="48.462449" lon="2.66019">
      <ele>99.8</ele>
      <time>2014-05-18T07:39:49Z</time>
    </trkpt>
    <trkpt lat="48.46236" lon="2.660251">
      <ele>99.9</ele>
      <time>2014-05-18T07:39:52Z</time>
    </trkpt>
    <trkpt lat="48.462261" lon="2.660222">
      <ele>100.1</ele>
      <time>2014-05-18T07:39:56Z</time>
    </trkpt>
    <trkpt lat="48.462177" lon="2.660273">
      <ele>100.2</ele>
      <time>2014-05-18T07:39:58Z</time>
    </trkpt>
    <trkpt lat="48.462083" lon="2.660345">
      <ele>100.3</ele>
      <time>2014-05-18T07:40:01Z</time>
    </trkpt>
    <trkpt lat="48.461972" lon="2.660362">
      <ele>100.5</ele>
      <time>2014-05-18T07:40:04Z</time>
    </trkpt>
    <trkpt lat="48.461873" lon="2.6604">
      <ele>100.6</ele>
      <time>2014-05-18T07:40:10Z</time>
    </trkpt>
    <trkpt lat="48.461783" lon="2.660424">
      <ele>100.8</ele>
      <time>2014-05-18T07:40:15Z</time>
    </trkpt>
    <trkpt lat="48.461666" lon="2.660448">
      <ele>101.0</ele>
      <time>2014-05-18T07:40:20Z</time>
    </trkpt>
    <trkpt lat="48.461582" lon="2.660393">
      <ele>101.6</ele>
      <time>2014-05-18T07:40:24Z</time>
    </trkpt>
    <trkpt lat="48.461485" lon="2.660362">
      <ele>102.2</ele>
      <time>2014-05-18T07:40:29Z</time>
    </trkpt>
    <trkpt lat="48.459607" lon="2.66179">
      <ele>101.5</ele>
      <time>2014-05-18T07:44:52Z</time>
    </trkpt>
    <trkpt lat="48.459608" lon="2.661928">
      <ele>101.5</ele>
      <time>2014-05-18T07:44:54Z</time>
    </trkpt>
    <trkpt lat="48.45962" lon="2.662129">
      <ele>101.6</ele>
      <time>2014-05-18T07:44:57Z</time>
    </trkpt>
    <trkpt lat="48.459627" lon="2.662272">
      <ele>101.6</ele>
      <time>2014-05-18T07:44:59Z</time>
    </trkpt>
    <trkpt lat="48.459657" lon="2.662423">
      <ele>101.7</ele>
      <time>2014-05-18T07:45:01Z</time>
    </trkpt>
    <trkpt lat="48.459639" lon="2.662624">
      <ele>101.7</ele>
      <time>2014-05-18T07:45:04Z</time>
    </trkpt>
    <trkpt lat="48.459579" lon="2.662799">
      <ele>101.7</ele>
      <time>2014-05-18T07:45:07Z</time>
    </trkpt>
    <trkpt lat="48.459531" lon="2.662943">
      <ele>101.7</ele>
      <time>2014-05-18T07:45:09Z</time>
    </trkpt>
    <trkpt lat="48.459466" lon="2.663077">
      <ele>101.7</ele>
      <time>2014-05-18T07:45:11Z</time>
    </trkpt>
    <trkpt lat="48.459408" lon="2.663252">
      <ele>101.9</ele>
      <time>2014-05-18T07:45:14Z</time>
    </trkpt>
    <trkpt lat="48.459347" lon="2.663431">
      <ele>102.1</ele>
      <time>2014-05-18T07:45:17Z</time>
    </trkpt>
    <trkpt lat="48.459285" lon="2.663587">
      <ele>102.2</ele>
      <time>2014-05-18T07:45:19Z</time>
    </trkpt>
    <trkpt lat="48.459249" lon="2.663721">
      <ele>102.4</ele>
      <time>2014-05-18T07:45:21Z</time>
    </trkpt>
    <trkpt lat="48.459196" lon="2.663877">
      <ele>102.6</ele>
      <time>2014-05-18T07:45:24Z</time>
    </trkpt>
    <trkpt lat="48.459138" lon="2.664031">
      <ele>103.0</ele>
      <time>2014-05-18T07:45:27Z</time>
    </trkpt>
    <trkpt lat="48.459077" lon="2.664211">
      <ele>103.6</ele>
      <time>2014-05-18T07:45:30Z</time>
    </trkpt>
    <trkpt lat="48.459023" lon="2.664491">
      <ele>104.3</ele>
      <time>2014-05-18T07:45:34Z</time>
    </trkpt>
    <trkpt lat="48.458954" lon="2.664656">
      <ele>104.9</ele>
      <time>2014-05-18T07:45:37Z</time>
    </trkpt>
    <trkpt lat="48.458904" lon="2.664809">
      <ele>105.3</ele>
      <time>2014-05-18T07:45:40Z</time>
    </trkpt>
    <trkpt lat="48.458838" lon="2.664967">
      <ele>105.9</ele>
      <time>2014-05-18T07:45:43Z</time>
    </trkpt>
    <trkpt lat="48.458764" lon="2.665061">
      <ele>106.6</ele>
      <time>2014-05-18T07:45:45Z</time>
    </trkpt>
    <trkpt lat="48.458702" lon="2.665212">
      <ele>107.4</ele>
      <time>2014-05-18T07:45:48Z</time>
    </trkpt>
    <trkpt lat="48.458667" lon="2.665342">
      <ele>108.1</ele>
      <time>2014-05-18T07:45:51Z</time>
    </trkpt>
    <trkpt lat="48.458645" lon="2.665491">
      <ele>108.7</ele>
      <time>2014-05-18T07:45:53Z</time>
    </trkpt>
    <trkpt lat="48.45861" lon="2.665637">
      <ele>109.4</ele>
      <time>2014-05-18T07:45:56Z</time>
    </trkpt>
    <trkpt lat="48.458572" lon="2.665774">
      <ele>110.1</ele>
      <time>2014-05-18T07:45:59Z</time>
    </trkpt>
    <trkpt lat="48.458534" lon="2.665901">
      <ele>110.5</ele>
      <time>2014-05-18T07:46:02Z</time>
    </trkpt>
    <trkpt lat="48.458508" lon="2.666041">
      <ele>110.6</ele>
      <time>2014-05-18T07:46:04Z</time>
    </trkpt>
    <trkpt lat="48.458453" lon="2.666174">
      <ele>110.8</ele>
      <time>2014-05-18T07:46:07Z</time>
    </trkpt>
    <trkpt lat="48.458402" lon="2.666317">
      <ele>111.0</ele>
      <time>2014-05-18T07:46:10Z</time>
    </trkpt>
    <trkpt lat="48.458356" lon="2.666473">
      <ele>111.1</ele>
      <time>2014-05-18T07:46:14Z</time>
    </trkpt>
    <trkpt lat="48.458283" lon="2.666636">
      <ele>111.9</ele>
      <time>2014-05-18T07:46:17Z</time>
    </trkpt>
    <trkpt lat="48.458237" lon="2.666784">
      <ele>112.7</ele>
      <time>2014-05-18T07:46:20Z</time>
    </trkpt>
    <trkpt lat="48.458179" lon="2.666907">
      <ele>113.6</ele>
      <time>2014-05-18T07:46:23Z</time>
    </trkpt>
    <trkpt lat="48.458153" lon="2.66704">
      <ele>113.9</ele>
      <time>2014-05-18T07:46:26Z</time>
    </trkpt>
    <trkpt lat="48.458108" lon="2.667173">
      <ele>114.4</ele>
      <time>2014-05-18T07:46:30Z</time>
    </trkpt>
    <trkpt lat="48.458075" lon="2.667306">
      <ele>114.7</ele>
      <time>2014-05-18T07:46:33Z</time>
    </trkpt>
    <trkpt lat="48.458009" lon="2.667658">
      <ele>114.7</ele>
      <time>2014-05-18T07:46:39Z</time>
    </trkpt>
    <trkpt lat="48.457953" lon="2.667815">
      <ele>114.8</ele>
      <time>2014-05-18T07:46:42Z</time>
    </trkpt>
    <trkpt lat="48.457913" lon="2.667973">
      <ele>114.5</ele>
      <time>2014-05-18T07:46:44Z</time>
    </trkpt>
    <trkpt lat="48.457848" lon="2.668125">
      <ele>114.5</ele>
      <time>2014-05-18T07:46:46Z</time>
    </trkpt>
    <trkpt lat="48.457764" lon="2.668329">
      <ele>114.1</ele>
      <time>2014-05-18T07:46:48Z</time>
    </trkpt>
    <trkpt lat="48.457676" lon="2.668541">
      <ele>113.9</ele>
      <time>2014-05-18T07:46:50Z</time>
    </trkpt>
    <trkpt lat="48.457626" lon="2.668709">
      <ele>113.5</ele>
      <time>2014-05-18T07:46:52Z</time>
    </trkpt>
    <trkpt lat="48.457595" lon="2.668837">
      <ele>113.1</ele>
      <time>2014-05-18T07:46:54Z</time>
    </trkpt>
    <trkpt lat="48.457552" lon="2.668959">
      <ele>112.8</ele>
      <time>2014-05-18T07:46:56Z</time>
    </trkpt>
    <trkpt lat="48.457497" lon="2.669134">
      <ele>112.2</ele>
      <time>2014-05-18T07:46:59Z</time>
    </trkpt>
    <trkpt lat="48.45746" lon="2.669272">
      <ele>111.3</ele>
      <time>2014-05-18T07:47:01Z</time>
    </trkpt>
    <trkpt lat="48.457425" lon="2.669453">
      <ele>110.2</ele>
      <time>2014-05-18T07:47:03Z</time>
    </trkpt>
    <trkpt lat="48.45736" lon="2.669606">
      <ele>109.3</ele>
      <time>2014-05-18T07:47:05Z</time>
    </trkpt>
    <trkpt lat="48.457275" lon="2.669698">
      <ele>108.7</ele>
      <time>2014-05-18T07:47:07Z</time>
    </trkpt>
    <trkpt lat="48.457186" lon="2.669713">
      <ele>108.6</ele>
      <time>2014-05-18T07:47:12Z</time>
    </trkpt>
    <trkpt lat="48.45709" lon="2.66974">
      <ele>108.4</ele>
      <time>2014-05-18T07:47:15Z</time>
    </trkpt>
    <trkpt lat="48.457005" lon="2.6696">
      <ele>109.1</ele>
      <time>2014-05-18T07:47:19Z</time>
    </trkpt>
    <trkpt lat="48.456928" lon="2.669475">
      <ele>109.7</ele>
      <time>2014-05-18T07:47:23Z</time>
    </trkpt>
    <trkpt lat="48.456859" lon="2.669353">
      <ele>110.3</ele>
      <time>2014-05-18T07:47:26Z</time>
    </trkpt>
    <trkpt lat="48.456778" lon="2.66921">
      <ele>110.9</ele>
      <time>2014-05-18T07:47:29Z</time>
    </trkpt>
    <trkpt lat="48.456722" lon="2.669053">
      <ele>111.6</ele>
      <time>2014-05-18T07:47:32Z</time>
    </trkpt>
    <trkpt lat="48.456677" lon="2.66889">
      <ele>112.3</ele>
      <time>2014-05-18T07:47:35Z</time>
    </trkpt>
    <trkpt lat="48.456587" lon="2.668607">
      <ele>114.2</ele>
      <time>2014-05-18T07:47:41Z</time>
    </trkpt>
    <trkpt lat="48.456551" lon="2.668472">
      <ele>115.1</ele>
      <time>2014-05-18T07:47:44Z</time>
    </trkpt>
    <trkpt lat="48.456509" lon="2.668318">
      <ele>116.1</ele>
      <time>2014-05-18T07:47:47Z</time>
    </trkpt>
    <trkpt lat="48.456453" lon="2.668194">
      <ele>117.3</ele>
      <time>2014-05-18T07:47:50Z</time>
    </trkpt>
    <trkpt lat="48.456402" lon="2.66807">
      <ele>118.4</ele>
      <time>2014-05-18T07:47:53Z</time>
    </trkpt>
    <trkpt lat="48.456349" lon="2.667936">
      <ele>119.5</ele>
      <time>2014-05-18T07:47:56Z</time>
    </trkpt>
    <trkpt lat="48.4563" lon="2.667815">
      <ele>120.5</ele>
      <time>2014-05-18T07:48:00Z</time>
    </trkpt>
    <trkpt lat="48.456256" lon="2.667694">
      <ele>121.3</ele>
      <time>2014-05-18T07:48:03Z</time>
    </trkpt>
    <trkpt lat="48.456205" lon="2.667579">
      <ele>122.1</ele>
      <time>2014-05-18T07:48:06Z</time>
    </trkpt>
    <trkpt lat="48.456156" lon="2.667454">
      <ele>123.0</ele>
      <time>2014-05-18T07:48:10Z</time>
    </trkpt>
    <trkpt lat="48.456084" lon="2.6673">
      <ele>124.1</ele>
      <time>2014-05-18T07:48:14Z</time>
    </trkpt>
    <trkpt lat="48.456028" lon="2.667185">
      <ele>124.9</ele>
      <time>2014-05-18T07:48:18Z</time>
    </trkpt>
    <trkpt lat="48.45596" lon="2.667065">
      <ele>125.7</ele>
      <time>2014-05-18T07:48:22Z</time>
    </trkpt>
    <trkpt lat="48.455897" lon="2.666932">
      <ele>126.5</ele>
      <time>2014-05-18T07:48:26Z</time>
    </trkpt>
    <trkpt lat="48.455827" lon="2.666834">
      <ele>127.0</ele>
      <time>2014-05-18T07:48:30Z</time>
    </trkpt>
    <trkpt lat="48.455744" lon="2.666743">
      <ele>127.8</ele>
      <time>2014-05-18T07:48:34Z</time>
    </trkpt>
    <trkpt lat="48.455635" lon="2.666666">
      <ele>128.5</ele>
      <time>2014-05-18T07:48:37Z</time>
    </trkpt>
    <trkpt lat="48.455447" lon="2.666556">
      <ele>129.4</ele>
      <time>2014-05-18T07:48:43Z</time>
    </trkpt>
    <trkpt lat="48.455353" lon="2.666511">
      <ele>129.8</ele>
      <time>2014-05-18T07:48:46Z</time>
    </trkpt>
    <trkpt lat="48.45525" lon="2.666442">
      <ele>130.2</ele>
      <time>2014-05-18T07:48:50Z</time>
    </trkpt>
    <trkpt lat="48.455156" lon="2.666347">
      <ele>130.6</ele>
      <time>2014-05-18T07:48:54Z</time>
    </trkpt>
    <trkpt lat="48.455098" lon="2.666223">
      <ele>131.0</ele>
      <time>2014-05-18T07:48:58Z</time>
    </trkpt>
    <trkpt lat="48.455063" lon="2.666088">
      <ele>131.4</ele>
      <time>2014-05-18T07:49:02Z</time>
    </trkpt>
    <trkpt lat="48.455052" lon="2.665926">
      <ele>131.8</ele>
      <time>2014-05-18T07:49:06Z</time>
    </trkpt>
    <trkpt lat="48.455035" lon="2.665766">
      <ele>132.2</ele>
      <time>2014-05-18T07:49:11Z</time>
    </trkpt>
    <trkpt lat="48.455014" lon="2.665627">
      <ele>132.5</ele>
      <time>2014-05-18T07:49:16Z</time>
    </trkpt>
    <trkpt lat="48.454967" lon="2.665495">
      <ele>132.9</ele>
      <time>2014-05-18T07:49:20Z</time>
    </trkpt>
    <trkpt lat="48.454888" lon="2.665378">
      <ele>133.2</ele>
      <time>2014-05-18T07:49:24Z</time>
    </trkpt>
    <trkpt lat="48.454838" lon="2.665254">
      <ele>133.5</ele>
      <time>2014-05-18T07:49:27Z</time>
    </trkpt>
    <trkpt lat="48.454769" lon="2.665126">
      <ele>133.8</ele>
      <time>2014-05-18T07:49:31Z</time>
    </trkpt>
    <trkpt lat="48.454708" lon="2.664967">
      <ele>134.1</ele>
      <time>2014-05-18T07:49:35Z</time>
    </trkpt>
    <trkpt lat="48.454654" lon="2.664834">
      <ele>134.2</ele>
      <time>2014-05-18T07:49:39Z</time>
    </trkpt>
    <trkpt lat="48.45453" lon="2.664578">
      <ele>134.4</ele>
      <time>2014-05-18T07:49:47Z</time>
    </trkpt>
    <trkpt lat="48.454482" lon="2.664458">
      <ele>134.5</ele>
      <time>2014-05-18T07:49:50Z</time>
    </trkpt>
    <trkpt lat="48.454418" lon="2.664332">
      <ele>134.5</ele>
      <time>2014-05-18T07:49:54Z</time>
    </trkpt>
    <trkpt lat="48.454352" lon="2.664186">
      <ele>134.4</ele>
      <time>2014-05-18T07:49:58Z</time>
    </trkpt>
    <trkpt lat="48.454301" lon="2.664052">
      <ele>134.7</ele>
      <time>2014-05-18T07:50:03Z</time>
    </trkpt>
    <trkpt lat="48.454285" lon="2.663887">
      <ele>135.3</ele>
      <time>2014-05-18T07:50:08Z</time>
    </trkpt>
    <trkpt lat="48.454252" lon="2.663749">
      <ele>135.7</ele>
      <time>2014-05-18T07:50:12Z</time>
    </trkpt>
    <trkpt lat="48.454249" lon="2.663609">
      <ele>136.2</ele>
      <time>2014-05-18T07:50:18Z</time>
    </trkpt>
    <trkpt lat="48.454197" lon="2.663474">
      <ele>136.6</ele>
      <time>2014-05-18T07:50:23Z</time>
    </trkpt>
    <trkpt lat="48.454173" lon="2.663328">
      <ele>137.0</ele>
      <time>2014-05-18T07:50:28Z</time>
    </trkpt>
    <trkpt lat="48.454142" lon="2.663185">
      <ele>136.8</ele>
      <time>2014-05-18T07:50:33Z</time>
    </trkpt>
    <trkpt lat="48.454112" lon="2.663057">
      <ele>136.6</ele>
      <time>2014-05-18T07:50:37Z</time>
    </trkpt>
    <trkpt lat="48.454071" lon="2.662933">
      <ele>136.4</ele>
      <time>2014-05-18T07:50:42Z</time>
    </trkpt>
    <trkpt lat="48.453983" lon="2.662678">
      <ele>136.1</ele>
      <time>2014-05-18T07:50:54Z</time>
    </trkpt>
    <trkpt lat="48.453913" lon="2.662557">
      <ele>136.0</ele>
      <time>2014-05-18T07:51:00Z</time>
    </trkpt>
    <trkpt lat="48.453833" lon="2.662461">
      <ele>136.0</ele>
      <time>2014-05-18T07:51:08Z</time>
    </trkpt>
    <trkpt lat="48.453751" lon="2.662384">
      <ele>136.1</ele>
      <time>2014-05-18T07:51:15Z</time>
    </trkpt>
    <trkpt lat="48.453675" lon="2.662301">
      <ele>136.2</ele>
      <time>2014-05-18T07:51:21Z</time>
    </trkpt>
    <trkpt lat="48.453699" lon="2.662159">
      <ele>136.4</ele>
      <time>2014-05-18T07:51:27Z</time>
    </trkpt>
    <trkpt lat="48.453779" lon="2.662059">
      <ele>136.5</ele>
      <time>2014-05-18T07:51:31Z</time>
    </trkpt>
    <trkpt lat="48.453859" lon="2.661994">
      <ele>136.6</ele>
      <time>2014-05-18T07:51:34Z</time>
    </trkpt>
    <trkpt lat="48.453953" lon="2.661925">
      <ele>136.7</ele>
      <time>2014-05-18T07:51:37Z</time>
    </trkpt>
    <trkpt lat="48.454036" lon="2.661847">
      <ele>136.8</ele>
      <time>2014-05-18T07:51:40Z</time>
    </trkpt>
    <trkpt lat="48.454117" lon="2.661784">
      <ele>136.9</ele>
      <time>2014-05-18T07:51:43Z</time>
    </trkpt>
    <trkpt lat="48.454295" lon="2.661639">
      <ele>137.1</ele>
      <time>2014-05-18T07:51:49Z</time>
    </trkpt>
    <trkpt lat="48.45439" lon="2.661558">
      <ele>137.2</ele>
      <time>2014-05-18T07:51:52Z</time>
    </trkpt>
    <trkpt lat="48.454493" lon="2.661487">
      <ele>137.2</ele>
      <time>2014-05-18T07:51:55Z</time>
    </trkpt>
    <trkpt lat="48.454602" lon="2.661427">
      <ele>137.2</ele>
      <time>2014-05-18T07:51:58Z</time>
    </trkpt>
    <trkpt lat="48.454684" lon="2.661344">
      <ele>137.1</ele>
      <time>2014-05-18T07:52:01Z</time>
    </trkpt>
    <trkpt lat="48.454782" lon="2.661253">
      <ele>137.0</ele>
      <time>2014-05-18T07:52:04Z</time>
    </trkpt>
    <trkpt lat="48.454876" lon="2.661197">
      <ele>136.9</ele>
      <time>2014-05-18T07:52:06Z</time>
    </trkpt>
    <trkpt lat="48.454993" lon="2.661119">
      <ele>136.7</ele>
      <time>2014-05-18T07:52:09Z</time>
    </trkpt>
    <trkpt lat="48.455082" lon="2.661057">
      <ele>136.3</ele>
      <time>2014-05-18T07:52:11Z</time>
    </trkpt>
    <trkpt lat="48.455186" lon="2.660987">
      <ele>135.7</ele>
      <time>2014-05-18T07:52:13Z</time>
    </trkpt>
    <trkpt lat="48.455273" lon="2.660909">
      <ele>135.2</ele>
      <time>2014-05-18T07:52:15Z</time>
    </trkpt>
    <trkpt lat="48.455359" lon="2.660832">
      <ele>134.7</ele>
      <time>2014-05-18T07:52:17Z</time>
    </trkpt>
    <trkpt lat="48.455457" lon="2.660772">
      <ele>134.4</ele>
      <time>2014-05-18T07:52:19Z</time>
    </trkpt>
    <trkpt lat="48.455574" lon="2.660687">
      <ele>134.1</ele>
      <time>2014-05-18T07:52:22Z</time>
    </trkpt>
    <trkpt lat="48.455688" lon="2.6606">
      <ele>133.8</ele>
      <time>2014-05-18T07:52:25Z</time>
    </trkpt>
    <trkpt lat="48.455784" lon="2.660529">
      <ele>133.5</ele>
      <time>2014-05-18T07:52:27Z</time>
    </trkpt>
    <trkpt lat="48.455866" lon="2.660458">
      <ele>133.3</ele>
      <time>2014-05-18T07:52:29Z</time>
    </trkpt>
    <trkpt lat="48.455963" lon="2.660419">
      <ele>132.8</ele>
      <time>2014-05-18T07:52:31Z</time>
    </trkpt>
    <trkpt lat="48.456084" lon="2.660336">
      <ele>132.3</ele>
      <time>2014-05-18T07:52:34Z</time>
    </trkpt>
    <trkpt lat="48.456185" lon="2.660251">
      <ele>132.1</ele>
      <time>2014-05-18T07:52:36Z</time>
    </trkpt>
    <trkpt lat="48.456248" lon="2.660097">
      <ele>132.2</ele>
      <time>2014-05-18T07:52:39Z</time>
    </trkpt>
    <trkpt lat="48.456293" lon="2.659953">
      <ele>132.4</ele>
      <time>2014-05-18T07:52:41Z</time>
    </trkpt>
    <trkpt lat="48.456324" lon="2.659822">
      <ele>132.3</ele>
      <time>2014-05-18T07:52:43Z</time>
    </trkpt>
    <trkpt lat="48.45634" lon="2.659649">
      <ele>132.3</ele>
      <time>2014-05-18T07:52:45Z</time>
    </trkpt>
    <trkpt lat="48.456416" lon="2.659335">
      <ele>132.2</ele>
      <time>2014-05-18T07:52:49Z</time>
    </trkpt>
    <trkpt lat="48.456452" lon="2.659186">
      <ele>132.2</ele>
      <time>2014-05-18T07:52:51Z</time>
    </trkpt>
    <trkpt lat="48.456493" lon="2.659035">
      <ele>131.9</ele>
      <time>2014-05-18T07:52:53Z</time>
    </trkpt>
    <trkpt lat="48.45652" lon="2.65888">
      <ele>131.5</ele>
      <time>2014-05-18T07:52:55Z</time>
    </trkpt>
    <trkpt lat="48.456567" lon="2.658703">
      <ele>131.1</ele>
      <time>2014-05-18T07:52:57Z</time>
    </trkpt>
    <trkpt lat="48.456615" lon="2.65853">
      <ele>130.6</ele>
      <time>2014-05-18T07:52:59Z</time>
    </trkpt>
    <trkpt lat="48.456666" lon="2.658371">
      <ele>130.1</ele>
      <time>2014-05-18T07:53:01Z</time>
    </trkpt>
    <trkpt lat="48.456733" lon="2.658218">
      <ele>129.7</ele>
      <time>2014-05-18T07:53:03Z</time>
    </trkpt>
    <trkpt lat="48.45682" lon="2.658059">
      <ele>129.4</ele>
      <time>2014-05-18T07:53:05Z</time>
    </trkpt>
    <trkpt lat="48.456884" lon="2.657958">
      <ele>129.3</ele>
      <time>2014-05-18T07:53:07Z</time>
    </trkpt>
    <trkpt lat="48.457004" lon="2.657859">
      <ele>129.1</ele>
      <time>2014-05-18T07:53:09Z</time>
    </trkpt>
    <trkpt lat="48.457118" lon="2.657788">
      <ele>128.9</ele>
      <time>2014-05-18T07:53:11Z</time>
    </trkpt>
    <trkpt lat="48.457198" lon="2.657722">
      <ele>128.9</ele>
      <time>2014-05-18T07:53:12Z</time>
    </trkpt>
    <trkpt lat="48.457327" lon="2.657658">
      <ele>128.8</ele>
      <time>2014-05-18T07:53:14Z</time>
    </trkpt>
    <trkpt lat="48.457467" lon="2.65761">
      <ele>128.7</ele>
      <time>2014-05-18T07:53:16Z</time>
    </trkpt>
    <trkpt lat="48.457593" lon="2.657565">
      <ele>128.7</ele>
      <time>2014-05-18T07:53:18Z</time>
    </trkpt>
    <trkpt lat="48.457727" lon="2.657501">
      <ele>129.0</ele>
      <time>2014-05-18T07:53:20Z</time>
    </trkpt>
    <trkpt lat="48.457824" lon="2.657474">
      <ele>129.1</ele>
      <time>2014-05-18T07:53:22Z</time>
    </trkpt>
    <trkpt lat="48.457929" lon="2.65744">
      <ele>129.2</ele>
      <time>2014-05-18T07:53:24Z</time>
    </trkpt>
    <trkpt lat="48.458041" lon="2.657424">
      <ele>129.2</ele>
      <time>2014-05-18T07:53:26Z</time>
    </trkpt>
    <trkpt lat="48.458157" lon="2.657408">
      <ele>129.3</ele>
      <time>2014-05-18T07:53:28Z</time>
    </trkpt>
    <trkpt lat="48.458253" lon="2.657395">
      <ele>129.4</ele>
      <time>2014-05-18T07:53:30Z</time>
    </trkpt>
    <trkpt lat="48.458335" lon="2.657322">
      <ele>129.6</ele>
      <time>2014-05-18T07:53:32Z</time>
    </trkpt>
    <trkpt lat="48.458433" lon="2.657263">
      <ele>128.7</ele>
      <time>2014-05-18T07:53:35Z</time>
    </trkpt>
    <trkpt lat="48.458498" lon="2.657111">
      <ele>128.7</ele>
      <time>2014-05-18T07:53:38Z</time>
    </trkpt>
    <trkpt lat="48.458553" lon="2.657003">
      <ele>128.7</ele>
      <time>2014-05-18T07:53:40Z</time>
    </trkpt>
    <trkpt lat="48.458618" lon="2.656905">
      <ele>128.6</ele>
      <time>2014-05-18T07:53:42Z</time>
    </trkpt>
    <trkpt lat="48.458669" lon="2.65679">
      <ele>128.8</ele>
      <time>2014-05-18T07:53:44Z</time>
    </trkpt>
    <trkpt lat="48.458734" lon="2.656673">
      <ele>129.1</ele>
      <time>2014-05-18T07:53:46Z</time>
    </trkpt>
    <trkpt lat="48.458884" lon="2.65641">
      <ele>129.0</ele>
      <time>2014-05-18T07:53:50Z</time>
    </trkpt>
    <trkpt lat="48.458952" lon="2.656295">
      <ele>129.0</ele>
      <time>2014-05-18T07:53:52Z</time>
    </trkpt>
    <trkpt lat="48.459021" lon="2.65617">
      <ele>129.1</ele>
      <time>2014-05-18T07:53:54Z</time>
    </trkpt>
    <trkpt lat="48.459091" lon="2.656043">
      <ele>129.3</ele>
      <time>2014-05-18T07:53:56Z</time>
    </trkpt>
    <trkpt lat="48.459146" lon="2.655927">
      <ele>129.6</ele>
      <time>2014-05-18T07:53:58Z</time>
    </trkpt>
    <trkpt lat="48.459218" lon="2.655806">
      <ele>129.2</ele>
      <time>2014-05-18T07:54:00Z</time>
    </trkpt>
    <trkpt lat="48.459296" lon="2.65568">
      <ele>128.3</ele>
      <time>2014-05-18T07:54:02Z</time>
    </trkpt>
    <trkpt lat="48.45935" lon="2.655547">
      <ele>127.9</ele>
      <time>2014-05-18T07:54:04Z</time>
    </trkpt>
    <trkpt lat="48.45938" lon="2.655403">
      <ele>128.0</ele>
      <time>2014-05-18T07:54:06Z</time>
    </trkpt>
    <trkpt lat="48.459416" lon="2.655247">
      <ele>128.1</ele>
      <time>2014-05-18T07:54:08Z</time>
    </trkpt>
    <trkpt lat="48.45946" lon="2.655079">
      <ele>128.2</ele>
      <time>2014-05-18T07:54:10Z</time>
    </trkpt>
    <trkpt lat="48.459496" lon="2.654941">
      <ele>128.1</ele>
      <time>2014-05-18T07:54:12Z</time>
    </trkpt>
    <trkpt lat="48.459545" lon="2.654775">
      <ele>127.6</ele>
      <time>2014-05-18T07:54:14Z</time>
    </trkpt>
    <trkpt lat="48.459591" lon="2.65456">
      <ele>127.2</ele>
      <time>2014-05-18T07:54:17Z</time>
    </trkpt>
    <trkpt lat="48.45962" lon="2.654414">
      <ele>127.0</ele>
      <time>2014-05-18T07:54:19Z</time>
    </trkpt>
    <trkpt lat="48.45966" lon="2.654231">
      <ele>126.8</ele>
      <time>2014-05-18T07:54:22Z</time>
    </trkpt>
    <trkpt lat="48.459707" lon="2.654098">
      <ele>126.2</ele>
      <time>2014-05-18T07:54:24Z</time>
    </trkpt>
    <trkpt lat="48.45973" lon="2.653966">
      <ele>125.5</ele>
      <time>2014-05-18T07:54:26Z</time>
    </trkpt>
    <trkpt lat="48.459692" lon="2.653826">
      <ele>125.3</ele>
      <time>2014-05-18T07:54:28Z</time>
    </trkpt>
    <trkpt lat="48.459591" lon="2.653716">
      <ele>125.8</ele>
      <time>2014-05-18T07:54:30Z</time>
    </trkpt>
    <trkpt lat="48.459497" lon="2.653624">
      <ele>126.4</ele>
      <time>2014-05-18T07:54:32Z</time>
    </trkpt>
    <trkpt lat="48.459388" lon="2.653527">
      <ele>127.2</ele>
      <time>2014-05-18T07:54:34Z</time>
    </trkpt>
    <trkpt lat="48.459264" lon="2.653431">
      <ele>128.2</ele>
      <time>2014-05-18T07:54:36Z</time>
    </trkpt>
    <trkpt lat="48.459171" lon="2.653353">
      <ele>129.0</ele>
      <time>2014-05-18T07:54:38Z</time>
    </trkpt>
    <trkpt lat="48.459024" lon="2.653372">
      <ele>129.4</ele>
      <time>2014-05-18T07:54:40Z</time>
    </trkpt>
    <trkpt lat="48.458889" lon="2.65339">
      <ele>129.8</ele>
      <time>2014-05-18T07:54:42Z</time>
    </trkpt>
    <trkpt lat="48.458747" lon="2.653388">
      <ele>130.1</ele>
      <time>2014-05-18T07:54:44Z</time>
    </trkpt>
    <trkpt lat="48.458626" lon="2.653397">
      <ele>130.4</ele>
      <time>2014-05-18T07:54:46Z</time>
    </trkpt>
    <trkpt lat="48.458466" lon="2.653408">
      <ele>130.7</ele>
      <time>2014-05-18T07:54:48Z</time>
    </trkpt>
    <trkpt lat="48.458232" lon="2.653361">
      <ele>131.0</ele>
      <time>2014-05-18T07:54:52Z</time>
    </trkpt>
    <trkpt lat="48.458121" lon="2.653315">
      <ele>131.0</ele>
      <time>2014-05-18T07:54:54Z</time>
    </trkpt>
    <trkpt lat="48.457985" lon="2.653234">
      <ele>130.8</ele>
      <time>2014-05-18T07:54:56Z</time>
    </trkpt>
    <trkpt lat="48.457872" lon="2.653131">
      <ele>130.8</ele>
      <time>2014-05-18T07:54:58Z</time>
    </trkpt>
    <trkpt lat="48.457809" lon="2.652967">
      <ele>130.8</ele>
      <time>2014-05-18T07:55:01Z</time>
    </trkpt>
    <trkpt lat="48.457759" lon="2.652843">
      <ele>130.9</ele>
      <time>2014-05-18T07:55:03Z</time>
    </trkpt>
    <trkpt lat="48.457693" lon="2.652745">
      <ele>131.1</ele>
      <time>2014-05-18T07:55:05Z</time>
    </trkpt>
    <trkpt lat="48.457662" lon="2.652613">
      <ele>131.2</ele>
      <time>2014-05-18T07:55:07Z</time>
    </trkpt>
    <trkpt lat="48.45766" lon="2.652452">
      <ele>131.3</ele>
      <time>2014-05-18T07:55:09Z</time>
    </trkpt>
    <trkpt lat="48.457699" lon="2.652313">
      <ele>131.2</ele>
      <time>2014-05-18T07:55:11Z</time>
    </trkpt>
    <trkpt lat="48.457765" lon="2.652137">
      <ele>131.0</ele>
      <time>2014-05-18T07:55:13Z</time>
    </trkpt>
    <trkpt lat="48.457864" lon="2.651953">
      <ele>130.8</ele>
      <time>2014-05-18T07:55:15Z</time>
    </trkpt>
    <trkpt lat="48.457918" lon="2.651812">
      <ele>130.8</ele>
      <time>2014-05-18T07:55:17Z</time>
    </trkpt>
    <trkpt lat="48.458022" lon="2.65167">
      <ele>130.7</ele>
      <time>2014-05-18T07:55:20Z</time>
    </trkpt>
    <trkpt lat="48.458169" lon="2.651593">
      <ele>130.5</ele>
      <time>2014-05-18T07:55:22Z</time>
    </trkpt>
    <trkpt lat="48.458292" lon="2.651518">
      <ele>130.3</ele>
      <time>2014-05-18T07:55:24Z</time>
    </trkpt>
    <trkpt lat="48.458402" lon="2.651434">
      <ele>129.5</ele>
      <time>2014-05-18T07:55:26Z</time>
    </trkpt>
    <trkpt lat="48.458503" lon="2.651356">
      <ele>128.5</ele>
      <time>2014-05-18T07:55:28Z</time>
    </trkpt>
    <trkpt lat="48.458595" lon="2.651244">
      <ele>127.7</ele>
      <time>2014-05-18T07:55:30Z</time>
    </trkpt>
    <trkpt lat="48.458654" lon="2.651086">
      <ele>127.4</ele>
      <time>2014-05-18T07:55:32Z</time>
    </trkpt>
    <trkpt lat="48.458653" lon="2.650914">
      <ele>127.8</ele>
      <time>2014-05-18T07:55:34Z</time>
    </trkpt>
    <trkpt lat="48.458662" lon="2.650714">
      <ele>127.7</ele>
      <time>2014-05-18T07:55:36Z</time>
    </trkpt>
    <trkpt lat="48.458648" lon="2.650532">
      <ele>127.7</ele>
      <time>2014-05-18T07:55:38Z</time>
    </trkpt>
    <trkpt lat="48.45861" lon="2.650405">
      <ele>128.0</ele>
      <time>2014-05-18T07:55:40Z</time>
    </trkpt>
    <trkpt lat="48.458541" lon="2.65025">
      <ele>128.7</ele>
      <time>2014-05-18T07:55:42Z</time>
    </trkpt>
    <trkpt lat="48.458465" lon="2.65007">
      <ele>129.4</ele>
      <time>2014-05-18T07:55:44Z</time>
    </trkpt>
    <trkpt lat="48.458381" lon="2.64991">
      <ele>130.4</ele>
      <time>2014-05-18T07:55:46Z</time>
    </trkpt>
    <trkpt lat="48.458324" lon="2.649766">
      <ele>131.0</ele>
      <time>2014-05-18T07:55:48Z</time>
    </trkpt>
    <trkpt lat="48.458179" lon="2.649451">
      <ele>131.4</ele>
      <time>2014-05-18T07:55:52Z</time>
    </trkpt>
    <trkpt lat="48.458162" lon="2.649302">
      <ele>131.4</ele>
      <time>2014-05-18T07:55:54Z</time>
    </trkpt>
    <trkpt lat="48.458167" lon="2.649123">
      <ele>131.4</ele>
      <time>2014-05-18T07:55:56Z</time>
    </trkpt>
    <trkpt lat="48.458186" lon="2.648918">
      <ele>131.4</ele>
      <time>2014-05-18T07:55:58Z</time>
    </trkpt>
    <trkpt lat="48.45821" lon="2.648741">
      <ele>131.3</ele>
      <time>2014-05-18T07:56:00Z</time>
    </trkpt>
    <trkpt lat="48.458283" lon="2.648602">
      <ele>131.1</ele>
      <time>2014-05-18T07:56:02Z</time>
    </trkpt>
    <trkpt lat="48.458379" lon="2.64851">
      <ele>130.7</ele>
      <time>2014-05-18T07:56:04Z</time>
    </trkpt>
    <trkpt lat="48.458482" lon="2.648452">
      <ele>130.0</ele>
      <time>2014-05-18T07:56:05Z</time>
    </trkpt>
    <trkpt lat="48.458599" lon="2.648347">
      <ele>129.4</ele>
      <time>2014-05-18T07:56:07Z</time>
    </trkpt>
    <trkpt lat="48.458726" lon="2.648255">
      <ele>128.9</ele>
      <time>2014-05-18T07:56:10Z</time>
    </trkpt>
    <trkpt lat="48.458813" lon="2.648211">
      <ele>128.6</ele>
      <time>2014-05-18T07:56:12Z</time>
    </trkpt>
    <trkpt lat="48.458907" lon="2.648179">
      <ele>128.3</ele>
      <time>2014-05-18T07:56:14Z</time>
    </trkpt>
    <trkpt lat="48.45902" lon="2.648162">
      <ele>127.8</ele>
      <time>2014-05-18T07:56:16Z</time>
    </trkpt>
    <trkpt lat="48.459161" lon="2.648071">
      <ele>127.6</ele>
      <time>2014-05-18T07:56:18Z</time>
    </trkpt>
    <trkpt lat="48.459296" lon="2.647953">
      <ele>126.1</ele>
      <time>2014-05-18T07:56:20Z</time>
    </trkpt>
    <trkpt lat="48.459377" lon="2.647788">
      <ele>125.5</ele>
      <time>2014-05-18T07:56:22Z</time>
    </trkpt>
    <trkpt lat="48.459448" lon="2.647615">
      <ele>125.0</ele>
      <time>2014-05-18T07:56:24Z</time>
    </trkpt>
    <trkpt lat="48.4595" lon="2.647447">
      <ele>124.7</ele>
      <time>2014-05-18T07:56:26Z</time>
    </trkpt>
    <trkpt lat="48.45953" lon="2.647246">
      <ele>124.4</ele>
      <time>2014-05-18T07:56:28Z</time>
    </trkpt>
    <trkpt lat="48.459531" lon="2.647045">
      <ele>124.7</ele>
      <time>2014-05-18T07:56:30Z</time>
    </trkpt>
    <trkpt lat="48.459526" lon="2.646858">
      <ele>125.1</ele>
      <time>2014-05-18T07:56:32Z</time>
    </trkpt>
    <trkpt lat="48.45953" lon="2.646683">
      <ele>125.3</ele>
      <time>2014-05-18T07:56:34Z</time>
    </trkpt>
    <trkpt lat="48.459531" lon="2.646494">
      <ele>125.4</ele>
      <time>2014-05-18T07:56:36Z</time>
    </trkpt>
    <trkpt lat="48.459513" lon="2.646303">
      <ele>125.7</ele>
      <time>2014-05-18T07:56:38Z</time>
    </trkpt>
    <trkpt lat="48.459479" lon="2.646123">
      <ele>126.2</ele>
      <time>2014-05-18T07:56:40Z</time>
    </trkpt>
    <trkpt lat="48.459457" lon="2.645969">
      <ele>126.5</ele>
      <time>2014-05-18T07:56:42Z</time>
    </trkpt>
    <trkpt lat="48.459365" lon="2.645807">
      <ele>127.6</ele>
      <time>2014-05-18T07:56:44Z</time>
    </trkpt>
    <trkpt lat="48.459297" lon="2.645674">
      <ele>128.4</ele>
      <time>2014-05-18T07:56:46Z</time>
    </trkpt>
    <trkpt lat="48.459239" lon="2.64555">
      <ele>129.1</ele>
      <time>2014-05-18T07:56:48Z</time>
    </trkpt>
    <trkpt lat="48.459148" lon="2.645246">
      <ele>130.1</ele>
      <time>2014-05-18T07:56:53Z</time>
    </trkpt>
    <trkpt lat="48.45913" lon="2.645042">
      <ele>130.1</ele>
      <time>2014-05-18T07:56:55Z</time>
    </trkpt>
    <trkpt lat="48.459102" lon="2.644856">
      <ele>130.1</ele>
      <time>2014-05-18T07:56:57Z</time>
    </trkpt>
    <trkpt lat="48.459082" lon="2.644696">
      <ele>129.9</ele>
      <time>2014-05-18T07:56:59Z</time>
    </trkpt>
    <trkpt lat="48.459079" lon="2.644536">
      <ele>129.8</ele>
      <time>2014-05-18T07:57:01Z</time>
    </trkpt>
    <trkpt lat="48.459088" lon="2.64438">
      <ele>129.5</ele>
      <time>2014-05-18T07:57:03Z</time>
    </trkpt>
    <trkpt lat="48.459094" lon="2.644224">
      <ele>129.3</ele>
      <time>2014-05-18T07:57:05Z</time>
    </trkpt>
    <trkpt lat="48.459132" lon="2.644083">
      <ele>129.2</ele>
      <time>2014-05-18T07:57:07Z</time>
    </trkpt>
    <trkpt lat="48.459135" lon="2.643905">
      <ele>129.4</ele>
      <time>2014-05-18T07:57:09Z</time>
    </trkpt>
    <trkpt lat="48.459171" lon="2.643736">
      <ele>129.5</ele>
      <time>2014-05-18T07:57:11Z</time>
    </trkpt>
    <trkpt lat="48.459185" lon="2.643576">
      <ele>129.5</ele>
      <time>2014-05-18T07:57:13Z</time>
    </trkpt>
    <trkpt lat="48.459213" lon="2.643409">
      <ele>129.3</ele>
      <time>2014-05-18T07:57:15Z</time>
    </trkpt>
    <trkpt lat="48.459257" lon="2.643277">
      <ele>128.6</ele>
      <time>2014-05-18T07:57:17Z</time>
    </trkpt>
    <trkpt lat="48.459286" lon="2.64313">
      <ele>128.0</ele>
      <time>2014-05-18T07:57:19Z</time>
    </trkpt>
    <trkpt lat="48.459329" lon="2.642987">
      <ele>127.2</ele>
      <time>2014-05-18T07:57:21Z</time>
    </trkpt>
    <trkpt lat="48.45937" lon="2.642807">
      <ele>126.4</ele>
      <time>2014-05-18T07:57:23Z</time>
    </trkpt>
    <trkpt lat="48.459393" lon="2.642645">
      <ele>125.9</ele>
      <time>2014-05-18T07:57:26Z</time>
    </trkpt>
    <trkpt lat="48.459453" lon="2.642505">
      <ele>124.9</ele>
      <time>2014-05-18T07:57:28Z</time>
    </trkpt>
    <trkpt lat="48.45946" lon="2.64236">
      <ele>124.8</ele>
      <time>2014-05-18T07:57:30Z</time>
    </trkpt>
    <trkpt lat="48.459464" lon="2.642186">
      <ele>124.9</ele>
      <time>2014-05-18T07:57:32Z</time>
    </trkpt>
    <trkpt lat="48.459476" lon="2.642026">
      <ele>124.8</ele>
      <time>2014-05-18T07:57:34Z</time>
    </trkpt>
    <trkpt lat="48.459507" lon="2.641867">
      <ele>124.4</ele>
      <time>2014-05-18T07:57:36Z</time>
    </trkpt>
    <trkpt lat="48.459527" lon="2.641724">
      <ele>124.2</ele>
      <time>2014-05-18T07:57:38Z</time>
    </trkpt>
    <trkpt lat="48.459502" lon="2.641522">
      <ele>124.2</ele>
      <time>2014-05-18T07:57:41Z</time>
    </trkpt>
    <trkpt lat="48.459477" lon="2.641383">
      <ele>124.1</ele>
      <time>2014-05-18T07:57:43Z</time>
    </trkpt>
    <trkpt lat="48.459352" lon="2.641296">
      <ele>125.4</ele>
      <time>2014-05-18T07:57:45Z</time>
    </trkpt>
    <trkpt lat="48.459264" lon="2.64124">
      <ele>126.3</ele>
      <time>2014-05-18T07:57:47Z</time>
    </trkpt>
    <trkpt lat="48.459147" lon="2.641211">
      <ele>127.5</ele>
      <time>2014-05-18T07:57:50Z</time>
    </trkpt>
    <trkpt lat="48.458933" lon="2.641165">
      <ele>128.7</ele>
      <time>2014-05-18T07:57:58Z</time>
    </trkpt>
    <trkpt lat="48.458831" lon="2.641163">
      <ele>129.4</ele>
      <time>2014-05-18T07:58:01Z</time>
    </trkpt>
    <trkpt lat="48.458725" lon="2.641127">
      <ele>129.9</ele>
      <time>2014-05-18T07:58:05Z</time>
    </trkpt>
    <trkpt lat="48.458616" lon="2.641108">
      <ele>130.5</ele>
      <time>2014-05-18T07:58:09Z</time>
    </trkpt>
    <trkpt lat="48.458514" lon="2.641121">
      <ele>131.2</ele>
      <time>2014-05-18T07:58:12Z</time>
    </trkpt>
    <trkpt lat="48.458406" lon="2.641142">
      <ele>132.0</ele>
      <time>2014-05-18T07:58:15Z</time>
    </trkpt>
    <trkpt lat="48.4583" lon="2.641147">
      <ele>132.7</ele>
      <time>2014-05-18T07:58:18Z</time>
    </trkpt>
    <trkpt lat="48.458201" lon="2.641134">
      <ele>133.2</ele>
      <time>2014-05-18T07:58:21Z</time>
    </trkpt>
    <trkpt lat="48.458107" lon="2.641122">
      <ele>133.6</ele>
      <time>2014-05-18T07:58:24Z</time>
    </trkpt>
    <trkpt lat="48.457998" lon="2.641023">
      <ele>134.0</ele>
      <time>2014-05-18T07:58:28Z</time>
    </trkpt>
    <trkpt lat="48.457931" lon="2.640904">
      <ele>134.1</ele>
      <time>2014-05-18T07:58:31Z</time>
    </trkpt>
    <trkpt lat="48.457881" lon="2.640783">
      <ele>134.0</ele>
      <time>2014-05-18T07:58:33Z</time>
    </trkpt>
    <trkpt lat="48.457809" lon="2.640609">
      <ele>133.8</ele>
      <time>2014-05-18T07:58:36Z</time>
    </trkpt>
    <trkpt lat="48.457752" lon="2.640464">
      <ele>133.8</ele>
      <time>2014-05-18T07:58:39Z</time>
    </trkpt>
    <trkpt lat="48.457685" lon="2.640331">
      <ele>134.1</ele>
      <time>2014-05-18T07:58:42Z</time>
    </trkpt>
    <trkpt lat="48.457659" lon="2.6402">
      <ele>134.1</ele>
      <time>2014-05-18T07:58:46Z</time>
    </trkpt>
    <trkpt lat="48.457618" lon="2.640077">
      <ele>134.3</ele>
      <time>2014-05-18T07:58:48Z</time>
    </trkpt>
    <trkpt lat="48.457595" lon="2.639914">
      <ele>134.3</ele>
      <time>2014-05-18T07:58:51Z</time>
    </trkpt>
    <trkpt lat="48.457597" lon="2.639542">
      <ele>133.3</ele>
      <time>2014-05-18T07:58:57Z</time>
    </trkpt>
    <trkpt lat="48.457604" lon="2.639343">
      <ele>132.6</ele>
      <time>2014-05-18T07:59:00Z</time>
    </trkpt>
    <trkpt lat="48.457588" lon="2.639137">
      <ele>132.2</ele>
      <time>2014-05-18T07:59:03Z</time>
    </trkpt>
    <trkpt lat="48.457584" lon="2.638997">
      <ele>131.3</ele>
      <time>2014-05-18T07:59:05Z</time>
    </trkpt>
    <trkpt lat="48.457621" lon="2.638802">
      <ele>129.4</ele>
      <time>2014-05-18T07:59:08Z</time>
    </trkpt>
    <trkpt lat="48.457666" lon="2.638646">
      <ele>127.6</ele>
      <time>2014-05-18T07:59:10Z</time>
    </trkpt>
    <trkpt lat="48.457657" lon="2.638479">
      <ele>126.7</ele>
      <time>2014-05-18T07:59:12Z</time>
    </trkpt>
    <trkpt lat="48.457621" lon="2.638327">
      <ele>126.2</ele>
      <time>2014-05-18T07:59:14Z</time>
    </trkpt>
    <trkpt lat="48.457534" lon="2.638266">
      <ele>126.6</ele>
      <time>2014-05-18T07:59:16Z</time>
    </trkpt>
    <trkpt lat="48.457429" lon="2.6383">
      <ele>127.7</ele>
      <time>2014-05-18T07:59:18Z</time>
    </trkpt>
    <trkpt lat="48.457335" lon="2.638419">
      <ele>128.8</ele>
      <time>2014-05-18T07:59:20Z</time>
    </trkpt>
    <trkpt lat="48.457276" lon="2.638555">
      <ele>129.9</ele>
      <time>2014-05-18T07:59:22Z</time>
    </trkpt>
    <trkpt lat="48.457217" lon="2.638735">
      <ele>131.4</ele>
      <time>2014-05-18T07:59:25Z</time>
    </trkpt>
    <trkpt lat="48.457178" lon="2.63886">
      <ele>132.4</ele>
      <time>2014-05-18T07:59:27Z</time>
    </trkpt>
    <trkpt lat="48.457098" lon="2.639021">
      <ele>133.8</ele>
      <time>2014-05-18T07:59:30Z</time>
    </trkpt>
    <trkpt lat="48.457012" lon="2.639148">
      <ele>135.0</ele>
      <time>2014-05-18T07:59:33Z</time>
    </trkpt>
    <trkpt lat="48.456907" lon="2.639195">
      <ele>135.5</ele>
      <time>2014-05-18T07:59:35Z</time>
    </trkpt>
    <trkpt lat="48.456817" lon="2.63923">
      <ele>135.9</ele>
      <time>2014-05-18T07:59:37Z</time>
    </trkpt>
    <trkpt lat="48.456722" lon="2.639258">
      <ele>136.2</ele>
      <time>2014-05-18T07:59:39Z</time>
    </trkpt>
    <trkpt lat="48.456614" lon="2.639285">
      <ele>136.4</ele>
      <time>2014-05-18T07:59:41Z</time>
    </trkpt>
    <trkpt lat="48.45651" lon="2.639278">
      <ele>136.2</ele>
      <time>2014-05-18T07:59:43Z</time>
    </trkpt>
    <trkpt lat="48.456414" lon="2.639248">
      <ele>136.0</ele>
      <time>2014-05-18T07:59:45Z</time>
    </trkpt>
    <trkpt lat="48.456302" lon="2.639145">
      <ele>135.4</ele>
      <time>2014-05-18T07:59:48Z</time>
    </trkpt>
    <trkpt lat="48.456233" lon="2.638974">
      <ele>134.1</ele>
      <time>2014-05-18T07:59:51Z</time>
    </trkpt>
    <trkpt lat="48.456117" lon="2.638713">
      <ele>132.2</ele>
      <time>2014-05-18T07:59:55Z</time>
    </trkpt>
    <trkpt lat="48.456021" lon="2.638678">
      <ele>132.0</ele>
      <time>2014-05-18T07:59:57Z</time>
    </trkpt>
    <trkpt lat="48.455917" lon="2.638688">
      <ele>132.1</ele>
      <time>2014-05-18T07:59:59Z</time>
    </trkpt>
    <trkpt lat="48.455819" lon="2.638738">
      <ele>132.5</ele>
      <time>2014-05-18T08:00:01Z</time>
    </trkpt>
    <trkpt lat="48.455727" lon="2.638751">
      <ele>133.0</ele>
      <time>2014-05-18T08:00:03Z</time>
    </trkpt>
    <trkpt lat="48.455617" lon="2.638668">
      <ele>133.0</ele>
      <time>2014-05-18T08:00:06Z</time>
    </trkpt>
    <trkpt lat="48.455513" lon="2.638572">
      <ele>133.0</ele>
      <time>2014-05-18T08:00:09Z</time>
    </trkpt>
    <trkpt lat="48.455396" lon="2.638504">
      <ele>133.3</ele>
      <time>2014-05-18T08:00:12Z</time>
    </trkpt>
    <trkpt lat="48.455306" lon="2.638479">
      <ele>133.7</ele>
      <time>2014-05-18T08:00:14Z</time>
    </trkpt>
    <trkpt lat="48.455199" lon="2.638475">
      <ele>134.3</ele>
      <time>2014-05-18T08:00:16Z</time>
    </trkpt>
    <trkpt lat="48.455107" lon="2.638472">
      <ele>134.8</ele>
      <time>2014-05-18T08:00:18Z</time>
    </trkpt>
    <trkpt lat="48.455017" lon="2.638483">
      <ele>135.3</ele>
      <time>2014-05-18T08:00:20Z</time>
    </trkpt>
    <trkpt lat="48.454888" lon="2.638431">
      <ele>135.8</ele>
      <time>2014-05-18T08:00:23Z</time>
    </trkpt>
    <trkpt lat="48.454808" lon="2.638297">
      <ele>135.7</ele>
      <time>2014-05-18T08:00:26Z</time>
    </trkpt>
    <trkpt lat="48.454728" lon="2.63816">
      <ele>135.5</ele>
      <time>2014-05-18T08:00:29Z</time>
    </trkpt>
    <trkpt lat="48.454644" lon="2.638003">
      <ele>135.2</ele>
      <time>2014-05-18T08:00:32Z</time>
    </trkpt>
    <trkpt lat="48.454587" lon="2.637895">
      <ele>135.1</ele>
      <time>2014-05-18T08:00:34Z</time>
    </trkpt>
    <trkpt lat="48.454528" lon="2.637781">
      <ele>135.1</ele>
      <time>2014-05-18T08:00:37Z</time>
    </trkpt>
    <trkpt lat="48.454494" lon="2.637635">
      <ele>134.8</ele>
      <time>2014-05-18T08:00:40Z</time>
    </trkpt>
    <trkpt lat="48.454468" lon="2.63745">
      <ele>134.2</ele>
      <time>2014-05-18T08:00:43Z</time>
    </trkpt>
    <trkpt lat="48.454458" lon="2.637312">
      <ele>133.5</ele>
      <time>2014-05-18T08:00:45Z</time>
    </trkpt>
    <trkpt lat="48.45445" lon="2.637177">
      <ele>132.8</ele>
      <time>2014-05-18T08:00:47Z</time>
    </trkpt>
    <trkpt lat="48.454438" lon="2.637037">
      <ele>132.1</ele>
      <time>2014-05-18T08:00:49Z</time>
    </trkpt>
    <trkpt lat="48.45442" lon="2.636895">
      <ele>131.6</ele>
      <time>2014-05-18T08:00:51Z</time>
    </trkpt>
    <trkpt lat="48.454336" lon="2.63675">
      <ele>132.0</ele>
      <time>2014-05-18T08:00:53Z</time>
    </trkpt>
    <trkpt lat="48.454175" lon="2.63653">
      <ele>132.6</ele>
      <time>2014-05-18T08:00:57Z</time>
    </trkpt>
    <trkpt lat="48.454079" lon="2.636424">
      <ele>131.9</ele>
      <time>2014-05-18T08:00:59Z</time>
    </trkpt>
    <trkpt lat="48.453988" lon="2.63637">
      <ele>131.5</ele>
      <time>2014-05-18T08:01:01Z</time>
    </trkpt>
    <trkpt lat="48.453875" lon="2.636356">
      <ele>131.6</ele>
      <time>2014-05-18T08:01:03Z</time>
    </trkpt>
    <trkpt lat="48.453764" lon="2.63637">
      <ele>131.9</ele>
      <time>2014-05-18T08:01:05Z</time>
    </trkpt>
    <trkpt lat="48.45367" lon="2.636392">
      <ele>132.4</ele>
      <time>2014-05-18T08:01:07Z</time>
    </trkpt>
    <trkpt lat="48.453565" lon="2.63644">
      <ele>133.1</ele>
      <time>2014-05-18T08:01:09Z</time>
    </trkpt>
    <trkpt lat="48.45347" lon="2.636487">
      <ele>133.8</ele>
      <time>2014-05-18T08:01:11Z</time>
    </trkpt>
    <trkpt lat="48.453348" lon="2.636542">
      <ele>134.6</ele>
      <time>2014-05-18T08:01:14Z</time>
    </trkpt>
    <trkpt lat="48.453257" lon="2.636588">
      <ele>135.2</ele>
      <time>2014-05-18T08:01:16Z</time>
    </trkpt>
    <trkpt lat="48.453136" lon="2.636632">
      <ele>135.7</ele>
      <time>2014-05-18T08:01:19Z</time>
    </trkpt>
    <trkpt lat="48.453043" lon="2.636627">
      <ele>135.7</ele>
      <time>2014-05-18T08:01:21Z</time>
    </trkpt>
    <trkpt lat="48.45294" lon="2.636511">
      <ele>134.8</ele>
      <time>2014-05-18T08:01:24Z</time>
    </trkpt>
    <trkpt lat="48.45286" lon="2.636409">
      <ele>134.1</ele>
      <time>2014-05-18T08:01:26Z</time>
    </trkpt>
    <trkpt lat="48.452774" lon="2.636252">
      <ele>133.2</ele>
      <time>2014-05-18T08:01:29Z</time>
    </trkpt>
    <trkpt lat="48.452703" lon="2.636144">
      <ele>132.7</ele>
      <time>2014-05-18T08:01:31Z</time>
    </trkpt>
    <trkpt lat="48.452605" lon="2.636005">
      <ele>132.3</ele>
      <time>2014-05-18T08:01:34Z</time>
    </trkpt>
    <trkpt lat="48.45251" lon="2.636">
      <ele>132.8</ele>
      <time>2014-05-18T08:01:36Z</time>
    </trkpt>
    <trkpt lat="48.452394" lon="2.636016">
      <ele>133.4</ele>
      <time>2014-05-18T08:01:39Z</time>
    </trkpt>
    <trkpt lat="48.452304" lon="2.636033">
      <ele>133.9</ele>
      <time>2014-05-18T08:01:41Z</time>
    </trkpt>
    <trkpt lat="48.452201" lon="2.636026">
      <ele>134.4</ele>
      <time>2014-05-18T08:01:43Z</time>
    </trkpt>
    <trkpt lat="48.452089" lon="2.635963">
      <ele>134.6</ele>
      <time>2014-05-18T08:01:45Z</time>
    </trkpt>
    <trkpt lat="48.452031" lon="2.635839">
      <ele>134.3</ele>
      <time>2014-05-18T08:01:48Z</time>
    </trkpt>
    <trkpt lat="48.45205" lon="2.635645">
      <ele>132.6</ele>
      <time>2014-05-18T08:01:51Z</time>
    </trkpt>
    <trkpt lat="48.452049" lon="2.635493">
      <ele>131.3</ele>
      <time>2014-05-18T08:01:53Z</time>
    </trkpt>
    <trkpt lat="48.452033" lon="2.635183">
      <ele>128.7</ele>
      <time>2014-05-18T08:01:57Z</time>
    </trkpt>
    <trkpt lat="48.452051" lon="2.635043">
      <ele>127.4</ele>
      <time>2014-05-18T08:01:59Z</time>
    </trkpt>
    <trkpt lat="48.4521" lon="2.634855">
      <ele>126.3</ele>
      <time>2014-05-18T08:02:02Z</time>
    </trkpt>
    <trkpt lat="48.452111" lon="2.634701">
      <ele>125.5</ele>
      <time>2014-05-18T08:02:04Z</time>
    </trkpt>
    <trkpt lat="48.452113" lon="2.634559">
      <ele>124.8</ele>
      <time>2014-05-18T08:02:06Z</time>
    </trkpt>
    <trkpt lat="48.452109" lon="2.634418">
      <ele>124.2</ele>
      <time>2014-05-18T08:02:08Z</time>
    </trkpt>
    <trkpt lat="48.452095" lon="2.634283">
      <ele>123.6</ele>
      <time>2014-05-18T08:02:10Z</time>
    </trkpt>
    <trkpt lat="48.452078" lon="2.634147">
      <ele>122.8</ele>
      <time>2014-05-18T08:02:12Z</time>
    </trkpt>
    <trkpt lat="48.452083" lon="2.633986">
      <ele>121.5</ele>
      <time>2014-05-18T08:02:15Z</time>
    </trkpt>
    <trkpt lat="48.452114" lon="2.63382">
      <ele>120.1</ele>
      <time>2014-05-18T08:02:19Z</time>
    </trkpt>
    <trkpt lat="48.452139" lon="2.633673">
      <ele>118.9</ele>
      <time>2014-05-18T08:02:23Z</time>
    </trkpt>
    <trkpt lat="48.452071" lon="2.633769">
      <ele>119.6</ele>
      <time>2014-05-18T08:03:44Z</time>
    </trkpt>
    <trkpt lat="48.452025" lon="2.634051">
      <ele>122.0</ele>
      <time>2014-05-18T08:03:51Z</time>
    </trkpt>
    <trkpt lat="48.452017" lon="2.634207">
      <ele>123.2</ele>
      <time>2014-05-18T08:03:54Z</time>
    </trkpt>
    <trkpt lat="48.452017" lon="2.634386">
      <ele>124.1</ele>
      <time>2014-05-18T08:03:57Z</time>
    </trkpt>
    <trkpt lat="48.452011" lon="2.634551">
      <ele>124.9</ele>
      <time>2014-05-18T08:04:00Z</time>
    </trkpt>
    <trkpt lat="48.451989" lon="2.634738">
      <ele>125.9</ele>
      <time>2014-05-18T08:04:03Z</time>
    </trkpt>
    <trkpt lat="48.451965" lon="2.634942">
      <ele>127.0</ele>
      <time>2014-05-18T08:04:06Z</time>
    </trkpt>
    <trkpt lat="48.451914" lon="2.635126">
      <ele>128.5</ele>
      <time>2014-05-18T08:04:09Z</time>
    </trkpt>
    <trkpt lat="48.451836" lon="2.635263">
      <ele>130.0</ele>
      <time>2014-05-18T08:04:12Z</time>
    </trkpt>
    <trkpt lat="48.451781" lon="2.635372">
      <ele>131.2</ele>
      <time>2014-05-18T08:04:14Z</time>
    </trkpt>
    <trkpt lat="48.451727" lon="2.635527">
      <ele>132.8</ele>
      <time>2014-05-18T08:04:17Z</time>
    </trkpt>
    <trkpt lat="48.451724" lon="2.635683">
      <ele>134.3</ele>
      <time>2014-05-18T08:04:20Z</time>
    </trkpt>
    <trkpt lat="48.451748" lon="2.635833">
      <ele>135.6</ele>
      <time>2014-05-18T08:04:23Z</time>
    </trkpt>
    <trkpt lat="48.451769" lon="2.635989">
      <ele>136.3</ele>
      <time>2014-05-18T08:04:26Z</time>
    </trkpt>
    <trkpt lat="48.451739" lon="2.63614">
      <ele>137.1</ele>
      <time>2014-05-18T08:04:29Z</time>
    </trkpt>
    <trkpt lat="48.451663" lon="2.636218">
      <ele>137.8</ele>
      <time>2014-05-18T08:04:31Z</time>
    </trkpt>
    <trkpt lat="48.451562" lon="2.636305">
      <ele>136.9</ele>
      <time>2014-05-18T08:04:34Z</time>
    </trkpt>
    <trkpt lat="48.45148" lon="2.636382">
      <ele>136.3</ele>
      <time>2014-05-18T08:04:36Z</time>
    </trkpt>
    <trkpt lat="48.451395" lon="2.636441">
      <ele>135.6</ele>
      <time>2014-05-18T08:04:38Z</time>
    </trkpt>
    <trkpt lat="48.451315" lon="2.63653">
      <ele>135.3</ele>
      <time>2014-05-18T08:04:40Z</time>
    </trkpt>
    <trkpt lat="48.451263" lon="2.636705">
      <ele>135.7</ele>
      <time>2014-05-18T08:04:43Z</time>
    </trkpt>
    <trkpt lat="48.45121" lon="2.636847">
      <ele>135.5</ele>
      <time>2014-05-18T08:04:45Z</time>
    </trkpt>
    <trkpt lat="48.451075" lon="2.63705">
      <ele>134.9</ele>
      <time>2014-05-18T08:04:49Z</time>
    </trkpt>
    <trkpt lat="48.451015" lon="2.637155">
      <ele>134.8</ele>
      <time>2014-05-18T08:04:51Z</time>
    </trkpt>
    <trkpt lat="48.450964" lon="2.637267">
      <ele>134.8</ele>
      <time>2014-05-18T08:04:53Z</time>
    </trkpt>
    <trkpt lat="48.450923" lon="2.637418">
      <ele>135.2</ele>
      <time>2014-05-18T08:04:55Z</time>
    </trkpt>
    <trkpt lat="48.45089" lon="2.63756">
      <ele>135.4</ele>
      <time>2014-05-18T08:04:57Z</time>
    </trkpt>
    <trkpt lat="48.450862" lon="2.637743">
      <ele>135.5</ele>
      <time>2014-05-18T08:04:59Z</time>
    </trkpt>
    <trkpt lat="48.450887" lon="2.637892">
      <ele>135.8</ele>
      <time>2014-05-18T08:05:01Z</time>
    </trkpt>
    <trkpt lat="48.450871" lon="2.638081">
      <ele>135.9</ele>
      <time>2014-05-18T08:05:03Z</time>
    </trkpt>
    <trkpt lat="48.450868" lon="2.638262">
      <ele>136.1</ele>
      <time>2014-05-18T08:05:05Z</time>
    </trkpt>
    <trkpt lat="48.450882" lon="2.638416">
      <ele>136.1</ele>
      <time>2014-05-18T08:05:07Z</time>
    </trkpt>
    <trkpt lat="48.450883" lon="2.638572">
      <ele>135.8</ele>
      <time>2014-05-18T08:05:09Z</time>
    </trkpt>
    <trkpt lat="48.450888" lon="2.638751">
      <ele>135.4</ele>
      <time>2014-05-18T08:05:11Z</time>
    </trkpt>
    <trkpt lat="48.450893" lon="2.638917">
      <ele>135.1</ele>
      <time>2014-05-18T08:05:13Z</time>
    </trkpt>
    <trkpt lat="48.450907" lon="2.639099">
      <ele>134.8</ele>
      <time>2014-05-18T08:05:15Z</time>
    </trkpt>
    <trkpt lat="48.450915" lon="2.639276">
      <ele>135.0</ele>
      <time>2014-05-18T08:05:17Z</time>
    </trkpt>
    <trkpt lat="48.450927" lon="2.639429">
      <ele>135.5</ele>
      <time>2014-05-18T08:05:19Z</time>
    </trkpt>
    <trkpt lat="48.450989" lon="2.639584">
      <ele>136.3</ele>
      <time>2014-05-18T08:05:21Z</time>
    </trkpt>
    <trkpt lat="48.451035" lon="2.639735">
      <ele>137.0</ele>
      <time>2014-05-18T08:05:23Z</time>
    </trkpt>
    <trkpt lat="48.451064" lon="2.639873">
      <ele>137.4</ele>
      <time>2014-05-18T08:05:25Z</time>
    </trkpt>
    <trkpt lat="48.451093" lon="2.640022">
      <ele>137.9</ele>
      <time>2014-05-18T08:05:27Z</time>
    </trkpt>
    <trkpt lat="48.451051" lon="2.640199">
      <ele>138.1</ele>
      <time>2014-05-18T08:05:29Z</time>
    </trkpt>
    <trkpt lat="48.450978" lon="2.64041">
      <ele>138.3</ele>
      <time>2014-05-18T08:05:31Z</time>
    </trkpt>
    <trkpt lat="48.450897" lon="2.640613">
      <ele>138.5</ele>
      <time>2014-05-18T08:05:33Z</time>
    </trkpt>
    <trkpt lat="48.450821" lon="2.640787">
      <ele>138.8</ele>
      <time>2014-05-18T08:05:35Z</time>
    </trkpt>
    <trkpt lat="48.450749" lon="2.64093">
      <ele>139.3</ele>
      <time>2014-05-18T08:05:37Z</time>
    </trkpt>
    <trkpt lat="48.450677" lon="2.641061">
      <ele>139.8</ele>
      <time>2014-05-18T08:05:39Z</time>
    </trkpt>
    <trkpt lat="48.45061" lon="2.641166">
      <ele>140.2</ele>
      <time>2014-05-18T08:05:41Z</time>
    </trkpt>
    <trkpt lat="48.45055" lon="2.641273">
      <ele>140.6</ele>
      <time>2014-05-18T08:05:43Z</time>
    </trkpt>
    <trkpt lat="48.450431" lon="2.641391">
      <ele>140.9</ele>
      <time>2014-05-18T08:05:45Z</time>
    </trkpt>
    <trkpt lat="48.450337" lon="2.641519">
      <ele>141.3</ele>
      <time>2014-05-18T08:05:47Z</time>
    </trkpt>
    <trkpt lat="48.450169" lon="2.641783">
      <ele>141.9</ele>
      <time>2014-05-18T08:05:52Z</time>
    </trkpt>
    <trkpt lat="48.450099" lon="2.641894">
      <ele>141.9</ele>
      <time>2014-05-18T08:05:54Z</time>
    </trkpt>
    <trkpt lat="48.450007" lon="2.642047">
      <ele>141.9</ele>
      <time>2014-05-18T08:05:57Z</time>
    </trkpt>
    <trkpt lat="48.449937" lon="2.642148">
      <ele>141.9</ele>
      <time>2014-05-18T08:05:59Z</time>
    </trkpt>
    <trkpt lat="48.449868" lon="2.642258">
      <ele>141.9</ele>
      <time>2014-05-18T08:06:01Z</time>
    </trkpt>
    <trkpt lat="48.449793" lon="2.642352">
      <ele>141.8</ele>
      <time>2014-05-18T08:06:03Z</time>
    </trkpt>
    <trkpt lat="48.449721" lon="2.642466">
      <ele>141.9</ele>
      <time>2014-05-18T08:06:05Z</time>
    </trkpt>
    <trkpt lat="48.449641" lon="2.642578">
      <ele>141.8</ele>
      <time>2014-05-18T08:06:07Z</time>
    </trkpt>
    <trkpt lat="48.449569" lon="2.642684">
      <ele>141.5</ele>
      <time>2014-05-18T08:06:09Z</time>
    </trkpt>
    <trkpt lat="48.449494" lon="2.642792">
      <ele>141.2</ele>
      <time>2014-05-18T08:06:11Z</time>
    </trkpt>
    <trkpt lat="48.449416" lon="2.642912">
      <ele>140.8</ele>
      <time>2014-05-18T08:06:13Z</time>
    </trkpt>
    <trkpt lat="48.449346" lon="2.643062">
      <ele>140.4</ele>
      <time>2014-05-18T08:06:15Z</time>
    </trkpt>
    <trkpt lat="48.449296" lon="2.643223">
      <ele>140.0</ele>
      <time>2014-05-18T08:06:17Z</time>
    </trkpt>
    <trkpt lat="48.449288" lon="2.643374">
      <ele>139.9</ele>
      <time>2014-05-18T08:06:19Z</time>
    </trkpt>
    <trkpt lat="48.449326" lon="2.643518">
      <ele>140.1</ele>
      <time>2014-05-18T08:06:21Z</time>
    </trkpt>
    <trkpt lat="48.449409" lon="2.643655">
      <ele>140.8</ele>
      <time>2014-05-18T08:06:23Z</time>
    </trkpt>
    <trkpt lat="48.4495" lon="2.64378">
      <ele>141.7</ele>
      <time>2014-05-18T08:06:25Z</time>
    </trkpt>
    <trkpt lat="48.449564" lon="2.643903">
      <ele>142.5</ele>
      <time>2014-05-18T08:06:27Z</time>
    </trkpt>
    <trkpt lat="48.449634" lon="2.644076">
      <ele>143.5</ele>
      <time>2014-05-18T08:06:30Z</time>
    </trkpt>
    <trkpt lat="48.449621" lon="2.644252">
      <ele>143.2</ele>
      <time>2014-05-18T08:06:33Z</time>
    </trkpt>
    <trkpt lat="48.449584" lon="2.644463">
      <ele>142.3</ele>
      <time>2014-05-18T08:06:36Z</time>
    </trkpt>
    <trkpt lat="48.449557" lon="2.644604">
      <ele>141.6</ele>
      <time>2014-05-18T08:06:38Z</time>
    </trkpt>
    <trkpt lat="48.449568" lon="2.644813">
      <ele>141.3</ele>
      <time>2014-05-18T08:06:41Z</time>
    </trkpt>
    <trkpt lat="48.449565" lon="2.644952">
      <ele>140.9</ele>
      <time>2014-05-18T08:06:43Z</time>
    </trkpt>
    <trkpt lat="48.449593" lon="2.645155">
      <ele>140.8</ele>
      <time>2014-05-18T08:06:46Z</time>
    </trkpt>
    <trkpt lat="48.449613" lon="2.645352">
      <ele>140.7</ele>
      <time>2014-05-18T08:06:49Z</time>
    </trkpt>
    <trkpt lat="48.449631" lon="2.64565">
      <ele>140.4</ele>
      <time>2014-05-18T08:06:53Z</time>
    </trkpt>
    <trkpt lat="48.449633" lon="2.645828">
      <ele>140.2</ele>
      <time>2014-05-18T08:06:55Z</time>
    </trkpt>
    <trkpt lat="48.449618" lon="2.645982">
      <ele>140.5</ele>
      <time>2014-05-18T08:06:57Z</time>
    </trkpt>
    <trkpt lat="48.449606" lon="2.646145">
      <ele>141.1</ele>
      <time>2014-05-18T08:06:59Z</time>
    </trkpt>
    <trkpt lat="48.449602" lon="2.646302">
      <ele>141.7</ele>
      <time>2014-05-18T08:07:01Z</time>
    </trkpt>
    <trkpt lat="48.449598" lon="2.646463">
      <ele>142.3</ele>
      <time>2014-05-18T08:07:03Z</time>
    </trkpt>
    <trkpt lat="48.449596" lon="2.646616">
      <ele>142.9</ele>
      <time>2014-05-18T08:07:05Z</time>
    </trkpt>
    <trkpt lat="48.449585" lon="2.646776">
      <ele>143.3</ele>
      <time>2014-05-18T08:07:07Z</time>
    </trkpt>
    <trkpt lat="48.449573" lon="2.646946">
      <ele>143.8</ele>
      <time>2014-05-18T08:07:10Z</time>
    </trkpt>
    <trkpt lat="48.449488" lon="2.647078">
      <ele>143.6</ele>
      <time>2014-05-18T08:07:13Z</time>
    </trkpt>
    <trkpt lat="48.449375" lon="2.647085">
      <ele>142.9</ele>
      <time>2014-05-18T08:07:16Z</time>
    </trkpt>
    <trkpt lat="48.44927" lon="2.647102">
      <ele>142.2</ele>
      <time>2014-05-18T08:07:18Z</time>
    </trkpt>
    <trkpt lat="48.449178" lon="2.647131">
      <ele>141.7</ele>
      <time>2014-05-18T08:07:20Z</time>
    </trkpt>
    <trkpt lat="48.4491" lon="2.647204">
      <ele>141.7</ele>
      <time>2014-05-18T08:07:22Z</time>
    </trkpt>
    <trkpt lat="48.449019" lon="2.64735">
      <ele>142.0</ele>
      <time>2014-05-18T08:07:25Z</time>
    </trkpt>
    <trkpt lat="48.448964" lon="2.64747">
      <ele>142.4</ele>
      <time>2014-05-18T08:07:27Z</time>
    </trkpt>
    <trkpt lat="48.448888" lon="2.647628">
      <ele>142.7</ele>
      <time>2014-05-18T08:07:30Z</time>
    </trkpt>
    <trkpt lat="48.448844" lon="2.647827">
      <ele>143.3</ele>
      <time>2014-05-18T08:07:33Z</time>
    </trkpt>
    <trkpt lat="48.448801" lon="2.647966">
      <ele>143.6</ele>
      <time>2014-05-18T08:07:35Z</time>
    </trkpt>
    <trkpt lat="48.448761" lon="2.648094">
      <ele>143.8</ele>
      <time>2014-05-18T08:07:37Z</time>
    </trkpt>
    <trkpt lat="48.448718" lon="2.648221">
      <ele>144.1</ele>
      <time>2014-05-18T08:07:39Z</time>
    </trkpt>
    <trkpt lat="48.448664" lon="2.648358">
      <ele>144.2</ele>
      <time>2014-05-18T08:07:41Z</time>
    </trkpt>
    <trkpt lat="48.448601" lon="2.648523">
      <ele>144.1</ele>
      <time>2014-05-18T08:07:43Z</time>
    </trkpt>
    <trkpt lat="48.448542" lon="2.64864">
      <ele>143.9</ele>
      <time>2014-05-18T08:07:45Z</time>
    </trkpt>
    <trkpt lat="48.448497" lon="2.648769">
      <ele>143.8</ele>
      <time>2014-05-18T08:07:47Z</time>
    </trkpt>
    <trkpt lat="48.448449" lon="2.648913">
      <ele>143.6</ele>
      <time>2014-05-18T08:07:49Z</time>
    </trkpt>
    <trkpt lat="48.448402" lon="2.649044">
      <ele>143.4</ele>
      <time>2014-05-18T08:07:51Z</time>
    </trkpt>
    <trkpt lat="48.448295" lon="2.649303">
      <ele>142.7</ele>
      <time>2014-05-18T08:07:55Z</time>
    </trkpt>
    <trkpt lat="48.448249" lon="2.649451">
      <ele>142.4</ele>
      <time>2014-05-18T08:07:57Z</time>
    </trkpt>
    <trkpt lat="48.448201" lon="2.649596">
      <ele>142.1</ele>
      <time>2014-05-18T08:07:59Z</time>
    </trkpt>
    <trkpt lat="48.448144" lon="2.649749">
      <ele>141.8</ele>
      <time>2014-05-18T08:08:01Z</time>
    </trkpt>
    <trkpt lat="48.448096" lon="2.649884">
      <ele>141.5</ele>
      <time>2014-05-18T08:08:03Z</time>
    </trkpt>
    <trkpt lat="48.448054" lon="2.650041">
      <ele>141.3</ele>
      <time>2014-05-18T08:08:05Z</time>
    </trkpt>
    <trkpt lat="48.447997" lon="2.650178">
      <ele>141.2</ele>
      <time>2014-05-18T08:08:07Z</time>
    </trkpt>
    <trkpt lat="48.447942" lon="2.650329">
      <ele>141.1</ele>
      <time>2014-05-18T08:08:09Z</time>
    </trkpt>
    <trkpt lat="48.447887" lon="2.650462">
      <ele>140.9</ele>
      <time>2014-05-18T08:08:11Z</time>
    </trkpt>
    <trkpt lat="48.447828" lon="2.65059">
      <ele>140.8</ele>
      <time>2014-05-18T08:08:13Z</time>
    </trkpt>
    <trkpt lat="48.447769" lon="2.65075">
      <ele>140.6</ele>
      <time>2014-05-18T08:08:16Z</time>
    </trkpt>
    <trkpt lat="48.447779" lon="2.65092">
      <ele>140.6</ele>
      <time>2014-05-18T08:08:18Z</time>
    </trkpt>
    <trkpt lat="48.447827" lon="2.651088">
      <ele>140.7</ele>
      <time>2014-05-18T08:08:20Z</time>
    </trkpt>
    <trkpt lat="48.447866" lon="2.651242">
      <ele>140.7</ele>
      <time>2014-05-18T08:08:22Z</time>
    </trkpt>
    <trkpt lat="48.447928" lon="2.651391">
      <ele>140.7</ele>
      <time>2014-05-18T08:08:24Z</time>
    </trkpt>
    <trkpt lat="48.447987" lon="2.651553">
      <ele>140.7</ele>
      <time>2014-05-18T08:08:26Z</time>
    </trkpt>
    <trkpt lat="48.448047" lon="2.65171">
      <ele>140.6</ele>
      <time>2014-05-18T08:08:28Z</time>
    </trkpt>
    <trkpt lat="48.448098" lon="2.651849">
      <ele>140.4</ele>
      <time>2014-05-18T08:08:30Z</time>
    </trkpt>
    <trkpt lat="48.448146" lon="2.651999">
      <ele>140.2</ele>
      <time>2014-05-18T08:08:32Z</time>
    </trkpt>
    <trkpt lat="48.448186" lon="2.652163">
      <ele>140.0</ele>
      <time>2014-05-18T08:08:34Z</time>
    </trkpt>
    <trkpt lat="48.448248" lon="2.652322">
      <ele>140.0</ele>
      <time>2014-05-18T08:08:36Z</time>
    </trkpt>
    <trkpt lat="48.448314" lon="2.652469">
      <ele>140.0</ele>
      <time>2014-05-18T08:08:38Z</time>
    </trkpt>
    <trkpt lat="48.448379" lon="2.652608">
      <ele>140.1</ele>
      <time>2014-05-18T08:08:40Z</time>
    </trkpt>
    <trkpt lat="48.448501" lon="2.652774">
      <ele>140.4</ele>
      <time>2014-05-18T08:08:42Z</time>
    </trkpt>
    <trkpt lat="48.448597" lon="2.652892">
      <ele>140.7</ele>
      <time>2014-05-18T08:08:44Z</time>
    </trkpt>
    <trkpt lat="48.448685" lon="2.653019">
      <ele>140.8</ele>
      <time>2014-05-18T08:08:46Z</time>
    </trkpt>
    <trkpt lat="48.448779" lon="2.653141">
      <ele>140.8</ele>
      <time>2014-05-18T08:08:48Z</time>
    </trkpt>
    <trkpt lat="48.448858" lon="2.653267">
      <ele>140.8</ele>
      <time>2014-05-18T08:08:50Z</time>
    </trkpt>
    <trkpt lat="48.44893" lon="2.653382">
      <ele>140.7</ele>
      <time>2014-05-18T08:08:52Z</time>
    </trkpt>
    <trkpt lat="48.449001" lon="2.653691">
      <ele>140.0</ele>
      <time>2014-05-18T08:08:56Z</time>
    </trkpt>
    <trkpt lat="48.449" lon="2.653864">
      <ele>139.4</ele>
      <time>2014-05-18T08:08:59Z</time>
    </trkpt>
    <trkpt lat="48.448995" lon="2.654028">
      <ele>138.8</ele>
      <time>2014-05-18T08:09:01Z</time>
    </trkpt>
    <trkpt lat="48.448956" lon="2.654217">
      <ele>138.3</ele>
      <time>2014-05-18T08:09:03Z</time>
    </trkpt>
    <trkpt lat="48.448928" lon="2.654386">
      <ele>138.4</ele>
      <time>2014-05-18T08:09:05Z</time>
    </trkpt>
    <trkpt lat="48.448895" lon="2.654576">
      <ele>138.5</ele>
      <time>2014-05-18T08:09:07Z</time>
    </trkpt>
    <trkpt lat="48.448851" lon="2.654756">
      <ele>138.5</ele>
      <time>2014-05-18T08:09:09Z</time>
    </trkpt>
    <trkpt lat="48.448821" lon="2.654934">
      <ele>138.5</ele>
      <time>2014-05-18T08:09:11Z</time>
    </trkpt>
    <trkpt lat="48.448776" lon="2.655092">
      <ele>138.5</ele>
      <time>2014-05-18T08:09:13Z</time>
    </trkpt>
    <trkpt lat="48.448737" lon="2.655261">
      <ele>138.8</ele>
      <time>2014-05-18T08:09:15Z</time>
    </trkpt>
    <trkpt lat="48.448685" lon="2.655432">
      <ele>139.1</ele>
      <time>2014-05-18T08:09:17Z</time>
    </trkpt>
    <trkpt lat="48.448647" lon="2.65558">
      <ele>139.3</ele>
      <time>2014-05-18T08:09:19Z</time>
    </trkpt>
    <trkpt lat="48.448572" lon="2.65579">
      <ele>139.6</ele>
      <time>2014-05-18T08:09:21Z</time>
    </trkpt>
    <trkpt lat="48.448517" lon="2.655942">
      <ele>139.3</ele>
      <time>2014-05-18T08:09:23Z</time>
    </trkpt>
    <trkpt lat="48.448487" lon="2.656125">
      <ele>139.0</ele>
      <time>2014-05-18T08:09:25Z</time>
    </trkpt>
    <trkpt lat="48.448451" lon="2.656312">
      <ele>138.8</ele>
      <time>2014-05-18T08:09:27Z</time>
    </trkpt>
    <trkpt lat="48.448401" lon="2.656484">
      <ele>138.4</ele>
      <time>2014-05-18T08:09:29Z</time>
    </trkpt>
    <trkpt lat="48.448337" lon="2.656653">
      <ele>138.0</ele>
      <time>2014-05-18T08:09:31Z</time>
    </trkpt>
    <trkpt lat="48.448281" lon="2.656833">
      <ele>138.0</ele>
      <time>2014-05-18T08:09:33Z</time>
    </trkpt>
    <trkpt lat="48.448242" lon="2.657022">
      <ele>138.3</ele>
      <time>2014-05-18T08:09:35Z</time>
    </trkpt>
    <trkpt lat="48.448192" lon="2.657182">
      <ele>138.4</ele>
      <time>2014-05-18T08:09:37Z</time>
    </trkpt>
    <trkpt lat="48.448144" lon="2.657326">
      <ele>138.5</ele>
      <time>2014-05-18T08:09:39Z</time>
    </trkpt>
    <trkpt lat="48.448113" lon="2.657533">
      <ele>139.0</ele>
      <time>2014-05-18T08:09:41Z</time>
    </trkpt>
    <trkpt lat="48.448072" lon="2.657696">
      <ele>139.1</ele>
      <time>2014-05-18T08:09:43Z</time>
    </trkpt>
    <trkpt lat="48.448021" lon="2.657852">
      <ele>139.2</ele>
      <time>2014-05-18T08:09:45Z</time>
    </trkpt>
    <trkpt lat="48.447974" lon="2.658009">
      <ele>139.3</ele>
      <time>2014-05-18T08:09:47Z</time>
    </trkpt>
    <trkpt lat="48.447921" lon="2.658182">
      <ele>139.5</ele>
      <time>2014-05-18T08:09:49Z</time>
    </trkpt>
    <trkpt lat="48.447886" lon="2.658317">
      <ele>139.7</ele>
      <time>2014-05-18T08:09:51Z</time>
    </trkpt>
    <trkpt lat="48.447854" lon="2.658503">
      <ele>139.5</ele>
      <time>2014-05-18T08:09:53Z</time>
    </trkpt>
    <trkpt lat="48.447754" lon="2.658803">
      <ele>138.9</ele>
      <time>2014-05-18T08:09:57Z</time>
    </trkpt>
    <trkpt lat="48.447715" lon="2.658959">
      <ele>138.7</ele>
      <time>2014-05-18T08:09:59Z</time>
    </trkpt>
    <trkpt lat="48.447677" lon="2.659125">
      <ele>138.6</ele>
      <time>2014-05-18T08:10:01Z</time>
    </trkpt>
    <trkpt lat="48.447617" lon="2.659349">
      <ele>138.6</ele>
      <time>2014-05-18T08:10:03Z</time>
    </trkpt>
    <trkpt lat="48.44756" lon="2.659514">
      <ele>138.6</ele>
      <time>2014-05-18T08:10:05Z</time>
    </trkpt>
    <trkpt lat="48.447523" lon="2.65967">
      <ele>138.7</ele>
      <time>2014-05-18T08:10:07Z</time>
    </trkpt>
    <trkpt lat="48.447471" lon="2.659849">
      <ele>138.9</ele>
      <time>2014-05-18T08:10:09Z</time>
    </trkpt>
    <trkpt lat="48.447425" lon="2.659995">
      <ele>139.2</ele>
      <time>2014-05-18T08:10:11Z</time>
    </trkpt>
    <trkpt lat="48.447395" lon="2.660139">
      <ele>139.7</ele>
      <time>2014-05-18T08:10:13Z</time>
    </trkpt>
    <trkpt lat="48.447334" lon="2.660248">
      <ele>140.2</ele>
      <time>2014-05-18T08:10:15Z</time>
    </trkpt>
    <trkpt lat="48.447279" lon="2.660395">
      <ele>140.8</ele>
      <time>2014-05-18T08:10:18Z</time>
    </trkpt>
    <trkpt lat="48.447171" lon="2.66047">
      <ele>141.3</ele>
      <time>2014-05-18T08:10:22Z</time>
    </trkpt>
    <trkpt lat="48.447079" lon="2.660529">
      <ele>141.6</ele>
      <time>2014-05-18T08:10:25Z</time>
    </trkpt>
    <trkpt lat="48.446969" lon="2.660593">
      <ele>142.0</ele>
      <time>2014-05-18T08:10:28Z</time>
    </trkpt>
    <trkpt lat="48.446848" lon="2.660677">
      <ele>142.4</ele>
      <time>2014-05-18T08:10:31Z</time>
    </trkpt>
    <trkpt lat="48.446761" lon="2.660731">
      <ele>142.6</ele>
      <time>2014-05-18T08:10:33Z</time>
    </trkpt>
    <trkpt lat="48.446589" lon="2.66084">
      <ele>142.8</ele>
      <time>2014-05-18T08:10:37Z</time>
    </trkpt>
    <trkpt lat="48.446507" lon="2.660897">
      <ele>142.7</ele>
      <time>2014-05-18T08:10:39Z</time>
    </trkpt>
    <trkpt lat="48.446409" lon="2.660929">
      <ele>142.6</ele>
      <time>2014-05-18T08:10:41Z</time>
    </trkpt>
    <trkpt lat="48.446316" lon="2.66099">
      <ele>142.5</ele>
      <time>2014-05-18T08:10:43Z</time>
    </trkpt>
    <trkpt lat="48.446224" lon="2.661049">
      <ele>142.5</ele>
      <time>2014-05-18T08:10:45Z</time>
    </trkpt>
    <trkpt lat="48.446137" lon="2.661105">
      <ele>142.5</ele>
      <time>2014-05-18T08:10:47Z</time>
    </trkpt>
    <trkpt lat="48.446043" lon="2.661164">
      <ele>142.5</ele>
      <time>2014-05-18T08:10:49Z</time>
    </trkpt>
    <trkpt lat="48.445948" lon="2.661225">
      <ele>142.6</ele>
      <time>2014-05-18T08:10:51Z</time>
    </trkpt>
    <trkpt lat="48.445811" lon="2.661302">
      <ele>142.6</ele>
      <time>2014-05-18T08:10:54Z</time>
    </trkpt>
    <trkpt lat="48.445717" lon="2.661361">
      <ele>142.5</ele>
      <time>2014-05-18T08:10:56Z</time>
    </trkpt>
    <trkpt lat="48.445627" lon="2.66142">
      <ele>142.4</ele>
      <time>2014-05-18T08:10:58Z</time>
    </trkpt>
    <trkpt lat="48.44554" lon="2.661462">
      <ele>142.3</ele>
      <time>2014-05-18T08:11:00Z</time>
    </trkpt>
    <trkpt lat="48.445429" lon="2.661527">
      <ele>142.1</ele>
      <time>2014-05-18T08:11:03Z</time>
    </trkpt>
    <trkpt lat="48.445328" lon="2.661587">
      <ele>142.0</ele>
      <time>2014-05-18T08:11:07Z</time>
    </trkpt>
    <trkpt lat="48.445332" lon="2.661435">
      <ele>141.5</ele>
      <time>2014-05-18T08:11:15Z</time>
    </trkpt>
    <trkpt lat="48.445384" lon="2.661302">
      <ele>141.3</ele>
      <time>2014-05-18T08:11:18Z</time>
    </trkpt>
    <trkpt lat="48.445449" lon="2.661171">
      <ele>141.1</ele>
      <time>2014-05-18T08:11:21Z</time>
    </trkpt>
    <trkpt lat="48.445517" lon="2.661012">
      <ele>140.8</ele>
      <time>2014-05-18T08:11:24Z</time>
    </trkpt>
    <trkpt lat="48.445583" lon="2.660841">
      <ele>140.4</ele>
      <time>2014-05-18T08:11:27Z</time>
    </trkpt>
    <trkpt lat="48.44563" lon="2.660725">
      <ele>140.3</ele>
      <time>2014-05-18T08:11:29Z</time>
    </trkpt>
    <trkpt lat="48.44568" lon="2.660607">
      <ele>140.1</ele>
      <time>2014-05-18T08:11:31Z</time>
    </trkpt>
    <trkpt lat="48.445728" lon="2.660489">
      <ele>140.0</ele>
      <time>2014-05-18T08:11:33Z</time>
    </trkpt>
    <trkpt lat="48.445777" lon="2.660372">
      <ele>139.8</ele>
      <time>2014-05-18T08:11:35Z</time>
    </trkpt>
    <trkpt lat="48.445873" lon="2.660136">
      <ele>139.4</ele>
      <time>2014-05-18T08:11:39Z</time>
    </trkpt>
    <trkpt lat="48.445922" lon="2.660021">
      <ele>139.3</ele>
      <time>2014-05-18T08:11:41Z</time>
    </trkpt>
    <trkpt lat="48.445996" lon="2.659853">
      <ele>138.8</ele>
      <time>2014-05-18T08:11:44Z</time>
    </trkpt>
    <trkpt lat="48.446057" lon="2.659702">
      <ele>138.4</ele>
      <time>2014-05-18T08:11:47Z</time>
    </trkpt>
    <trkpt lat="48.446134" lon="2.659576">
      <ele>138.0</ele>
      <time>2014-05-18T08:11:50Z</time>
    </trkpt>
    <trkpt lat="48.446179" lon="2.659447">
      <ele>137.6</ele>
      <time>2014-05-18T08:11:53Z</time>
    </trkpt>
    <trkpt lat="48.446239" lon="2.6593">
      <ele>137.0</ele>
      <time>2014-05-18T08:11:55Z</time>
    </trkpt>
    <trkpt lat="48.446291" lon="2.659162">
      <ele>136.5</ele>
      <time>2014-05-18T08:11:58Z</time>
    </trkpt>
    <trkpt lat="48.446373" lon="2.658996">
      <ele>135.6</ele>
      <time>2014-05-18T08:12:01Z</time>
    </trkpt>
    <trkpt lat="48.446454" lon="2.658846">
      <ele>134.6</ele>
      <time>2014-05-18T08:12:03Z</time>
    </trkpt>
    <trkpt lat="48.446501" lon="2.658715">
      <ele>133.7</ele>
      <time>2014-05-18T08:12:05Z</time>
    </trkpt>
    <trkpt lat="48.446529" lon="2.658567">
      <ele>132.5</ele>
      <time>2014-05-18T08:12:07Z</time>
    </trkpt>
    <trkpt lat="48.446588" lon="2.65846">
      <ele>131.4</ele>
      <time>2014-05-18T08:12:09Z</time>
    </trkpt>
    <trkpt lat="48.446646" lon="2.658247">
      <ele>129.6</ele>
      <time>2014-05-18T08:12:12Z</time>
    </trkpt>
    <trkpt lat="48.446684" lon="2.658072">
      <ele>128.6</ele>
      <time>2014-05-18T08:12:14Z</time>
    </trkpt>
    <trkpt lat="48.446731" lon="2.657899">
      <ele>128.0</ele>
      <time>2014-05-18T08:12:16Z</time>
    </trkpt>
    <trkpt lat="48.446768" lon="2.657709">
      <ele>127.2</ele>
      <time>2014-05-18T08:12:19Z</time>
    </trkpt>
    <trkpt lat="48.44678" lon="2.657555">
      <ele>126.4</ele>
      <time>2014-05-18T08:12:22Z</time>
    </trkpt>
    <trkpt lat="48.446819" lon="2.657388">
      <ele>126.3</ele>
      <time>2014-05-18T08:12:25Z</time>
    </trkpt>
    <trkpt lat="48.446839" lon="2.657203">
      <ele>126.1</ele>
      <time>2014-05-18T08:12:28Z</time>
    </trkpt>
    <trkpt lat="48.446865" lon="2.657023">
      <ele>125.9</ele>
      <time>2014-05-18T08:12:31Z</time>
    </trkpt>
    <trkpt lat="48.446908" lon="2.656856">
      <ele>125.9</ele>
      <time>2014-05-18T08:12:34Z</time>
    </trkpt>
    <trkpt lat="48.446943" lon="2.656664">
      <ele>125.7</ele>
      <time>2014-05-18T08:12:37Z</time>
    </trkpt>
    <trkpt lat="48.447011" lon="2.656324">
      <ele>126.0</ele>
      <time>2014-05-18T08:12:42Z</time>
    </trkpt>
    <trkpt lat="48.447037" lon="2.656179">
      <ele>126.0</ele>
      <time>2014-05-18T08:12:44Z</time>
    </trkpt>
    <trkpt lat="48.447062" lon="2.656026">
      <ele>126.0</ele>
      <time>2014-05-18T08:12:46Z</time>
    </trkpt>
    <trkpt lat="48.44707" lon="2.655875">
      <ele>126.0</ele>
      <time>2014-05-18T08:12:48Z</time>
    </trkpt>
    <trkpt lat="48.4471" lon="2.655697">
      <ele>125.6</ele>
      <time>2014-05-18T08:12:51Z</time>
    </trkpt>
    <trkpt lat="48.447134" lon="2.655516">
      <ele>125.1</ele>
      <time>2014-05-18T08:12:54Z</time>
    </trkpt>
    <trkpt lat="48.447171" lon="2.655338">
      <ele>124.7</ele>
      <time>2014-05-18T08:12:57Z</time>
    </trkpt>
    <trkpt lat="48.447215" lon="2.655178">
      <ele>124.2</ele>
      <time>2014-05-18T08:13:00Z</time>
    </trkpt>
    <trkpt lat="48.447245" lon="2.655038">
      <ele>123.8</ele>
      <time>2014-05-18T08:13:03Z</time>
    </trkpt>
    <trkpt lat="48.44727" lon="2.654895">
      <ele>123.9</ele>
      <time>2014-05-18T08:13:07Z</time>
    </trkpt>
    <trkpt lat="48.447297" lon="2.654762">
      <ele>124.1</ele>
      <time>2014-05-18T08:13:12Z</time>
    </trkpt>
    <trkpt lat="48.447331" lon="2.654612">
      <ele>124.5</ele>
      <time>2014-05-18T08:13:18Z</time>
    </trkpt>
    <trkpt lat="48.447348" lon="2.654474">
      <ele>124.9</ele>
      <time>2014-05-18T08:13:24Z</time>
    </trkpt>
    <trkpt lat="48.447303" lon="2.654355">
      <ele>124.8</ele>
      <time>2014-05-18T08:13:31Z</time>
    </trkpt>
    <trkpt lat="48.44722" lon="2.654255">
      <ele>124.2</ele>
      <time>2014-05-18T08:13:36Z</time>
    </trkpt>
    <trkpt lat="48.447144" lon="2.654166">
      <ele>123.6</ele>
      <time>2014-05-18T08:13:40Z</time>
    </trkpt>
    <trkpt lat="48.44695" lon="2.653966">
      <ele>122.9</ele>
      <time>2014-05-18T08:13:45Z</time>
    </trkpt>
    <trkpt lat="48.446853" lon="2.653832">
      <ele>122.8</ele>
      <time>2014-05-18T08:13:48Z</time>
    </trkpt>
    <trkpt lat="48.44673" lon="2.653722">
      <ele>122.3</ele>
      <time>2014-05-18T08:13:51Z</time>
    </trkpt>
    <trkpt lat="48.446652" lon="2.65364">
      <ele>122.1</ele>
      <time>2014-05-18T08:13:53Z</time>
    </trkpt>
    <trkpt lat="48.446576" lon="2.653566">
      <ele>122.2</ele>
      <time>2014-05-18T08:13:55Z</time>
    </trkpt>
    <trkpt lat="48.446471" lon="2.653474">
      <ele>121.9</ele>
      <time>2014-05-18T08:13:58Z</time>
    </trkpt>
    <trkpt lat="48.446382" lon="2.653415">
      <ele>121.5</ele>
      <time>2014-05-18T08:14:04Z</time>
    </trkpt>
    <trkpt lat="48.446295" lon="2.65335">
      <ele>120.9</ele>
      <time>2014-05-18T08:15:16Z</time>
    </trkpt>
    <trkpt lat="48.44614" lon="2.653181">
      <ele>120.9</ele>
      <time>2014-05-18T08:15:29Z</time>
    </trkpt>
    <trkpt lat="48.446041" lon="2.653151">
      <ele>120.3</ele>
      <time>2014-05-18T08:15:32Z</time>
    </trkpt>
    <trkpt lat="48.445943" lon="2.653105">
      <ele>119.9</ele>
      <time>2014-05-18T08:15:35Z</time>
    </trkpt>
    <trkpt lat="48.445873" lon="2.653019">
      <ele>120.0</ele>
      <time>2014-05-18T08:15:39Z</time>
    </trkpt>
    <trkpt lat="48.445776" lon="2.653021">
      <ele>119.0</ele>
      <time>2014-05-18T08:15:56Z</time>
    </trkpt>
    <trkpt lat="48.445672" lon="2.653065">
      <ele>117.5</ele>
      <time>2014-05-18T08:16:04Z</time>
    </trkpt>
    <trkpt lat="48.445586" lon="2.652996">
      <ele>116.9</ele>
      <time>2014-05-18T08:16:33Z</time>
    </trkpt>
    <trkpt lat="48.445398" lon="2.652927">
      <ele>115.0</ele>
      <time>2014-05-18T08:16:42Z</time>
    </trkpt>
    <trkpt lat="48.445287" lon="2.652932">
      <ele>113.6</ele>
      <time>2014-05-18T08:16:44Z</time>
    </trkpt>
    <trkpt lat="48.445175" lon="2.652964">
      <ele>112.1</ele>
      <time>2014-05-18T08:16:46Z</time>
    </trkpt>
    <trkpt lat="48.445072" lon="2.653014">
      <ele>110.8</ele>
      <time>2014-05-18T08:16:49Z</time>
    </trkpt>
    <trkpt lat="48.444968" lon="2.653011">
      <ele>109.9</ele>
      <time>2014-05-18T08:16:52Z</time>
    </trkpt>
    <trkpt lat="48.444859" lon="2.652925">
      <ele>109.4</ele>
      <time>2014-05-18T08:16:55Z</time>
    </trkpt>
    <trkpt lat="48.444732" lon="2.652838">
      <ele>108.7</ele>
      <time>2014-05-18T08:16:57Z</time>
    </trkpt>
    <trkpt lat="48.444688" lon="2.652705">
      <ele>108.2</ele>
      <time>2014-05-18T08:17:01Z</time>
    </trkpt>
    <trkpt lat="48.444633" lon="2.652593">
      <ele>107.6</ele>
      <time>2014-05-18T08:17:04Z</time>
    </trkpt>
    <trkpt lat="48.444571" lon="2.652482">
      <ele>107.0</ele>
      <time>2014-05-18T08:17:08Z</time>
    </trkpt>
    <trkpt lat="48.444504" lon="2.652385">
      <ele>106.7</ele>
      <time>2014-05-18T08:17:12Z</time>
    </trkpt>
    <trkpt lat="48.444415" lon="2.652278">
      <ele>106.1</ele>
      <time>2014-05-18T08:17:16Z</time>
    </trkpt>
    <trkpt lat="48.444316" lon="2.652188">
      <ele>105.3</ele>
      <time>2014-05-18T08:17:20Z</time>
    </trkpt>
    <trkpt lat="48.444236" lon="2.65212">
      <ele>104.7</ele>
      <time>2014-05-18T08:17:22Z</time>
    </trkpt>
    <trkpt lat="48.444144" lon="2.652042">
      <ele>103.8</ele>
      <time>2014-05-18T08:17:25Z</time>
    </trkpt>
    <trkpt lat="48.444047" lon="2.651947">
      <ele>103.0</ele>
      <time>2014-05-18T08:17:29Z</time>
    </trkpt>
    <trkpt lat="48.443957" lon="2.651865">
      <ele>102.3</ele>
      <time>2014-05-18T08:17:32Z</time>
    </trkpt>
    <trkpt lat="48.443867" lon="2.65177">
      <ele>101.5</ele>
      <time>2014-05-18T08:17:36Z</time>
    </trkpt>
    <trkpt lat="48.443913" lon="2.651486">
      <ele>101.7</ele>
      <time>2014-05-18T08:17:45Z</time>
    </trkpt>
    <trkpt lat="48.443927" lon="2.651341">
      <ele>101.6</ele>
      <time>2014-05-18T08:17:49Z</time>
    </trkpt>
    <trkpt lat="48.443956" lon="2.651181">
      <ele>101.6</ele>
      <time>2014-05-18T08:17:53Z</time>
    </trkpt>
    <trkpt lat="48.443965" lon="2.651021">
      <ele>101.5</ele>
      <time>2014-05-18T08:17:56Z</time>
    </trkpt>
    <trkpt lat="48.443978" lon="2.650872">
      <ele>101.5</ele>
      <time>2014-05-18T08:17:59Z</time>
    </trkpt>
    <trkpt lat="48.443992" lon="2.650709">
      <ele>101.4</ele>
      <time>2014-05-18T08:18:02Z</time>
    </trkpt>
    <trkpt lat="48.444012" lon="2.650533">
      <ele>101.3</ele>
      <time>2014-05-18T08:18:05Z</time>
    </trkpt>
    <trkpt lat="48.444024" lon="2.65035">
      <ele>101.2</ele>
      <time>2014-05-18T08:18:08Z</time>
    </trkpt>
    <trkpt lat="48.444042" lon="2.650192">
      <ele>101.2</ele>
      <time>2014-05-18T08:18:11Z</time>
    </trkpt>
    <trkpt lat="48.444061" lon="2.650026">
      <ele>101.1</ele>
      <time>2014-05-18T08:18:14Z</time>
    </trkpt>
    <trkpt lat="48.444089" lon="2.649864">
      <ele>101.3</ele>
      <time>2014-05-18T08:18:17Z</time>
    </trkpt>
    <trkpt lat="48.444135" lon="2.649707">
      <ele>101.7</ele>
      <time>2014-05-18T08:18:20Z</time>
    </trkpt>
    <trkpt lat="48.444187" lon="2.649541">
      <ele>102.3</ele>
      <time>2014-05-18T08:18:23Z</time>
    </trkpt>
    <trkpt lat="48.444225" lon="2.6494">
      <ele>102.9</ele>
      <time>2014-05-18T08:18:25Z</time>
    </trkpt>
    <trkpt lat="48.444279" lon="2.649218">
      <ele>103.8</ele>
      <time>2014-05-18T08:18:28Z</time>
    </trkpt>
    <trkpt lat="48.444343" lon="2.649068">
      <ele>104.8</ele>
      <time>2014-05-18T08:18:31Z</time>
    </trkpt>
    <trkpt lat="48.444384" lon="2.64893">
      <ele>105.2</ele>
      <time>2014-05-18T08:18:33Z</time>
    </trkpt>
    <trkpt lat="48.444435" lon="2.648762">
      <ele>105.8</ele>
      <time>2014-05-18T08:18:36Z</time>
    </trkpt>
    <trkpt lat="48.444491" lon="2.648396">
      <ele>106.3</ele>
      <time>2014-05-18T08:18:42Z</time>
    </trkpt>
    <trkpt lat="48.444486" lon="2.648233">
      <ele>105.9</ele>
      <time>2014-05-18T08:18:44Z</time>
    </trkpt>
    <trkpt lat="48.444479" lon="2.648039">
      <ele>105.3</ele>
      <time>2014-05-18T08:18:47Z</time>
    </trkpt>
    <trkpt lat="48.44448" lon="2.64787">
      <ele>104.9</ele>
      <time>2014-05-18T08:18:50Z</time>
    </trkpt>
    <trkpt lat="48.444456" lon="2.647713">
      <ele>104.1</ele>
      <time>2014-05-18T08:18:52Z</time>
    </trkpt>
    <trkpt lat="48.444453" lon="2.647559">
      <ele>103.6</ele>
      <time>2014-05-18T08:18:54Z</time>
    </trkpt>
    <trkpt lat="48.444456" lon="2.647407">
      <ele>103.4</ele>
      <time>2014-05-18T08:18:56Z</time>
    </trkpt>
    <trkpt lat="48.444485" lon="2.647204">
      <ele>103.7</ele>
      <time>2014-05-18T08:18:59Z</time>
    </trkpt>
    <trkpt lat="48.444503" lon="2.647026">
      <ele>103.8</ele>
      <time>2014-05-18T08:19:02Z</time>
    </trkpt>
    <trkpt lat="48.444549" lon="2.646899">
      <ele>104.3</ele>
      <time>2014-05-18T08:19:05Z</time>
    </trkpt>
    <trkpt lat="48.44461" lon="2.646727">
      <ele>105.0</ele>
      <time>2014-05-18T08:19:08Z</time>
    </trkpt>
    <trkpt lat="48.444675" lon="2.646562">
      <ele>105.4</ele>
      <time>2014-05-18T08:19:11Z</time>
    </trkpt>
    <trkpt lat="48.444725" lon="2.646378">
      <ele>105.1</ele>
      <time>2014-05-18T08:19:14Z</time>
    </trkpt>
    <trkpt lat="48.444757" lon="2.64625">
      <ele>104.8</ele>
      <time>2014-05-18T08:19:16Z</time>
    </trkpt>
    <trkpt lat="48.44479" lon="2.646117">
      <ele>104.4</ele>
      <time>2014-05-18T08:19:18Z</time>
    </trkpt>
    <trkpt lat="48.444821" lon="2.645988">
      <ele>104.0</ele>
      <time>2014-05-18T08:19:20Z</time>
    </trkpt>
    <trkpt lat="48.444859" lon="2.645861">
      <ele>103.7</ele>
      <time>2014-05-18T08:19:22Z</time>
    </trkpt>
    <trkpt lat="48.444881" lon="2.64571">
      <ele>103.3</ele>
      <time>2014-05-18T08:19:24Z</time>
    </trkpt>
    <trkpt lat="48.444916" lon="2.645568">
      <ele>103.2</ele>
      <time>2014-05-18T08:19:26Z</time>
    </trkpt>
    <trkpt lat="48.44495" lon="2.645417">
      <ele>103.0</ele>
      <time>2014-05-18T08:19:28Z</time>
    </trkpt>
    <trkpt lat="48.444987" lon="2.645259">
      <ele>102.8</ele>
      <time>2014-05-18T08:19:30Z</time>
    </trkpt>
    <trkpt lat="48.445006" lon="2.645081">
      <ele>102.3</ele>
      <time>2014-05-18T08:19:32Z</time>
    </trkpt>
    <trkpt lat="48.445037" lon="2.644933">
      <ele>102.0</ele>
      <time>2014-05-18T08:19:34Z</time>
    </trkpt>
    <trkpt lat="48.445062" lon="2.644788">
      <ele>101.6</ele>
      <time>2014-05-18T08:19:36Z</time>
    </trkpt>
    <trkpt lat="48.445092" lon="2.644622">
      <ele>101.1</ele>
      <time>2014-05-18T08:19:38Z</time>
    </trkpt>
    <trkpt lat="48.445179" lon="2.644304">
      <ele>99.9</ele>
      <time>2014-05-18T08:19:42Z</time>
    </trkpt>
    <trkpt lat="48.445254" lon="2.64415">
      <ele>99.3</ele>
      <time>2014-05-18T08:19:44Z</time>
    </trkpt>
    <trkpt lat="48.445318" lon="2.644015">
      <ele>99.3</ele>
      <time>2014-05-18T08:19:46Z</time>
    </trkpt>
    <trkpt lat="48.445391" lon="2.643852">
      <ele>99.4</ele>
      <time>2014-05-18T08:19:48Z</time>
    </trkpt>
    <trkpt lat="48.445441" lon="2.643661">
      <ele>99.6</ele>
      <time>2014-05-18T08:19:50Z</time>
    </trkpt>
    <trkpt lat="48.445461" lon="2.643467">
      <ele>99.7</ele>
      <time>2014-05-18T08:19:52Z</time>
    </trkpt>
    <trkpt lat="48.445492" lon="2.643312">
      <ele>100.0</ele>
      <time>2014-05-18T08:19:54Z</time>
    </trkpt>
    <trkpt lat="48.445475" lon="2.643101">
      <ele>99.9</ele>
      <time>2014-05-18T08:19:56Z</time>
    </trkpt>
    <trkpt lat="48.445471" lon="2.642909">
      <ele>99.9</ele>
      <time>2014-05-18T08:19:58Z</time>
    </trkpt>
    <trkpt lat="48.445476" lon="2.642729">
      <ele>100.0</ele>
      <time>2014-05-18T08:20:00Z</time>
    </trkpt>
    <trkpt lat="48.445487" lon="2.642591">
      <ele>100.1</ele>
      <time>2014-05-18T08:20:02Z</time>
    </trkpt>
    <trkpt lat="48.445518" lon="2.642378">
      <ele>100.1</ele>
      <time>2014-05-18T08:20:04Z</time>
    </trkpt>
    <trkpt lat="48.445522" lon="2.642209">
      <ele>99.7</ele>
      <time>2014-05-18T08:20:06Z</time>
    </trkpt>
    <trkpt lat="48.445512" lon="2.642072">
      <ele>99.3</ele>
      <time>2014-05-18T08:20:08Z</time>
    </trkpt>
    <trkpt lat="48.44551" lon="2.641916">
      <ele>98.9</ele>
      <time>2014-05-18T08:20:10Z</time>
    </trkpt>
    <trkpt lat="48.44554" lon="2.641752">
      <ele>98.7</ele>
      <time>2014-05-18T08:20:12Z</time>
    </trkpt>
    <trkpt lat="48.445569" lon="2.641546">
      <ele>98.7</ele>
      <time>2014-05-18T08:20:14Z</time>
    </trkpt>
    <trkpt lat="48.445597" lon="2.641384">
      <ele>98.8</ele>
      <time>2014-05-18T08:20:16Z</time>
    </trkpt>
    <trkpt lat="48.445621" lon="2.641188">
      <ele>98.8</ele>
      <time>2014-05-18T08:20:18Z</time>
    </trkpt>
    <trkpt lat="48.445669" lon="2.64101">
      <ele>99.0</ele>
      <time>2014-05-18T08:20:20Z</time>
    </trkpt>
    <trkpt lat="48.445706" lon="2.640827">
      <ele>99.1</ele>
      <time>2014-05-18T08:20:22Z</time>
    </trkpt>
    <trkpt lat="48.445737" lon="2.640637">
      <ele>98.4</ele>
      <time>2014-05-18T08:20:24Z</time>
    </trkpt>
    <trkpt lat="48.445759" lon="2.64043">
      <ele>97.7</ele>
      <time>2014-05-18T08:20:26Z</time>
    </trkpt>
    <trkpt lat="48.445793" lon="2.640226">
      <ele>96.9</ele>
      <time>2014-05-18T08:20:28Z</time>
    </trkpt>
    <trkpt lat="48.445827" lon="2.640028">
      <ele>96.1</ele>
      <time>2014-05-18T08:20:30Z</time>
    </trkpt>
    <trkpt lat="48.445871" lon="2.639837">
      <ele>95.7</ele>
      <time>2014-05-18T08:20:32Z</time>
    </trkpt>
    <trkpt lat="48.445906" lon="2.639634">
      <ele>95.3</ele>
      <time>2014-05-18T08:20:34Z</time>
    </trkpt>
    <trkpt lat="48.445931" lon="2.639437">
      <ele>94.8</ele>
      <time>2014-05-18T08:20:36Z</time>
    </trkpt>
    <trkpt lat="48.445979" lon="2.63926">
      <ele>94.4</ele>
      <time>2014-05-18T08:20:38Z</time>
    </trkpt>
    <trkpt lat="48.44605" lon="2.638879">
      <ele>93.7</ele>
      <time>2014-05-18T08:20:42Z</time>
    </trkpt>
    <trkpt lat="48.446095" lon="2.638701">
      <ele>93.4</ele>
      <time>2014-05-18T08:20:44Z</time>
    </trkpt>
    <trkpt lat="48.446139" lon="2.638525">
      <ele>93.1</ele>
      <time>2014-05-18T08:20:46Z</time>
    </trkpt>
    <trkpt lat="48.446169" lon="2.638355">
      <ele>92.8</ele>
      <time>2014-05-18T08:20:48Z</time>
    </trkpt>
    <trkpt lat="48.446192" lon="2.638194">
      <ele>92.4</ele>
      <time>2014-05-18T08:20:50Z</time>
    </trkpt>
    <trkpt lat="48.446211" lon="2.638033">
      <ele>92.0</ele>
      <time>2014-05-18T08:20:52Z</time>
    </trkpt>
    <trkpt lat="48.446229" lon="2.637869">
      <ele>91.5</ele>
      <time>2014-05-18T08:20:54Z</time>
    </trkpt>
    <trkpt lat="48.446135" lon="2.63776">
      <ele>90.7</ele>
      <time>2014-05-18T08:20:56Z</time>
    </trkpt>
    <trkpt lat="48.446055" lon="2.637688">
      <ele>90.1</ele>
      <time>2014-05-18T08:20:58Z</time>
    </trkpt>
    <trkpt lat="48.44599" lon="2.63755">
      <ele>89.1</ele>
      <time>2014-05-18T08:21:00Z</time>
    </trkpt>
    <trkpt lat="48.445908" lon="2.637428">
      <ele>88.4</ele>
      <time>2014-05-18T08:21:03Z</time>
    </trkpt>
    <trkpt lat="48.445786" lon="2.637437">
      <ele>88.2</ele>
      <time>2014-05-18T08:21:06Z</time>
    </trkpt>
    <trkpt lat="48.445688" lon="2.637457">
      <ele>88.7</ele>
      <time>2014-05-18T08:21:08Z</time>
    </trkpt>
    <trkpt lat="48.445597" lon="2.637478">
      <ele>89.1</ele>
      <time>2014-05-18T08:21:10Z</time>
    </trkpt>
    <trkpt lat="48.445507" lon="2.637499">
      <ele>89.6</ele>
      <time>2014-05-18T08:21:12Z</time>
    </trkpt>
    <trkpt lat="48.445476" lon="2.637368">
      <ele>89.6</ele>
      <time>2014-05-18T08:21:14Z</time>
    </trkpt>
    <trkpt lat="48.445391" lon="2.637304">
      <ele>90.0</ele>
      <time>2014-05-18T08:21:16Z</time>
    </trkpt>
    <trkpt lat="48.445322" lon="2.637408">
      <ele>90.4</ele>
      <time>2014-05-18T08:21:20Z</time>
    </trkpt>
    <trkpt lat="48.445218" lon="2.637436">
      <ele>90.9</ele>
      <time>2014-05-18T08:21:25Z</time>
    </trkpt>
    <trkpt lat="48.445153" lon="2.63734">
      <ele>91.1</ele>
      <time>2014-05-18T08:21:52Z</time>
    </trkpt>
    <trkpt lat="48.445046" lon="2.637352">
      <ele>91.6</ele>
      <time>2014-05-18T08:22:15Z</time>
    </trkpt>
    <trkpt lat="48.444978" lon="2.637245">
      <ele>91.7</ele>
      <time>2014-05-18T08:22:18Z</time>
    </trkpt>
    <trkpt lat="48.444874" lon="2.637155">
      <ele>91.8</ele>
      <time>2014-05-18T08:22:21Z</time>
    </trkpt>
    <trkpt lat="48.444785" lon="2.637095">
      <ele>91.9</ele>
      <time>2014-05-18T08:22:24Z</time>
    </trkpt>
    <trkpt lat="48.444681" lon="2.637066">
      <ele>92.1</ele>
      <time>2014-05-18T08:22:26Z</time>
    </trkpt>
    <trkpt lat="48.444563" lon="2.636998">
      <ele>92.3</ele>
      <time>2014-05-18T08:22:29Z</time>
    </trkpt>
    <trkpt lat="48.444479" lon="2.636945">
      <ele>92.6</ele>
      <time>2014-05-18T08:22:31Z</time>
    </trkpt>
    <trkpt lat="48.444384" lon="2.636867">
      <ele>92.9</ele>
      <time>2014-05-18T08:22:34Z</time>
    </trkpt>
    <trkpt lat="48.44427" lon="2.636773">
      <ele>93.4</ele>
      <time>2014-05-18T08:22:37Z</time>
    </trkpt>
    <trkpt lat="48.444164" lon="2.636664">
      <ele>94.0</ele>
      <time>2014-05-18T08:22:40Z</time>
    </trkpt>
    <trkpt lat="48.444031" lon="2.636593">
      <ele>94.4</ele>
      <time>2014-05-18T08:22:42Z</time>
    </trkpt>
    <trkpt lat="48.443946" lon="2.636525">
      <ele>94.7</ele>
      <time>2014-05-18T08:22:44Z</time>
    </trkpt>
    <trkpt lat="48.443836" lon="2.636476">
      <ele>95.0</ele>
      <time>2014-05-18T08:22:47Z</time>
    </trkpt>
    <trkpt lat="48.443749" lon="2.636426">
      <ele>95.3</ele>
      <time>2014-05-18T08:22:49Z</time>
    </trkpt>
    <trkpt lat="48.443641" lon="2.636336">
      <ele>95.7</ele>
      <time>2014-05-18T08:22:52Z</time>
    </trkpt>
    <trkpt lat="48.443556" lon="2.636274">
      <ele>95.9</ele>
      <time>2014-05-18T08:22:54Z</time>
    </trkpt>
    <trkpt lat="48.443458" lon="2.636208">
      <ele>96.3</ele>
      <time>2014-05-18T08:22:56Z</time>
    </trkpt>
    <trkpt lat="48.443362" lon="2.636162">
      <ele>96.5</ele>
      <time>2014-05-18T08:22:58Z</time>
    </trkpt>
    <trkpt lat="48.443265" lon="2.636109">
      <ele>96.4</ele>
      <time>2014-05-18T08:23:01Z</time>
    </trkpt>
    <trkpt lat="48.443172" lon="2.636008">
      <ele>96.2</ele>
      <time>2014-05-18T08:23:04Z</time>
    </trkpt>
    <trkpt lat="48.443058" lon="2.635942">
      <ele>95.9</ele>
      <time>2014-05-18T08:23:06Z</time>
    </trkpt>
    <trkpt lat="48.442922" lon="2.63585">
      <ele>95.5</ele>
      <time>2014-05-18T08:23:09Z</time>
    </trkpt>
    <trkpt lat="48.442826" lon="2.63578">
      <ele>95.3</ele>
      <time>2014-05-18T08:23:11Z</time>
    </trkpt>
    <trkpt lat="48.442748" lon="2.635713">
      <ele>95.1</ele>
      <time>2014-05-18T08:23:13Z</time>
    </trkpt>
    <trkpt lat="48.442663" lon="2.635649">
      <ele>94.9</ele>
      <time>2014-05-18T08:23:15Z</time>
    </trkpt>
    <trkpt lat="48.442564" lon="2.635579">
      <ele>94.8</ele>
      <time>2014-05-18T08:23:18Z</time>
    </trkpt>
    <trkpt lat="48.442464" lon="2.635502">
      <ele>94.6</ele>
      <time>2014-05-18T08:23:21Z</time>
    </trkpt>
    <trkpt lat="48.442373" lon="2.635481">
      <ele>94.3</ele>
      <time>2014-05-18T08:23:22Z</time>
    </trkpt>
    <trkpt lat="48.442267" lon="2.635427">
      <ele>94.0</ele>
      <time>2014-05-18T08:23:24Z</time>
    </trkpt>
    <trkpt lat="48.442149" lon="2.635365">
      <ele>93.7</ele>
      <time>2014-05-18T08:23:26Z</time>
    </trkpt>
    <trkpt lat="48.442041" lon="2.635298">
      <ele>93.4</ele>
      <time>2014-05-18T08:23:28Z</time>
    </trkpt>
    <trkpt lat="48.441942" lon="2.635229">
      <ele>93.3</ele>
      <time>2014-05-18T08:23:30Z</time>
    </trkpt>
    <trkpt lat="48.441839" lon="2.635157">
      <ele>93.1</ele>
      <time>2014-05-18T08:23:33Z</time>
    </trkpt>
    <trkpt lat="48.441731" lon="2.635101">
      <ele>92.9</ele>
      <time>2014-05-18T08:23:35Z</time>
    </trkpt>
    <trkpt lat="48.44163" lon="2.635062">
      <ele>92.6</ele>
      <time>2014-05-18T08:23:37Z</time>
    </trkpt>
    <trkpt lat="48.441523" lon="2.635024">
      <ele>92.2</ele>
      <time>2014-05-18T08:23:39Z</time>
    </trkpt>
    <trkpt lat="48.441406" lon="2.634955">
      <ele>91.9</ele>
      <time>2014-05-18T08:23:41Z</time>
    </trkpt>
    <trkpt lat="48.441289" lon="2.634849">
      <ele>91.9</ele>
      <time>2014-05-18T08:23:43Z</time>
    </trkpt>
    <trkpt lat="48.441172" lon="2.634791">
      <ele>91.7</ele>
      <time>2014-05-18T08:23:45Z</time>
    </trkpt>
    <trkpt lat="48.441071" lon="2.634727">
      <ele>91.6</ele>
      <time>2014-05-18T08:23:47Z</time>
    </trkpt>
    <trkpt lat="48.440972" lon="2.634676">
      <ele>91.5</ele>
      <time>2014-05-18T08:23:49Z</time>
    </trkpt>
    <trkpt lat="48.440829" lon="2.634592">
      <ele>91.5</ele>
      <time>2014-05-18T08:23:52Z</time>
    </trkpt>
    <trkpt lat="48.440739" lon="2.634544">
      <ele>92.0</ele>
      <time>2014-05-18T08:23:54Z</time>
    </trkpt>
    <trkpt lat="48.44064" lon="2.63449">
      <ele>92.5</ele>
      <time>2014-05-18T08:23:56Z</time>
    </trkpt>
    <trkpt lat="48.440527" lon="2.634415">
      <ele>93.2</ele>
      <time>2014-05-18T08:23:59Z</time>
    </trkpt>
    <trkpt lat="48.440438" lon="2.634354">
      <ele>93.8</ele>
      <time>2014-05-18T08:24:01Z</time>
    </trkpt>
    <trkpt lat="48.440326" lon="2.63429">
      <ele>94.5</ele>
      <time>2014-05-18T08:24:06Z</time>
    </trkpt>
    <trkpt lat="48.440219" lon="2.634249">
      <ele>95.0</ele>
      <time>2014-05-18T08:24:09Z</time>
    </trkpt>
    <trkpt lat="48.44012" lon="2.634329">
      <ele>94.7</ele>
      <time>2014-05-18T08:24:13Z</time>
    </trkpt>
    <trkpt lat="48.440113" lon="2.634532">
      <ele>93.5</ele>
      <time>2014-05-18T08:24:17Z</time>
    </trkpt>
    <trkpt lat="48.440092" lon="2.634718">
      <ele>92.5</ele>
      <time>2014-05-18T08:24:20Z</time>
    </trkpt>
    <trkpt lat="48.440078" lon="2.634853">
      <ele>91.7</ele>
      <time>2014-05-18T08:24:22Z</time>
    </trkpt>
    <trkpt lat="48.440062" lon="2.635016">
      <ele>90.9</ele>
      <time>2014-05-18T08:24:24Z</time>
    </trkpt>
    <trkpt lat="48.440034" lon="2.635172">
      <ele>90.9</ele>
      <time>2014-05-18T08:24:26Z</time>
    </trkpt>
    <trkpt lat="48.44002" lon="2.635318">
      <ele>91.0</ele>
      <time>2014-05-18T08:24:28Z</time>
    </trkpt>
    <trkpt lat="48.439988" lon="2.635462">
      <ele>91.1</ele>
      <time>2014-05-18T08:24:30Z</time>
    </trkpt>
    <trkpt lat="48.439969" lon="2.635599">
      <ele>91.4</ele>
      <time>2014-05-18T08:24:32Z</time>
    </trkpt>
    <trkpt lat="48.439949" lon="2.635772">
      <ele>91.6</ele>
      <time>2014-05-18T08:24:34Z</time>
    </trkpt>
    <trkpt lat="48.439932" lon="2.635912">
      <ele>91.6</ele>
      <time>2014-05-18T08:24:36Z</time>
    </trkpt>
    <trkpt lat="48.439889" lon="2.636105">
      <ele>91.8</ele>
      <time>2014-05-18T08:24:39Z</time>
    </trkpt>
    <trkpt lat="48.439873" lon="2.636253">
      <ele>91.8</ele>
      <time>2014-05-18T08:24:41Z</time>
    </trkpt>
    <trkpt lat="48.439854" lon="2.636393">
      <ele>91.8</ele>
      <time>2014-05-18T08:24:43Z</time>
    </trkpt>
    <trkpt lat="48.439847" lon="2.636557">
      <ele>91.6</ele>
      <time>2014-05-18T08:24:45Z</time>
    </trkpt>
    <trkpt lat="48.439824" lon="2.636721">
      <ele>91.6</ele>
      <time>2014-05-18T08:24:47Z</time>
    </trkpt>
    <trkpt lat="48.439802" lon="2.636863">
      <ele>91.6</ele>
      <time>2014-05-18T08:24:49Z</time>
    </trkpt>
    <trkpt lat="48.439797" lon="2.637027">
      <ele>91.4</ele>
      <time>2014-05-18T08:24:51Z</time>
    </trkpt>
    <trkpt lat="48.439769" lon="2.637174">
      <ele>91.4</ele>
      <time>2014-05-18T08:24:53Z</time>
    </trkpt>
    <trkpt lat="48.439752" lon="2.637322">
      <ele>91.4</ele>
      <time>2014-05-18T08:24:55Z</time>
    </trkpt>
    <trkpt lat="48.43974" lon="2.637486">
      <ele>91.2</ele>
      <time>2014-05-18T08:24:58Z</time>
    </trkpt>
    <trkpt lat="48.439722" lon="2.637676">
      <ele>91.3</ele>
      <time>2014-05-18T08:25:01Z</time>
    </trkpt>
    <trkpt lat="48.43968" lon="2.637841">
      <ele>91.6</ele>
      <time>2014-05-18T08:25:04Z</time>
    </trkpt>
    <trkpt lat="48.439662" lon="2.638012">
      <ele>91.7</ele>
      <time>2014-05-18T08:25:06Z</time>
    </trkpt>
    <trkpt lat="48.439635" lon="2.638202">
      <ele>91.8</ele>
      <time>2014-05-18T08:25:09Z</time>
    </trkpt>
    <trkpt lat="48.43962" lon="2.638336">
      <ele>91.8</ele>
      <time>2014-05-18T08:25:11Z</time>
    </trkpt>
    <trkpt lat="48.439611" lon="2.638519">
      <ele>91.9</ele>
      <time>2014-05-18T08:25:14Z</time>
    </trkpt>
    <trkpt lat="48.439588" lon="2.638717">
      <ele>92.0</ele>
      <time>2014-05-18T08:25:17Z</time>
    </trkpt>
    <trkpt lat="48.439561" lon="2.638886">
      <ele>92.1</ele>
      <time>2014-05-18T08:25:19Z</time>
    </trkpt>
    <trkpt lat="48.439569" lon="2.63907">
      <ele>92.1</ele>
      <time>2014-05-18T08:25:22Z</time>
    </trkpt>
    <trkpt lat="48.439541" lon="2.639235">
      <ele>92.2</ele>
      <time>2014-05-18T08:25:25Z</time>
    </trkpt>
    <trkpt lat="48.439507" lon="2.639413">
      <ele>92.2</ele>
      <time>2014-05-18T08:25:28Z</time>
    </trkpt>
    <trkpt lat="48.439465" lon="2.639544">
      <ele>92.4</ele>
      <time>2014-05-18T08:25:30Z</time>
    </trkpt>
    <trkpt lat="48.439445" lon="2.639726">
      <ele>92.4</ele>
      <time>2014-05-18T08:25:33Z</time>
    </trkpt>
    <trkpt lat="48.43941" lon="2.639886">
      <ele>92.6</ele>
      <time>2014-05-18T08:25:35Z</time>
    </trkpt>
    <trkpt lat="48.439377" lon="2.640066">
      <ele>92.7</ele>
      <time>2014-05-18T08:25:38Z</time>
    </trkpt>
    <trkpt lat="48.439343" lon="2.640249">
      <ele>92.9</ele>
      <time>2014-05-18T08:25:41Z</time>
    </trkpt>
    <trkpt lat="48.439333" lon="2.640393">
      <ele>92.9</ele>
      <time>2014-05-18T08:25:43Z</time>
    </trkpt>
    <trkpt lat="48.439296" lon="2.640518">
      <ele>93.1</ele>
      <time>2014-05-18T08:25:45Z</time>
    </trkpt>
    <trkpt lat="48.439249" lon="2.640693">
      <ele>93.4</ele>
      <time>2014-05-18T08:25:48Z</time>
    </trkpt>
    <trkpt lat="48.439228" lon="2.640847">
      <ele>93.5</ele>
      <time>2014-05-18T08:25:51Z</time>
    </trkpt>
    <trkpt lat="48.439186" lon="2.64097">
      <ele>93.4</ele>
      <time>2014-05-18T08:25:53Z</time>
    </trkpt>
    <trkpt lat="48.439161" lon="2.641155">
      <ele>92.9</ele>
      <time>2014-05-18T08:25:56Z</time>
    </trkpt>
    <trkpt lat="48.439119" lon="2.641338">
      <ele>92.7</ele>
      <time>2014-05-18T08:25:59Z</time>
    </trkpt>
    <trkpt lat="48.439088" lon="2.641526">
      <ele>92.4</ele>
      <time>2014-05-18T08:26:02Z</time>
    </trkpt>
    <trkpt lat="48.439063" lon="2.641661">
      <ele>92.1</ele>
      <time>2014-05-18T08:26:04Z</time>
    </trkpt>
    <trkpt lat="48.43902" lon="2.641859">
      <ele>92.9</ele>
      <time>2014-05-18T08:26:07Z</time>
    </trkpt>
    <trkpt lat="48.43898" lon="2.642054">
      <ele>93.6</ele>
      <time>2014-05-18T08:26:10Z</time>
    </trkpt>
    <trkpt lat="48.438958" lon="2.642189">
      <ele>94.0</ele>
      <time>2014-05-18T08:26:12Z</time>
    </trkpt>
    <trkpt lat="48.438925" lon="2.642387">
      <ele>94.6</ele>
      <time>2014-05-18T08:26:15Z</time>
    </trkpt>
    <trkpt lat="48.438899" lon="2.642518">
      <ele>94.9</ele>
      <time>2014-05-18T08:26:17Z</time>
    </trkpt>
    <trkpt lat="48.438857" lon="2.642638">
      <ele>94.9</ele>
      <time>2014-05-18T08:26:19Z</time>
    </trkpt>
    <trkpt lat="48.438735" lon="2.642745">
      <ele>95.5</ele>
      <time>2014-05-18T08:26:22Z</time>
    </trkpt>
    <trkpt lat="48.438645" lon="2.642796">
      <ele>96.0</ele>
      <time>2014-05-18T08:26:24Z</time>
    </trkpt>
    <trkpt lat="48.438553" lon="2.642829">
      <ele>96.4</ele>
      <time>2014-05-18T08:26:26Z</time>
    </trkpt>
    <trkpt lat="48.438465" lon="2.642866">
      <ele>96.9</ele>
      <time>2014-05-18T08:26:28Z</time>
    </trkpt>
    <trkpt lat="48.438342" lon="2.642904">
      <ele>97.5</ele>
      <time>2014-05-18T08:26:31Z</time>
    </trkpt>
    <trkpt lat="48.438217" lon="2.64296">
      <ele>97.7</ele>
      <time>2014-05-18T08:26:34Z</time>
    </trkpt>
    <trkpt lat="48.438136" lon="2.643021">
      <ele>97.6</ele>
      <time>2014-05-18T08:26:36Z</time>
    </trkpt>
    <trkpt lat="48.438048" lon="2.643103">
      <ele>97.5</ele>
      <time>2014-05-18T08:26:39Z</time>
    </trkpt>
    <trkpt lat="48.437947" lon="2.643197">
      <ele>97.2</ele>
      <time>2014-05-18T08:26:42Z</time>
    </trkpt>
    <trkpt lat="48.437854" lon="2.643234">
      <ele>97.1</ele>
      <time>2014-05-18T08:26:44Z</time>
    </trkpt>
    <trkpt lat="48.437735" lon="2.643318">
      <ele>96.8</ele>
      <time>2014-05-18T08:26:47Z</time>
    </trkpt>
    <trkpt lat="48.43761" lon="2.643381">
      <ele>96.9</ele>
      <time>2014-05-18T08:26:50Z</time>
    </trkpt>
    <trkpt lat="48.437489" lon="2.643435">
      <ele>97.0</ele>
      <time>2014-05-18T08:26:53Z</time>
    </trkpt>
    <trkpt lat="48.437366" lon="2.643445">
      <ele>97.4</ele>
      <time>2014-05-18T08:26:56Z</time>
    </trkpt>
    <trkpt lat="48.437254" lon="2.643444">
      <ele>97.7</ele>
      <time>2014-05-18T08:26:59Z</time>
    </trkpt>
    <trkpt lat="48.437145" lon="2.643449">
      <ele>98.0</ele>
      <time>2014-05-18T08:27:02Z</time>
    </trkpt>
    <trkpt lat="48.437037" lon="2.643452">
      <ele>98.4</ele>
      <time>2014-05-18T08:27:05Z</time>
    </trkpt>
    <trkpt lat="48.43693" lon="2.643444">
      <ele>98.7</ele>
      <time>2014-05-18T08:27:08Z</time>
    </trkpt>
    <trkpt lat="48.436805" lon="2.643475">
      <ele>98.9</ele>
      <time>2014-05-18T08:27:11Z</time>
    </trkpt>
    <trkpt lat="48.436716" lon="2.643527">
      <ele>98.9</ele>
      <time>2014-05-18T08:27:13Z</time>
    </trkpt>
    <trkpt lat="48.436604" lon="2.643639">
      <ele>98.9</ele>
      <time>2014-05-18T08:27:16Z</time>
    </trkpt>
    <trkpt lat="48.436523" lon="2.643732">
      <ele>99.0</ele>
      <time>2014-05-18T08:27:19Z</time>
    </trkpt>
    <trkpt lat="48.43642" lon="2.643822">
      <ele>99.3</ele>
      <time>2014-05-18T08:27:22Z</time>
    </trkpt>
    <trkpt lat="48.436319" lon="2.64396">
      <ele>99.4</ele>
      <time>2014-05-18T08:27:25Z</time>
    </trkpt>
    <trkpt lat="48.43623" lon="2.644129">
      <ele>99.3</ele>
      <time>2014-05-18T08:27:28Z</time>
    </trkpt>
    <trkpt lat="48.436168" lon="2.644283">
      <ele>99.6</ele>
      <time>2014-05-18T08:27:30Z</time>
    </trkpt>
    <trkpt lat="48.43611" lon="2.644416">
      <ele>100.0</ele>
      <time>2014-05-18T08:27:32Z</time>
    </trkpt>
    <trkpt lat="48.436033" lon="2.644512">
      <ele>100.3</ele>
      <time>2014-05-18T08:27:34Z</time>
    </trkpt>
    <trkpt lat="48.435963" lon="2.644645">
      <ele>100.5</ele>
      <time>2014-05-18T08:27:37Z</time>
    </trkpt>
    <trkpt lat="48.435915" lon="2.644769">
      <ele>100.4</ele>
      <time>2014-05-18T08:27:39Z</time>
    </trkpt>
    <trkpt lat="48.435872" lon="2.644893">
      <ele>100.2</ele>
      <time>2014-05-18T08:27:41Z</time>
    </trkpt>
    <trkpt lat="48.435836" lon="2.645023">
      <ele>100.0</ele>
      <time>2014-05-18T08:27:43Z</time>
    </trkpt>
    <trkpt lat="48.435811" lon="2.645161">
      <ele>99.9</ele>
      <time>2014-05-18T08:27:45Z</time>
    </trkpt>
    <trkpt lat="48.435768" lon="2.645298">
      <ele>99.8</ele>
      <time>2014-05-18T08:27:48Z</time>
    </trkpt>
    <trkpt lat="48.435698" lon="2.645458">
      <ele>99.7</ele>
      <time>2014-05-18T08:27:51Z</time>
    </trkpt>
    <trkpt lat="48.435645" lon="2.645595">
      <ele>99.5</ele>
      <time>2014-05-18T08:27:53Z</time>
    </trkpt>
    <trkpt lat="48.435531" lon="2.645727">
      <ele>99.3</ele>
      <time>2014-05-18T08:27:56Z</time>
    </trkpt>
    <trkpt lat="48.435398" lon="2.645818">
      <ele>99.0</ele>
      <time>2014-05-18T08:27:59Z</time>
    </trkpt>
    <trkpt lat="48.435297" lon="2.645893">
      <ele>98.9</ele>
      <time>2014-05-18T08:28:02Z</time>
    </trkpt>
    <trkpt lat="48.4352" lon="2.645948">
      <ele>98.8</ele>
      <time>2014-05-18T08:28:04Z</time>
    </trkpt>
    <trkpt lat="48.435081" lon="2.646031">
      <ele>98.7</ele>
      <time>2014-05-18T08:28:07Z</time>
    </trkpt>
    <trkpt lat="48.434991" lon="2.646067">
      <ele>98.6</ele>
      <time>2014-05-18T08:28:09Z</time>
    </trkpt>
    <trkpt lat="48.434866" lon="2.646149">
      <ele>98.7</ele>
      <time>2014-05-18T08:28:12Z</time>
    </trkpt>
    <trkpt lat="48.434763" lon="2.646217">
      <ele>98.8</ele>
      <time>2014-05-18T08:28:14Z</time>
    </trkpt>
    <trkpt lat="48.434668" lon="2.646274">
      <ele>98.8</ele>
      <time>2014-05-18T08:28:16Z</time>
    </trkpt>
    <trkpt lat="48.434549" lon="2.646336">
      <ele>98.8</ele>
      <time>2014-05-18T08:28:19Z</time>
    </trkpt>
    <trkpt lat="48.434444" lon="2.646385">
      <ele>98.7</ele>
      <time>2014-05-18T08:28:22Z</time>
    </trkpt>
    <trkpt lat="48.434348" lon="2.646445">
      <ele>98.5</ele>
      <time>2014-05-18T08:28:25Z</time>
    </trkpt>
    <trkpt lat="48.434259" lon="2.6465">
      <ele>98.4</ele>
      <time>2014-05-18T08:28:28Z</time>
    </trkpt>
    <trkpt lat="48.434143" lon="2.646559">
      <ele>98.1</ele>
      <time>2014-05-18T08:28:31Z</time>
    </trkpt>
    <trkpt lat="48.434016" lon="2.646632">
      <ele>97.8</ele>
      <time>2014-05-18T08:28:34Z</time>
    </trkpt>
    <trkpt lat="48.433925" lon="2.646675">
      <ele>97.7</ele>
      <time>2014-05-18T08:28:36Z</time>
    </trkpt>
    <trkpt lat="48.433838" lon="2.64673">
      <ele>97.6</ele>
      <time>2014-05-18T08:28:38Z</time>
    </trkpt>
    <trkpt lat="48.433739" lon="2.646776">
      <ele>97.5</ele>
      <time>2014-05-18T08:28:40Z</time>
    </trkpt>
    <trkpt lat="48.43362" lon="2.646859">
      <ele>97.3</ele>
      <time>2014-05-18T08:28:43Z</time>
    </trkpt>
    <trkpt lat="48.433536" lon="2.646916">
      <ele>97.2</ele>
      <time>2014-05-18T08:28:45Z</time>
    </trkpt>
    <trkpt lat="48.433452" lon="2.646997">
      <ele>97.1</ele>
      <time>2014-05-18T08:28:47Z</time>
    </trkpt>
    <trkpt lat="48.433363" lon="2.647069">
      <ele>97.0</ele>
      <time>2014-05-18T08:28:49Z</time>
    </trkpt>
    <trkpt lat="48.433272" lon="2.647133">
      <ele>97.1</ele>
      <time>2014-05-18T08:28:51Z</time>
    </trkpt>
    <trkpt lat="48.433149" lon="2.6472">
      <ele>97.4</ele>
      <time>2014-05-18T08:28:54Z</time>
    </trkpt>
    <trkpt lat="48.433042" lon="2.647292">
      <ele>97.7</ele>
      <time>2014-05-18T08:28:56Z</time>
    </trkpt>
    <trkpt lat="48.432946" lon="2.647326">
      <ele>97.9</ele>
      <time>2014-05-18T08:28:58Z</time>
    </trkpt>
    <trkpt lat="48.432858" lon="2.64737">
      <ele>98.1</ele>
      <time>2014-05-18T08:29:00Z</time>
    </trkpt>
    <trkpt lat="48.432768" lon="2.647418">
      <ele>98.4</ele>
      <time>2014-05-18T08:29:02Z</time>
    </trkpt>
    <trkpt lat="48.432648" lon="2.64748">
      <ele>98.6</ele>
      <time>2014-05-18T08:29:05Z</time>
    </trkpt>
    <trkpt lat="48.432522" lon="2.647565">
      <ele>99.0</ele>
      <time>2014-05-18T08:29:08Z</time>
    </trkpt>
    <trkpt lat="48.43242" lon="2.647655">
      <ele>99.6</ele>
      <time>2014-05-18T08:29:11Z</time>
    </trkpt>
    <trkpt lat="48.432332" lon="2.647715">
      <ele>100.1</ele>
      <time>2014-05-18T08:29:13Z</time>
    </trkpt>
    <trkpt lat="48.432207" lon="2.647772">
      <ele>100.6</ele>
      <time>2014-05-18T08:29:16Z</time>
    </trkpt>
    <trkpt lat="48.432092" lon="2.647852">
      <ele>101.0</ele>
      <time>2014-05-18T08:29:19Z</time>
    </trkpt>
    <trkpt lat="48.43197" lon="2.647937">
      <ele>101.4</ele>
      <time>2014-05-18T08:29:22Z</time>
    </trkpt>
    <trkpt lat="48.431848" lon="2.648013">
      <ele>101.6</ele>
      <time>2014-05-18T08:29:25Z</time>
    </trkpt>
    <trkpt lat="48.431758" lon="2.648064">
      <ele>101.7</ele>
      <time>2014-05-18T08:29:27Z</time>
    </trkpt>
    <trkpt lat="48.431637" lon="2.648141">
      <ele>101.7</ele>
      <time>2014-05-18T08:29:30Z</time>
    </trkpt>
    <trkpt lat="48.431534" lon="2.648208">
      <ele>101.3</ele>
      <time>2014-05-18T08:29:33Z</time>
    </trkpt>
    <trkpt lat="48.431425" lon="2.648296">
      <ele>100.9</ele>
      <time>2014-05-18T08:29:36Z</time>
    </trkpt>
    <trkpt lat="48.431326" lon="2.648359">
      <ele>100.6</ele>
      <time>2014-05-18T08:29:39Z</time>
    </trkpt>
    <trkpt lat="48.431211" lon="2.648443">
      <ele>100.3</ele>
      <time>2014-05-18T08:29:42Z</time>
    </trkpt>
    <trkpt lat="48.431101" lon="2.648502">
      <ele>100.2</ele>
      <time>2014-05-18T08:29:45Z</time>
    </trkpt>
    <trkpt lat="48.430996" lon="2.648559">
      <ele>100.1</ele>
      <time>2014-05-18T08:29:49Z</time>
    </trkpt>
    <trkpt lat="48.430907" lon="2.648604">
      <ele>100.0</ele>
      <time>2014-05-18T08:30:21Z</time>
    </trkpt>
    <trkpt lat="48.430873" lon="2.64875">
      <ele>100.0</ele>
      <time>2014-05-18T08:30:27Z</time>
    </trkpt>
    <trkpt lat="48.430827" lon="2.648898">
      <ele>100.0</ele>
      <time>2014-05-18T08:30:31Z</time>
    </trkpt>
    <trkpt lat="48.430766" lon="2.649028">
      <ele>100.2</ele>
      <time>2014-05-18T08:30:33Z</time>
    </trkpt>
    <trkpt lat="48.430739" lon="2.649162">
      <ele>100.2</ele>
      <time>2014-05-18T08:30:36Z</time>
    </trkpt>
    <trkpt lat="48.430678" lon="2.649322">
      <ele>100.6</ele>
      <time>2014-05-18T08:30:39Z</time>
    </trkpt>
    <trkpt lat="48.430631" lon="2.649481">
      <ele>100.9</ele>
      <time>2014-05-18T08:30:42Z</time>
    </trkpt>
    <trkpt lat="48.430571" lon="2.649614">
      <ele>101.2</ele>
      <time>2014-05-18T08:30:45Z</time>
    </trkpt>
    <trkpt lat="48.430512" lon="2.649793">
      <ele>101.5</ele>
      <time>2014-05-18T08:30:48Z</time>
    </trkpt>
    <trkpt lat="48.430454" lon="2.649957">
      <ele>101.9</ele>
      <time>2014-05-18T08:30:51Z</time>
    </trkpt>
    <trkpt lat="48.430387" lon="2.650111">
      <ele>102.5</ele>
      <time>2014-05-18T08:30:54Z</time>
    </trkpt>
    <trkpt lat="48.430327" lon="2.650264">
      <ele>103.1</ele>
      <time>2014-05-18T08:30:57Z</time>
    </trkpt>
    <trkpt lat="48.430265" lon="2.650433">
      <ele>103.5</ele>
      <time>2014-05-18T08:31:00Z</time>
    </trkpt>
    <trkpt lat="48.430199" lon="2.650546">
      <ele>103.6</ele>
      <time>2014-05-18T08:31:02Z</time>
    </trkpt>
    <trkpt lat="48.430156" lon="2.650667">
      <ele>103.7</ele>
      <time>2014-05-18T08:31:04Z</time>
    </trkpt>
    <trkpt lat="48.430101" lon="2.65083">
      <ele>103.6</ele>
      <time>2014-05-18T08:31:07Z</time>
    </trkpt>
    <trkpt lat="48.430063" lon="2.650978">
      <ele>103.8</ele>
      <time>2014-05-18T08:31:11Z</time>
    </trkpt>
    <trkpt lat="48.430023" lon="2.651101">
      <ele>103.9</ele>
      <time>2014-05-18T08:31:13Z</time>
    </trkpt>
    <trkpt lat="48.429974" lon="2.651268">
      <ele>104.2</ele>
      <time>2014-05-18T08:31:16Z</time>
    </trkpt>
    <trkpt lat="48.429947" lon="2.651432">
      <ele>104.8</ele>
      <time>2014-05-18T08:31:19Z</time>
    </trkpt>
    <trkpt lat="48.429919" lon="2.651563">
      <ele>105.3</ele>
      <time>2014-05-18T08:31:22Z</time>
    </trkpt>
    <trkpt lat="48.429901" lon="2.651701">
      <ele>105.9</ele>
      <time>2014-05-18T08:31:25Z</time>
    </trkpt>
    <trkpt lat="48.429874" lon="2.651833">
      <ele>106.8</ele>
      <time>2014-05-18T08:31:28Z</time>
    </trkpt>
    <trkpt lat="48.429849" lon="2.651966">
      <ele>107.7</ele>
      <time>2014-05-18T08:31:32Z</time>
    </trkpt>
    <trkpt lat="48.429874" lon="2.652109">
      <ele>108.2</ele>
      <time>2014-05-18T08:31:35Z</time>
    </trkpt>
    <trkpt lat="48.429884" lon="2.65228">
      <ele>109.0</ele>
      <time>2014-05-18T08:31:39Z</time>
    </trkpt>
    <trkpt lat="48.429859" lon="2.652435">
      <ele>110.0</ele>
      <time>2014-05-18T08:31:43Z</time>
    </trkpt>
    <trkpt lat="48.429858" lon="2.652618">
      <ele>111.0</ele>
      <time>2014-05-18T08:31:47Z</time>
    </trkpt>
    <trkpt lat="48.42986" lon="2.652767">
      <ele>111.8</ele>
      <time>2014-05-18T08:31:51Z</time>
    </trkpt>
    <trkpt lat="48.429841" lon="2.652933">
      <ele>113.0</ele>
      <time>2014-05-18T08:31:55Z</time>
    </trkpt>
    <trkpt lat="48.429862" lon="2.653075">
      <ele>113.5</ele>
      <time>2014-05-18T08:31:59Z</time>
    </trkpt>
    <trkpt lat="48.429888" lon="2.653215">
      <ele>114.0</ele>
      <time>2014-05-18T08:32:02Z</time>
    </trkpt>
    <trkpt lat="48.429934" lon="2.653353">
      <ele>114.1</ele>
      <time>2014-05-18T08:32:06Z</time>
    </trkpt>
    <trkpt lat="48.42998" lon="2.653504">
      <ele>114.7</ele>
      <time>2014-05-18T08:32:10Z</time>
    </trkpt>
    <trkpt lat="48.430004" lon="2.65366">
      <ele>115.8</ele>
      <time>2014-05-18T08:32:15Z</time>
    </trkpt>
    <trkpt lat="48.430075" lon="2.65379">
      <ele>117.8</ele>
      <time>2014-05-18T08:32:20Z</time>
    </trkpt>
    <trkpt lat="48.430136" lon="2.653912">
      <ele>119.5</ele>
      <time>2014-05-18T08:32:24Z</time>
    </trkpt>
    <trkpt lat="48.430166" lon="2.654051">
      <ele>120.7</ele>
      <time>2014-05-18T08:32:29Z</time>
    </trkpt>
    <trkpt lat="48.430189" lon="2.654204">
      <ele>121.8</ele>
      <time>2014-05-18T08:32:39Z</time>
    </trkpt>
    <trkpt lat="48.430223" lon="2.654368">
      <ele>122.8</ele>
      <time>2014-05-18T08:32:43Z</time>
    </trkpt>
    <trkpt lat="48.430273" lon="2.654499">
      <ele>123.6</ele>
      <time>2014-05-18T08:32:48Z</time>
    </trkpt>
    <trkpt lat="48.430325" lon="2.654633">
      <ele>124.4</ele>
      <time>2014-05-18T08:32:54Z</time>
    </trkpt>
    <trkpt lat="48.430352" lon="2.654785">
      <ele>125.1</ele>
      <time>2014-05-18T08:33:00Z</time>
    </trkpt>
    <trkpt lat="48.430328" lon="2.654936">
      <ele>125.6</ele>
      <time>2014-05-18T08:33:05Z</time>
    </trkpt>
    <trkpt lat="48.430301" lon="2.65508">
      <ele>126.0</ele>
      <time>2014-05-18T08:33:10Z</time>
    </trkpt>
    <trkpt lat="48.430264" lon="2.655216">
      <ele>126.5</ele>
      <time>2014-05-18T08:33:17Z</time>
    </trkpt>
    <trkpt lat="48.43026" lon="2.655371">
      <ele>127.1</ele>
      <time>2014-05-18T08:33:24Z</time>
    </trkpt>
    <trkpt lat="48.430246" lon="2.655506">
      <ele>127.7</ele>
      <time>2014-05-18T08:33:30Z</time>
    </trkpt>
    <trkpt lat="48.430239" lon="2.655669">
      <ele>128.3</ele>
      <time>2014-05-18T08:33:36Z</time>
    </trkpt>
    <trkpt lat="48.430261" lon="2.655808">
      <ele>128.9</ele>
      <time>2014-05-18T08:33:40Z</time>
    </trkpt>
    <trkpt lat="48.43026" lon="2.655959">
      <ele>129.4</ele>
      <time>2014-05-18T08:33:45Z</time>
    </trkpt>
    <trkpt lat="48.430267" lon="2.656109">
      <ele>129.9</ele>
      <time>2014-05-18T08:33:50Z</time>
    </trkpt>
    <trkpt lat="48.43027" lon="2.656249">
      <ele>130.3</ele>
      <time>2014-05-18T08:33:54Z</time>
    </trkpt>
    <trkpt lat="48.430226" lon="2.65639">
      <ele>130.8</ele>
      <time>2014-05-18T08:33:59Z</time>
    </trkpt>
    <trkpt lat="48.430182" lon="2.656525">
      <ele>131.3</ele>
      <time>2014-05-18T08:34:05Z</time>
    </trkpt>
    <trkpt lat="48.430108" lon="2.656609">
      <ele>131.7</ele>
      <time>2014-05-18T08:34:10Z</time>
    </trkpt>
    <trkpt lat="48.430049" lon="2.656735">
      <ele>132.1</ele>
      <time>2014-05-18T08:34:15Z</time>
    </trkpt>
    <trkpt lat="48.429997" lon="2.656855">
      <ele>132.5</ele>
      <time>2014-05-18T08:34:20Z</time>
    </trkpt>
    <trkpt lat="48.429952" lon="2.656998">
      <ele>133.1</ele>
      <time>2014-05-18T08:34:26Z</time>
    </trkpt>
    <trkpt lat="48.429897" lon="2.657141">
      <ele>133.7</ele>
      <time>2014-05-18T08:34:32Z</time>
    </trkpt>
    <trkpt lat="48.429864" lon="2.657419">
      <ele>134.5</ele>
      <time>2014-05-18T08:34:42Z</time>
    </trkpt>
    <trkpt lat="48.429827" lon="2.657549">
      <ele>135.0</ele>
      <time>2014-05-18T08:34:46Z</time>
    </trkpt>
    <trkpt lat="48.429779" lon="2.657674">
      <ele>135.5</ele>
      <time>2014-05-18T08:34:51Z</time>
    </trkpt>
    <trkpt lat="48.429735" lon="2.657817">
      <ele>136.1</ele>
      <time>2014-05-18T08:34:56Z</time>
    </trkpt>
    <trkpt lat="48.429721" lon="2.657965">
      <ele>136.5</ele>
      <time>2014-05-18T08:35:02Z</time>
    </trkpt>
    <trkpt lat="48.429732" lon="2.658134">
      <ele>136.8</ele>
      <time>2014-05-18T08:35:07Z</time>
    </trkpt>
    <trkpt lat="48.429749" lon="2.658292">
      <ele>137.2</ele>
      <time>2014-05-18T08:35:12Z</time>
    </trkpt>
    <trkpt lat="48.429754" lon="2.658443">
      <ele>137.6</ele>
      <time>2014-05-18T08:35:18Z</time>
    </trkpt>
    <trkpt lat="48.429725" lon="2.658582">
      <ele>138.0</ele>
      <time>2014-05-18T08:35:22Z</time>
    </trkpt>
    <trkpt lat="48.429689" lon="2.658727">
      <ele>138.4</ele>
      <time>2014-05-18T08:35:29Z</time>
    </trkpt>
    <trkpt lat="48.429615" lon="2.658821">
      <ele>138.7</ele>
      <time>2014-05-18T08:35:35Z</time>
    </trkpt>
    <trkpt lat="48.42945" lon="2.658961">
      <ele>138.9</ele>
      <time>2014-05-18T08:35:45Z</time>
    </trkpt>
    <trkpt lat="48.429359" lon="2.659029">
      <ele>139.0</ele>
      <time>2014-05-18T08:35:49Z</time>
    </trkpt>
    <trkpt lat="48.429249" lon="2.659099">
      <ele>139.0</ele>
      <time>2014-05-18T08:35:53Z</time>
    </trkpt>
    <trkpt lat="48.429163" lon="2.659153">
      <ele>139.0</ele>
      <time>2014-05-18T08:35:56Z</time>
    </trkpt>
    <trkpt lat="48.429061" lon="2.659214">
      <ele>139.5</ele>
      <time>2014-05-18T08:36:01Z</time>
    </trkpt>
    <trkpt lat="48.428955" lon="2.659259">
      <ele>140.0</ele>
      <time>2014-05-18T08:36:04Z</time>
    </trkpt>
    <trkpt lat="48.428845" lon="2.659304">
      <ele>140.5</ele>
      <time>2014-05-18T08:36:07Z</time>
    </trkpt>
    <trkpt lat="48.428738" lon="2.659345">
      <ele>141.1</ele>
      <time>2014-05-18T08:36:11Z</time>
    </trkpt>
    <trkpt lat="48.428645" lon="2.659398">
      <ele>141.5</ele>
      <time>2014-05-18T08:36:15Z</time>
    </trkpt>
    <trkpt lat="48.428541" lon="2.659438">
      <ele>142.0</ele>
      <time>2014-05-18T08:36:18Z</time>
    </trkpt>
    <trkpt lat="48.428448" lon="2.65951">
      <ele>142.4</ele>
      <time>2014-05-18T08:36:21Z</time>
    </trkpt>
    <trkpt lat="48.428338" lon="2.659466">
      <ele>143.0</ele>
      <time>2014-05-18T08:36:25Z</time>
    </trkpt>
    <trkpt lat="48.428249" lon="2.659415">
      <ele>143.4</ele>
      <time>2014-05-18T08:36:30Z</time>
    </trkpt>
    <trkpt lat="48.428163" lon="2.659375">
      <ele>143.8</ele>
      <time>2014-05-18T08:36:46Z</time>
    </trkpt>
    <trkpt lat="48.428076" lon="2.659068">
      <ele>144.0</ele>
      <time>2014-05-18T08:37:14Z</time>
    </trkpt>
    <trkpt lat="48.428063" lon="2.658916">
      <ele>143.7</ele>
      <time>2014-05-18T08:37:17Z</time>
    </trkpt>
    <trkpt lat="48.428031" lon="2.658751">
      <ele>143.5</ele>
      <time>2014-05-18T08:37:20Z</time>
    </trkpt>
    <trkpt lat="48.428011" lon="2.658603">
      <ele>143.2</ele>
      <time>2014-05-18T08:37:23Z</time>
    </trkpt>
    <trkpt lat="48.428005" lon="2.658449">
      <ele>142.9</ele>
      <time>2014-05-18T08:37:26Z</time>
    </trkpt>
    <trkpt lat="48.428012" lon="2.658285">
      <ele>142.5</ele>
      <time>2014-05-18T08:37:29Z</time>
    </trkpt>
    <trkpt lat="48.428014" lon="2.658114">
      <ele>142.3</ele>
      <time>2014-05-18T08:37:32Z</time>
    </trkpt>
    <trkpt lat="48.427985" lon="2.657965">
      <ele>142.2</ele>
      <time>2014-05-18T08:37:35Z</time>
    </trkpt>
    <trkpt lat="48.427986" lon="2.657776">
      <ele>142.0</ele>
      <time>2014-05-18T08:37:38Z</time>
    </trkpt>
    <trkpt lat="48.427985" lon="2.657591">
      <ele>141.8</ele>
      <time>2014-05-18T08:37:41Z</time>
    </trkpt>
    <trkpt lat="48.427932" lon="2.657466">
      <ele>141.9</ele>
      <time>2014-05-18T08:37:42Z</time>
    </trkpt>
    <trkpt lat="48.427894" lon="2.657302">
      <ele>142.0</ele>
      <time>2014-05-18T08:37:44Z</time>
    </trkpt>
    <trkpt lat="48.427872" lon="2.657156">
      <ele>142.0</ele>
      <time>2014-05-18T08:37:46Z</time>
    </trkpt>
    <trkpt lat="48.427837" lon="2.65699">
      <ele>142.0</ele>
      <time>2014-05-18T08:37:48Z</time>
    </trkpt>
    <trkpt lat="48.427808" lon="2.656849">
      <ele>142.0</ele>
      <time>2014-05-18T08:37:50Z</time>
    </trkpt>
    <trkpt lat="48.427774" lon="2.656688">
      <ele>142.0</ele>
      <time>2014-05-18T08:37:52Z</time>
    </trkpt>
    <trkpt lat="48.42775" lon="2.65654">
      <ele>141.8</ele>
      <time>2014-05-18T08:37:54Z</time>
    </trkpt>
    <trkpt lat="48.427718" lon="2.656408">
      <ele>141.7</ele>
      <time>2014-05-18T08:37:56Z</time>
    </trkpt>
    <trkpt lat="48.42767" lon="2.656234">
      <ele>141.5</ele>
      <time>2014-05-18T08:37:59Z</time>
    </trkpt>
    <trkpt lat="48.427643" lon="2.656071">
      <ele>141.2</ele>
      <time>2014-05-18T08:38:01Z</time>
    </trkpt>
    <trkpt lat="48.427622" lon="2.655917">
      <ele>140.9</ele>
      <time>2014-05-18T08:38:03Z</time>
    </trkpt>
    <trkpt lat="48.427609" lon="2.655746">
      <ele>140.6</ele>
      <time>2014-05-18T08:38:05Z</time>
    </trkpt>
    <trkpt lat="48.427535" lon="2.655555">
      <ele>140.6</ele>
      <time>2014-05-18T08:38:07Z</time>
    </trkpt>
    <trkpt lat="48.427495" lon="2.655405">
      <ele>140.5</ele>
      <time>2014-05-18T08:38:09Z</time>
    </trkpt>
    <trkpt lat="48.427449" lon="2.655263">
      <ele>140.4</ele>
      <time>2014-05-18T08:38:11Z</time>
    </trkpt>
    <trkpt lat="48.427414" lon="2.6551">
      <ele>140.3</ele>
      <time>2014-05-18T08:38:13Z</time>
    </trkpt>
    <trkpt lat="48.427391" lon="2.654946">
      <ele>140.3</ele>
      <time>2014-05-18T08:38:15Z</time>
    </trkpt>
    <trkpt lat="48.427373" lon="2.654776">
      <ele>140.5</ele>
      <time>2014-05-18T08:38:17Z</time>
    </trkpt>
    <trkpt lat="48.427343" lon="2.65462">
      <ele>140.7</ele>
      <time>2014-05-18T08:38:19Z</time>
    </trkpt>
    <trkpt lat="48.427322" lon="2.654459">
      <ele>140.9</ele>
      <time>2014-05-18T08:38:21Z</time>
    </trkpt>
    <trkpt lat="48.427334" lon="2.654311">
      <ele>141.1</ele>
      <time>2014-05-18T08:38:23Z</time>
    </trkpt>
    <trkpt lat="48.42735" lon="2.654161">
      <ele>141.2</ele>
      <time>2014-05-18T08:38:25Z</time>
    </trkpt>
    <trkpt lat="48.427366" lon="2.653997">
      <ele>141.3</ele>
      <time>2014-05-18T08:38:27Z</time>
    </trkpt>
    <trkpt lat="48.427382" lon="2.653843">
      <ele>141.5</ele>
      <time>2014-05-18T08:38:29Z</time>
    </trkpt>
    <trkpt lat="48.427388" lon="2.653686">
      <ele>141.6</ele>
      <time>2014-05-18T08:38:31Z</time>
    </trkpt>
    <trkpt lat="48.427399" lon="2.653525">
      <ele>141.8</ele>
      <time>2014-05-18T08:38:33Z</time>
    </trkpt>
    <trkpt lat="48.427393" lon="2.65335">
      <ele>142.0</ele>
      <time>2014-05-18T08:38:36Z</time>
    </trkpt>
    <trkpt lat="48.427393" lon="2.653197">
      <ele>141.5</ele>
      <time>2014-05-18T08:38:38Z</time>
    </trkpt>
    <trkpt lat="48.427409" lon="2.653003">
      <ele>140.9</ele>
      <time>2014-05-18T08:38:41Z</time>
    </trkpt>
    <trkpt lat="48.427404" lon="2.652864">
      <ele>140.4</ele>
      <time>2014-05-18T08:38:43Z</time>
    </trkpt>
    <trkpt lat="48.427385" lon="2.652653">
      <ele>139.7</ele>
      <time>2014-05-18T08:38:46Z</time>
    </trkpt>
    <trkpt lat="48.427368" lon="2.652449">
      <ele>138.9</ele>
      <time>2014-05-18T08:38:49Z</time>
    </trkpt>
    <trkpt lat="48.427379" lon="2.65223">
      <ele>137.6</ele>
      <time>2014-05-18T08:38:52Z</time>
    </trkpt>
    <trkpt lat="48.427406" lon="2.652055">
      <ele>136.6</ele>
      <time>2014-05-18T08:38:53Z</time>
    </trkpt>
    <trkpt lat="48.427413" lon="2.651831">
      <ele>135.3</ele>
      <time>2014-05-18T08:38:55Z</time>
    </trkpt>
    <trkpt lat="48.427383" lon="2.651629">
      <ele>134.3</ele>
      <time>2014-05-18T08:38:57Z</time>
    </trkpt>
    <trkpt lat="48.42737" lon="2.651435">
      <ele>133.7</ele>
      <time>2014-05-18T08:38:59Z</time>
    </trkpt>
    <trkpt lat="48.427284" lon="2.65128">
      <ele>133.5</ele>
      <time>2014-05-18T08:39:01Z</time>
    </trkpt>
    <trkpt lat="48.427224" lon="2.651107">
      <ele>133.2</ele>
      <time>2014-05-18T08:39:03Z</time>
    </trkpt>
    <trkpt lat="48.427169" lon="2.650936">
      <ele>132.9</ele>
      <time>2014-05-18T08:39:05Z</time>
    </trkpt>
    <trkpt lat="48.427109" lon="2.650772">
      <ele>132.7</ele>
      <time>2014-05-18T08:39:07Z</time>
    </trkpt>
    <trkpt lat="48.427058" lon="2.65061">
      <ele>132.4</ele>
      <time>2014-05-18T08:39:09Z</time>
    </trkpt>
    <trkpt lat="48.426984" lon="2.65048">
      <ele>132.3</ele>
      <time>2014-05-18T08:39:11Z</time>
    </trkpt>
    <trkpt lat="48.426894" lon="2.650329">
      <ele>132.0</ele>
      <time>2014-05-18T08:39:13Z</time>
    </trkpt>
    <trkpt lat="48.426821" lon="2.650182">
      <ele>131.6</ele>
      <time>2014-05-18T08:39:15Z</time>
    </trkpt>
    <trkpt lat="48.426736" lon="2.650065">
      <ele>131.2</ele>
      <time>2014-05-18T08:39:16Z</time>
    </trkpt>
    <trkpt lat="48.426658" lon="2.649973">
      <ele>131.0</ele>
      <time>2014-05-18T08:39:17Z</time>
    </trkpt>
    <trkpt lat="48.426605" lon="2.649787">
      <ele>130.8</ele>
      <time>2014-05-18T08:39:19Z</time>
    </trkpt>
    <trkpt lat="48.426524" lon="2.649598">
      <ele>130.7</ele>
      <time>2014-05-18T08:39:21Z</time>
    </trkpt>
    <trkpt lat="48.426451" lon="2.649432">
      <ele>130.6</ele>
      <time>2014-05-18T08:39:23Z</time>
    </trkpt>
    <trkpt lat="48.426378" lon="2.649256">
      <ele>130.5</ele>
      <time>2014-05-18T08:39:25Z</time>
    </trkpt>
    <trkpt lat="48.426306" lon="2.649078">
      <ele>130.6</ele>
      <time>2014-05-18T08:39:27Z</time>
    </trkpt>
    <trkpt lat="48.42624" lon="2.64891">
      <ele>131.0</ele>
      <time>2014-05-18T08:39:29Z</time>
    </trkpt>
    <trkpt lat="48.42617" lon="2.648749">
      <ele>131.2</ele>
      <time>2014-05-18T08:39:31Z</time>
    </trkpt>
    <trkpt lat="48.426129" lon="2.648573">
      <ele>131.4</ele>
      <time>2014-05-18T08:39:33Z</time>
    </trkpt>
    <trkpt lat="48.426061" lon="2.6484">
      <ele>131.5</ele>
      <time>2014-05-18T08:39:35Z</time>
    </trkpt>
    <trkpt lat="48.426003" lon="2.648222">
      <ele>131.0</ele>
      <time>2014-05-18T08:39:37Z</time>
    </trkpt>
    <trkpt lat="48.42596" lon="2.648057">
      <ele>130.1</ele>
      <time>2014-05-18T08:39:39Z</time>
    </trkpt>
    <trkpt lat="48.425893" lon="2.647907">
      <ele>129.2</ele>
      <time>2014-05-18T08:39:41Z</time>
    </trkpt>
    <trkpt lat="48.425842" lon="2.647763">
      <ele>128.3</ele>
      <time>2014-05-18T08:39:43Z</time>
    </trkpt>
    <trkpt lat="48.425804" lon="2.647625">
      <ele>127.7</ele>
      <time>2014-05-18T08:39:45Z</time>
    </trkpt>
    <trkpt lat="48.425751" lon="2.647482">
      <ele>127.4</ele>
      <time>2014-05-18T08:39:48Z</time>
    </trkpt>
    <trkpt lat="48.425702" lon="2.647338">
      <ele>127.3</ele>
      <time>2014-05-18T08:39:54Z</time>
    </trkpt>
    <trkpt lat="48.425653" lon="2.64722">
      <ele>127.2</ele>
      <time>2014-05-18T08:40:04Z</time>
    </trkpt>
    <trkpt lat="48.425616" lon="2.647071">
      <ele>127.0</ele>
      <time>2014-05-18T08:40:10Z</time>
    </trkpt>
    <trkpt lat="48.425564" lon="2.646942">
      <ele>126.8</ele>
      <time>2014-05-18T08:40:13Z</time>
    </trkpt>
    <trkpt lat="48.425487" lon="2.646797">
      <ele>126.4</ele>
      <time>2014-05-18T08:40:15Z</time>
    </trkpt>
    <trkpt lat="48.425419" lon="2.646622">
      <ele>125.9</ele>
      <time>2014-05-18T08:40:18Z</time>
    </trkpt>
    <trkpt lat="48.42535" lon="2.646454">
      <ele>125.6</ele>
      <time>2014-05-18T08:40:21Z</time>
    </trkpt>
    <trkpt lat="48.425295" lon="2.646339">
      <ele>125.3</ele>
      <time>2014-05-18T08:40:23Z</time>
    </trkpt>
    <trkpt lat="48.425212" lon="2.646206">
      <ele>124.6</ele>
      <time>2014-05-18T08:40:25Z</time>
    </trkpt>
    <trkpt lat="48.42514" lon="2.646077">
      <ele>123.9</ele>
      <time>2014-05-18T08:40:27Z</time>
    </trkpt>
    <trkpt lat="48.425055" lon="2.645924">
      <ele>122.8</ele>
      <time>2014-05-18T08:40:29Z</time>
    </trkpt>
    <trkpt lat="48.424989" lon="2.64574">
      <ele>122.1</ele>
      <time>2014-05-18T08:40:31Z</time>
    </trkpt>
    <trkpt lat="48.424924" lon="2.645588">
      <ele>122.3</ele>
      <time>2014-05-18T08:40:33Z</time>
    </trkpt>
    <trkpt lat="48.424845" lon="2.645455">
      <ele>122.5</ele>
      <time>2014-05-18T08:40:35Z</time>
    </trkpt>
    <trkpt lat="48.424746" lon="2.645216">
      <ele>122.4</ele>
      <time>2014-05-18T08:40:39Z</time>
    </trkpt>
    <trkpt lat="48.424661" lon="2.645047">
      <ele>122.1</ele>
      <time>2014-05-18T08:40:42Z</time>
    </trkpt>
    <trkpt lat="48.424604" lon="2.644902">
      <ele>121.8</ele>
      <time>2014-05-18T08:40:44Z</time>
    </trkpt>
    <trkpt lat="48.424484" lon="2.644728">
      <ele>121.2</ele>
      <time>2014-05-18T08:40:46Z</time>
    </trkpt>
    <trkpt lat="48.424424" lon="2.644589">
      <ele>120.6</ele>
      <time>2014-05-18T08:40:48Z</time>
    </trkpt>
    <trkpt lat="48.424374" lon="2.64446">
      <ele>120.1</ele>
      <time>2014-05-18T08:40:50Z</time>
    </trkpt>
    <trkpt lat="48.42434" lon="2.644277">
      <ele>119.3</ele>
      <time>2014-05-18T08:40:53Z</time>
    </trkpt>
    <trkpt lat="48.424314" lon="2.644077">
      <ele>118.7</ele>
      <time>2014-05-18T08:40:56Z</time>
    </trkpt>
    <trkpt lat="48.42425" lon="2.64388">
      <ele>118.2</ele>
      <time>2014-05-18T08:40:58Z</time>
    </trkpt>
    <trkpt lat="48.424207" lon="2.643718">
      <ele>117.8</ele>
      <time>2014-05-18T08:41:00Z</time>
    </trkpt>
    <trkpt lat="48.424183" lon="2.643572">
      <ele>117.4</ele>
      <time>2014-05-18T08:41:02Z</time>
    </trkpt>
    <trkpt lat="48.424163" lon="2.643426">
      <ele>117.1</ele>
      <time>2014-05-18T08:41:04Z</time>
    </trkpt>
    <trkpt lat="48.424145" lon="2.643289">
      <ele>117.1</ele>
      <time>2014-05-18T08:41:06Z</time>
    </trkpt>
    <trkpt lat="48.424112" lon="2.643141">
      <ele>117.4</ele>
      <time>2014-05-18T08:41:08Z</time>
    </trkpt>
    <trkpt lat="48.42408" lon="2.642952">
      <ele>117.7</ele>
      <time>2014-05-18T08:41:10Z</time>
    </trkpt>
    <trkpt lat="48.424033" lon="2.64276">
      <ele>117.9</ele>
      <time>2014-05-18T08:41:12Z</time>
    </trkpt>
    <trkpt lat="48.424014" lon="2.642615">
      <ele>118.1</ele>
      <time>2014-05-18T08:41:14Z</time>
    </trkpt>
    <trkpt lat="48.423997" lon="2.642458">
      <ele>118.2</ele>
      <time>2014-05-18T08:41:16Z</time>
    </trkpt>
    <trkpt lat="48.423972" lon="2.642288">
      <ele>117.9</ele>
      <time>2014-05-18T08:41:18Z</time>
    </trkpt>
    <trkpt lat="48.423938" lon="2.642102">
      <ele>117.6</ele>
      <time>2014-05-18T08:41:20Z</time>
    </trkpt>
    <trkpt lat="48.423904" lon="2.641913">
      <ele>117.2</ele>
      <time>2014-05-18T08:41:22Z</time>
    </trkpt>
    <trkpt lat="48.423875" lon="2.641711">
      <ele>116.7</ele>
      <time>2014-05-18T08:41:24Z</time>
    </trkpt>
    <trkpt lat="48.423811" lon="2.641478">
      <ele>116.2</ele>
      <time>2014-05-18T08:41:26Z</time>
    </trkpt>
    <trkpt lat="48.423764" lon="2.641262">
      <ele>115.8</ele>
      <time>2014-05-18T08:41:28Z</time>
    </trkpt>
    <trkpt lat="48.42372" lon="2.641061">
      <ele>115.4</ele>
      <time>2014-05-18T08:41:30Z</time>
    </trkpt>
    <trkpt lat="48.423687" lon="2.640859">
      <ele>115.0</ele>
      <time>2014-05-18T08:41:32Z</time>
    </trkpt>
    <trkpt lat="48.423616" lon="2.640662">
      <ele>114.6</ele>
      <time>2014-05-18T08:41:34Z</time>
    </trkpt>
    <trkpt lat="48.423571" lon="2.640479">
      <ele>114.4</ele>
      <time>2014-05-18T08:41:36Z</time>
    </trkpt>
    <trkpt lat="48.423504" lon="2.640144">
      <ele>113.9</ele>
      <time>2014-05-18T08:41:40Z</time>
    </trkpt>
    <trkpt lat="48.423469" lon="2.639975">
      <ele>113.7</ele>
      <time>2014-05-18T08:41:42Z</time>
    </trkpt>
    <trkpt lat="48.423422" lon="2.639822">
      <ele>113.3</ele>
      <time>2014-05-18T08:41:44Z</time>
    </trkpt>
    <trkpt lat="48.423393" lon="2.639633">
      <ele>113.1</ele>
      <time>2014-05-18T08:41:46Z</time>
    </trkpt>
    <trkpt lat="48.423372" lon="2.639457">
      <ele>113.1</ele>
      <time>2014-05-18T08:41:48Z</time>
    </trkpt>
    <trkpt lat="48.423344" lon="2.639275">
      <ele>113.0</ele>
      <time>2014-05-18T08:41:50Z</time>
    </trkpt>
    <trkpt lat="48.423305" lon="2.639098">
      <ele>113.2</ele>
      <time>2014-05-18T08:41:52Z</time>
    </trkpt>
    <trkpt lat="48.423274" lon="2.638909">
      <ele>113.4</ele>
      <time>2014-05-18T08:41:54Z</time>
    </trkpt>
    <trkpt lat="48.423243" lon="2.638728">
      <ele>113.5</ele>
      <time>2014-05-18T08:41:56Z</time>
    </trkpt>
    <trkpt lat="48.423193" lon="2.638536">
      <ele>113.5</ele>
      <time>2014-05-18T08:41:58Z</time>
    </trkpt>
    <trkpt lat="48.423164" lon="2.638366">
      <ele>113.4</ele>
      <time>2014-05-18T08:42:00Z</time>
    </trkpt>
    <trkpt lat="48.423118" lon="2.638136">
      <ele>113.3</ele>
      <time>2014-05-18T08:42:02Z</time>
    </trkpt>
    <trkpt lat="48.42307" lon="2.637939">
      <ele>113.2</ele>
      <time>2014-05-18T08:42:04Z</time>
    </trkpt>
    <trkpt lat="48.423029" lon="2.637753">
      <ele>113.2</ele>
      <time>2014-05-18T08:42:06Z</time>
    </trkpt>
    <trkpt lat="48.423002" lon="2.637581">
      <ele>113.2</ele>
      <time>2014-05-18T08:42:08Z</time>
    </trkpt>
    <trkpt lat="48.422968" lon="2.637403">
      <ele>113.1</ele>
      <time>2014-05-18T08:42:10Z</time>
    </trkpt>
    <trkpt lat="48.422951" lon="2.637225">
      <ele>112.9</ele>
      <time>2014-05-18T08:42:12Z</time>
    </trkpt>
    <trkpt lat="48.422933" lon="2.637075">
      <ele>112.8</ele>
      <time>2014-05-18T08:42:14Z</time>
    </trkpt>
    <trkpt lat="48.422935" lon="2.636893">
      <ele>112.7</ele>
      <time>2014-05-18T08:42:16Z</time>
    </trkpt>
    <trkpt lat="48.422924" lon="2.636718">
      <ele>112.5</ele>
      <time>2014-05-18T08:42:18Z</time>
    </trkpt>
    <trkpt lat="48.422904" lon="2.636538">
      <ele>112.6</ele>
      <time>2014-05-18T08:42:20Z</time>
    </trkpt>
    <trkpt lat="48.422894" lon="2.636363">
      <ele>112.6</ele>
      <time>2014-05-18T08:42:22Z</time>
    </trkpt>
    <trkpt lat="48.422887" lon="2.636224">
      <ele>112.7</ele>
      <time>2014-05-18T08:42:24Z</time>
    </trkpt>
    <trkpt lat="48.422883" lon="2.636089">
      <ele>112.8</ele>
      <time>2014-05-18T08:42:26Z</time>
    </trkpt>
    <trkpt lat="48.422876" lon="2.635916">
      <ele>112.9</ele>
      <time>2014-05-18T08:42:28Z</time>
    </trkpt>
    <trkpt lat="48.422869" lon="2.635722">
      <ele>112.9</ele>
      <time>2014-05-18T08:42:30Z</time>
    </trkpt>
    <trkpt lat="48.422868" lon="2.635527">
      <ele>112.9</ele>
      <time>2014-05-18T08:42:32Z</time>
    </trkpt>
    <trkpt lat="48.42285" lon="2.635349">
      <ele>112.8</ele>
      <time>2014-05-18T08:42:34Z</time>
    </trkpt>
    <trkpt lat="48.42282" lon="2.635127">
      <ele>112.8</ele>
      <time>2014-05-18T08:42:36Z</time>
    </trkpt>
    <trkpt lat="48.422803" lon="2.634919">
      <ele>112.6</ele>
      <time>2014-05-18T08:42:38Z</time>
    </trkpt>
    <trkpt lat="48.422774" lon="2.634545">
      <ele>112.1</ele>
      <time>2014-05-18T08:42:42Z</time>
    </trkpt>
    <trkpt lat="48.422749" lon="2.634358">
      <ele>111.8</ele>
      <time>2014-05-18T08:42:44Z</time>
    </trkpt>
    <trkpt lat="48.422745" lon="2.634216">
      <ele>111.6</ele>
      <time>2014-05-18T08:42:46Z</time>
    </trkpt>
    <trkpt lat="48.422735" lon="2.634015">
      <ele>111.1</ele>
      <time>2014-05-18T08:42:49Z</time>
    </trkpt>
    <trkpt lat="48.422717" lon="2.633829">
      <ele>110.6</ele>
      <time>2014-05-18T08:42:52Z</time>
    </trkpt>
    <trkpt lat="48.422692" lon="2.633686">
      <ele>110.2</ele>
      <time>2014-05-18T08:42:54Z</time>
    </trkpt>
    <trkpt lat="48.422676" lon="2.633546">
      <ele>109.8</ele>
      <time>2014-05-18T08:42:56Z</time>
    </trkpt>
    <trkpt lat="48.422667" lon="2.633373">
      <ele>109.3</ele>
      <time>2014-05-18T08:42:59Z</time>
    </trkpt>
    <trkpt lat="48.422651" lon="2.633205">
      <ele>109.1</ele>
      <time>2014-05-18T08:43:02Z</time>
    </trkpt>
    <trkpt lat="48.422655" lon="2.63305">
      <ele>109.0</ele>
      <time>2014-05-18T08:43:05Z</time>
    </trkpt>
    <trkpt lat="48.422637" lon="2.632877">
      <ele>108.8</ele>
      <time>2014-05-18T08:43:08Z</time>
    </trkpt>
    <trkpt lat="48.422604" lon="2.632659">
      <ele>108.5</ele>
      <time>2014-05-18T08:43:11Z</time>
    </trkpt>
    <trkpt lat="48.422605" lon="2.632508">
      <ele>108.4</ele>
      <time>2014-05-18T08:43:13Z</time>
    </trkpt>
    <trkpt lat="48.422601" lon="2.632328">
      <ele>108.0</ele>
      <time>2014-05-18T08:43:15Z</time>
    </trkpt>
    <trkpt lat="48.422568" lon="2.632149">
      <ele>107.5</ele>
      <time>2014-05-18T08:43:17Z</time>
    </trkpt>
    <trkpt lat="48.422539" lon="2.631948">
      <ele>106.9</ele>
      <time>2014-05-18T08:43:19Z</time>
    </trkpt>
    <trkpt lat="48.422525" lon="2.631779">
      <ele>106.4</ele>
      <time>2014-05-18T08:43:21Z</time>
    </trkpt>
    <trkpt lat="48.422506" lon="2.631632">
      <ele>106.1</ele>
      <time>2014-05-18T08:43:23Z</time>
    </trkpt>
    <trkpt lat="48.422496" lon="2.631491">
      <ele>106.2</ele>
      <time>2014-05-18T08:43:25Z</time>
    </trkpt>
    <trkpt lat="48.422477" lon="2.631326">
      <ele>106.4</ele>
      <time>2014-05-18T08:43:27Z</time>
    </trkpt>
    <trkpt lat="48.422465" lon="2.631171">
      <ele>106.6</ele>
      <time>2014-05-18T08:43:29Z</time>
    </trkpt>
    <trkpt lat="48.422462" lon="2.631032">
      <ele>106.8</ele>
      <time>2014-05-18T08:43:31Z</time>
    </trkpt>
    <trkpt lat="48.42246" lon="2.630843">
      <ele>107.0</ele>
      <time>2014-05-18T08:43:34Z</time>
    </trkpt>
    <trkpt lat="48.422436" lon="2.630661">
      <ele>106.6</ele>
      <time>2014-05-18T08:43:36Z</time>
    </trkpt>
    <trkpt lat="48.422447" lon="2.630502">
      <ele>106.2</ele>
      <time>2014-05-18T08:43:38Z</time>
    </trkpt>
    <trkpt lat="48.422432" lon="2.630214">
      <ele>105.6</ele>
      <time>2014-05-18T08:43:42Z</time>
    </trkpt>
    <trkpt lat="48.422393" lon="2.630017">
      <ele>105.2</ele>
      <time>2014-05-18T08:43:45Z</time>
    </trkpt>
    <trkpt lat="48.42237" lon="2.629832">
      <ele>105.2</ele>
      <time>2014-05-18T08:43:47Z</time>
    </trkpt>
    <trkpt lat="48.422336" lon="2.629674">
      <ele>105.3</ele>
      <time>2014-05-18T08:43:49Z</time>
    </trkpt>
    <trkpt lat="48.4223" lon="2.629497">
      <ele>105.3</ele>
      <time>2014-05-18T08:43:51Z</time>
    </trkpt>
    <trkpt lat="48.422245" lon="2.629315">
      <ele>105.1</ele>
      <time>2014-05-18T08:43:53Z</time>
    </trkpt>
    <trkpt lat="48.422192" lon="2.629148">
      <ele>104.9</ele>
      <time>2014-05-18T08:43:55Z</time>
    </trkpt>
    <trkpt lat="48.422149" lon="2.629006">
      <ele>105.0</ele>
      <time>2014-05-18T08:43:57Z</time>
    </trkpt>
    <trkpt lat="48.422108" lon="2.628839">
      <ele>105.0</ele>
      <time>2014-05-18T08:43:59Z</time>
    </trkpt>
    <trkpt lat="48.422084" lon="2.628707">
      <ele>105.1</ele>
      <time>2014-05-18T08:44:01Z</time>
    </trkpt>
    <trkpt lat="48.422055" lon="2.628565">
      <ele>105.0</ele>
      <time>2014-05-18T08:44:03Z</time>
    </trkpt>
    <trkpt lat="48.422018" lon="2.628367">
      <ele>104.9</ele>
      <time>2014-05-18T08:44:06Z</time>
    </trkpt>
    <trkpt lat="48.421984" lon="2.628167">
      <ele>104.8</ele>
      <time>2014-05-18T08:44:09Z</time>
    </trkpt>
    <trkpt lat="48.421939" lon="2.627998">
      <ele>104.6</ele>
      <time>2014-05-18T08:44:11Z</time>
    </trkpt>
    <trkpt lat="48.421896" lon="2.62785">
      <ele>104.3</ele>
      <time>2014-05-18T08:44:13Z</time>
    </trkpt>
    <trkpt lat="48.42184" lon="2.627664">
      <ele>104.1</ele>
      <time>2014-05-18T08:44:15Z</time>
    </trkpt>
    <trkpt lat="48.421785" lon="2.627513">
      <ele>103.8</ele>
      <time>2014-05-18T08:44:17Z</time>
    </trkpt>
    <trkpt lat="48.421734" lon="2.627356">
      <ele>103.7</ele>
      <time>2014-05-18T08:44:20Z</time>
    </trkpt>
    <trkpt lat="48.421713" lon="2.627216">
      <ele>103.7</ele>
      <time>2014-05-18T08:44:22Z</time>
    </trkpt>
    <trkpt lat="48.421675" lon="2.627045">
      <ele>103.6</ele>
      <time>2014-05-18T08:44:24Z</time>
    </trkpt>
    <trkpt lat="48.421655" lon="2.626896">
      <ele>103.7</ele>
      <time>2014-05-18T08:44:26Z</time>
    </trkpt>
    <trkpt lat="48.421634" lon="2.626744">
      <ele>103.9</ele>
      <time>2014-05-18T08:44:28Z</time>
    </trkpt>
    <trkpt lat="48.421601" lon="2.62657">
      <ele>104.1</ele>
      <time>2014-05-18T08:44:30Z</time>
    </trkpt>
    <trkpt lat="48.421537" lon="2.62639">
      <ele>104.3</ele>
      <time>2014-05-18T08:44:32Z</time>
    </trkpt>
    <trkpt lat="48.421471" lon="2.626216">
      <ele>104.4</ele>
      <time>2014-05-18T08:44:34Z</time>
    </trkpt>
    <trkpt lat="48.42143" lon="2.626078">
      <ele>104.5</ele>
      <time>2014-05-18T08:44:36Z</time>
    </trkpt>
    <trkpt lat="48.421385" lon="2.625948">
      <ele>104.6</ele>
      <time>2014-05-18T08:44:38Z</time>
    </trkpt>
    <trkpt lat="48.421367" lon="2.625787">
      <ele>104.6</ele>
      <time>2014-05-18T08:44:41Z</time>
    </trkpt>
    <trkpt lat="48.42133" lon="2.625646">
      <ele>104.5</ele>
      <time>2014-05-18T08:44:46Z</time>
    </trkpt>
    <trkpt lat="48.421293" lon="2.62552">
      <ele>104.4</ele>
      <time>2014-05-18T08:44:52Z</time>
    </trkpt>
    <trkpt lat="48.421248" lon="2.625384">
      <ele>104.2</ele>
      <time>2014-05-18T08:44:58Z</time>
    </trkpt>
    <trkpt lat="48.421206" lon="2.625253">
      <ele>104.1</ele>
      <time>2014-05-18T08:45:04Z</time>
    </trkpt>
    <trkpt lat="48.421175" lon="2.625107">
      <ele>103.9</ele>
      <time>2014-05-18T08:45:09Z</time>
    </trkpt>
    <trkpt lat="48.421122" lon="2.624988">
      <ele>103.7</ele>
      <time>2014-05-18T08:45:14Z</time>
    </trkpt>
    <trkpt lat="48.42106" lon="2.624688">
      <ele>103.0</ele>
      <time>2014-05-18T08:45:23Z</time>
    </trkpt>
    <trkpt lat="48.421041" lon="2.624548">
      <ele>102.7</ele>
      <time>2014-05-18T08:45:27Z</time>
    </trkpt>
    <trkpt lat="48.421015" lon="2.624411">
      <ele>102.3</ele>
      <time>2014-05-18T08:45:30Z</time>
    </trkpt>
    <trkpt lat="48.420974" lon="2.624272">
      <ele>101.9</ele>
      <time>2014-05-18T08:45:34Z</time>
    </trkpt>
    <trkpt lat="48.420929" lon="2.624152">
      <ele>101.4</ele>
      <time>2014-05-18T08:49:26Z</time>
    </trkpt>
    <trkpt lat="48.406378" lon="2.599437">
      <ele>128.9</ele>
      <time>2014-05-18T09:21:11Z</time>
    </trkpt>
    <trkpt lat="48.406371" lon="2.599605">
      <ele>128.9</ele>
      <time>2014-05-18T09:21:15Z</time>
    </trkpt>
    <trkpt lat="48.406341" lon="2.599747">
      <ele>129.0</ele>
      <time>2014-05-18T09:21:19Z</time>
    </trkpt>
    <trkpt lat="48.406349" lon="2.600003">
      <ele>128.9</ele>
      <time>2014-05-18T09:21:23Z</time>
    </trkpt>
    <trkpt lat="48.406337" lon="2.600141">
      <ele>128.6</ele>
      <time>2014-05-18T09:21:26Z</time>
    </trkpt>
    <trkpt lat="48.406354" lon="2.600297">
      <ele>128.1</ele>
      <time>2014-05-18T09:21:29Z</time>
    </trkpt>
    <trkpt lat="48.406354" lon="2.600486">
      <ele>127.6</ele>
      <time>2014-05-18T09:21:32Z</time>
    </trkpt>
    <trkpt lat="48.406353" lon="2.600648">
      <ele>127.1</ele>
      <time>2014-05-18T09:21:35Z</time>
    </trkpt>
    <trkpt lat="48.406339" lon="2.60082">
      <ele>126.8</ele>
      <time>2014-05-18T09:21:38Z</time>
    </trkpt>
    <trkpt lat="48.406332" lon="2.600964">
      <ele>126.7</ele>
      <time>2014-05-18T09:21:41Z</time>
    </trkpt>
    <trkpt lat="48.406321" lon="2.601147">
      <ele>126.7</ele>
      <time>2014-05-18T09:21:44Z</time>
    </trkpt>
    <trkpt lat="48.40629" lon="2.601334">
      <ele>126.8</ele>
      <time>2014-05-18T09:21:47Z</time>
    </trkpt>
    <trkpt lat="48.40625" lon="2.601501">
      <ele>127.1</ele>
      <time>2014-05-18T09:21:50Z</time>
    </trkpt>
    <trkpt lat="48.40621" lon="2.601679">
      <ele>127.4</ele>
      <time>2014-05-18T09:21:53Z</time>
    </trkpt>
    <trkpt lat="48.406175" lon="2.601836">
      <ele>127.9</ele>
      <time>2014-05-18T09:21:56Z</time>
    </trkpt>
    <trkpt lat="48.406138" lon="2.601998">
      <ele>128.3</ele>
      <time>2014-05-18T09:21:59Z</time>
    </trkpt>
    <trkpt lat="48.406058" lon="2.60238">
      <ele>128.9</ele>
      <time>2014-05-18T09:22:06Z</time>
    </trkpt>
    <trkpt lat="48.406027" lon="2.60251">
      <ele>129.1</ele>
      <time>2014-05-18T09:22:08Z</time>
    </trkpt>
    <trkpt lat="48.406017" lon="2.602657">
      <ele>128.9</ele>
      <time>2014-05-18T09:22:11Z</time>
    </trkpt>
    <trkpt lat="48.405992" lon="2.602866">
      <ele>128.6</ele>
      <time>2014-05-18T09:22:14Z</time>
    </trkpt>
    <trkpt lat="48.405972" lon="2.603069">
      <ele>128.3</ele>
      <time>2014-05-18T09:22:17Z</time>
    </trkpt>
    <trkpt lat="48.406059" lon="2.603233">
      <ele>127.9</ele>
      <time>2014-05-18T09:22:20Z</time>
    </trkpt>
    <trkpt lat="48.406148" lon="2.603346">
      <ele>127.6</ele>
      <time>2014-05-18T09:22:23Z</time>
    </trkpt>
    <trkpt lat="48.406248" lon="2.603458">
      <ele>127.6</ele>
      <time>2014-05-18T09:22:26Z</time>
    </trkpt>
    <trkpt lat="48.406354" lon="2.603573">
      <ele>127.6</ele>
      <time>2014-05-18T09:22:29Z</time>
    </trkpt>
    <trkpt lat="48.406443" lon="2.603667">
      <ele>127.6</ele>
      <time>2014-05-18T09:22:32Z</time>
    </trkpt>
    <trkpt lat="48.406545" lon="2.603787">
      <ele>127.6</ele>
      <time>2014-05-18T09:22:35Z</time>
    </trkpt>
    <trkpt lat="48.406654" lon="2.603881">
      <ele>127.7</ele>
      <time>2014-05-18T09:22:38Z</time>
    </trkpt>
    <trkpt lat="48.406753" lon="2.603979">
      <ele>126.2</ele>
      <time>2014-05-18T09:22:41Z</time>
    </trkpt>
    <trkpt lat="48.406856" lon="2.604078">
      <ele>124.5</ele>
      <time>2014-05-18T09:22:44Z</time>
    </trkpt>
    <trkpt lat="48.406918" lon="2.60422">
      <ele>123.5</ele>
      <time>2014-05-18T09:22:47Z</time>
    </trkpt>
    <trkpt lat="48.406896" lon="2.604415">
      <ele>124.0</ele>
      <time>2014-05-18T09:22:50Z</time>
    </trkpt>
    <trkpt lat="48.40689" lon="2.604598">
      <ele>124.1</ele>
      <time>2014-05-18T09:22:53Z</time>
    </trkpt>
    <trkpt lat="48.406884" lon="2.604736">
      <ele>124.3</ele>
      <time>2014-05-18T09:22:55Z</time>
    </trkpt>
    <trkpt lat="48.40687" lon="2.604937">
      <ele>124.6</ele>
      <time>2014-05-18T09:22:58Z</time>
    </trkpt>
    <trkpt lat="48.406888" lon="2.605178">
      <ele>124.1</ele>
      <time>2014-05-18T09:23:02Z</time>
    </trkpt>
    <trkpt lat="48.406871" lon="2.605545">
      <ele>124.1</ele>
      <time>2014-05-18T09:23:07Z</time>
    </trkpt>
    <trkpt lat="48.406846" lon="2.605684">
      <ele>124.3</ele>
      <time>2014-05-18T09:23:09Z</time>
    </trkpt>
    <trkpt lat="48.406768" lon="2.605822">
      <ele>125.4</ele>
      <time>2014-05-18T09:23:12Z</time>
    </trkpt>
    <trkpt lat="48.406684" lon="2.605961">
      <ele>127.0</ele>
      <time>2014-05-18T09:23:15Z</time>
    </trkpt>
    <trkpt lat="48.406631" lon="2.606152">
      <ele>127.8</ele>
      <time>2014-05-18T09:23:19Z</time>
    </trkpt>
    <trkpt lat="48.406609" lon="2.606314">
      <ele>128.2</ele>
      <time>2014-05-18T09:23:22Z</time>
    </trkpt>
    <trkpt lat="48.406653" lon="2.606457">
      <ele>128.5</ele>
      <time>2014-05-18T09:23:25Z</time>
    </trkpt>
    <trkpt lat="48.4067" lon="2.606644">
      <ele>128.5</ele>
      <time>2014-05-18T09:23:28Z</time>
    </trkpt>
    <trkpt lat="48.406705" lon="2.606791">
      <ele>128.4</ele>
      <time>2014-05-18T09:23:31Z</time>
    </trkpt>
    <trkpt lat="48.406685" lon="2.607016">
      <ele>128.7</ele>
      <time>2014-05-18T09:23:35Z</time>
    </trkpt>
    <trkpt lat="48.406705" lon="2.60719">
      <ele>128.4</ele>
      <time>2014-05-18T09:23:38Z</time>
    </trkpt>
    <trkpt lat="48.406695" lon="2.607346">
      <ele>128.6</ele>
      <time>2014-05-18T09:23:41Z</time>
    </trkpt>
    <trkpt lat="48.406719" lon="2.607544">
      <ele>128.1</ele>
      <time>2014-05-18T09:23:44Z</time>
    </trkpt>
    <trkpt lat="48.406742" lon="2.607731">
      <ele>127.5</ele>
      <time>2014-05-18T09:23:47Z</time>
    </trkpt>
    <trkpt lat="48.406729" lon="2.60792">
      <ele>127.5</ele>
      <time>2014-05-18T09:23:50Z</time>
    </trkpt>
    <trkpt lat="48.406724" lon="2.608112">
      <ele>127.3</ele>
      <time>2014-05-18T09:23:53Z</time>
    </trkpt>
    <trkpt lat="48.406719" lon="2.60825">
      <ele>127.2</ele>
      <time>2014-05-18T09:23:56Z</time>
    </trkpt>
    <trkpt lat="48.40672" lon="2.608405">
      <ele>127.1</ele>
      <time>2014-05-18T09:24:00Z</time>
    </trkpt>
    <trkpt lat="48.406721" lon="2.608572">
      <ele>127.1</ele>
      <time>2014-05-18T09:24:04Z</time>
    </trkpt>
    <trkpt lat="48.406696" lon="2.608889">
      <ele>127.5</ele>
      <time>2014-05-18T09:24:08Z</time>
    </trkpt>
    <trkpt lat="48.406697" lon="2.609063">
      <ele>127.5</ele>
      <time>2014-05-18T09:24:10Z</time>
    </trkpt>
    <trkpt lat="48.40671" lon="2.609214">
      <ele>127.2</ele>
      <time>2014-05-18T09:24:12Z</time>
    </trkpt>
    <trkpt lat="48.406704" lon="2.609369">
      <ele>127.3</ele>
      <time>2014-05-18T09:24:14Z</time>
    </trkpt>
    <trkpt lat="48.406707" lon="2.609583">
      <ele>127.3</ele>
      <time>2014-05-18T09:24:17Z</time>
    </trkpt>
    <trkpt lat="48.406697" lon="2.609795">
      <ele>127.5</ele>
      <time>2014-05-18T09:24:20Z</time>
    </trkpt>
    <trkpt lat="48.406655" lon="2.60995">
      <ele>128.0</ele>
      <time>2014-05-18T09:24:23Z</time>
    </trkpt>
    <trkpt lat="48.406607" lon="2.610137">
      <ele>127.8</ele>
      <time>2014-05-18T09:24:26Z</time>
    </trkpt>
    <trkpt lat="48.40656" lon="2.610264">
      <ele>127.6</ele>
      <time>2014-05-18T09:24:28Z</time>
    </trkpt>
    <trkpt lat="48.406518" lon="2.610465">
      <ele>127.5</ele>
      <time>2014-05-18T09:24:31Z</time>
    </trkpt>
    <trkpt lat="48.406472" lon="2.610593">
      <ele>127.4</ele>
      <time>2014-05-18T09:24:33Z</time>
    </trkpt>
    <trkpt lat="48.406523" lon="2.61084">
      <ele>127.2</ele>
      <time>2014-05-18T09:24:36Z</time>
    </trkpt>
    <trkpt lat="48.406586" lon="2.610989">
      <ele>126.9</ele>
      <time>2014-05-18T09:24:39Z</time>
    </trkpt>
    <trkpt lat="48.406598" lon="2.611178">
      <ele>126.7</ele>
      <time>2014-05-18T09:24:42Z</time>
    </trkpt>
    <trkpt lat="48.406575" lon="2.611392">
      <ele>126.6</ele>
      <time>2014-05-18T09:24:45Z</time>
    </trkpt>
    <trkpt lat="48.406568" lon="2.611545">
      <ele>126.5</ele>
      <time>2014-05-18T09:24:47Z</time>
    </trkpt>
    <trkpt lat="48.40661" lon="2.611736">
      <ele>126.3</ele>
      <time>2014-05-18T09:24:50Z</time>
    </trkpt>
    <trkpt lat="48.406622" lon="2.611881">
      <ele>126.4</ele>
      <time>2014-05-18T09:24:52Z</time>
    </trkpt>
    <trkpt lat="48.406662" lon="2.612063">
      <ele>126.5</ele>
      <time>2014-05-18T09:24:55Z</time>
    </trkpt>
    <trkpt lat="48.406677" lon="2.612205">
      <ele>126.5</ele>
      <time>2014-05-18T09:24:57Z</time>
    </trkpt>
    <trkpt lat="48.406691" lon="2.612371">
      <ele>126.6</ele>
      <time>2014-05-18T09:24:59Z</time>
    </trkpt>
    <trkpt lat="48.406689" lon="2.612533">
      <ele>126.7</ele>
      <time>2014-05-18T09:25:01Z</time>
    </trkpt>
    <trkpt lat="48.406668" lon="2.612718">
      <ele>127.0</ele>
      <time>2014-05-18T09:25:04Z</time>
    </trkpt>
    <trkpt lat="48.406624" lon="2.612873">
      <ele>127.2</ele>
      <time>2014-05-18T09:25:07Z</time>
    </trkpt>
    <trkpt lat="48.406528" lon="2.613189">
      <ele>127.7</ele>
      <time>2014-05-18T09:25:13Z</time>
    </trkpt>
    <trkpt lat="48.406466" lon="2.613296">
      <ele>128.0</ele>
      <time>2014-05-18T09:25:15Z</time>
    </trkpt>
    <trkpt lat="48.406401" lon="2.613439">
      <ele>128.4</ele>
      <time>2014-05-18T09:25:18Z</time>
    </trkpt>
    <trkpt lat="48.40633" lon="2.613593">
      <ele>128.8</ele>
      <time>2014-05-18T09:25:21Z</time>
    </trkpt>
    <trkpt lat="48.406277" lon="2.613718">
      <ele>129.1</ele>
      <time>2014-05-18T09:25:24Z</time>
    </trkpt>
    <trkpt lat="48.406216" lon="2.61386">
      <ele>129.5</ele>
      <time>2014-05-18T09:25:27Z</time>
    </trkpt>
    <trkpt lat="48.406151" lon="2.613991">
      <ele>129.8</ele>
      <time>2014-05-18T09:25:30Z</time>
    </trkpt>
    <trkpt lat="48.406071" lon="2.614155">
      <ele>130.1</ele>
      <time>2014-05-18T09:25:34Z</time>
    </trkpt>
    <trkpt lat="48.406015" lon="2.614318">
      <ele>130.2</ele>
      <time>2014-05-18T09:25:37Z</time>
    </trkpt>
    <trkpt lat="48.40596" lon="2.614457">
      <ele>130.4</ele>
      <time>2014-05-18T09:25:39Z</time>
    </trkpt>
    <trkpt lat="48.405898" lon="2.614639">
      <ele>130.6</ele>
      <time>2014-05-18T09:25:41Z</time>
    </trkpt>
    <trkpt lat="48.405851" lon="2.614815">
      <ele>130.9</ele>
      <time>2014-05-18T09:25:44Z</time>
    </trkpt>
    <trkpt lat="48.405786" lon="2.615044">
      <ele>131.1</ele>
      <time>2014-05-18T09:25:47Z</time>
    </trkpt>
    <trkpt lat="48.405751" lon="2.615207">
      <ele>131.2</ele>
      <time>2014-05-18T09:25:50Z</time>
    </trkpt>
    <trkpt lat="48.405715" lon="2.615338">
      <ele>131.3</ele>
      <time>2014-05-18T09:25:53Z</time>
    </trkpt>
    <trkpt lat="48.405684" lon="2.615491">
      <ele>131.4</ele>
      <time>2014-05-18T09:25:56Z</time>
    </trkpt>
    <trkpt lat="48.405659" lon="2.615642">
      <ele>131.4</ele>
      <time>2014-05-18T09:25:58Z</time>
    </trkpt>
    <trkpt lat="48.405627" lon="2.615793">
      <ele>131.5</ele>
      <time>2014-05-18T09:26:01Z</time>
    </trkpt>
    <trkpt lat="48.405602" lon="2.615946">
      <ele>131.4</ele>
      <time>2014-05-18T09:26:03Z</time>
    </trkpt>
    <trkpt lat="48.405575" lon="2.616077">
      <ele>131.3</ele>
      <time>2014-05-18T09:26:05Z</time>
    </trkpt>
    <trkpt lat="48.405536" lon="2.616259">
      <ele>131.2</ele>
      <time>2014-05-18T09:26:08Z</time>
    </trkpt>
    <trkpt lat="48.405467" lon="2.616584">
      <ele>131.3</ele>
      <time>2014-05-18T09:26:14Z</time>
    </trkpt>
    <trkpt lat="48.405431" lon="2.616741">
      <ele>131.5</ele>
      <time>2014-05-18T09:26:16Z</time>
    </trkpt>
    <trkpt lat="48.405395" lon="2.616904">
      <ele>131.9</ele>
      <time>2014-05-18T09:26:19Z</time>
    </trkpt>
    <trkpt lat="48.405366" lon="2.617079">
      <ele>132.3</ele>
      <time>2014-05-18T09:26:22Z</time>
    </trkpt>
    <trkpt lat="48.405322" lon="2.617231">
      <ele>132.7</ele>
      <time>2014-05-18T09:26:25Z</time>
    </trkpt>
    <trkpt lat="48.405287" lon="2.617402">
      <ele>133.2</ele>
      <time>2014-05-18T09:26:29Z</time>
    </trkpt>
    <trkpt lat="48.405246" lon="2.617553">
      <ele>133.6</ele>
      <time>2014-05-18T09:26:32Z</time>
    </trkpt>
    <trkpt lat="48.405217" lon="2.617753">
      <ele>133.8</ele>
      <time>2014-05-18T09:26:35Z</time>
    </trkpt>
    <trkpt lat="48.405181" lon="2.617947">
      <ele>134.2</ele>
      <time>2014-05-18T09:26:38Z</time>
    </trkpt>
    <trkpt lat="48.40515" lon="2.618104">
      <ele>134.6</ele>
      <time>2014-05-18T09:26:40Z</time>
    </trkpt>
    <trkpt lat="48.405117" lon="2.618235">
      <ele>134.9</ele>
      <time>2014-05-18T09:26:42Z</time>
    </trkpt>
    <trkpt lat="48.405073" lon="2.618391">
      <ele>135.4</ele>
      <time>2014-05-18T09:26:44Z</time>
    </trkpt>
    <trkpt lat="48.405018" lon="2.618541">
      <ele>136.1</ele>
      <time>2014-05-18T09:26:46Z</time>
    </trkpt>
    <trkpt lat="48.404962" lon="2.618674">
      <ele>136.5</ele>
      <time>2014-05-18T09:26:48Z</time>
    </trkpt>
    <trkpt lat="48.404946" lon="2.61881">
      <ele>136.8</ele>
      <time>2014-05-18T09:26:50Z</time>
    </trkpt>
    <trkpt lat="48.40491" lon="2.618996">
      <ele>137.1</ele>
      <time>2014-05-18T09:26:53Z</time>
    </trkpt>
    <trkpt lat="48.40489" lon="2.619156">
      <ele>137.4</ele>
      <time>2014-05-18T09:26:56Z</time>
    </trkpt>
    <trkpt lat="48.404858" lon="2.619289">
      <ele>137.5</ele>
      <time>2014-05-18T09:26:58Z</time>
    </trkpt>
    <trkpt lat="48.40483" lon="2.619426">
      <ele>137.6</ele>
      <time>2014-05-18T09:27:00Z</time>
    </trkpt>
    <trkpt lat="48.404787" lon="2.619609">
      <ele>137.8</ele>
      <time>2014-05-18T09:27:02Z</time>
    </trkpt>
    <trkpt lat="48.404744" lon="2.619745">
      <ele>137.9</ele>
      <time>2014-05-18T09:27:04Z</time>
    </trkpt>
    <trkpt lat="48.40473" lon="2.619921">
      <ele>138.0</ele>
      <time>2014-05-18T09:27:08Z</time>
    </trkpt>
    <trkpt lat="48.40471" lon="2.620263">
      <ele>137.7</ele>
      <time>2014-05-18T09:27:13Z</time>
    </trkpt>
    <trkpt lat="48.404714" lon="2.620413">
      <ele>137.5</ele>
      <time>2014-05-18T09:27:15Z</time>
    </trkpt>
    <trkpt lat="48.404729" lon="2.620602">
      <ele>137.2</ele>
      <time>2014-05-18T09:27:18Z</time>
    </trkpt>
    <trkpt lat="48.404748" lon="2.620747">
      <ele>136.9</ele>
      <time>2014-05-18T09:27:20Z</time>
    </trkpt>
    <trkpt lat="48.404771" lon="2.620947">
      <ele>136.5</ele>
      <time>2014-05-18T09:27:23Z</time>
    </trkpt>
    <trkpt lat="48.404778" lon="2.621117">
      <ele>136.3</ele>
      <time>2014-05-18T09:27:26Z</time>
    </trkpt>
    <trkpt lat="48.404782" lon="2.621253">
      <ele>136.1</ele>
      <time>2014-05-18T09:27:28Z</time>
    </trkpt>
    <trkpt lat="48.404812" lon="2.621393">
      <ele>135.7</ele>
      <time>2014-05-18T09:27:30Z</time>
    </trkpt>
    <trkpt lat="48.404828" lon="2.621626">
      <ele>135.3</ele>
      <time>2014-05-18T09:27:33Z</time>
    </trkpt>
    <trkpt lat="48.404853" lon="2.621812">
      <ele>134.7</ele>
      <time>2014-05-18T09:27:36Z</time>
    </trkpt>
    <trkpt lat="48.404852" lon="2.622029">
      <ele>134.2</ele>
      <time>2014-05-18T09:27:39Z</time>
    </trkpt>
    <trkpt lat="48.404878" lon="2.622252">
      <ele>133.5</ele>
      <time>2014-05-18T09:27:42Z</time>
    </trkpt>
    <trkpt lat="48.404897" lon="2.622448">
      <ele>132.9</ele>
      <time>2014-05-18T09:27:44Z</time>
    </trkpt>
    <trkpt lat="48.404911" lon="2.622592">
      <ele>132.4</ele>
      <time>2014-05-18T09:27:46Z</time>
    </trkpt>
    <trkpt lat="48.404923" lon="2.622763">
      <ele>132.0</ele>
      <time>2014-05-18T09:27:48Z</time>
    </trkpt>
    <trkpt lat="48.404942" lon="2.622929">
      <ele>131.4</ele>
      <time>2014-05-18T09:27:50Z</time>
    </trkpt>
    <trkpt lat="48.404946" lon="2.623088">
      <ele>131.0</ele>
      <time>2014-05-18T09:27:52Z</time>
    </trkpt>
    <trkpt lat="48.404979" lon="2.623311">
      <ele>130.2</ele>
      <time>2014-05-18T09:27:55Z</time>
    </trkpt>
    <trkpt lat="48.405" lon="2.623465">
      <ele>130.0</ele>
      <time>2014-05-18T09:27:57Z</time>
    </trkpt>
    <trkpt lat="48.40501" lon="2.62366">
      <ele>130.0</ele>
      <time>2014-05-18T09:27:59Z</time>
    </trkpt>
    <trkpt lat="48.404992" lon="2.623827">
      <ele>130.1</ele>
      <time>2014-05-18T09:28:01Z</time>
    </trkpt>
    <trkpt lat="48.404979" lon="2.624004">
      <ele>130.2</ele>
      <time>2014-05-18T09:28:03Z</time>
    </trkpt>
    <trkpt lat="48.404968" lon="2.624177">
      <ele>130.2</ele>
      <time>2014-05-18T09:28:05Z</time>
    </trkpt>
    <trkpt lat="48.404981" lon="2.624348">
      <ele>129.7</ele>
      <time>2014-05-18T09:28:07Z</time>
    </trkpt>
    <trkpt lat="48.40498" lon="2.62453">
      <ele>129.3</ele>
      <time>2014-05-18T09:28:09Z</time>
    </trkpt>
    <trkpt lat="48.404955" lon="2.624813">
      <ele>128.8</ele>
      <time>2014-05-18T09:28:13Z</time>
    </trkpt>
    <trkpt lat="48.404938" lon="2.624985">
      <ele>128.6</ele>
      <time>2014-05-18T09:28:16Z</time>
    </trkpt>
    <trkpt lat="48.405034" lon="2.625102">
      <ele>127.6</ele>
      <time>2014-05-18T09:28:19Z</time>
    </trkpt>
    <trkpt lat="48.405137" lon="2.625146">
      <ele>126.6</ele>
      <time>2014-05-18T09:28:21Z</time>
    </trkpt>
    <trkpt lat="48.405236" lon="2.625196">
      <ele>125.6</ele>
      <time>2014-05-18T09:28:23Z</time>
    </trkpt>
    <trkpt lat="48.405346" lon="2.625252">
      <ele>124.5</ele>
      <time>2014-05-18T09:28:25Z</time>
    </trkpt>
    <trkpt lat="48.405488" lon="2.62531">
      <ele>123.1</ele>
      <time>2014-05-18T09:28:27Z</time>
    </trkpt>
    <trkpt lat="48.405574" lon="2.625398">
      <ele>122.0</ele>
      <time>2014-05-18T09:28:29Z</time>
    </trkpt>
    <trkpt lat="48.40567" lon="2.625458">
      <ele>120.9</ele>
      <time>2014-05-18T09:28:31Z</time>
    </trkpt>
    <trkpt lat="48.405773" lon="2.625528">
      <ele>119.7</ele>
      <time>2014-05-18T09:28:33Z</time>
    </trkpt>
    <trkpt lat="48.40588" lon="2.625556">
      <ele>118.6</ele>
      <time>2014-05-18T09:28:35Z</time>
    </trkpt>
    <trkpt lat="48.406035" lon="2.625588">
      <ele>117.3</ele>
      <time>2014-05-18T09:28:38Z</time>
    </trkpt>
    <trkpt lat="48.406179" lon="2.62569">
      <ele>115.7</ele>
      <time>2014-05-18T09:28:41Z</time>
    </trkpt>
    <trkpt lat="48.406297" lon="2.625787">
      <ele>114.3</ele>
      <time>2014-05-18T09:28:44Z</time>
    </trkpt>
    <trkpt lat="48.406389" lon="2.625871">
      <ele>113.4</ele>
      <time>2014-05-18T09:28:46Z</time>
    </trkpt>
    <trkpt lat="48.406471" lon="2.626013">
      <ele>113.0</ele>
      <time>2014-05-18T09:28:48Z</time>
    </trkpt>
    <trkpt lat="48.406551" lon="2.626127">
      <ele>112.5</ele>
      <time>2014-05-18T09:28:50Z</time>
    </trkpt>
    <trkpt lat="48.406621" lon="2.626265">
      <ele>112.0</ele>
      <time>2014-05-18T09:28:52Z</time>
    </trkpt>
    <trkpt lat="48.406693" lon="2.626358">
      <ele>111.7</ele>
      <time>2014-05-18T09:28:54Z</time>
    </trkpt>
    <trkpt lat="48.406789" lon="2.626488">
      <ele>112.0</ele>
      <time>2014-05-18T09:28:57Z</time>
    </trkpt>
    <trkpt lat="48.406867" lon="2.626608">
      <ele>112.4</ele>
      <time>2014-05-18T09:29:00Z</time>
    </trkpt>
    <trkpt lat="48.406975" lon="2.626653">
      <ele>112.7</ele>
      <time>2014-05-18T09:29:03Z</time>
    </trkpt>
    <trkpt lat="48.407059" lon="2.626593">
      <ele>112.8</ele>
      <time>2014-05-18T09:29:06Z</time>
    </trkpt>
    <trkpt lat="48.40709" lon="2.626446">
      <ele>112.5</ele>
      <time>2014-05-18T09:29:09Z</time>
    </trkpt>
    <trkpt lat="48.407127" lon="2.626126">
      <ele>111.7</ele>
      <time>2014-05-18T09:29:14Z</time>
    </trkpt>
    <trkpt lat="48.407129" lon="2.62586">
      <ele>111.1</ele>
      <time>2014-05-18T09:29:18Z</time>
    </trkpt>
    <trkpt lat="48.40714" lon="2.625665">
      <ele>111.5</ele>
      <time>2014-05-18T09:29:21Z</time>
    </trkpt>
    <trkpt lat="48.407106" lon="2.62542">
      <ele>112.2</ele>
      <time>2014-05-18T09:29:24Z</time>
    </trkpt>
    <trkpt lat="48.407082" lon="2.625249">
      <ele>112.8</ele>
      <time>2014-05-18T09:29:27Z</time>
    </trkpt>
    <trkpt lat="48.407092" lon="2.625069">
      <ele>113.3</ele>
      <time>2014-05-18T09:29:30Z</time>
    </trkpt>
    <trkpt lat="48.407129" lon="2.62489">
      <ele>113.5</ele>
      <time>2014-05-18T09:29:32Z</time>
    </trkpt>
    <trkpt lat="48.407173" lon="2.624696">
      <ele>113.4</ele>
      <time>2014-05-18T09:29:34Z</time>
    </trkpt>
    <trkpt lat="48.40722" lon="2.624438">
      <ele>113.2</ele>
      <time>2014-05-18T09:29:37Z</time>
    </trkpt>
    <trkpt lat="48.407267" lon="2.624287">
      <ele>112.8</ele>
      <time>2014-05-18T09:29:39Z</time>
    </trkpt>
    <trkpt lat="48.407304" lon="2.624078">
      <ele>112.2</ele>
      <time>2014-05-18T09:29:43Z</time>
    </trkpt>
    <trkpt lat="48.407351" lon="2.623943">
      <ele>111.3</ele>
      <time>2014-05-18T09:29:46Z</time>
    </trkpt>
    <trkpt lat="48.407373" lon="2.623811">
      <ele>110.6</ele>
      <time>2014-05-18T09:29:49Z</time>
    </trkpt>
    <trkpt lat="48.407418" lon="2.623689">
      <ele>109.6</ele>
      <time>2014-05-18T09:29:52Z</time>
    </trkpt>
    <trkpt lat="48.407464" lon="2.623519">
      <ele>108.3</ele>
      <time>2014-05-18T09:29:58Z</time>
    </trkpt>
    <trkpt lat="48.407512" lon="2.623396">
      <ele>107.3</ele>
      <time>2014-05-18T09:30:02Z</time>
    </trkpt>
    <trkpt lat="48.407543" lon="2.623248">
      <ele>107.5</ele>
      <time>2014-05-18T09:30:07Z</time>
    </trkpt>
    <trkpt lat="48.407596" lon="2.623124">
      <ele>108.1</ele>
      <time>2014-05-18T09:30:14Z</time>
    </trkpt>
    <trkpt lat="48.407682" lon="2.622812">
      <ele>109.1</ele>
      <time>2014-05-18T09:30:26Z</time>
    </trkpt>
    <trkpt lat="48.407737" lon="2.622653">
      <ele>109.6</ele>
      <time>2014-05-18T09:30:32Z</time>
    </trkpt>
    <trkpt lat="48.407777" lon="2.622487">
      <ele>110.0</ele>
      <time>2014-05-18T09:30:36Z</time>
    </trkpt>
    <trkpt lat="48.407843" lon="2.622329">
      <ele>110.6</ele>
      <time>2014-05-18T09:30:39Z</time>
    </trkpt>
    <trkpt lat="48.407901" lon="2.622186">
      <ele>111.1</ele>
      <time>2014-05-18T09:30:42Z</time>
    </trkpt>
    <trkpt lat="48.40796" lon="2.622038">
      <ele>111.6</ele>
      <time>2014-05-18T09:30:45Z</time>
    </trkpt>
    <trkpt lat="48.408016" lon="2.621864">
      <ele>112.0</ele>
      <time>2014-05-18T09:30:48Z</time>
    </trkpt>
    <trkpt lat="48.408071" lon="2.621701">
      <ele>112.4</ele>
      <time>2014-05-18T09:30:51Z</time>
    </trkpt>
    <trkpt lat="48.408107" lon="2.621555">
      <ele>112.2</ele>
      <time>2014-05-18T09:30:54Z</time>
    </trkpt>
    <trkpt lat="48.40813" lon="2.621337">
      <ele>111.4</ele>
      <time>2014-05-18T09:30:58Z</time>
    </trkpt>
    <trkpt lat="48.408083" lon="2.621132">
      <ele>110.4</ele>
      <time>2014-05-18T09:31:01Z</time>
    </trkpt>
    <trkpt lat="48.408088" lon="2.620996">
      <ele>109.9</ele>
      <time>2014-05-18T09:31:03Z</time>
    </trkpt>
    <trkpt lat="48.408084" lon="2.620794">
      <ele>109.3</ele>
      <time>2014-05-18T09:31:05Z</time>
    </trkpt>
    <trkpt lat="48.408082" lon="2.620633">
      <ele>109.1</ele>
      <time>2014-05-18T09:31:07Z</time>
    </trkpt>
    <trkpt lat="48.408086" lon="2.620475">
      <ele>108.9</ele>
      <time>2014-05-18T09:31:09Z</time>
    </trkpt>
    <trkpt lat="48.408067" lon="2.620302">
      <ele>108.7</ele>
      <time>2014-05-18T09:31:11Z</time>
    </trkpt>
    <trkpt lat="48.408073" lon="2.620023">
      <ele>108.3</ele>
      <time>2014-05-18T09:31:14Z</time>
    </trkpt>
    <trkpt lat="48.40808" lon="2.619874">
      <ele>108.3</ele>
      <time>2014-05-18T09:31:16Z</time>
    </trkpt>
    <trkpt lat="48.408013" lon="2.619449">
      <ele>108.1</ele>
      <time>2014-05-18T09:31:21Z</time>
    </trkpt>
    <trkpt lat="48.40801" lon="2.619269">
      <ele>108.0</ele>
      <time>2014-05-18T09:31:23Z</time>
    </trkpt>
    <trkpt lat="48.40801" lon="2.619108">
      <ele>108.0</ele>
      <time>2014-05-18T09:31:25Z</time>
    </trkpt>
    <trkpt lat="48.407984" lon="2.618975">
      <ele>108.0</ele>
      <time>2014-05-18T09:31:27Z</time>
    </trkpt>
    <trkpt lat="48.408002" lon="2.618812">
      <ele>107.9</ele>
      <time>2014-05-18T09:31:29Z</time>
    </trkpt>
    <trkpt lat="48.408025" lon="2.618651">
      <ele>107.8</ele>
      <time>2014-05-18T09:31:31Z</time>
    </trkpt>
    <trkpt lat="48.408052" lon="2.618499">
      <ele>107.7</ele>
      <time>2014-05-18T09:31:33Z</time>
    </trkpt>
    <trkpt lat="48.408081" lon="2.618331">
      <ele>107.6</ele>
      <time>2014-05-18T09:31:36Z</time>
    </trkpt>
    <trkpt lat="48.408151" lon="2.618204">
      <ele>107.5</ele>
      <time>2014-05-18T09:31:39Z</time>
    </trkpt>
    <trkpt lat="48.408267" lon="2.618145">
      <ele>107.2</ele>
      <time>2014-05-18T09:31:42Z</time>
    </trkpt>
    <trkpt lat="48.408362" lon="2.61807">
      <ele>107.4</ele>
      <time>2014-05-18T09:31:45Z</time>
    </trkpt>
    <trkpt lat="48.408457" lon="2.617983">
      <ele>108.8</ele>
      <time>2014-05-18T09:31:49Z</time>
    </trkpt>
    <trkpt lat="48.408554" lon="2.617956">
      <ele>110.2</ele>
      <time>2014-05-18T09:31:54Z</time>
    </trkpt>
    <trkpt lat="48.408439" lon="2.617986">
      <ele>108.5</ele>
      <time>2014-05-18T09:32:03Z</time>
    </trkpt>
    <trkpt lat="48.408322" lon="2.618051">
      <ele>107.0</ele>
      <time>2014-05-18T09:32:07Z</time>
    </trkpt>
    <trkpt lat="48.408219" lon="2.61805">
      <ele>107.4</ele>
      <time>2014-05-18T09:32:10Z</time>
    </trkpt>
    <trkpt lat="48.408147" lon="2.617967">
      <ele>107.6</ele>
      <time>2014-05-18T09:32:13Z</time>
    </trkpt>
    <trkpt lat="48.408198" lon="2.6178">
      <ele>107.5</ele>
      <time>2014-05-18T09:32:15Z</time>
    </trkpt>
    <trkpt lat="48.408227" lon="2.617672">
      <ele>107.5</ele>
      <time>2014-05-18T09:32:17Z</time>
    </trkpt>
    <trkpt lat="48.408307" lon="2.617317">
      <ele>107.1</ele>
      <time>2014-05-18T09:32:22Z</time>
    </trkpt>
    <trkpt lat="48.408341" lon="2.617147">
      <ele>107.1</ele>
      <time>2014-05-18T09:32:24Z</time>
    </trkpt>
    <trkpt lat="48.408362" lon="2.616975">
      <ele>107.4</ele>
      <time>2014-05-18T09:32:26Z</time>
    </trkpt>
    <trkpt lat="48.408388" lon="2.616789">
      <ele>107.8</ele>
      <time>2014-05-18T09:32:29Z</time>
    </trkpt>
    <trkpt lat="48.408401" lon="2.616577">
      <ele>107.9</ele>
      <time>2014-05-18T09:32:32Z</time>
    </trkpt>
    <trkpt lat="48.408421" lon="2.616397">
      <ele>108.1</ele>
      <time>2014-05-18T09:32:34Z</time>
    </trkpt>
    <trkpt lat="48.408424" lon="2.616213">
      <ele>108.0</ele>
      <time>2014-05-18T09:32:36Z</time>
    </trkpt>
    <trkpt lat="48.408443" lon="2.616076">
      <ele>108.0</ele>
      <time>2014-05-18T09:32:38Z</time>
    </trkpt>
    <trkpt lat="48.408473" lon="2.615935">
      <ele>108.1</ele>
      <time>2014-05-18T09:32:40Z</time>
    </trkpt>
    <trkpt lat="48.408535" lon="2.6158">
      <ele>108.5</ele>
      <time>2014-05-18T09:32:42Z</time>
    </trkpt>
    <trkpt lat="48.408591" lon="2.615693">
      <ele>109.2</ele>
      <time>2014-05-18T09:32:44Z</time>
    </trkpt>
    <trkpt lat="48.408677" lon="2.615604">
      <ele>109.8</ele>
      <time>2014-05-18T09:32:46Z</time>
    </trkpt>
    <trkpt lat="48.40875" lon="2.615507">
      <ele>110.2</ele>
      <time>2014-05-18T09:32:48Z</time>
    </trkpt>
    <trkpt lat="48.408812" lon="2.615397">
      <ele>110.4</ele>
      <time>2014-05-18T09:32:50Z</time>
    </trkpt>
    <trkpt lat="48.408879" lon="2.615253">
      <ele>110.5</ele>
      <time>2014-05-18T09:32:52Z</time>
    </trkpt>
    <trkpt lat="48.40891" lon="2.615125">
      <ele>110.4</ele>
      <time>2014-05-18T09:32:54Z</time>
    </trkpt>
    <trkpt lat="48.408972" lon="2.614928">
      <ele>110.0</ele>
      <time>2014-05-18T09:32:56Z</time>
    </trkpt>
    <trkpt lat="48.409022" lon="2.614767">
      <ele>109.4</ele>
      <time>2014-05-18T09:32:58Z</time>
    </trkpt>
    <trkpt lat="48.409065" lon="2.614619">
      <ele>108.7</ele>
      <time>2014-05-18T09:33:00Z</time>
    </trkpt>
    <trkpt lat="48.409112" lon="2.614447">
      <ele>107.7</ele>
      <time>2014-05-18T09:33:02Z</time>
    </trkpt>
    <trkpt lat="48.409136" lon="2.614273">
      <ele>106.8</ele>
      <time>2014-05-18T09:33:04Z</time>
    </trkpt>
    <trkpt lat="48.40913" lon="2.614091">
      <ele>106.1</ele>
      <time>2014-05-18T09:33:06Z</time>
    </trkpt>
    <trkpt lat="48.409115" lon="2.613893">
      <ele>105.5</ele>
      <time>2014-05-18T09:33:08Z</time>
    </trkpt>
    <trkpt lat="48.409093" lon="2.613729">
      <ele>105.0</ele>
      <time>2014-05-18T09:33:10Z</time>
    </trkpt>
    <trkpt lat="48.409064" lon="2.613545">
      <ele>104.6</ele>
      <time>2014-05-18T09:33:13Z</time>
    </trkpt>
    <trkpt lat="48.409045" lon="2.613405">
      <ele>104.2</ele>
      <time>2014-05-18T09:33:15Z</time>
    </trkpt>
    <trkpt lat="48.409028" lon="2.613225">
      <ele>103.7</ele>
      <time>2014-05-18T09:33:17Z</time>
    </trkpt>
    <trkpt lat="48.408978" lon="2.613086">
      <ele>103.8</ele>
      <time>2014-05-18T09:33:19Z</time>
    </trkpt>
    <trkpt lat="48.408901" lon="2.612798">
      <ele>103.6</ele>
      <time>2014-05-18T09:33:23Z</time>
    </trkpt>
    <trkpt lat="48.408866" lon="2.612659">
      <ele>103.5</ele>
      <time>2014-05-18T09:33:25Z</time>
    </trkpt>
    <trkpt lat="48.408823" lon="2.612459">
      <ele>103.6</ele>
      <time>2014-05-18T09:33:28Z</time>
    </trkpt>
    <trkpt lat="48.408797" lon="2.612328">
      <ele>104.4</ele>
      <time>2014-05-18T09:33:30Z</time>
    </trkpt>
    <trkpt lat="48.408798" lon="2.612175">
      <ele>105.0</ele>
      <time>2014-05-18T09:33:32Z</time>
    </trkpt>
    <trkpt lat="48.408781" lon="2.611981">
      <ele>105.9</ele>
      <time>2014-05-18T09:33:35Z</time>
    </trkpt>
    <trkpt lat="48.408774" lon="2.611836">
      <ele>106.6</ele>
      <time>2014-05-18T09:33:37Z</time>
    </trkpt>
    <trkpt lat="48.408751" lon="2.611694">
      <ele>107.4</ele>
      <time>2014-05-18T09:33:40Z</time>
    </trkpt>
    <trkpt lat="48.408746" lon="2.611545">
      <ele>108.0</ele>
      <time>2014-05-18T09:33:43Z</time>
    </trkpt>
    <trkpt lat="48.408738" lon="2.611351">
      <ele>108.9</ele>
      <time>2014-05-18T09:33:47Z</time>
    </trkpt>
    <trkpt lat="48.408737" lon="2.611206">
      <ele>109.6</ele>
      <time>2014-05-18T09:33:50Z</time>
    </trkpt>
    <trkpt lat="48.408726" lon="2.611069">
      <ele>110.2</ele>
      <time>2014-05-18T09:33:53Z</time>
    </trkpt>
    <trkpt lat="48.408728" lon="2.610907">
      <ele>110.9</ele>
      <time>2014-05-18T09:33:57Z</time>
    </trkpt>
    <trkpt lat="48.40875" lon="2.610748">
      <ele>111.5</ele>
      <time>2014-05-18T09:34:01Z</time>
    </trkpt>
    <trkpt lat="48.408808" lon="2.610611">
      <ele>111.7</ele>
      <time>2014-05-18T09:34:04Z</time>
    </trkpt>
    <trkpt lat="48.408854" lon="2.610487">
      <ele>112.1</ele>
      <time>2014-05-18T09:34:09Z</time>
    </trkpt>
    <trkpt lat="48.408958" lon="2.610419">
      <ele>111.9</ele>
      <time>2014-05-18T09:34:14Z</time>
    </trkpt>
    <trkpt lat="48.409048" lon="2.610348">
      <ele>111.8</ele>
      <time>2014-05-18T09:34:17Z</time>
    </trkpt>
    <trkpt lat="48.409142" lon="2.610293">
      <ele>111.7</ele>
      <time>2014-05-18T09:34:21Z</time>
    </trkpt>
    <trkpt lat="48.409274" lon="2.610102">
      <ele>111.9</ele>
      <time>2014-05-18T09:34:26Z</time>
    </trkpt>
    <trkpt lat="48.40938" lon="2.609946">
      <ele>111.5</ele>
      <time>2014-05-18T09:34:30Z</time>
    </trkpt>
    <trkpt lat="48.409464" lon="2.60986">
      <ele>110.5</ele>
      <time>2014-05-18T09:34:32Z</time>
    </trkpt>
    <trkpt lat="48.409552" lon="2.609788">
      <ele>109.3</ele>
      <time>2014-05-18T09:34:34Z</time>
    </trkpt>
    <trkpt lat="48.409661" lon="2.609726">
      <ele>107.8</ele>
      <time>2014-05-18T09:34:36Z</time>
    </trkpt>
    <trkpt lat="48.409775" lon="2.609752">
      <ele>106.2</ele>
      <time>2014-05-18T09:34:38Z</time>
    </trkpt>
    <trkpt lat="48.409905" lon="2.609747">
      <ele>104.4</ele>
      <time>2014-05-18T09:34:40Z</time>
    </trkpt>
    <trkpt lat="48.410021" lon="2.609802">
      <ele>103.1</ele>
      <time>2014-05-18T09:34:42Z</time>
    </trkpt>
    <trkpt lat="48.410121" lon="2.609849">
      <ele>102.5</ele>
      <time>2014-05-18T09:34:44Z</time>
    </trkpt>
    <trkpt lat="48.410273" lon="2.609841">
      <ele>101.2</ele>
      <time>2014-05-18T09:34:46Z</time>
    </trkpt>
    <trkpt lat="48.410446" lon="2.609761">
      <ele>99.5</ele>
      <time>2014-05-18T09:34:49Z</time>
    </trkpt>
    <trkpt lat="48.410559" lon="2.609713">
      <ele>98.5</ele>
      <time>2014-05-18T09:34:51Z</time>
    </trkpt>
    <trkpt lat="48.410695" lon="2.60968">
      <ele>97.3</ele>
      <time>2014-05-18T09:34:53Z</time>
    </trkpt>
    <trkpt lat="48.410813" lon="2.609695">
      <ele>96.4</ele>
      <time>2014-05-18T09:34:55Z</time>
    </trkpt>
    <trkpt lat="48.41091" lon="2.609641">
      <ele>95.7</ele>
      <time>2014-05-18T09:34:57Z</time>
    </trkpt>
    <trkpt lat="48.41103" lon="2.609625">
      <ele>95.0</ele>
      <time>2014-05-18T09:34:59Z</time>
    </trkpt>
    <trkpt lat="48.411141" lon="2.609701">
      <ele>94.5</ele>
      <time>2014-05-18T09:35:01Z</time>
    </trkpt>
    <trkpt lat="48.411146" lon="2.60989">
      <ele>94.6</ele>
      <time>2014-05-18T09:35:04Z</time>
    </trkpt>
    <trkpt lat="48.411146" lon="2.610129">
      <ele>94.8</ele>
      <time>2014-05-18T09:35:09Z</time>
    </trkpt>
    <trkpt lat="48.41116" lon="2.610283">
      <ele>94.9</ele>
      <time>2014-05-18T09:35:12Z</time>
    </trkpt>
    <trkpt lat="48.411171" lon="2.610532">
      <ele>94.9</ele>
      <time>2014-05-18T09:35:16Z</time>
    </trkpt>
    <trkpt lat="48.4112" lon="2.61073">
      <ele>94.9</ele>
      <time>2014-05-18T09:35:19Z</time>
    </trkpt>
    <trkpt lat="48.411234" lon="2.610983">
      <ele>95.0</ele>
      <time>2014-05-18T09:35:23Z</time>
    </trkpt>
    <trkpt lat="48.411264" lon="2.611265">
      <ele>95.4</ele>
      <time>2014-05-18T09:35:28Z</time>
    </trkpt>
    <trkpt lat="48.411247" lon="2.611413">
      <ele>95.9</ele>
      <time>2014-05-18T09:35:30Z</time>
    </trkpt>
    <trkpt lat="48.411262" lon="2.611607">
      <ele>96.2</ele>
      <time>2014-05-18T09:35:33Z</time>
    </trkpt>
    <trkpt lat="48.41131" lon="2.611833">
      <ele>96.3</ele>
      <time>2014-05-18T09:35:36Z</time>
    </trkpt>
    <trkpt lat="48.411325" lon="2.612018">
      <ele>96.6</ele>
      <time>2014-05-18T09:35:39Z</time>
    </trkpt>
    <trkpt lat="48.411346" lon="2.612217">
      <ele>96.9</ele>
      <time>2014-05-18T09:35:42Z</time>
    </trkpt>
    <trkpt lat="48.41136" lon="2.612387">
      <ele>97.1</ele>
      <time>2014-05-18T09:35:44Z</time>
    </trkpt>
    <trkpt lat="48.411377" lon="2.612536">
      <ele>97.2</ele>
      <time>2014-05-18T09:35:46Z</time>
    </trkpt>
    <trkpt lat="48.411384" lon="2.612728">
      <ele>97.3</ele>
      <time>2014-05-18T09:35:49Z</time>
    </trkpt>
    <trkpt lat="48.411368" lon="2.612886">
      <ele>97.8</ele>
      <time>2014-05-18T09:35:51Z</time>
    </trkpt>
    <trkpt lat="48.411388" lon="2.613072">
      <ele>97.7</ele>
      <time>2014-05-18T09:35:54Z</time>
    </trkpt>
    <trkpt lat="48.411423" lon="2.613353">
      <ele>97.5</ele>
      <time>2014-05-18T09:35:58Z</time>
    </trkpt>
    <trkpt lat="48.41143" lon="2.613505">
      <ele>97.6</ele>
      <time>2014-05-18T09:36:00Z</time>
    </trkpt>
    <trkpt lat="48.411435" lon="2.613644">
      <ele>97.6</ele>
      <time>2014-05-18T09:36:02Z</time>
    </trkpt>
    <trkpt lat="48.411471" lon="2.613796">
      <ele>97.2</ele>
      <time>2014-05-18T09:36:04Z</time>
    </trkpt>
    <trkpt lat="48.411503" lon="2.613992">
      <ele>96.8</ele>
      <time>2014-05-18T09:36:07Z</time>
    </trkpt>
    <trkpt lat="48.411531" lon="2.614153">
      <ele>96.4</ele>
      <time>2014-05-18T09:36:09Z</time>
    </trkpt>
    <trkpt lat="48.411546" lon="2.614291">
      <ele>96.4</ele>
      <time>2014-05-18T09:36:11Z</time>
    </trkpt>
    <trkpt lat="48.411555" lon="2.614457">
      <ele>96.5</ele>
      <time>2014-05-18T09:36:13Z</time>
    </trkpt>
    <trkpt lat="48.411623" lon="2.614581">
      <ele>95.4</ele>
      <time>2014-05-18T09:36:15Z</time>
    </trkpt>
    <trkpt lat="48.411637" lon="2.614769">
      <ele>95.3</ele>
      <time>2014-05-18T09:36:18Z</time>
    </trkpt>
    <trkpt lat="48.4116" lon="2.614953">
      <ele>96.4</ele>
      <time>2014-05-18T09:36:20Z</time>
    </trkpt>
    <trkpt lat="48.411577" lon="2.615104">
      <ele>97.4</ele>
      <time>2014-05-18T09:36:22Z</time>
    </trkpt>
    <trkpt lat="48.411552" lon="2.615265">
      <ele>98.6</ele>
      <time>2014-05-18T09:36:25Z</time>
    </trkpt>
    <trkpt lat="48.411462" lon="2.615596">
      <ele>101.8</ele>
      <time>2014-05-18T09:36:31Z</time>
    </trkpt>
    <trkpt lat="48.411424" lon="2.615732">
      <ele>103.0</ele>
      <time>2014-05-18T09:36:33Z</time>
    </trkpt>
    <trkpt lat="48.411386" lon="2.615914">
      <ele>103.9</ele>
      <time>2014-05-18T09:36:36Z</time>
    </trkpt>
    <trkpt lat="48.411348" lon="2.616085">
      <ele>104.2</ele>
      <time>2014-05-18T09:36:39Z</time>
    </trkpt>
    <trkpt lat="48.411331" lon="2.616242">
      <ele>104.1</ele>
      <time>2014-05-18T09:36:42Z</time>
    </trkpt>
    <trkpt lat="48.411305" lon="2.616376">
      <ele>104.1</ele>
      <time>2014-05-18T09:36:44Z</time>
    </trkpt>
    <trkpt lat="48.411244" lon="2.616566">
      <ele>104.4</ele>
      <time>2014-05-18T09:36:47Z</time>
    </trkpt>
    <trkpt lat="48.411223" lon="2.616737">
      <ele>104.2</ele>
      <time>2014-05-18T09:36:50Z</time>
    </trkpt>
    <trkpt lat="48.411189" lon="2.616915">
      <ele>104.2</ele>
      <time>2014-05-18T09:36:54Z</time>
    </trkpt>
    <trkpt lat="48.41115" lon="2.617222">
      <ele>103.8</ele>
      <time>2014-05-18T09:36:58Z</time>
    </trkpt>
    <trkpt lat="48.411107" lon="2.617388">
      <ele>103.7</ele>
      <time>2014-05-18T09:37:01Z</time>
    </trkpt>
    <trkpt lat="48.411069" lon="2.617549">
      <ele>103.7</ele>
      <time>2014-05-18T09:37:04Z</time>
    </trkpt>
    <trkpt lat="48.411042" lon="2.6177">
      <ele>104.0</ele>
      <time>2014-05-18T09:37:08Z</time>
    </trkpt>
    <trkpt lat="48.411026" lon="2.617861">
      <ele>104.4</ele>
      <time>2014-05-18T09:37:11Z</time>
    </trkpt>
    <trkpt lat="48.410972" lon="2.618061">
      <ele>105.0</ele>
      <time>2014-05-18T09:37:15Z</time>
    </trkpt>
    <trkpt lat="48.410948" lon="2.6182">
      <ele>105.3</ele>
      <time>2014-05-18T09:37:18Z</time>
    </trkpt>
    <trkpt lat="48.410915" lon="2.618345">
      <ele>105.6</ele>
      <time>2014-05-18T09:37:21Z</time>
    </trkpt>
    <trkpt lat="48.410891" lon="2.618499">
      <ele>106.1</ele>
      <time>2014-05-18T09:37:24Z</time>
    </trkpt>
    <trkpt lat="48.410856" lon="2.618665">
      <ele>106.7</ele>
      <time>2014-05-18T09:37:27Z</time>
    </trkpt>
    <trkpt lat="48.410829" lon="2.618981">
      <ele>107.7</ele>
      <time>2014-05-18T09:37:33Z</time>
    </trkpt>
    <trkpt lat="48.410818" lon="2.619134">
      <ele>108.3</ele>
      <time>2014-05-18T09:37:36Z</time>
    </trkpt>
    <trkpt lat="48.410808" lon="2.619277">
      <ele>108.8</ele>
      <time>2014-05-18T09:37:40Z</time>
    </trkpt>
    <trkpt lat="48.410776" lon="2.619415">
      <ele>109.8</ele>
      <time>2014-05-18T09:37:43Z</time>
    </trkpt>
    <trkpt lat="48.410753" lon="2.619552">
      <ele>110.6</ele>
      <time>2014-05-18T09:37:47Z</time>
    </trkpt>
    <trkpt lat="48.410732" lon="2.619725">
      <ele>111.4</ele>
      <time>2014-05-18T09:37:50Z</time>
    </trkpt>
    <trkpt lat="48.41071" lon="2.619918">
      <ele>112.2</ele>
      <time>2014-05-18T09:37:56Z</time>
    </trkpt>
    <trkpt lat="48.41069" lon="2.620058">
      <ele>112.9</ele>
      <time>2014-05-18T09:38:00Z</time>
    </trkpt>
    <trkpt lat="48.410669" lon="2.620198">
      <ele>113.7</ele>
      <time>2014-05-18T09:38:03Z</time>
    </trkpt>
    <trkpt lat="48.410665" lon="2.620339">
      <ele>114.1</ele>
      <time>2014-05-18T09:38:06Z</time>
    </trkpt>
    <trkpt lat="48.41065" lon="2.620487">
      <ele>114.8</ele>
      <time>2014-05-18T09:38:09Z</time>
    </trkpt>
    <trkpt lat="48.410607" lon="2.620646">
      <ele>115.8</ele>
      <time>2014-05-18T09:38:13Z</time>
    </trkpt>
    <trkpt lat="48.410576" lon="2.620823">
      <ele>116.7</ele>
      <time>2014-05-18T09:38:17Z</time>
    </trkpt>
    <trkpt lat="48.410571" lon="2.620973">
      <ele>116.8</ele>
      <time>2014-05-18T09:38:21Z</time>
    </trkpt>
    <trkpt lat="48.410546" lon="2.621137">
      <ele>117.2</ele>
      <time>2014-05-18T09:38:25Z</time>
    </trkpt>
    <trkpt lat="48.410529" lon="2.62133">
      <ele>117.5</ele>
      <time>2014-05-18T09:38:29Z</time>
    </trkpt>
    <trkpt lat="48.410518" lon="2.621607">
      <ele>117.6</ele>
      <time>2014-05-18T09:38:36Z</time>
    </trkpt>
    <trkpt lat="48.410531" lon="2.621748">
      <ele>118.2</ele>
      <time>2014-05-18T09:38:39Z</time>
    </trkpt>
    <trkpt lat="48.410511" lon="2.621893">
      <ele>119.6</ele>
      <time>2014-05-18T09:38:43Z</time>
    </trkpt>
    <trkpt lat="48.410521" lon="2.622057">
      <ele>120.8</ele>
      <time>2014-05-18T09:38:47Z</time>
    </trkpt>
    <trkpt lat="48.410547" lon="2.622203">
      <ele>121.9</ele>
      <time>2014-05-18T09:38:51Z</time>
    </trkpt>
    <trkpt lat="48.410569" lon="2.622347">
      <ele>123.0</ele>
      <time>2014-05-18T09:38:55Z</time>
    </trkpt>
    <trkpt lat="48.410579" lon="2.622513">
      <ele>124.3</ele>
      <time>2014-05-18T09:39:00Z</time>
    </trkpt>
    <trkpt lat="48.410576" lon="2.622656">
      <ele>125.0</ele>
      <time>2014-05-18T09:39:04Z</time>
    </trkpt>
    <trkpt lat="48.410582" lon="2.622805">
      <ele>125.7</ele>
      <time>2014-05-18T09:39:08Z</time>
    </trkpt>
    <trkpt lat="48.410575" lon="2.623018">
      <ele>126.8</ele>
      <time>2014-05-18T09:39:13Z</time>
    </trkpt>
    <trkpt lat="48.410572" lon="2.623184">
      <ele>127.6</ele>
      <time>2014-05-18T09:39:17Z</time>
    </trkpt>
    <trkpt lat="48.410541" lon="2.623323">
      <ele>128.3</ele>
      <time>2014-05-18T09:39:21Z</time>
    </trkpt>
    <trkpt lat="48.410527" lon="2.623461">
      <ele>128.5</ele>
      <time>2014-05-18T09:39:25Z</time>
    </trkpt>
    <trkpt lat="48.410477" lon="2.623606">
      <ele>128.7</ele>
      <time>2014-05-18T09:39:31Z</time>
    </trkpt>
    <trkpt lat="48.410348" lon="2.623892">
      <ele>128.8</ele>
      <time>2014-05-18T09:39:42Z</time>
    </trkpt>
    <trkpt lat="48.410296" lon="2.624023">
      <ele>128.7</ele>
      <time>2014-05-18T09:39:46Z</time>
    </trkpt>
    <trkpt lat="48.410232" lon="2.624131">
      <ele>128.6</ele>
      <time>2014-05-18T09:39:50Z</time>
    </trkpt>
    <trkpt lat="48.410165" lon="2.62427">
      <ele>128.4</ele>
      <time>2014-05-18T09:39:54Z</time>
    </trkpt>
    <trkpt lat="48.410112" lon="2.624401">
      <ele>128.3</ele>
      <time>2014-05-18T09:39:59Z</time>
    </trkpt>
    <trkpt lat="48.410062" lon="2.624528">
      <ele>128.2</ele>
      <time>2014-05-18T09:40:02Z</time>
    </trkpt>
    <trkpt lat="48.409999" lon="2.624646">
      <ele>128.0</ele>
      <time>2014-05-18T09:40:05Z</time>
    </trkpt>
    <trkpt lat="48.409951" lon="2.624782">
      <ele>128.0</ele>
      <time>2014-05-18T09:40:09Z</time>
    </trkpt>
    <trkpt lat="48.409899" lon="2.624924">
      <ele>128.0</ele>
      <time>2014-05-18T09:40:12Z</time>
    </trkpt>
    <trkpt lat="48.409859" lon="2.625065">
      <ele>128.0</ele>
      <time>2014-05-18T09:40:16Z</time>
    </trkpt>
    <trkpt lat="48.409816" lon="2.625202">
      <ele>128.1</ele>
      <time>2014-05-18T09:40:19Z</time>
    </trkpt>
    <trkpt lat="48.409798" lon="2.625355">
      <ele>128.2</ele>
      <time>2014-05-18T09:40:22Z</time>
    </trkpt>
    <trkpt lat="48.409781" lon="2.62549">
      <ele>128.3</ele>
      <time>2014-05-18T09:40:25Z</time>
    </trkpt>
    <trkpt lat="48.409738" lon="2.625665">
      <ele>128.5</ele>
      <time>2014-05-18T09:40:29Z</time>
    </trkpt>
    <trkpt lat="48.409714" lon="2.625796">
      <ele>128.7</ele>
      <time>2014-05-18T09:40:32Z</time>
    </trkpt>
    <trkpt lat="48.409668" lon="2.626122">
      <ele>129.4</ele>
      <time>2014-05-18T09:40:38Z</time>
    </trkpt>
    <trkpt lat="48.409654" lon="2.626275">
      <ele>129.7</ele>
      <time>2014-05-18T09:40:41Z</time>
    </trkpt>
    <trkpt lat="48.409651" lon="2.626432">
      <ele>130.0</ele>
      <time>2014-05-18T09:40:44Z</time>
    </trkpt>
    <trkpt lat="48.409615" lon="2.626597">
      <ele>130.3</ele>
      <time>2014-05-18T09:40:47Z</time>
    </trkpt>
    <trkpt lat="48.409612" lon="2.626765">
      <ele>130.6</ele>
      <time>2014-05-18T09:40:50Z</time>
    </trkpt>
    <trkpt lat="48.409611" lon="2.626951">
      <ele>130.8</ele>
      <time>2014-05-18T09:40:53Z</time>
    </trkpt>
    <trkpt lat="48.409605" lon="2.627096">
      <ele>131.0</ele>
      <time>2014-05-18T09:40:55Z</time>
    </trkpt>
    <trkpt lat="48.409614" lon="2.627268">
      <ele>131.2</ele>
      <time>2014-05-18T09:40:58Z</time>
    </trkpt>
    <trkpt lat="48.409608" lon="2.627445">
      <ele>131.5</ele>
      <time>2014-05-18T09:41:02Z</time>
    </trkpt>
    <trkpt lat="48.409627" lon="2.6276">
      <ele>131.5</ele>
      <time>2014-05-18T09:41:05Z</time>
    </trkpt>
    <trkpt lat="48.409619" lon="2.627779">
      <ele>131.4</ele>
      <time>2014-05-18T09:41:07Z</time>
    </trkpt>
    <trkpt lat="48.40967" lon="2.627965">
      <ele>131.3</ele>
      <time>2014-05-18T09:41:11Z</time>
    </trkpt>
    <trkpt lat="48.409704" lon="2.62814">
      <ele>131.1</ele>
      <time>2014-05-18T09:41:14Z</time>
    </trkpt>
    <trkpt lat="48.409743" lon="2.628297">
      <ele>131.0</ele>
      <time>2014-05-18T09:41:18Z</time>
    </trkpt>
    <trkpt lat="48.40977" lon="2.628427">
      <ele>131.2</ele>
      <time>2014-05-18T09:41:22Z</time>
    </trkpt>
    <trkpt lat="48.409803" lon="2.628576">
      <ele>131.4</ele>
      <time>2014-05-18T09:41:25Z</time>
    </trkpt>
    <trkpt lat="48.409823" lon="2.628715">
      <ele>131.7</ele>
      <time>2014-05-18T09:41:28Z</time>
    </trkpt>
    <trkpt lat="48.409845" lon="2.62886">
      <ele>132.0</ele>
      <time>2014-05-18T09:41:31Z</time>
    </trkpt>
    <trkpt lat="48.409877" lon="2.629014">
      <ele>132.4</ele>
      <time>2014-05-18T09:41:34Z</time>
    </trkpt>
    <trkpt lat="48.409929" lon="2.629331">
      <ele>133.4</ele>
      <time>2014-05-18T09:41:41Z</time>
    </trkpt>
    <trkpt lat="48.409954" lon="2.629495">
      <ele>134.1</ele>
      <time>2014-05-18T09:41:45Z</time>
    </trkpt>
    <trkpt lat="48.410008" lon="2.629652">
      <ele>134.8</ele>
      <time>2014-05-18T09:41:49Z</time>
    </trkpt>
    <trkpt lat="48.410047" lon="2.629811">
      <ele>135.4</ele>
      <time>2014-05-18T09:41:53Z</time>
    </trkpt>
    <trkpt lat="48.410092" lon="2.629961">
      <ele>136.1</ele>
      <time>2014-05-18T09:41:57Z</time>
    </trkpt>
    <trkpt lat="48.410122" lon="2.630102">
      <ele>136.5</ele>
      <time>2014-05-18T09:42:00Z</time>
    </trkpt>
    <trkpt lat="48.410145" lon="2.630292">
      <ele>137.0</ele>
      <time>2014-05-18T09:42:04Z</time>
    </trkpt>
    <trkpt lat="48.410139" lon="2.630456">
      <ele>137.3</ele>
      <time>2014-05-18T09:42:07Z</time>
    </trkpt>
    <trkpt lat="48.410131" lon="2.630598">
      <ele>137.6</ele>
      <time>2014-05-18T09:42:12Z</time>
    </trkpt>
    <trkpt lat="48.410111" lon="2.630759">
      <ele>138.0</ele>
      <time>2014-05-18T09:42:18Z</time>
    </trkpt>
    <trkpt lat="48.410088" lon="2.630896">
      <ele>138.2</ele>
      <time>2014-05-18T09:42:21Z</time>
    </trkpt>
    <trkpt lat="48.410047" lon="2.631094">
      <ele>138.6</ele>
      <time>2014-05-18T09:42:24Z</time>
    </trkpt>
    <trkpt lat="48.409986" lon="2.631284">
      <ele>139.0</ele>
      <time>2014-05-18T09:42:27Z</time>
    </trkpt>
    <trkpt lat="48.409955" lon="2.631417">
      <ele>139.1</ele>
      <time>2014-05-18T09:42:29Z</time>
    </trkpt>
    <trkpt lat="48.409905" lon="2.631575">
      <ele>139.1</ele>
      <time>2014-05-18T09:42:32Z</time>
    </trkpt>
    <trkpt lat="48.409862" lon="2.631756">
      <ele>138.9</ele>
      <time>2014-05-18T09:42:35Z</time>
    </trkpt>
    <trkpt lat="48.409771" lon="2.632161">
      <ele>138.1</ele>
      <time>2014-05-18T09:42:42Z</time>
    </trkpt>
    <trkpt lat="48.409723" lon="2.632306">
      <ele>137.7</ele>
      <time>2014-05-18T09:42:45Z</time>
    </trkpt>
    <trkpt lat="48.409683" lon="2.632433">
      <ele>137.5</ele>
      <time>2014-05-18T09:42:48Z</time>
    </trkpt>
    <trkpt lat="48.409656" lon="2.632588">
      <ele>137.4</ele>
      <time>2014-05-18T09:42:51Z</time>
    </trkpt>
    <trkpt lat="48.409614" lon="2.632762">
      <ele>137.4</ele>
      <time>2014-05-18T09:42:55Z</time>
    </trkpt>
    <trkpt lat="48.409562" lon="2.632916">
      <ele>137.4</ele>
      <time>2014-05-18T09:42:59Z</time>
    </trkpt>
    <trkpt lat="48.409531" lon="2.633067">
      <ele>137.5</ele>
      <time>2014-05-18T09:43:03Z</time>
    </trkpt>
    <trkpt lat="48.409501" lon="2.63322">
      <ele>137.6</ele>
      <time>2014-05-18T09:43:07Z</time>
    </trkpt>
    <trkpt lat="48.40949" lon="2.633391">
      <ele>137.9</ele>
      <time>2014-05-18T09:43:10Z</time>
    </trkpt>
    <trkpt lat="48.409455" lon="2.633569">
      <ele>138.1</ele>
      <time>2014-05-18T09:43:13Z</time>
    </trkpt>
    <trkpt lat="48.409425" lon="2.63375">
      <ele>138.3</ele>
      <time>2014-05-18T09:43:16Z</time>
    </trkpt>
    <trkpt lat="48.409388" lon="2.633932">
      <ele>138.6</ele>
      <time>2014-05-18T09:43:19Z</time>
    </trkpt>
    <trkpt lat="48.40936" lon="2.634104">
      <ele>138.9</ele>
      <time>2014-05-18T09:43:22Z</time>
    </trkpt>
    <trkpt lat="48.40933" lon="2.634341">
      <ele>139.0</ele>
      <time>2014-05-18T09:43:26Z</time>
    </trkpt>
    <trkpt lat="48.409297" lon="2.634509">
      <ele>139.0</ele>
      <time>2014-05-18T09:43:29Z</time>
    </trkpt>
    <trkpt lat="48.409253" lon="2.63472">
      <ele>139.0</ele>
      <time>2014-05-18T09:43:33Z</time>
    </trkpt>
    <trkpt lat="48.409243" lon="2.63488">
      <ele>139.0</ele>
      <time>2014-05-18T09:43:36Z</time>
    </trkpt>
    <trkpt lat="48.409188" lon="2.635235">
      <ele>139.6</ele>
      <time>2014-05-18T09:43:43Z</time>
    </trkpt>
    <trkpt lat="48.409163" lon="2.63537">
      <ele>139.9</ele>
      <time>2014-05-18T09:43:46Z</time>
    </trkpt>
    <trkpt lat="48.409148" lon="2.63557">
      <ele>140.3</ele>
      <time>2014-05-18T09:43:50Z</time>
    </trkpt>
    <trkpt lat="48.409143" lon="2.635736">
      <ele>140.7</ele>
      <time>2014-05-18T09:43:53Z</time>
    </trkpt>
    <trkpt lat="48.409126" lon="2.63587">
      <ele>140.9</ele>
      <time>2014-05-18T09:43:55Z</time>
    </trkpt>
    <trkpt lat="48.40913" lon="2.636014">
      <ele>141.0</ele>
      <time>2014-05-18T09:43:59Z</time>
    </trkpt>
    <trkpt lat="48.409081" lon="2.636257">
      <ele>141.0</ele>
      <time>2014-05-18T09:44:03Z</time>
    </trkpt>
    <trkpt lat="48.409079" lon="2.636402">
      <ele>141.1</ele>
      <time>2014-05-18T09:44:06Z</time>
    </trkpt>
    <trkpt lat="48.409049" lon="2.636542">
      <ele>140.9</ele>
      <time>2014-05-18T09:44:08Z</time>
    </trkpt>
    <trkpt lat="48.409021" lon="2.63674">
      <ele>140.8</ele>
      <time>2014-05-18T09:44:11Z</time>
    </trkpt>
    <trkpt lat="48.409003" lon="2.636932">
      <ele>140.7</ele>
      <time>2014-05-18T09:44:14Z</time>
    </trkpt>
    <trkpt lat="48.408961" lon="2.637104">
      <ele>140.4</ele>
      <time>2014-05-18T09:44:16Z</time>
    </trkpt>
    <trkpt lat="48.408955" lon="2.637289">
      <ele>140.4</ele>
      <time>2014-05-18T09:44:20Z</time>
    </trkpt>
    <trkpt lat="48.408929" lon="2.637464">
      <ele>140.3</ele>
      <time>2014-05-18T09:44:24Z</time>
    </trkpt>
    <trkpt lat="48.408879" lon="2.6376">
      <ele>139.9</ele>
      <time>2014-05-18T09:44:26Z</time>
    </trkpt>
    <trkpt lat="48.408857" lon="2.637756">
      <ele>139.8</ele>
      <time>2014-05-18T09:44:30Z</time>
    </trkpt>
    <trkpt lat="48.40882" lon="2.637885">
      <ele>139.6</ele>
      <time>2014-05-18T09:44:32Z</time>
    </trkpt>
    <trkpt lat="48.408765" lon="2.63809">
      <ele>139.4</ele>
      <time>2014-05-18T09:44:35Z</time>
    </trkpt>
    <trkpt lat="48.40871" lon="2.638228">
      <ele>139.3</ele>
      <time>2014-05-18T09:44:38Z</time>
    </trkpt>
    <trkpt lat="48.408559" lon="2.63839">
      <ele>138.8</ele>
      <time>2014-05-18T09:44:42Z</time>
    </trkpt>
    <trkpt lat="48.408498" lon="2.638501">
      <ele>138.5</ele>
      <time>2014-05-18T09:44:45Z</time>
    </trkpt>
    <trkpt lat="48.408445" lon="2.638637">
      <ele>138.3</ele>
      <time>2014-05-18T09:44:49Z</time>
    </trkpt>
    <trkpt lat="48.408393" lon="2.638757">
      <ele>138.1</ele>
      <time>2014-05-18T09:44:53Z</time>
    </trkpt>
    <trkpt lat="48.408324" lon="2.638864">
      <ele>138.0</ele>
      <time>2014-05-18T09:44:57Z</time>
    </trkpt>
    <trkpt lat="48.408301" lon="2.639044">
      <ele>137.9</ele>
      <time>2014-05-18T09:45:06Z</time>
    </trkpt>
    <trkpt lat="48.408271" lon="2.63918">
      <ele>137.8</ele>
      <time>2014-05-18T09:45:13Z</time>
    </trkpt>
    <trkpt lat="48.4082" lon="2.639263">
      <ele>137.6</ele>
      <time>2014-05-18T09:45:16Z</time>
    </trkpt>
    <trkpt lat="48.408117" lon="2.639347">
      <ele>137.4</ele>
      <time>2014-05-18T09:45:19Z</time>
    </trkpt>
    <trkpt lat="48.408053" lon="2.639455">
      <ele>137.3</ele>
      <time>2014-05-18T09:45:22Z</time>
    </trkpt>
    <trkpt lat="48.40798" lon="2.639567">
      <ele>137.2</ele>
      <time>2014-05-18T09:45:24Z</time>
    </trkpt>
    <trkpt lat="48.407895" lon="2.63962">
      <ele>137.0</ele>
      <time>2014-05-18T09:45:27Z</time>
    </trkpt>
    <trkpt lat="48.407822" lon="2.639735">
      <ele>136.8</ele>
      <time>2014-05-18T09:45:31Z</time>
    </trkpt>
    <trkpt lat="48.407733" lon="2.639813">
      <ele>136.6</ele>
      <time>2014-05-18T09:45:34Z</time>
    </trkpt>
    <trkpt lat="48.407669" lon="2.63992">
      <ele>136.5</ele>
      <time>2014-05-18T09:45:37Z</time>
    </trkpt>
    <trkpt lat="48.40756" lon="2.640071">
      <ele>136.2</ele>
      <time>2014-05-18T09:45:41Z</time>
    </trkpt>
    <trkpt lat="48.407357" lon="2.640271">
      <ele>136.0</ele>
      <time>2014-05-18T09:45:48Z</time>
    </trkpt>
    <trkpt lat="48.407271" lon="2.640336">
      <ele>136.0</ele>
      <time>2014-05-18T09:45:53Z</time>
    </trkpt>
    <trkpt lat="48.407201" lon="2.640442">
      <ele>136.0</ele>
      <time>2014-05-18T09:45:58Z</time>
    </trkpt>
    <trkpt lat="48.407124" lon="2.640528">
      <ele>136.0</ele>
      <time>2014-05-18T09:46:01Z</time>
    </trkpt>
    <trkpt lat="48.407041" lon="2.640629">
      <ele>136.0</ele>
      <time>2014-05-18T09:46:06Z</time>
    </trkpt>
    <trkpt lat="48.406989" lon="2.640819">
      <ele>136.0</ele>
      <time>2014-05-18T09:46:11Z</time>
    </trkpt>
    <trkpt lat="48.40695" lon="2.640978">
      <ele>136.1</ele>
      <time>2014-05-18T09:46:15Z</time>
    </trkpt>
    <trkpt lat="48.406938" lon="2.641133">
      <ele>136.2</ele>
      <time>2014-05-18T09:46:19Z</time>
    </trkpt>
    <trkpt lat="48.406887" lon="2.64126">
      <ele>136.4</ele>
      <time>2014-05-18T09:46:25Z</time>
    </trkpt>
    <trkpt lat="48.406823" lon="2.641401">
      <ele>136.6</ele>
      <time>2014-05-18T09:46:30Z</time>
    </trkpt>
    <trkpt lat="48.406765" lon="2.641534">
      <ele>136.7</ele>
      <time>2014-05-18T09:46:35Z</time>
    </trkpt>
    <trkpt lat="48.40672" lon="2.641663">
      <ele>136.9</ele>
      <time>2014-05-18T09:46:40Z</time>
    </trkpt>
    <trkpt lat="48.406677" lon="2.641806">
      <ele>136.8</ele>
      <time>2014-05-18T09:46:43Z</time>
    </trkpt>
    <trkpt lat="48.406591" lon="2.642135">
      <ele>136.3</ele>
      <time>2014-05-18T09:46:49Z</time>
    </trkpt>
    <trkpt lat="48.406553" lon="2.642271">
      <ele>136.0</ele>
      <time>2014-05-18T09:46:53Z</time>
    </trkpt>
    <trkpt lat="48.406514" lon="2.642394">
      <ele>135.8</ele>
      <time>2014-05-18T09:46:57Z</time>
    </trkpt>
    <trkpt lat="48.406433" lon="2.642507">
      <ele>135.4</ele>
      <time>2014-05-18T09:47:03Z</time>
    </trkpt>
    <trkpt lat="48.406368" lon="2.642644">
      <ele>135.1</ele>
      <time>2014-05-18T09:47:08Z</time>
    </trkpt>
    <trkpt lat="48.406352" lon="2.642792">
      <ele>134.9</ele>
      <time>2014-05-18T09:47:10Z</time>
    </trkpt>
    <trkpt lat="48.406353" lon="2.642928">
      <ele>134.7</ele>
      <time>2014-05-18T09:47:12Z</time>
    </trkpt>
    <trkpt lat="48.406328" lon="2.643113">
      <ele>134.5</ele>
      <time>2014-05-18T09:47:15Z</time>
    </trkpt>
    <trkpt lat="48.406302" lon="2.643313">
      <ele>134.1</ele>
      <time>2014-05-18T09:47:17Z</time>
    </trkpt>
    <trkpt lat="48.40629" lon="2.643481">
      <ele>133.5</ele>
      <time>2014-05-18T09:47:19Z</time>
    </trkpt>
    <trkpt lat="48.406281" lon="2.643617">
      <ele>132.9</ele>
      <time>2014-05-18T09:47:21Z</time>
    </trkpt>
    <trkpt lat="48.406285" lon="2.643807">
      <ele>132.1</ele>
      <time>2014-05-18T09:47:23Z</time>
    </trkpt>
    <trkpt lat="48.406274" lon="2.643962">
      <ele>131.4</ele>
      <time>2014-05-18T09:47:26Z</time>
    </trkpt>
    <trkpt lat="48.406227" lon="2.644084">
      <ele>130.8</ele>
      <time>2014-05-18T09:47:29Z</time>
    </trkpt>
    <trkpt lat="48.406156" lon="2.644189">
      <ele>130.1</ele>
      <time>2014-05-18T09:47:33Z</time>
    </trkpt>
    <trkpt lat="48.406046" lon="2.644258">
      <ele>129.6</ele>
      <time>2014-05-18T09:47:38Z</time>
    </trkpt>
    <trkpt lat="48.405978" lon="2.644365">
      <ele>129.1</ele>
      <time>2014-05-18T09:47:42Z</time>
    </trkpt>
    <trkpt lat="48.40596" lon="2.644524">
      <ele>128.7</ele>
      <time>2014-05-18T09:47:47Z</time>
    </trkpt>
    <trkpt lat="48.405974" lon="2.644885">
      <ele>127.9</ele>
      <time>2014-05-18T09:47:53Z</time>
    </trkpt>
    <trkpt lat="48.405989" lon="2.645031">
      <ele>127.7</ele>
      <time>2014-05-18T09:47:57Z</time>
    </trkpt>
    <trkpt lat="48.406023" lon="2.645173">
      <ele>127.6</ele>
      <time>2014-05-18T09:48:01Z</time>
    </trkpt>
    <trkpt lat="48.406057" lon="2.645306">
      <ele>127.4</ele>
      <time>2014-05-18T09:48:03Z</time>
    </trkpt>
    <trkpt lat="48.406068" lon="2.645546">
      <ele>126.9</ele>
      <time>2014-05-18T09:48:06Z</time>
    </trkpt>
    <trkpt lat="48.406089" lon="2.645732">
      <ele>126.5</ele>
      <time>2014-05-18T09:48:09Z</time>
    </trkpt>
    <trkpt lat="48.406123" lon="2.645879">
      <ele>126.2</ele>
      <time>2014-05-18T09:48:12Z</time>
    </trkpt>
    <trkpt lat="48.406136" lon="2.646014">
      <ele>125.9</ele>
      <time>2014-05-18T09:48:14Z</time>
    </trkpt>
    <trkpt lat="48.406142" lon="2.646179">
      <ele>125.6</ele>
      <time>2014-05-18T09:48:17Z</time>
    </trkpt>
    <trkpt lat="48.406106" lon="2.646303">
      <ele>125.2</ele>
      <time>2014-05-18T09:48:19Z</time>
    </trkpt>
    <trkpt lat="48.406065" lon="2.646426">
      <ele>124.7</ele>
      <time>2014-05-18T09:48:21Z</time>
    </trkpt>
    <trkpt lat="48.406055" lon="2.64657">
      <ele>124.3</ele>
      <time>2014-05-18T09:48:23Z</time>
    </trkpt>
    <trkpt lat="48.40602" lon="2.64672">
      <ele>123.7</ele>
      <time>2014-05-18T09:48:25Z</time>
    </trkpt>
    <trkpt lat="48.40599" lon="2.646896">
      <ele>122.7</ele>
      <time>2014-05-18T09:48:28Z</time>
    </trkpt>
    <trkpt lat="48.405948" lon="2.647075">
      <ele>121.7</ele>
      <time>2014-05-18T09:48:30Z</time>
    </trkpt>
    <trkpt lat="48.405915" lon="2.647208">
      <ele>120.9</ele>
      <time>2014-05-18T09:48:32Z</time>
    </trkpt>
    <trkpt lat="48.405852" lon="2.647386">
      <ele>119.7</ele>
      <time>2014-05-18T09:48:34Z</time>
    </trkpt>
    <trkpt lat="48.40581" lon="2.647509">
      <ele>119.1</ele>
      <time>2014-05-18T09:48:36Z</time>
    </trkpt>
    <trkpt lat="48.405773" lon="2.647647">
      <ele>118.9</ele>
      <time>2014-05-18T09:48:39Z</time>
    </trkpt>
    <trkpt lat="48.405752" lon="2.647806">
      <ele>118.6</ele>
      <time>2014-05-18T09:48:43Z</time>
    </trkpt>
    <trkpt lat="48.405777" lon="2.647959">
      <ele>118.1</ele>
      <time>2014-05-18T09:48:46Z</time>
    </trkpt>
    <trkpt lat="48.405793" lon="2.648174">
      <ele>117.4</ele>
      <time>2014-05-18T09:48:49Z</time>
    </trkpt>
    <trkpt lat="48.405741" lon="2.64847">
      <ele>116.5</ele>
      <time>2014-05-18T09:48:54Z</time>
    </trkpt>
    <trkpt lat="48.40566" lon="2.648637">
      <ele>115.8</ele>
      <time>2014-05-18T09:48:56Z</time>
    </trkpt>
    <trkpt lat="48.405594" lon="2.648793">
      <ele>115.0</ele>
      <time>2014-05-18T09:48:58Z</time>
    </trkpt>
    <trkpt lat="48.405538" lon="2.648908">
      <ele>114.4</ele>
      <time>2014-05-18T09:49:00Z</time>
    </trkpt>
    <trkpt lat="48.405458" lon="2.649042">
      <ele>113.7</ele>
      <time>2014-05-18T09:49:02Z</time>
    </trkpt>
    <trkpt lat="48.405379" lon="2.649146">
      <ele>113.0</ele>
      <time>2014-05-18T09:49:04Z</time>
    </trkpt>
    <trkpt lat="48.405307" lon="2.649249">
      <ele>112.6</ele>
      <time>2014-05-18T09:49:06Z</time>
    </trkpt>
    <trkpt lat="48.40524" lon="2.649344">
      <ele>112.2</ele>
      <time>2014-05-18T09:49:08Z</time>
    </trkpt>
    <trkpt lat="48.405203" lon="2.649474">
      <ele>111.8</ele>
      <time>2014-05-18T09:49:10Z</time>
    </trkpt>
    <trkpt lat="48.405128" lon="2.649619">
      <ele>111.3</ele>
      <time>2014-05-18T09:49:14Z</time>
    </trkpt>
    <trkpt lat="48.405031" lon="2.649716">
      <ele>110.8</ele>
      <time>2014-05-18T09:49:18Z</time>
    </trkpt>
    <trkpt lat="48.404934" lon="2.649816">
      <ele>110.4</ele>
      <time>2014-05-18T09:49:21Z</time>
    </trkpt>
    <trkpt lat="48.404846" lon="2.649922">
      <ele>109.9</ele>
      <time>2014-05-18T09:49:24Z</time>
    </trkpt>
    <trkpt lat="48.404791" lon="2.650034">
      <ele>109.4</ele>
      <time>2014-05-18T09:49:27Z</time>
    </trkpt>
    <trkpt lat="48.404717" lon="2.650158">
      <ele>108.9</ele>
      <time>2014-05-18T09:49:30Z</time>
    </trkpt>
    <trkpt lat="48.404639" lon="2.650289">
      <ele>108.3</ele>
      <time>2014-05-18T09:49:33Z</time>
    </trkpt>
    <trkpt lat="48.404577" lon="2.650403">
      <ele>107.8</ele>
      <time>2014-05-18T09:49:36Z</time>
    </trkpt>
    <trkpt lat="48.404494" lon="2.650559">
      <ele>106.9</ele>
      <time>2014-05-18T09:49:39Z</time>
    </trkpt>
    <trkpt lat="48.404428" lon="2.650724">
      <ele>106.0</ele>
      <time>2014-05-18T09:49:41Z</time>
    </trkpt>
    <trkpt lat="48.404375" lon="2.650871">
      <ele>105.1</ele>
      <time>2014-05-18T09:49:43Z</time>
    </trkpt>
    <trkpt lat="48.404356" lon="2.651013">
      <ele>104.6</ele>
      <time>2014-05-18T09:49:45Z</time>
    </trkpt>
    <trkpt lat="48.404318" lon="2.651193">
      <ele>103.8</ele>
      <time>2014-05-18T09:49:47Z</time>
    </trkpt>
    <trkpt lat="48.404265" lon="2.651391">
      <ele>102.7</ele>
      <time>2014-05-18T09:49:50Z</time>
    </trkpt>
    <trkpt lat="48.404217" lon="2.651713">
      <ele>101.3</ele>
      <time>2014-05-18T09:49:55Z</time>
    </trkpt>
    <trkpt lat="48.404189" lon="2.651889">
      <ele>100.7</ele>
      <time>2014-05-18T09:49:58Z</time>
    </trkpt>
    <trkpt lat="48.404168" lon="2.652048">
      <ele>100.1</ele>
      <time>2014-05-18T09:50:00Z</time>
    </trkpt>
    <trkpt lat="48.404186" lon="2.652185">
      <ele>100.0</ele>
      <time>2014-05-18T09:50:03Z</time>
    </trkpt>
    <trkpt lat="48.40417" lon="2.652368">
      <ele>99.4</ele>
      <time>2014-05-18T09:50:06Z</time>
    </trkpt>
    <trkpt lat="48.404154" lon="2.652535">
      <ele>99.0</ele>
      <time>2014-05-18T09:50:09Z</time>
    </trkpt>
    <trkpt lat="48.404132" lon="2.652719">
      <ele>98.9</ele>
      <time>2014-05-18T09:50:12Z</time>
    </trkpt>
    <trkpt lat="48.404113" lon="2.652891">
      <ele>98.9</ele>
      <time>2014-05-18T09:50:14Z</time>
    </trkpt>
    <trkpt lat="48.404086" lon="2.653081">
      <ele>98.9</ele>
      <time>2014-05-18T09:50:16Z</time>
    </trkpt>
    <trkpt lat="48.404063" lon="2.653242">
      <ele>98.9</ele>
      <time>2014-05-18T09:50:18Z</time>
    </trkpt>
    <trkpt lat="48.404027" lon="2.653403">
      <ele>99.0</ele>
      <time>2014-05-18T09:50:20Z</time>
    </trkpt>
    <trkpt lat="48.404024" lon="2.653557">
      <ele>98.7</ele>
      <time>2014-05-18T09:50:22Z</time>
    </trkpt>
    <trkpt lat="48.404013" lon="2.653724">
      <ele>98.5</ele>
      <time>2014-05-18T09:50:25Z</time>
    </trkpt>
    <trkpt lat="48.404005" lon="2.65386">
      <ele>98.2</ele>
      <time>2014-05-18T09:50:27Z</time>
    </trkpt>
    <trkpt lat="48.40399" lon="2.654014">
      <ele>98.0</ele>
      <time>2014-05-18T09:50:30Z</time>
    </trkpt>
    <trkpt lat="48.40396" lon="2.654163">
      <ele>97.8</ele>
      <time>2014-05-18T09:50:32Z</time>
    </trkpt>
    <trkpt lat="48.403941" lon="2.654299">
      <ele>98.0</ele>
      <time>2014-05-18T09:50:34Z</time>
    </trkpt>
    <trkpt lat="48.403915" lon="2.654459">
      <ele>98.2</ele>
      <time>2014-05-18T09:50:37Z</time>
    </trkpt>
    <trkpt lat="48.403893" lon="2.654639">
      <ele>98.4</ele>
      <time>2014-05-18T09:50:39Z</time>
    </trkpt>
    <trkpt lat="48.403879" lon="2.654786">
      <ele>98.5</ele>
      <time>2014-05-18T09:50:41Z</time>
    </trkpt>
    <trkpt lat="48.40386" lon="2.654974">
      <ele>98.6</ele>
      <time>2014-05-18T09:50:44Z</time>
    </trkpt>
    <trkpt lat="48.403845" lon="2.65511">
      <ele>98.5</ele>
      <time>2014-05-18T09:50:46Z</time>
    </trkpt>
    <trkpt lat="48.403831" lon="2.655275">
      <ele>98.4</ele>
      <time>2014-05-18T09:50:49Z</time>
    </trkpt>
    <trkpt lat="48.403818" lon="2.655421">
      <ele>98.2</ele>
      <time>2014-05-18T09:50:52Z</time>
    </trkpt>
    <trkpt lat="48.40385" lon="2.655716">
      <ele>98.2</ele>
      <time>2014-05-18T09:51:02Z</time>
    </trkpt>
    <trkpt lat="48.403898" lon="2.655867">
      <ele>98.3</ele>
      <time>2014-05-18T09:51:06Z</time>
    </trkpt>
    <trkpt lat="48.403945" lon="2.656027">
      <ele>98.4</ele>
      <time>2014-05-18T09:51:10Z</time>
    </trkpt>
    <trkpt lat="48.403982" lon="2.656159">
      <ele>98.4</ele>
      <time>2014-05-18T09:51:13Z</time>
    </trkpt>
    <trkpt lat="48.404021" lon="2.656287">
      <ele>98.5</ele>
      <time>2014-05-18T09:51:16Z</time>
    </trkpt>
    <trkpt lat="48.40408" lon="2.656425">
      <ele>98.7</ele>
      <time>2014-05-18T09:51:19Z</time>
    </trkpt>
    <trkpt lat="48.404144" lon="2.656531">
      <ele>99.0</ele>
      <time>2014-05-18T09:51:23Z</time>
    </trkpt>
    <trkpt lat="48.404187" lon="2.656681">
      <ele>99.2</ele>
      <time>2014-05-18T09:51:27Z</time>
    </trkpt>
    <trkpt lat="48.404251" lon="2.656796">
      <ele>99.8</ele>
      <time>2014-05-18T09:51:31Z</time>
    </trkpt>
    <trkpt lat="48.40433" lon="2.656931">
      <ele>100.4</ele>
      <time>2014-05-18T09:51:35Z</time>
    </trkpt>
    <trkpt lat="48.404386" lon="2.657043">
      <ele>100.7</ele>
      <time>2014-05-18T09:51:39Z</time>
    </trkpt>
    <trkpt lat="48.404456" lon="2.657165">
      <ele>101.2</ele>
      <time>2014-05-18T09:51:44Z</time>
    </trkpt>
    <trkpt lat="48.404535" lon="2.657278">
      <ele>101.6</ele>
      <time>2014-05-18T09:51:49Z</time>
    </trkpt>
    <trkpt lat="48.40462" lon="2.657391">
      <ele>101.9</ele>
      <time>2014-05-18T09:51:55Z</time>
    </trkpt>
    <trkpt lat="48.404799" lon="2.657489">
      <ele>102.8</ele>
      <time>2014-05-18T09:52:03Z</time>
    </trkpt>
    <trkpt lat="48.404897" lon="2.657556">
      <ele>103.3</ele>
      <time>2014-05-18T09:52:08Z</time>
    </trkpt>
    <trkpt lat="48.40499" lon="2.657604">
      <ele>103.7</ele>
      <time>2014-05-18T09:52:15Z</time>
    </trkpt>
    <trkpt lat="48.405078" lon="2.657658">
      <ele>103.7</ele>
      <time>2014-05-18T09:52:20Z</time>
    </trkpt>
    <trkpt lat="48.405161" lon="2.657726">
      <ele>103.7</ele>
      <time>2014-05-18T09:52:26Z</time>
    </trkpt>
    <trkpt lat="48.405259" lon="2.657773">
      <ele>103.7</ele>
      <time>2014-05-18T09:52:32Z</time>
    </trkpt>
    <trkpt lat="48.405343" lon="2.657843">
      <ele>103.6</ele>
      <time>2014-05-18T09:52:38Z</time>
    </trkpt>
    <trkpt lat="48.405427" lon="2.65791">
      <ele>103.5</ele>
      <time>2014-05-18T09:52:43Z</time>
    </trkpt>
    <trkpt lat="48.405514" lon="2.657951">
      <ele>103.5</ele>
      <time>2014-05-18T09:52:46Z</time>
    </trkpt>
    <trkpt lat="48.405614" lon="2.657993">
      <ele>103.6</ele>
      <time>2014-05-18T09:52:49Z</time>
    </trkpt>
    <trkpt lat="48.405726" lon="2.658024">
      <ele>103.6</ele>
      <time>2014-05-18T09:52:53Z</time>
    </trkpt>
    <trkpt lat="48.405825" lon="2.658093">
      <ele>103.6</ele>
      <time>2014-05-18T09:53:15Z</time>
    </trkpt>
    <trkpt lat="48.406011" lon="2.658094">
      <ele>104.7</ele>
      <time>2014-05-18T09:54:04Z</time>
    </trkpt>
    <trkpt lat="48.406101" lon="2.658138">
      <ele>105.2</ele>
      <time>2014-05-18T09:54:17Z</time>
    </trkpt>
    <trkpt lat="48.406266" lon="2.658287">
      <ele>106.2</ele>
      <time>2014-05-18T09:54:31Z</time>
    </trkpt>
    <trkpt lat="48.406361" lon="2.658368">
      <ele>106.8</ele>
      <time>2014-05-18T09:54:36Z</time>
    </trkpt>
    <trkpt lat="48.406458" lon="2.658415">
      <ele>107.6</ele>
      <time>2014-05-18T09:54:43Z</time>
    </trkpt>
    <trkpt lat="48.406544" lon="2.658462">
      <ele>108.2</ele>
      <time>2014-05-18T09:54:50Z</time>
    </trkpt>
    <trkpt lat="48.40663" lon="2.658517">
      <ele>108.9</ele>
      <time>2014-05-18T09:54:58Z</time>
    </trkpt>
    <trkpt lat="48.406723" lon="2.658544">
      <ele>110.4</ele>
      <time>2014-05-18T09:55:52Z</time>
    </trkpt>
    <trkpt lat="48.406904" lon="2.658605">
      <ele>114.0</ele>
      <time>2014-05-18T09:56:08Z</time>
    </trkpt>
    <trkpt lat="48.406992" lon="2.658645">
      <ele>115.8</ele>
      <time>2014-05-18T09:56:19Z</time>
    </trkpt>
    <trkpt lat="48.407078" lon="2.658697">
      <ele>117.5</ele>
      <time>2014-05-18T09:56:30Z</time>
    </trkpt>
    <trkpt lat="48.407164" lon="2.658739">
      <ele>119.3</ele>
      <time>2014-05-18T09:56:49Z</time>
    </trkpt>
    <trkpt lat="48.407252" lon="2.658786">
      <ele>121.2</ele>
      <time>2014-05-18T09:57:12Z</time>
    </trkpt>
    <trkpt lat="48.407427" lon="2.658881">
      <ele>124.9</ele>
      <time>2014-05-18T09:58:10Z</time>
    </trkpt>
    <trkpt lat="48.407513" lon="2.658948">
      <ele>126.7</ele>
      <time>2014-05-18T09:58:48Z</time>
    </trkpt>
    <trkpt lat="48.407565" lon="2.659224">
      <ele>128.0</ele>
      <time>2014-05-18T09:59:28Z</time>
    </trkpt>
    <trkpt lat="48.407575" lon="2.659368">
      <ele>128.3</ele>
      <time>2014-05-18T09:59:33Z</time>
    </trkpt>
    <trkpt lat="48.407565" lon="2.659503">
      <ele>128.3</ele>
      <time>2014-05-18T09:59:36Z</time>
    </trkpt>
    <trkpt lat="48.407562" lon="2.659676">
      <ele>128.4</ele>
      <time>2014-05-18T09:59:41Z</time>
    </trkpt>
    <trkpt lat="48.407569" lon="2.659827">
      <ele>128.7</ele>
      <time>2014-05-18T09:59:44Z</time>
    </trkpt>
    <trkpt lat="48.407551" lon="2.659966">
      <ele>128.6</ele>
      <time>2014-05-18T09:59:48Z</time>
    </trkpt>
    <trkpt lat="48.407576" lon="2.660097">
      <ele>128.9</ele>
      <time>2014-05-18T09:59:53Z</time>
    </trkpt>
    <trkpt lat="48.407605" lon="2.660411">
      <ele>129.3</ele>
      <time>2014-05-18T10:00:03Z</time>
    </trkpt>
    <trkpt lat="48.407626" lon="2.660555">
      <ele>129.5</ele>
      <time>2014-05-18T10:00:07Z</time>
    </trkpt>
    <trkpt lat="48.407657" lon="2.660727">
      <ele>129.9</ele>
      <time>2014-05-18T10:00:11Z</time>
    </trkpt>
    <trkpt lat="48.407662" lon="2.660877">
      <ele>129.9</ele>
      <time>2014-05-18T10:00:16Z</time>
    </trkpt>
    <trkpt lat="48.407683" lon="2.661028">
      <ele>130.1</ele>
      <time>2014-05-18T10:00:20Z</time>
    </trkpt>
    <trkpt lat="48.407715" lon="2.661166">
      <ele>130.4</ele>
      <time>2014-05-18T10:00:23Z</time>
    </trkpt>
    <trkpt lat="48.407734" lon="2.661305">
      <ele>130.6</ele>
      <time>2014-05-18T10:00:26Z</time>
    </trkpt>
    <trkpt lat="48.407762" lon="2.66145">
      <ele>130.9</ele>
      <time>2014-05-18T10:00:29Z</time>
    </trkpt>
    <trkpt lat="48.407821" lon="2.661554">
      <ele>131.7</ele>
      <time>2014-05-18T10:00:33Z</time>
    </trkpt>
    <trkpt lat="48.407884" lon="2.661446">
      <ele>132.6</ele>
      <time>2014-05-18T10:00:37Z</time>
    </trkpt>
    <trkpt lat="48.407985" lon="2.661436">
      <ele>133.9</ele>
      <time>2014-05-18T10:00:43Z</time>
    </trkpt>
    <trkpt lat="48.408059" lon="2.661518">
      <ele>135.0</ele>
      <time>2014-05-18T10:00:46Z</time>
    </trkpt>
    <trkpt lat="48.408159" lon="2.661616">
      <ele>136.5</ele>
      <time>2014-05-18T10:00:50Z</time>
    </trkpt>
    <trkpt lat="48.408077" lon="2.661518">
      <ele>135.2</ele>
      <time>2014-05-18T10:01:16Z</time>
    </trkpt>
    <trkpt lat="48.408001" lon="2.661282">
      <ele>134.1</ele>
      <time>2014-05-18T10:01:24Z</time>
    </trkpt>
    <trkpt lat="48.40804" lon="2.661155">
      <ele>134.6</ele>
      <time>2014-05-18T10:01:27Z</time>
    </trkpt>
    <trkpt lat="48.408078" lon="2.660989">
      <ele>135.0</ele>
      <time>2014-05-18T10:01:30Z</time>
    </trkpt>
    <trkpt lat="48.408149" lon="2.660864">
      <ele>135.8</ele>
      <time>2014-05-18T10:01:33Z</time>
    </trkpt>
    <trkpt lat="48.408206" lon="2.660746">
      <ele>136.5</ele>
      <time>2014-05-18T10:01:36Z</time>
    </trkpt>
    <trkpt lat="48.408236" lon="2.660609">
      <ele>136.8</ele>
      <time>2014-05-18T10:01:39Z</time>
    </trkpt>
    <trkpt lat="48.408289" lon="2.660452">
      <ele>137.5</ele>
      <time>2014-05-18T10:01:42Z</time>
    </trkpt>
    <trkpt lat="48.408356" lon="2.660285">
      <ele>138.0</ele>
      <time>2014-05-18T10:01:45Z</time>
    </trkpt>
    <trkpt lat="48.408418" lon="2.660115">
      <ele>138.1</ele>
      <time>2014-05-18T10:01:48Z</time>
    </trkpt>
    <trkpt lat="48.408458" lon="2.659973">
      <ele>138.2</ele>
      <time>2014-05-18T10:01:50Z</time>
    </trkpt>
    <trkpt lat="48.40853" lon="2.659811">
      <ele>138.2</ele>
      <time>2014-05-18T10:01:53Z</time>
    </trkpt>
    <trkpt lat="48.408612" lon="2.659675">
      <ele>138.1</ele>
      <time>2014-05-18T10:01:56Z</time>
    </trkpt>
    <trkpt lat="48.408686" lon="2.659578">
      <ele>137.9</ele>
      <time>2014-05-18T10:01:59Z</time>
    </trkpt>
    <trkpt lat="48.408816" lon="2.659549">
      <ele>137.6</ele>
      <time>2014-05-18T10:02:01Z</time>
    </trkpt>
    <trkpt lat="48.408905" lon="2.659519">
      <ele>137.3</ele>
      <time>2014-05-18T10:02:04Z</time>
    </trkpt>
    <trkpt lat="48.409002" lon="2.659509">
      <ele>137.0</ele>
      <time>2014-05-18T10:02:06Z</time>
    </trkpt>
    <trkpt lat="48.409126" lon="2.659517">
      <ele>136.8</ele>
      <time>2014-05-18T10:02:09Z</time>
    </trkpt>
    <trkpt lat="48.409256" lon="2.659516">
      <ele>136.5</ele>
      <time>2014-05-18T10:02:12Z</time>
    </trkpt>
    <trkpt lat="48.409366" lon="2.659512">
      <ele>136.3</ele>
      <time>2014-05-18T10:02:15Z</time>
    </trkpt>
    <trkpt lat="48.409464" lon="2.659496">
      <ele>136.1</ele>
      <time>2014-05-18T10:02:18Z</time>
    </trkpt>
    <trkpt lat="48.409692" lon="2.659477">
      <ele>135.6</ele>
      <time>2014-05-18T10:02:24Z</time>
    </trkpt>
    <trkpt lat="48.40979" lon="2.659479">
      <ele>135.5</ele>
      <time>2014-05-18T10:02:26Z</time>
    </trkpt>
    <trkpt lat="48.4099" lon="2.659483">
      <ele>135.3</ele>
      <time>2014-05-18T10:02:30Z</time>
    </trkpt>
    <trkpt lat="48.410011" lon="2.659482">
      <ele>135.1</ele>
      <time>2014-05-18T10:02:33Z</time>
    </trkpt>
    <trkpt lat="48.410109" lon="2.659476">
      <ele>135.0</ele>
      <time>2014-05-18T10:02:35Z</time>
    </trkpt>
    <trkpt lat="48.41022" lon="2.659438">
      <ele>134.7</ele>
      <time>2014-05-18T10:02:39Z</time>
    </trkpt>
    <trkpt lat="48.410308" lon="2.65938">
      <ele>134.5</ele>
      <time>2014-05-18T10:02:42Z</time>
    </trkpt>
    <trkpt lat="48.410382" lon="2.659285">
      <ele>134.2</ele>
      <time>2014-05-18T10:02:44Z</time>
    </trkpt>
    <trkpt lat="48.410481" lon="2.659157">
      <ele>134.0</ele>
      <time>2014-05-18T10:02:47Z</time>
    </trkpt>
    <trkpt lat="48.410555" lon="2.659026">
      <ele>133.8</ele>
      <time>2014-05-18T10:02:50Z</time>
    </trkpt>
    <trkpt lat="48.410623" lon="2.658899">
      <ele>133.5</ele>
      <time>2014-05-18T10:02:53Z</time>
    </trkpt>
    <trkpt lat="48.410679" lon="2.658772">
      <ele>133.2</ele>
      <time>2014-05-18T10:02:56Z</time>
    </trkpt>
    <trkpt lat="48.41075" lon="2.658643">
      <ele>132.9</ele>
      <time>2014-05-18T10:02:59Z</time>
    </trkpt>
    <trkpt lat="48.410837" lon="2.658499">
      <ele>132.4</ele>
      <time>2014-05-18T10:03:02Z</time>
    </trkpt>
    <trkpt lat="48.410892" lon="2.658388">
      <ele>132.0</ele>
      <time>2014-05-18T10:03:04Z</time>
    </trkpt>
    <trkpt lat="48.410957" lon="2.658252">
      <ele>131.8</ele>
      <time>2014-05-18T10:03:06Z</time>
    </trkpt>
    <trkpt lat="48.411029" lon="2.658136">
      <ele>131.6</ele>
      <time>2014-05-18T10:03:09Z</time>
    </trkpt>
    <trkpt lat="48.411097" lon="2.657991">
      <ele>131.5</ele>
      <time>2014-05-18T10:03:12Z</time>
    </trkpt>
    <trkpt lat="48.411172" lon="2.657835">
      <ele>131.5</ele>
      <time>2014-05-18T10:03:15Z</time>
    </trkpt>
    <trkpt lat="48.411244" lon="2.657684">
      <ele>131.5</ele>
      <time>2014-05-18T10:03:18Z</time>
    </trkpt>
    <trkpt lat="48.411308" lon="2.65754">
      <ele>131.6</ele>
      <time>2014-05-18T10:03:22Z</time>
    </trkpt>
    <trkpt lat="48.411432" lon="2.657253">
      <ele>132.3</ele>
      <time>2014-05-18T10:03:29Z</time>
    </trkpt>
    <trkpt lat="48.411521" lon="2.657133">
      <ele>132.7</ele>
      <time>2014-05-18T10:03:36Z</time>
    </trkpt>
    <trkpt lat="48.411574" lon="2.657017">
      <ele>133.0</ele>
      <time>2014-05-18T10:03:39Z</time>
    </trkpt>
    <trkpt lat="48.411604" lon="2.656886">
      <ele>133.4</ele>
      <time>2014-05-18T10:03:42Z</time>
    </trkpt>
    <trkpt lat="48.411661" lon="2.656772">
      <ele>133.7</ele>
      <time>2014-05-18T10:03:46Z</time>
    </trkpt>
    <trkpt lat="48.411739" lon="2.656674">
      <ele>133.7</ele>
      <time>2014-05-18T10:04:07Z</time>
    </trkpt>
    <trkpt lat="48.411826" lon="2.656617">
      <ele>133.6</ele>
      <time>2014-05-18T10:04:13Z</time>
    </trkpt>
    <trkpt lat="48.411928" lon="2.656616">
      <ele>133.2</ele>
      <time>2014-05-18T10:05:22Z</time>
    </trkpt>
    <trkpt lat="48.412122" lon="2.656687">
      <ele>132.3</ele>
      <time>2014-05-18T10:05:34Z</time>
    </trkpt>
    <trkpt lat="48.412221" lon="2.656745">
      <ele>131.9</ele>
      <time>2014-05-18T10:05:38Z</time>
    </trkpt>
    <trkpt lat="48.412321" lon="2.656734">
      <ele>131.5</ele>
      <time>2014-05-18T10:05:43Z</time>
    </trkpt>
    <trkpt lat="48.412426" lon="2.656793">
      <ele>131.1</ele>
      <time>2014-05-18T10:05:47Z</time>
    </trkpt>
    <trkpt lat="48.412538" lon="2.656849">
      <ele>130.9</ele>
      <time>2014-05-18T10:05:50Z</time>
    </trkpt>
    <trkpt lat="48.412637" lon="2.656919">
      <ele>131.0</ele>
      <time>2014-05-18T10:05:54Z</time>
    </trkpt>
    <trkpt lat="48.412751" lon="2.656957">
      <ele>131.3</ele>
      <time>2014-05-18T10:05:57Z</time>
    </trkpt>
    <trkpt lat="48.412861" lon="2.657018">
      <ele>131.4</ele>
      <time>2014-05-18T10:06:00Z</time>
    </trkpt>
    <trkpt lat="48.41297" lon="2.657056">
      <ele>131.7</ele>
      <time>2014-05-18T10:06:03Z</time>
    </trkpt>
    <trkpt lat="48.413077" lon="2.657098">
      <ele>131.9</ele>
      <time>2014-05-18T10:06:06Z</time>
    </trkpt>
    <trkpt lat="48.413169" lon="2.657136">
      <ele>132.0</ele>
      <time>2014-05-18T10:06:09Z</time>
    </trkpt>
    <trkpt lat="48.413266" lon="2.657169">
      <ele>132.2</ele>
      <time>2014-05-18T10:06:12Z</time>
    </trkpt>
    <trkpt lat="48.413376" lon="2.657238">
      <ele>132.4</ele>
      <time>2014-05-18T10:06:15Z</time>
    </trkpt>
    <trkpt lat="48.413485" lon="2.65728">
      <ele>132.5</ele>
      <time>2014-05-18T10:06:18Z</time>
    </trkpt>
    <trkpt lat="48.413584" lon="2.657338">
      <ele>132.6</ele>
      <time>2014-05-18T10:06:21Z</time>
    </trkpt>
    <trkpt lat="48.413681" lon="2.657378">
      <ele>132.6</ele>
      <time>2014-05-18T10:06:24Z</time>
    </trkpt>
    <trkpt lat="48.413878" lon="2.657451">
      <ele>132.8</ele>
      <time>2014-05-18T10:06:31Z</time>
    </trkpt>
    <trkpt lat="48.413967" lon="2.657502">
      <ele>132.8</ele>
      <time>2014-05-18T10:06:34Z</time>
    </trkpt>
    <trkpt lat="48.414062" lon="2.657549">
      <ele>132.8</ele>
      <time>2014-05-18T10:06:37Z</time>
    </trkpt>
    <trkpt lat="48.414156" lon="2.657588">
      <ele>132.9</ele>
      <time>2014-05-18T10:06:40Z</time>
    </trkpt>
    <trkpt lat="48.414254" lon="2.65765">
      <ele>133.3</ele>
      <time>2014-05-18T10:06:43Z</time>
    </trkpt>
    <trkpt lat="48.414346" lon="2.65771">
      <ele>133.7</ele>
      <time>2014-05-18T10:06:46Z</time>
    </trkpt>
    <trkpt lat="48.414463" lon="2.657737">
      <ele>134.3</ele>
      <time>2014-05-18T10:06:49Z</time>
    </trkpt>
    <trkpt lat="48.414554" lon="2.65779">
      <ele>134.7</ele>
      <time>2014-05-18T10:06:51Z</time>
    </trkpt>
    <trkpt lat="48.414715" lon="2.65784">
      <ele>135.3</ele>
      <time>2014-05-18T10:06:55Z</time>
    </trkpt>
    <trkpt lat="48.41484" lon="2.657891">
      <ele>135.8</ele>
      <time>2014-05-18T10:06:58Z</time>
    </trkpt>
    <trkpt lat="48.414957" lon="2.657948">
      <ele>136.2</ele>
      <time>2014-05-18T10:07:01Z</time>
    </trkpt>
    <trkpt lat="48.415053" lon="2.658046">
      <ele>136.1</ele>
      <time>2014-05-18T10:07:06Z</time>
    </trkpt>
    <trkpt lat="48.415212" lon="2.658089">
      <ele>136.1</ele>
      <time>2014-05-18T10:07:09Z</time>
    </trkpt>
    <trkpt lat="48.415302" lon="2.658124">
      <ele>136.1</ele>
      <time>2014-05-18T10:07:11Z</time>
    </trkpt>
    <trkpt lat="48.415409" lon="2.658165">
      <ele>136.1</ele>
      <time>2014-05-18T10:07:14Z</time>
    </trkpt>
    <trkpt lat="48.415543" lon="2.658226">
      <ele>136.0</ele>
      <time>2014-05-18T10:07:17Z</time>
    </trkpt>
    <trkpt lat="48.415643" lon="2.658264">
      <ele>136.0</ele>
      <time>2014-05-18T10:07:19Z</time>
    </trkpt>
    <trkpt lat="48.415742" lon="2.658313">
      <ele>136.0</ele>
      <time>2014-05-18T10:07:21Z</time>
    </trkpt>
    <trkpt lat="48.415853" lon="2.658358">
      <ele>136.0</ele>
      <time>2014-05-18T10:07:24Z</time>
    </trkpt>
    <trkpt lat="48.415942" lon="2.65841">
      <ele>136.1</ele>
      <time>2014-05-18T10:07:26Z</time>
    </trkpt>
    <trkpt lat="48.416121" lon="2.658491">
      <ele>136.4</ele>
      <time>2014-05-18T10:07:30Z</time>
    </trkpt>
    <trkpt lat="48.416212" lon="2.658523">
      <ele>136.7</ele>
      <time>2014-05-18T10:07:32Z</time>
    </trkpt>
    <trkpt lat="48.416323" lon="2.65857">
      <ele>136.9</ele>
      <time>2014-05-18T10:07:34Z</time>
    </trkpt>
    <trkpt lat="48.416427" lon="2.658609">
      <ele>137.2</ele>
      <time>2014-05-18T10:07:36Z</time>
    </trkpt>
    <trkpt lat="48.416532" lon="2.658652">
      <ele>137.6</ele>
      <time>2014-05-18T10:07:38Z</time>
    </trkpt>
    <trkpt lat="48.416629" lon="2.658704">
      <ele>137.9</ele>
      <time>2014-05-18T10:07:40Z</time>
    </trkpt>
    <trkpt lat="48.416728" lon="2.658758">
      <ele>138.1</ele>
      <time>2014-05-18T10:07:42Z</time>
    </trkpt>
    <trkpt lat="48.416823" lon="2.658805">
      <ele>138.3</ele>
      <time>2014-05-18T10:07:44Z</time>
    </trkpt>
    <trkpt lat="48.416912" lon="2.658848">
      <ele>138.5</ele>
      <time>2014-05-18T10:07:46Z</time>
    </trkpt>
    <trkpt lat="48.417004" lon="2.658875">
      <ele>138.7</ele>
      <time>2014-05-18T10:07:48Z</time>
    </trkpt>
    <trkpt lat="48.417124" lon="2.658917">
      <ele>138.9</ele>
      <time>2014-05-18T10:07:50Z</time>
    </trkpt>
    <trkpt lat="48.417222" lon="2.658948">
      <ele>139.2</ele>
      <time>2014-05-18T10:07:52Z</time>
    </trkpt>
    <trkpt lat="48.41736" lon="2.659024">
      <ele>139.5</ele>
      <time>2014-05-18T10:07:54Z</time>
    </trkpt>
    <trkpt lat="48.417501" lon="2.659086">
      <ele>139.9</ele>
      <time>2014-05-18T10:07:56Z</time>
    </trkpt>
    <trkpt lat="48.417605" lon="2.659142">
      <ele>139.7</ele>
      <time>2014-05-18T10:07:58Z</time>
    </trkpt>
    <trkpt lat="48.417712" lon="2.659183">
      <ele>139.5</ele>
      <time>2014-05-18T10:08:00Z</time>
    </trkpt>
    <trkpt lat="48.417812" lon="2.659253">
      <ele>139.3</ele>
      <time>2014-05-18T10:08:03Z</time>
    </trkpt>
    <trkpt lat="48.417915" lon="2.659305">
      <ele>139.1</ele>
      <time>2014-05-18T10:08:06Z</time>
    </trkpt>
    <trkpt lat="48.418029" lon="2.659366">
      <ele>138.9</ele>
      <time>2014-05-18T10:08:09Z</time>
    </trkpt>
    <trkpt lat="48.418143" lon="2.659416">
      <ele>138.9</ele>
      <time>2014-05-18T10:08:11Z</time>
    </trkpt>
    <trkpt lat="48.418239" lon="2.659444">
      <ele>138.8</ele>
      <time>2014-05-18T10:08:13Z</time>
    </trkpt>
    <trkpt lat="48.418333" lon="2.659504">
      <ele>138.8</ele>
      <time>2014-05-18T10:08:15Z</time>
    </trkpt>
    <trkpt lat="48.418427" lon="2.659561">
      <ele>139.2</ele>
      <time>2014-05-18T10:08:17Z</time>
    </trkpt>
    <trkpt lat="48.418541" lon="2.6596">
      <ele>139.5</ele>
      <time>2014-05-18T10:08:19Z</time>
    </trkpt>
    <trkpt lat="48.418654" lon="2.659672">
      <ele>140.0</ele>
      <time>2014-05-18T10:08:22Z</time>
    </trkpt>
    <trkpt lat="48.418754" lon="2.659716">
      <ele>140.3</ele>
      <time>2014-05-18T10:08:24Z</time>
    </trkpt>
    <trkpt lat="48.418853" lon="2.659754">
      <ele>140.7</ele>
      <time>2014-05-18T10:08:26Z</time>
    </trkpt>
    <trkpt lat="48.419054" lon="2.659863">
      <ele>141.4</ele>
      <time>2014-05-18T10:08:31Z</time>
    </trkpt>
    <trkpt lat="48.41916" lon="2.659922">
      <ele>141.8</ele>
      <time>2014-05-18T10:08:34Z</time>
    </trkpt>
    <trkpt lat="48.41925" lon="2.65995">
      <ele>141.9</ele>
      <time>2014-05-18T10:08:36Z</time>
    </trkpt>
    <trkpt lat="48.419338" lon="2.659982">
      <ele>142.0</ele>
      <time>2014-05-18T10:08:38Z</time>
    </trkpt>
    <trkpt lat="48.41946" lon="2.660034">
      <ele>141.9</ele>
      <time>2014-05-18T10:08:41Z</time>
    </trkpt>
    <trkpt lat="48.419581" lon="2.660103">
      <ele>141.7</ele>
      <time>2014-05-18T10:08:44Z</time>
    </trkpt>
    <trkpt lat="48.419688" lon="2.660175">
      <ele>141.5</ele>
      <time>2014-05-18T10:08:47Z</time>
    </trkpt>
    <trkpt lat="48.419808" lon="2.660241">
      <ele>141.4</ele>
      <time>2014-05-18T10:08:50Z</time>
    </trkpt>
    <trkpt lat="48.419904" lon="2.660244">
      <ele>141.4</ele>
      <time>2014-05-18T10:08:52Z</time>
    </trkpt>
    <trkpt lat="48.419998" lon="2.660301">
      <ele>141.3</ele>
      <time>2014-05-18T10:08:54Z</time>
    </trkpt>
    <trkpt lat="48.4201" lon="2.660345">
      <ele>142.0</ele>
      <time>2014-05-18T10:08:56Z</time>
    </trkpt>
    <trkpt lat="48.420232" lon="2.66042">
      <ele>142.8</ele>
      <time>2014-05-18T10:08:59Z</time>
    </trkpt>
    <trkpt lat="48.420345" lon="2.660499">
      <ele>143.5</ele>
      <time>2014-05-18T10:09:02Z</time>
    </trkpt>
    <trkpt lat="48.420434" lon="2.660562">
      <ele>143.9</ele>
      <time>2014-05-18T10:09:05Z</time>
    </trkpt>
    <trkpt lat="48.42057" lon="2.660641">
      <ele>144.7</ele>
      <time>2014-05-18T10:09:09Z</time>
    </trkpt>
    <trkpt lat="48.420667" lon="2.660722">
      <ele>145.2</ele>
      <time>2014-05-18T10:09:12Z</time>
    </trkpt>
    <trkpt lat="48.42078" lon="2.660759">
      <ele>145.9</ele>
      <time>2014-05-18T10:09:14Z</time>
    </trkpt>
    <trkpt lat="48.420893" lon="2.660818">
      <ele>146.3</ele>
      <time>2014-05-18T10:09:17Z</time>
    </trkpt>
    <trkpt lat="48.421018" lon="2.66087">
      <ele>146.5</ele>
      <time>2014-05-18T10:09:20Z</time>
    </trkpt>
    <trkpt lat="48.42114" lon="2.660943">
      <ele>146.6</ele>
      <time>2014-05-18T10:09:23Z</time>
    </trkpt>
    <trkpt lat="48.421231" lon="2.661002">
      <ele>146.7</ele>
      <time>2014-05-18T10:09:25Z</time>
    </trkpt>
    <trkpt lat="48.421327" lon="2.661034">
      <ele>147.0</ele>
      <time>2014-05-18T10:09:27Z</time>
    </trkpt>
    <trkpt lat="48.421559" lon="2.661135">
      <ele>147.5</ele>
      <time>2014-05-18T10:09:32Z</time>
    </trkpt>
    <trkpt lat="48.421664" lon="2.661175">
      <ele>147.8</ele>
      <time>2014-05-18T10:09:34Z</time>
    </trkpt>
    <trkpt lat="48.421819" lon="2.661247">
      <ele>147.2</ele>
      <time>2014-05-18T10:09:36Z</time>
    </trkpt>
    <trkpt lat="48.421912" lon="2.661306">
      <ele>146.9</ele>
      <time>2014-05-18T10:09:39Z</time>
    </trkpt>
    <trkpt lat="48.422035" lon="2.661352">
      <ele>146.5</ele>
      <time>2014-05-18T10:09:42Z</time>
    </trkpt>
    <trkpt lat="48.422133" lon="2.661388">
      <ele>146.3</ele>
      <time>2014-05-18T10:09:44Z</time>
    </trkpt>
    <trkpt lat="48.422309" lon="2.661479">
      <ele>145.7</ele>
      <time>2014-05-18T10:09:47Z</time>
    </trkpt>
    <trkpt lat="48.422399" lon="2.661526">
      <ele>145.5</ele>
      <time>2014-05-18T10:09:49Z</time>
    </trkpt>
    <trkpt lat="48.422518" lon="2.661596">
      <ele>145.2</ele>
      <time>2014-05-18T10:09:52Z</time>
    </trkpt>
    <trkpt lat="48.422611" lon="2.661658">
      <ele>145.0</ele>
      <time>2014-05-18T10:09:55Z</time>
    </trkpt>
    <trkpt lat="48.422712" lon="2.661722">
      <ele>144.8</ele>
      <time>2014-05-18T10:09:58Z</time>
    </trkpt>
    <trkpt lat="48.422849" lon="2.661744">
      <ele>144.6</ele>
      <time>2014-05-18T10:10:00Z</time>
    </trkpt>
    <trkpt lat="48.422964" lon="2.661773">
      <ele>144.5</ele>
      <time>2014-05-18T10:10:02Z</time>
    </trkpt>
    <trkpt lat="48.423052" lon="2.661827">
      <ele>144.2</ele>
      <time>2014-05-18T10:10:04Z</time>
    </trkpt>
    <trkpt lat="48.423139" lon="2.661904">
      <ele>143.7</ele>
      <time>2014-05-18T10:10:06Z</time>
    </trkpt>
    <trkpt lat="48.423229" lon="2.661973">
      <ele>143.3</ele>
      <time>2014-05-18T10:10:08Z</time>
    </trkpt>
    <trkpt lat="48.423326" lon="2.662037">
      <ele>142.8</ele>
      <time>2014-05-18T10:10:10Z</time>
    </trkpt>
    <trkpt lat="48.423431" lon="2.66209">
      <ele>142.6</ele>
      <time>2014-05-18T10:10:12Z</time>
    </trkpt>
    <trkpt lat="48.423539" lon="2.662129">
      <ele>142.6</ele>
      <time>2014-05-18T10:10:14Z</time>
    </trkpt>
    <trkpt lat="48.423635" lon="2.66218">
      <ele>142.5</ele>
      <time>2014-05-18T10:10:16Z</time>
    </trkpt>
    <trkpt lat="48.423808" lon="2.662274">
      <ele>142.3</ele>
      <time>2014-05-18T10:10:19Z</time>
    </trkpt>
    <trkpt lat="48.423916" lon="2.662337">
      <ele>142.2</ele>
      <time>2014-05-18T10:10:21Z</time>
    </trkpt>
    <trkpt lat="48.424035" lon="2.662371">
      <ele>142.3</ele>
      <time>2014-05-18T10:10:23Z</time>
    </trkpt>
    <trkpt lat="48.424143" lon="2.662428">
      <ele>142.3</ele>
      <time>2014-05-18T10:10:25Z</time>
    </trkpt>
    <trkpt lat="48.424275" lon="2.662444">
      <ele>143.0</ele>
      <time>2014-05-18T10:10:27Z</time>
    </trkpt>
    <trkpt lat="48.424555" lon="2.662481">
      <ele>144.9</ele>
      <time>2014-05-18T10:10:31Z</time>
    </trkpt>
    <trkpt lat="48.424656" lon="2.662517">
      <ele>145.4</ele>
      <time>2014-05-18T10:10:34Z</time>
    </trkpt>
    <trkpt lat="48.424765" lon="2.662572">
      <ele>146.0</ele>
      <time>2014-05-18T10:10:37Z</time>
    </trkpt>
    <trkpt lat="48.42488" lon="2.66264">
      <ele>146.5</ele>
      <time>2014-05-18T10:10:40Z</time>
    </trkpt>
    <trkpt lat="48.425014" lon="2.662694">
      <ele>147.1</ele>
      <time>2014-05-18T10:10:43Z</time>
    </trkpt>
    <trkpt lat="48.425159" lon="2.662768">
      <ele>146.9</ele>
      <time>2014-05-18T10:10:46Z</time>
    </trkpt>
    <trkpt lat="48.425296" lon="2.66284">
      <ele>146.8</ele>
      <time>2014-05-18T10:10:49Z</time>
    </trkpt>
    <trkpt lat="48.42541" lon="2.662918">
      <ele>146.7</ele>
      <time>2014-05-18T10:10:52Z</time>
    </trkpt>
    <trkpt lat="48.42551" lon="2.662955">
      <ele>146.8</ele>
      <time>2014-05-18T10:10:55Z</time>
    </trkpt>
    <trkpt lat="48.425615" lon="2.662979">
      <ele>147.0</ele>
      <time>2014-05-18T10:10:57Z</time>
    </trkpt>
    <trkpt lat="48.425753" lon="2.663029">
      <ele>147.2</ele>
      <time>2014-05-18T10:11:00Z</time>
    </trkpt>
    <trkpt lat="48.425854" lon="2.663077">
      <ele>147.3</ele>
      <time>2014-05-18T10:11:02Z</time>
    </trkpt>
    <trkpt lat="48.425952" lon="2.663125">
      <ele>147.3</ele>
      <time>2014-05-18T10:11:04Z</time>
    </trkpt>
    <trkpt lat="48.426043" lon="2.663163">
      <ele>147.2</ele>
      <time>2014-05-18T10:11:06Z</time>
    </trkpt>
    <trkpt lat="48.426131" lon="2.663203">
      <ele>147.0</ele>
      <time>2014-05-18T10:11:08Z</time>
    </trkpt>
    <trkpt lat="48.42624" lon="2.663241">
      <ele>146.8</ele>
      <time>2014-05-18T10:11:10Z</time>
    </trkpt>
    <trkpt lat="48.42633" lon="2.663293">
      <ele>146.6</ele>
      <time>2014-05-18T10:11:12Z</time>
    </trkpt>
    <trkpt lat="48.426477" lon="2.66337">
      <ele>146.1</ele>
      <time>2014-05-18T10:11:15Z</time>
    </trkpt>
    <trkpt lat="48.426655" lon="2.663427">
      <ele>145.7</ele>
      <time>2014-05-18T10:11:18Z</time>
    </trkpt>
    <trkpt lat="48.42677" lon="2.663501">
      <ele>145.4</ele>
      <time>2014-05-18T10:11:21Z</time>
    </trkpt>
    <trkpt lat="48.426904" lon="2.663588">
      <ele>145.0</ele>
      <time>2014-05-18T10:11:24Z</time>
    </trkpt>
    <trkpt lat="48.427005" lon="2.663609">
      <ele>144.9</ele>
      <time>2014-05-18T10:11:26Z</time>
    </trkpt>
    <trkpt lat="48.427119" lon="2.663661">
      <ele>144.6</ele>
      <time>2014-05-18T10:11:29Z</time>
    </trkpt>
    <trkpt lat="48.42733" lon="2.663768">
      <ele>144.0</ele>
      <time>2014-05-18T10:11:36Z</time>
    </trkpt>
    <trkpt lat="48.427447" lon="2.663708">
      <ele>144.2</ele>
      <time>2014-05-18T10:11:39Z</time>
    </trkpt>
    <trkpt lat="48.427567" lon="2.663626">
      <ele>144.4</ele>
      <time>2014-05-18T10:11:42Z</time>
    </trkpt>
    <trkpt lat="48.427668" lon="2.663569">
      <ele>144.3</ele>
      <time>2014-05-18T10:11:44Z</time>
    </trkpt>
    <trkpt lat="48.427784" lon="2.663482">
      <ele>144.2</ele>
      <time>2014-05-18T10:11:47Z</time>
    </trkpt>
    <trkpt lat="48.427882" lon="2.663422">
      <ele>144.0</ele>
      <time>2014-05-18T10:11:49Z</time>
    </trkpt>
    <trkpt lat="48.427996" lon="2.663353">
      <ele>143.6</ele>
      <time>2014-05-18T10:11:51Z</time>
    </trkpt>
    <trkpt lat="48.428098" lon="2.663286">
      <ele>143.3</ele>
      <time>2014-05-18T10:11:53Z</time>
    </trkpt>
    <trkpt lat="48.428185" lon="2.663224">
      <ele>143.1</ele>
      <time>2014-05-18T10:11:55Z</time>
    </trkpt>
    <trkpt lat="48.428278" lon="2.663154">
      <ele>142.9</ele>
      <time>2014-05-18T10:11:57Z</time>
    </trkpt>
    <trkpt lat="48.428367" lon="2.663074">
      <ele>142.9</ele>
      <time>2014-05-18T10:11:59Z</time>
    </trkpt>
    <trkpt lat="48.428463" lon="2.662996">
      <ele>143.2</ele>
      <time>2014-05-18T10:12:01Z</time>
    </trkpt>
    <trkpt lat="48.428545" lon="2.662934">
      <ele>143.3</ele>
      <time>2014-05-18T10:12:03Z</time>
    </trkpt>
    <trkpt lat="48.42863" lon="2.66285">
      <ele>143.5</ele>
      <time>2014-05-18T10:12:05Z</time>
    </trkpt>
    <trkpt lat="48.428735" lon="2.662738">
      <ele>143.6</ele>
      <time>2014-05-18T10:12:08Z</time>
    </trkpt>
    <trkpt lat="48.428821" lon="2.662646">
      <ele>143.6</ele>
      <time>2014-05-18T10:12:10Z</time>
    </trkpt>
    <trkpt lat="48.428891" lon="2.66256">
      <ele>143.6</ele>
      <time>2014-05-18T10:12:12Z</time>
    </trkpt>
    <trkpt lat="48.428974" lon="2.662497">
      <ele>143.5</ele>
      <time>2014-05-18T10:12:14Z</time>
    </trkpt>
    <trkpt lat="48.429057" lon="2.662425">
      <ele>143.2</ele>
      <time>2014-05-18T10:12:16Z</time>
    </trkpt>
    <trkpt lat="48.429143" lon="2.662345">
      <ele>142.9</ele>
      <time>2014-05-18T10:12:18Z</time>
    </trkpt>
    <trkpt lat="48.429248" lon="2.662251">
      <ele>142.7</ele>
      <time>2014-05-18T10:12:21Z</time>
    </trkpt>
    <trkpt lat="48.429331" lon="2.662173">
      <ele>142.7</ele>
      <time>2014-05-18T10:12:23Z</time>
    </trkpt>
    <trkpt lat="48.429411" lon="2.6621">
      <ele>142.5</ele>
      <time>2014-05-18T10:12:25Z</time>
    </trkpt>
    <trkpt lat="48.429487" lon="2.662012">
      <ele>142.3</ele>
      <time>2014-05-18T10:12:27Z</time>
    </trkpt>
    <trkpt lat="48.429571" lon="2.661924">
      <ele>142.1</ele>
      <time>2014-05-18T10:12:29Z</time>
    </trkpt>
    <trkpt lat="48.429738" lon="2.661736">
      <ele>141.5</ele>
      <time>2014-05-18T10:12:33Z</time>
    </trkpt>
    <trkpt lat="48.429833" lon="2.66164">
      <ele>141.2</ele>
      <time>2014-05-18T10:12:36Z</time>
    </trkpt>
    <trkpt lat="48.429927" lon="2.661547">
      <ele>141.2</ele>
      <time>2014-05-18T10:12:40Z</time>
    </trkpt>
    <trkpt lat="48.430011" lon="2.661454">
      <ele>141.3</ele>
      <time>2014-05-18T10:12:45Z</time>
    </trkpt>
    <trkpt lat="48.430109" lon="2.661481">
      <ele>141.4</ele>
      <time>2014-05-18T10:13:11Z</time>
    </trkpt>
    <trkpt lat="48.430166" lon="2.661602">
      <ele>141.3</ele>
      <time>2014-05-18T10:13:15Z</time>
    </trkpt>
    <trkpt lat="48.430243" lon="2.661717">
      <ele>141.4</ele>
      <time>2014-05-18T10:13:19Z</time>
    </trkpt>
    <trkpt lat="48.43031" lon="2.661845">
      <ele>141.9</ele>
      <time>2014-05-18T10:13:24Z</time>
    </trkpt>
    <trkpt lat="48.430344" lon="2.662165">
      <ele>142.7</ele>
      <time>2014-05-18T10:13:30Z</time>
    </trkpt>
    <trkpt lat="48.430361" lon="2.662336">
      <ele>143.1</ele>
      <time>2014-05-18T10:13:33Z</time>
    </trkpt>
    <trkpt lat="48.430387" lon="2.662477">
      <ele>143.5</ele>
      <time>2014-05-18T10:13:36Z</time>
    </trkpt>
    <trkpt lat="48.430424" lon="2.662635">
      <ele>144.1</ele>
      <time>2014-05-18T10:13:40Z</time>
    </trkpt>
    <trkpt lat="48.430425" lon="2.662789">
      <ele>144.7</ele>
      <time>2014-05-18T10:13:42Z</time>
    </trkpt>
    <trkpt lat="48.430451" lon="2.662948">
      <ele>145.3</ele>
      <time>2014-05-18T10:13:45Z</time>
    </trkpt>
    <trkpt lat="48.430524" lon="2.663074">
      <ele>145.7</ele>
      <time>2014-05-18T10:13:47Z</time>
    </trkpt>
    <trkpt lat="48.430516" lon="2.66323">
      <ele>146.3</ele>
      <time>2014-05-18T10:13:49Z</time>
    </trkpt>
    <trkpt lat="48.430519" lon="2.663429">
      <ele>146.9</ele>
      <time>2014-05-18T10:13:52Z</time>
    </trkpt>
    <trkpt lat="48.430512" lon="2.663571">
      <ele>147.2</ele>
      <time>2014-05-18T10:13:54Z</time>
    </trkpt>
    <trkpt lat="48.430521" lon="2.663769">
      <ele>147.5</ele>
      <time>2014-05-18T10:13:57Z</time>
    </trkpt>
    <trkpt lat="48.430506" lon="2.663962">
      <ele>147.8</ele>
      <time>2014-05-18T10:14:00Z</time>
    </trkpt>
    <trkpt lat="48.430502" lon="2.664118">
      <ele>148.1</ele>
      <time>2014-05-18T10:14:02Z</time>
    </trkpt>
    <trkpt lat="48.43051" lon="2.664277">
      <ele>148.2</ele>
      <time>2014-05-18T10:14:04Z</time>
    </trkpt>
    <trkpt lat="48.43052" lon="2.664416">
      <ele>148.3</ele>
      <time>2014-05-18T10:14:06Z</time>
    </trkpt>
    <trkpt lat="48.430531" lon="2.66457">
      <ele>148.4</ele>
      <time>2014-05-18T10:14:08Z</time>
    </trkpt>
    <trkpt lat="48.430543" lon="2.664766">
      <ele>148.5</ele>
      <time>2014-05-18T10:14:11Z</time>
    </trkpt>
    <trkpt lat="48.430613" lon="2.664919">
      <ele>148.5</ele>
      <time>2014-05-18T10:14:14Z</time>
    </trkpt>
    <trkpt lat="48.430719" lon="2.664975">
      <ele>148.2</ele>
      <time>2014-05-18T10:14:17Z</time>
    </trkpt>
    <trkpt lat="48.430841" lon="2.665001">
      <ele>148.0</ele>
      <time>2014-05-18T10:14:20Z</time>
    </trkpt>
    <trkpt lat="48.430956" lon="2.665032">
      <ele>148.1</ele>
      <time>2014-05-18T10:14:23Z</time>
    </trkpt>
    <trkpt lat="48.431086" lon="2.665059">
      <ele>148.2</ele>
      <time>2014-05-18T10:14:26Z</time>
    </trkpt>
    <trkpt lat="48.431203" lon="2.665094">
      <ele>148.2</ele>
      <time>2014-05-18T10:14:29Z</time>
    </trkpt>
    <trkpt lat="48.431294" lon="2.665112">
      <ele>148.2</ele>
      <time>2014-05-18T10:14:31Z</time>
    </trkpt>
    <trkpt lat="48.431388" lon="2.665126">
      <ele>148.2</ele>
      <time>2014-05-18T10:14:33Z</time>
    </trkpt>
    <trkpt lat="48.431486" lon="2.665138">
      <ele>148.2</ele>
      <time>2014-05-18T10:14:35Z</time>
    </trkpt>
    <trkpt lat="48.431581" lon="2.665149">
      <ele>148.2</ele>
      <time>2014-05-18T10:14:37Z</time>
    </trkpt>
    <trkpt lat="48.431714" lon="2.665205">
      <ele>148.1</ele>
      <time>2014-05-18T10:14:40Z</time>
    </trkpt>
    <trkpt lat="48.431814" lon="2.665217">
      <ele>148.3</ele>
      <time>2014-05-18T10:14:42Z</time>
    </trkpt>
    <trkpt lat="48.431943" lon="2.665254">
      <ele>148.4</ele>
      <time>2014-05-18T10:14:45Z</time>
    </trkpt>
    <trkpt lat="48.43207" lon="2.665298">
      <ele>148.6</ele>
      <time>2014-05-18T10:14:48Z</time>
    </trkpt>
    <trkpt lat="48.432188" lon="2.665322">
      <ele>148.8</ele>
      <time>2014-05-18T10:14:51Z</time>
    </trkpt>
    <trkpt lat="48.432284" lon="2.665354">
      <ele>149.0</ele>
      <time>2014-05-18T10:14:53Z</time>
    </trkpt>
    <trkpt lat="48.432384" lon="2.66538">
      <ele>149.2</ele>
      <time>2014-05-18T10:14:55Z</time>
    </trkpt>
    <trkpt lat="48.432512" lon="2.665411">
      <ele>149.5</ele>
      <time>2014-05-18T10:14:58Z</time>
    </trkpt>
    <trkpt lat="48.432657" lon="2.665433">
      <ele>149.8</ele>
      <time>2014-05-18T10:15:01Z</time>
    </trkpt>
    <trkpt lat="48.432759" lon="2.665442">
      <ele>149.9</ele>
      <time>2014-05-18T10:15:03Z</time>
    </trkpt>
    <trkpt lat="48.432903" lon="2.66548">
      <ele>150.0</ele>
      <time>2014-05-18T10:15:06Z</time>
    </trkpt>
    <trkpt lat="48.433022" lon="2.665519">
      <ele>150.1</ele>
      <time>2014-05-18T10:15:08Z</time>
    </trkpt>
    <trkpt lat="48.43317" lon="2.665555">
      <ele>150.1</ele>
      <time>2014-05-18T10:15:10Z</time>
    </trkpt>
    <trkpt lat="48.43326" lon="2.665574">
      <ele>150.2</ele>
      <time>2014-05-18T10:15:12Z</time>
    </trkpt>
    <trkpt lat="48.433356" lon="2.665598">
      <ele>150.1</ele>
      <time>2014-05-18T10:15:14Z</time>
    </trkpt>
    <trkpt lat="48.43345" lon="2.66562">
      <ele>150.0</ele>
      <time>2014-05-18T10:15:16Z</time>
    </trkpt>
    <trkpt lat="48.433567" lon="2.665645">
      <ele>149.8</ele>
      <time>2014-05-18T10:15:18Z</time>
    </trkpt>
    <trkpt lat="48.433669" lon="2.665661">
      <ele>149.7</ele>
      <time>2014-05-18T10:15:20Z</time>
    </trkpt>
    <trkpt lat="48.433774" lon="2.665689">
      <ele>149.5</ele>
      <time>2014-05-18T10:15:22Z</time>
    </trkpt>
    <trkpt lat="48.433879" lon="2.665734">
      <ele>149.3</ele>
      <time>2014-05-18T10:15:25Z</time>
    </trkpt>
    <trkpt lat="48.433995" lon="2.665769">
      <ele>149.2</ele>
      <time>2014-05-18T10:15:28Z</time>
    </trkpt>
    <trkpt lat="48.434104" lon="2.665793">
      <ele>149.1</ele>
      <time>2014-05-18T10:15:30Z</time>
    </trkpt>
    <trkpt lat="48.43421" lon="2.665812">
      <ele>148.9</ele>
      <time>2014-05-18T10:15:32Z</time>
    </trkpt>
    <trkpt lat="48.434333" lon="2.665852">
      <ele>148.4</ele>
      <time>2014-05-18T10:15:34Z</time>
    </trkpt>
    <trkpt lat="48.434469" lon="2.665862">
      <ele>147.9</ele>
      <time>2014-05-18T10:15:36Z</time>
    </trkpt>
    <trkpt lat="48.434572" lon="2.665888">
      <ele>147.5</ele>
      <time>2014-05-18T10:15:38Z</time>
    </trkpt>
    <trkpt lat="48.434671" lon="2.665923">
      <ele>147.1</ele>
      <time>2014-05-18T10:15:40Z</time>
    </trkpt>
    <trkpt lat="48.434811" lon="2.66595">
      <ele>146.6</ele>
      <time>2014-05-18T10:15:42Z</time>
    </trkpt>
    <trkpt lat="48.434935" lon="2.665991">
      <ele>146.2</ele>
      <time>2014-05-18T10:15:44Z</time>
    </trkpt>
    <trkpt lat="48.435053" lon="2.66603">
      <ele>145.8</ele>
      <time>2014-05-18T10:15:46Z</time>
    </trkpt>
    <trkpt lat="48.435172" lon="2.666073">
      <ele>145.5</ele>
      <time>2014-05-18T10:15:48Z</time>
    </trkpt>
    <trkpt lat="48.435288" lon="2.666111">
      <ele>145.1</ele>
      <time>2014-05-18T10:15:50Z</time>
    </trkpt>
    <trkpt lat="48.435435" lon="2.666136">
      <ele>144.6</ele>
      <time>2014-05-18T10:15:52Z</time>
    </trkpt>
    <trkpt lat="48.43554" lon="2.666135">
      <ele>144.2</ele>
      <time>2014-05-18T10:15:55Z</time>
    </trkpt>
    <trkpt lat="48.435627" lon="2.666174">
      <ele>143.9</ele>
      <time>2014-05-18T10:15:57Z</time>
    </trkpt>
    <trkpt lat="48.43575" lon="2.666228">
      <ele>143.3</ele>
      <time>2014-05-18T10:16:00Z</time>
    </trkpt>
    <trkpt lat="48.435839" lon="2.666273">
      <ele>143.0</ele>
      <time>2014-05-18T10:16:02Z</time>
    </trkpt>
    <trkpt lat="48.435978" lon="2.666293">
      <ele>143.2</ele>
      <time>2014-05-18T10:16:05Z</time>
    </trkpt>
    <trkpt lat="48.43615" lon="2.666318">
      <ele>143.5</ele>
      <time>2014-05-18T10:16:08Z</time>
    </trkpt>
    <trkpt lat="48.436264" lon="2.666347">
      <ele>143.7</ele>
      <time>2014-05-18T10:16:10Z</time>
    </trkpt>
    <trkpt lat="48.436394" lon="2.666375">
      <ele>143.8</ele>
      <time>2014-05-18T10:16:13Z</time>
    </trkpt>
    <trkpt lat="48.436497" lon="2.666421">
      <ele>143.9</ele>
      <time>2014-05-18T10:16:16Z</time>
    </trkpt>
    <trkpt lat="48.436623" lon="2.666463">
      <ele>143.9</ele>
      <time>2014-05-18T10:16:19Z</time>
    </trkpt>
    <trkpt lat="48.436715" lon="2.666479">
      <ele>144.1</ele>
      <time>2014-05-18T10:16:21Z</time>
    </trkpt>
    <trkpt lat="48.436839" lon="2.666525">
      <ele>144.4</ele>
      <time>2014-05-18T10:16:24Z</time>
    </trkpt>
    <trkpt lat="48.436975" lon="2.666582">
      <ele>144.8</ele>
      <time>2014-05-18T10:16:27Z</time>
    </trkpt>
    <trkpt lat="48.437077" lon="2.666614">
      <ele>145.1</ele>
      <time>2014-05-18T10:16:29Z</time>
    </trkpt>
    <trkpt lat="48.437192" lon="2.66666">
      <ele>145.5</ele>
      <time>2014-05-18T10:16:31Z</time>
    </trkpt>
    <trkpt lat="48.437289" lon="2.666709">
      <ele>145.7</ele>
      <time>2014-05-18T10:16:33Z</time>
    </trkpt>
    <trkpt lat="48.437405" lon="2.666756">
      <ele>146.0</ele>
      <time>2014-05-18T10:16:35Z</time>
    </trkpt>
    <trkpt lat="48.43751" lon="2.6668">
      <ele>146.2</ele>
      <time>2014-05-18T10:16:37Z</time>
    </trkpt>
    <trkpt lat="48.437598" lon="2.666845">
      <ele>146.0</ele>
      <time>2014-05-18T10:16:39Z</time>
    </trkpt>
    <trkpt lat="48.43771" lon="2.666882">
      <ele>145.8</ele>
      <time>2014-05-18T10:16:41Z</time>
    </trkpt>
    <trkpt lat="48.437852" lon="2.666924">
      <ele>145.7</ele>
      <time>2014-05-18T10:16:43Z</time>
    </trkpt>
    <trkpt lat="48.437941" lon="2.666964">
      <ele>145.6</ele>
      <time>2014-05-18T10:16:45Z</time>
    </trkpt>
    <trkpt lat="48.438033" lon="2.66702">
      <ele>145.4</ele>
      <time>2014-05-18T10:16:48Z</time>
    </trkpt>
    <trkpt lat="48.438152" lon="2.667079">
      <ele>145.3</ele>
      <time>2014-05-18T10:16:51Z</time>
    </trkpt>
    <trkpt lat="48.438246" lon="2.667128">
      <ele>145.2</ele>
      <time>2014-05-18T10:16:54Z</time>
    </trkpt>
    <trkpt lat="48.438354" lon="2.667178">
      <ele>145.2</ele>
      <time>2014-05-18T10:16:56Z</time>
    </trkpt>
    <trkpt lat="48.43848" lon="2.667278">
      <ele>144.9</ele>
      <time>2014-05-18T10:16:59Z</time>
    </trkpt>
    <trkpt lat="48.438586" lon="2.66733">
      <ele>144.8</ele>
      <time>2014-05-18T10:17:01Z</time>
    </trkpt>
    <trkpt lat="48.438697" lon="2.667397">
      <ele>144.7</ele>
      <time>2014-05-18T10:17:04Z</time>
    </trkpt>
    <trkpt lat="48.438809" lon="2.667453">
      <ele>144.7</ele>
      <time>2014-05-18T10:17:06Z</time>
    </trkpt>
    <trkpt lat="48.438921" lon="2.667505">
      <ele>144.7</ele>
      <time>2014-05-18T10:17:08Z</time>
    </trkpt>
    <trkpt lat="48.439035" lon="2.667549">
      <ele>144.6</ele>
      <time>2014-05-18T10:17:10Z</time>
    </trkpt>
    <trkpt lat="48.439178" lon="2.66763">
      <ele>144.5</ele>
      <time>2014-05-18T10:17:12Z</time>
    </trkpt>
    <trkpt lat="48.439269" lon="2.667666">
      <ele>144.5</ele>
      <time>2014-05-18T10:17:14Z</time>
    </trkpt>
    <trkpt lat="48.439368" lon="2.667747">
      <ele>144.4</ele>
      <time>2014-05-18T10:17:17Z</time>
    </trkpt>
    <trkpt lat="48.439471" lon="2.667788">
      <ele>144.5</ele>
      <time>2014-05-18T10:17:19Z</time>
    </trkpt>
    <trkpt lat="48.439592" lon="2.667836">
      <ele>144.5</ele>
      <time>2014-05-18T10:17:21Z</time>
    </trkpt>
    <trkpt lat="48.439712" lon="2.667877">
      <ele>144.6</ele>
      <time>2014-05-18T10:17:23Z</time>
    </trkpt>
    <trkpt lat="48.439803" lon="2.667915">
      <ele>144.6</ele>
      <time>2014-05-18T10:17:25Z</time>
    </trkpt>
    <trkpt lat="48.439893" lon="2.66795">
      <ele>144.7</ele>
      <time>2014-05-18T10:17:27Z</time>
    </trkpt>
    <trkpt lat="48.440008" lon="2.66804">
      <ele>144.7</ele>
      <time>2014-05-18T10:17:30Z</time>
    </trkpt>
    <trkpt lat="48.440104" lon="2.668098">
      <ele>144.5</ele>
      <time>2014-05-18T10:17:32Z</time>
    </trkpt>
    <trkpt lat="48.44021" lon="2.668133">
      <ele>144.4</ele>
      <time>2014-05-18T10:17:35Z</time>
    </trkpt>
    <trkpt lat="48.440286" lon="2.668212">
      <ele>144.2</ele>
      <time>2014-05-18T10:17:38Z</time>
    </trkpt>
    <trkpt lat="48.440365" lon="2.668315">
      <ele>144.0</ele>
      <time>2014-05-18T10:17:41Z</time>
    </trkpt>
    <trkpt lat="48.440471" lon="2.668362">
      <ele>143.9</ele>
      <time>2014-05-18T10:17:43Z</time>
    </trkpt>
    <trkpt lat="48.440579" lon="2.668414">
      <ele>143.7</ele>
      <time>2014-05-18T10:17:45Z</time>
    </trkpt>
    <trkpt lat="48.440681" lon="2.668476">
      <ele>143.6</ele>
      <time>2014-05-18T10:17:47Z</time>
    </trkpt>
    <trkpt lat="48.440784" lon="2.668484">
      <ele>143.6</ele>
      <time>2014-05-18T10:17:49Z</time>
    </trkpt>
    <trkpt lat="48.440915" lon="2.668535">
      <ele>143.2</ele>
      <time>2014-05-18T10:17:52Z</time>
    </trkpt>
    <trkpt lat="48.441014" lon="2.668603">
      <ele>142.8</ele>
      <time>2014-05-18T10:17:55Z</time>
    </trkpt>
    <trkpt lat="48.441148" lon="2.668667">
      <ele>142.2</ele>
      <time>2014-05-18T10:17:58Z</time>
    </trkpt>
    <trkpt lat="48.441292" lon="2.668751">
      <ele>141.6</ele>
      <time>2014-05-18T10:18:02Z</time>
    </trkpt>
    <trkpt lat="48.441371" lon="2.668816">
      <ele>141.3</ele>
      <time>2014-05-18T10:18:04Z</time>
    </trkpt>
    <trkpt lat="48.441462" lon="2.668875">
      <ele>140.9</ele>
      <time>2014-05-18T10:18:06Z</time>
    </trkpt>
    <trkpt lat="48.441574" lon="2.66896">
      <ele>140.5</ele>
      <time>2014-05-18T10:18:09Z</time>
    </trkpt>
    <trkpt lat="48.441716" lon="2.66904">
      <ele>140.3</ele>
      <time>2014-05-18T10:18:13Z</time>
    </trkpt>
    <trkpt lat="48.441803" lon="2.669091">
      <ele>140.4</ele>
      <time>2014-05-18T10:18:16Z</time>
    </trkpt>
    <trkpt lat="48.441867" lon="2.669238">
      <ele>140.4</ele>
      <time>2014-05-18T10:18:20Z</time>
    </trkpt>
    <trkpt lat="48.441966" lon="2.669298">
      <ele>140.6</ele>
      <time>2014-05-18T10:18:25Z</time>
    </trkpt>
    <trkpt lat="48.442099" lon="2.669269">
      <ele>141.0</ele>
      <time>2014-05-18T10:18:30Z</time>
    </trkpt>
    <trkpt lat="48.4422" lon="2.669261">
      <ele>141.3</ele>
      <time>2014-05-18T10:18:33Z</time>
    </trkpt>
    <trkpt lat="48.442282" lon="2.669363">
      <ele>141.5</ele>
      <time>2014-05-18T10:18:36Z</time>
    </trkpt>
    <trkpt lat="48.442401" lon="2.669397">
      <ele>141.9</ele>
      <time>2014-05-18T10:18:40Z</time>
    </trkpt>
    <trkpt lat="48.4425" lon="2.669385">
      <ele>142.3</ele>
      <time>2014-05-18T10:18:45Z</time>
    </trkpt>
    <trkpt lat="48.44259" lon="2.669444">
      <ele>142.5</ele>
      <time>2014-05-18T10:18:50Z</time>
    </trkpt>
    <trkpt lat="48.442685" lon="2.669426">
      <ele>142.8</ele>
      <time>2014-05-18T10:18:55Z</time>
    </trkpt>
    <trkpt lat="48.442778" lon="2.669375">
      <ele>142.9</ele>
      <time>2014-05-18T10:18:59Z</time>
    </trkpt>
    <trkpt lat="48.442859" lon="2.669434">
      <ele>143.2</ele>
      <time>2014-05-18T10:19:03Z</time>
    </trkpt>
    <trkpt lat="48.442954" lon="2.669446">
      <ele>143.4</ele>
      <time>2014-05-18T10:19:07Z</time>
    </trkpt>
    <trkpt lat="48.44305" lon="2.66955">
      <ele>143.8</ele>
      <time>2014-05-18T10:19:11Z</time>
    </trkpt>
    <trkpt lat="48.443192" lon="2.669564">
      <ele>144.1</ele>
      <time>2014-05-18T10:19:15Z</time>
    </trkpt>
    <trkpt lat="48.443299" lon="2.669588">
      <ele>144.4</ele>
      <time>2014-05-18T10:19:18Z</time>
    </trkpt>
    <trkpt lat="48.443404" lon="2.669603">
      <ele>144.6</ele>
      <time>2014-05-18T10:19:21Z</time>
    </trkpt>
    <trkpt lat="48.443503" lon="2.669747">
      <ele>144.9</ele>
      <time>2014-05-18T10:19:26Z</time>
    </trkpt>
    <trkpt lat="48.443601" lon="2.669822">
      <ele>145.0</ele>
      <time>2014-05-18T10:19:29Z</time>
    </trkpt>
    <trkpt lat="48.443705" lon="2.669736">
      <ele>145.1</ele>
      <time>2014-05-18T10:19:33Z</time>
    </trkpt>
    <trkpt lat="48.443741" lon="2.669609">
      <ele>145.2</ele>
      <time>2014-05-18T10:19:36Z</time>
    </trkpt>
    <trkpt lat="48.443741" lon="2.669447">
      <ele>145.3</ele>
      <time>2014-05-18T10:19:41Z</time>
    </trkpt>
    <trkpt lat="48.443753" lon="2.669299">
      <ele>145.4</ele>
      <time>2014-05-18T10:19:59Z</time>
    </trkpt>
    <trkpt lat="48.443824" lon="2.669209">
      <ele>145.7</ele>
      <time>2014-05-18T10:20:03Z</time>
    </trkpt>
    <trkpt lat="48.443921" lon="2.669147">
      <ele>146.1</ele>
      <time>2014-05-18T10:20:07Z</time>
    </trkpt>
    <trkpt lat="48.444022" lon="2.669049">
      <ele>146.5</ele>
      <time>2014-05-18T10:20:11Z</time>
    </trkpt>
    <trkpt lat="48.444112" lon="2.668968">
      <ele>146.8</ele>
      <time>2014-05-18T10:20:15Z</time>
    </trkpt>
    <trkpt lat="48.444185" lon="2.668871">
      <ele>147.0</ele>
      <time>2014-05-18T10:20:18Z</time>
    </trkpt>
    <trkpt lat="48.444286" lon="2.668735">
      <ele>147.3</ele>
      <time>2014-05-18T10:20:21Z</time>
    </trkpt>
    <trkpt lat="48.444364" lon="2.668628">
      <ele>147.5</ele>
      <time>2014-05-18T10:20:23Z</time>
    </trkpt>
    <trkpt lat="48.444472" lon="2.668518">
      <ele>147.7</ele>
      <time>2014-05-18T10:20:25Z</time>
    </trkpt>
    <trkpt lat="48.444635" lon="2.668357">
      <ele>148.1</ele>
      <time>2014-05-18T10:20:28Z</time>
    </trkpt>
    <trkpt lat="48.44472" lon="2.668252">
      <ele>148.2</ele>
      <time>2014-05-18T10:20:30Z</time>
    </trkpt>
    <trkpt lat="48.444806" lon="2.66815">
      <ele>148.3</ele>
      <time>2014-05-18T10:20:32Z</time>
    </trkpt>
    <trkpt lat="48.444895" lon="2.668027">
      <ele>148.4</ele>
      <time>2014-05-18T10:20:34Z</time>
    </trkpt>
    <trkpt lat="48.445043" lon="2.667842">
      <ele>148.4</ele>
      <time>2014-05-18T10:20:37Z</time>
    </trkpt>
    <trkpt lat="48.445185" lon="2.667669">
      <ele>148.2</ele>
      <time>2014-05-18T10:20:40Z</time>
    </trkpt>
    <trkpt lat="48.445276" lon="2.667582">
      <ele>148.1</ele>
      <time>2014-05-18T10:20:42Z</time>
    </trkpt>
    <trkpt lat="48.445359" lon="2.667484">
      <ele>148.0</ele>
      <time>2014-05-18T10:20:44Z</time>
    </trkpt>
    <trkpt lat="48.445432" lon="2.667387">
      <ele>147.9</ele>
      <time>2014-05-18T10:20:46Z</time>
    </trkpt>
    <trkpt lat="48.445513" lon="2.667289">
      <ele>147.7</ele>
      <time>2014-05-18T10:20:48Z</time>
    </trkpt>
    <trkpt lat="48.445616" lon="2.667159">
      <ele>147.6</ele>
      <time>2014-05-18T10:20:51Z</time>
    </trkpt>
    <trkpt lat="48.445689" lon="2.667068">
      <ele>147.5</ele>
      <time>2014-05-18T10:20:53Z</time>
    </trkpt>
    <trkpt lat="48.445783" lon="2.666943">
      <ele>147.3</ele>
      <time>2014-05-18T10:20:55Z</time>
    </trkpt>
    <trkpt lat="48.44587" lon="2.666838">
      <ele>147.2</ele>
      <time>2014-05-18T10:20:57Z</time>
    </trkpt>
    <trkpt lat="48.44595" lon="2.666731">
      <ele>147.1</ele>
      <time>2014-05-18T10:20:59Z</time>
    </trkpt>
    <trkpt lat="48.446026" lon="2.666622">
      <ele>147.0</ele>
      <time>2014-05-18T10:21:01Z</time>
    </trkpt>
    <trkpt lat="48.446099" lon="2.66653">
      <ele>147.0</ele>
      <time>2014-05-18T10:21:03Z</time>
    </trkpt>
    <trkpt lat="48.446189" lon="2.666423">
      <ele>147.0</ele>
      <time>2014-05-18T10:21:05Z</time>
    </trkpt>
    <trkpt lat="48.446267" lon="2.666336">
      <ele>147.0</ele>
      <time>2014-05-18T10:21:07Z</time>
    </trkpt>
    <trkpt lat="48.446352" lon="2.666227">
      <ele>147.0</ele>
      <time>2014-05-18T10:21:09Z</time>
    </trkpt>
    <trkpt lat="48.446441" lon="2.666124">
      <ele>147.0</ele>
      <time>2014-05-18T10:21:11Z</time>
    </trkpt>
    <trkpt lat="48.446529" lon="2.666021">
      <ele>147.0</ele>
      <time>2014-05-18T10:21:13Z</time>
    </trkpt>
    <trkpt lat="48.44662" lon="2.66592">
      <ele>147.0</ele>
      <time>2014-05-18T10:21:15Z</time>
    </trkpt>
    <trkpt lat="48.446698" lon="2.665836">
      <ele>147.0</ele>
      <time>2014-05-18T10:21:17Z</time>
    </trkpt>
    <trkpt lat="48.44678" lon="2.66573">
      <ele>147.0</ele>
      <time>2014-05-18T10:21:19Z</time>
    </trkpt>
    <trkpt lat="48.446861" lon="2.665627">
      <ele>147.0</ele>
      <time>2014-05-18T10:21:21Z</time>
    </trkpt>
    <trkpt lat="48.446938" lon="2.665537">
      <ele>147.0</ele>
      <time>2014-05-18T10:21:23Z</time>
    </trkpt>
    <trkpt lat="48.447011" lon="2.665441">
      <ele>146.9</ele>
      <time>2014-05-18T10:21:25Z</time>
    </trkpt>
    <trkpt lat="48.447089" lon="2.66534">
      <ele>146.9</ele>
      <time>2014-05-18T10:21:27Z</time>
    </trkpt>
    <trkpt lat="48.44717" lon="2.665238">
      <ele>146.9</ele>
      <time>2014-05-18T10:21:29Z</time>
    </trkpt>
    <trkpt lat="48.447239" lon="2.665149">
      <ele>146.9</ele>
      <time>2014-05-18T10:21:31Z</time>
    </trkpt>
    <trkpt lat="48.447305" lon="2.66505">
      <ele>146.8</ele>
      <time>2014-05-18T10:21:33Z</time>
    </trkpt>
    <trkpt lat="48.447383" lon="2.664934">
      <ele>146.9</ele>
      <time>2014-05-18T10:21:35Z</time>
    </trkpt>
    <trkpt lat="48.447462" lon="2.66483">
      <ele>147.0</ele>
      <time>2014-05-18T10:21:37Z</time>
    </trkpt>
    <trkpt lat="48.447585" lon="2.664696">
      <ele>146.7</ele>
      <time>2014-05-18T10:21:40Z</time>
    </trkpt>
    <trkpt lat="48.447667" lon="2.664612">
      <ele>146.3</ele>
      <time>2014-05-18T10:21:42Z</time>
    </trkpt>
    <trkpt lat="48.447778" lon="2.664523">
      <ele>145.7</ele>
      <time>2014-05-18T10:21:45Z</time>
    </trkpt>
    <trkpt lat="48.447861" lon="2.664399">
      <ele>145.0</ele>
      <time>2014-05-18T10:21:48Z</time>
    </trkpt>
    <trkpt lat="48.447909" lon="2.664278">
      <ele>144.4</ele>
      <time>2014-05-18T10:21:51Z</time>
    </trkpt>
    <trkpt lat="48.447959" lon="2.664131">
      <ele>143.7</ele>
      <time>2014-05-18T10:21:54Z</time>
    </trkpt>
    <trkpt lat="48.448" lon="2.66401">
      <ele>143.3</ele>
      <time>2014-05-18T10:21:56Z</time>
    </trkpt>
    <trkpt lat="48.448041" lon="2.663881">
      <ele>142.9</ele>
      <time>2014-05-18T10:21:58Z</time>
    </trkpt>
    <trkpt lat="48.448111" lon="2.663694">
      <ele>142.2</ele>
      <time>2014-05-18T10:22:01Z</time>
    </trkpt>
    <trkpt lat="48.448169" lon="2.663538">
      <ele>141.6</ele>
      <time>2014-05-18T10:22:03Z</time>
    </trkpt>
    <trkpt lat="48.44823" lon="2.663405">
      <ele>140.9</ele>
      <time>2014-05-18T10:22:05Z</time>
    </trkpt>
    <trkpt lat="48.448288" lon="2.663277">
      <ele>140.4</ele>
      <time>2014-05-18T10:22:07Z</time>
    </trkpt>
    <trkpt lat="48.448334" lon="2.663158">
      <ele>140.0</ele>
      <time>2014-05-18T10:22:09Z</time>
    </trkpt>
    <trkpt lat="48.448391" lon="2.663011">
      <ele>140.1</ele>
      <time>2014-05-18T10:22:11Z</time>
    </trkpt>
    <trkpt lat="48.448425" lon="2.662885">
      <ele>140.2</ele>
      <time>2014-05-18T10:22:13Z</time>
    </trkpt>
    <trkpt lat="48.448461" lon="2.66272">
      <ele>140.3</ele>
      <time>2014-05-18T10:22:15Z</time>
    </trkpt>
    <trkpt lat="48.448534" lon="2.662569">
      <ele>140.5</ele>
      <time>2014-05-18T10:22:17Z</time>
    </trkpt>
    <trkpt lat="48.448581" lon="2.662423">
      <ele>140.6</ele>
      <time>2014-05-18T10:22:19Z</time>
    </trkpt>
    <trkpt lat="48.448617" lon="2.662242">
      <ele>140.6</ele>
      <time>2014-05-18T10:22:22Z</time>
    </trkpt>
    <trkpt lat="48.448669" lon="2.662106">
      <ele>140.7</ele>
      <time>2014-05-18T10:22:24Z</time>
    </trkpt>
    <trkpt lat="48.448712" lon="2.66197">
      <ele>140.9</ele>
      <time>2014-05-18T10:22:26Z</time>
    </trkpt>
    <trkpt lat="48.44874" lon="2.661817">
      <ele>141.0</ele>
      <time>2014-05-18T10:22:29Z</time>
    </trkpt>
    <trkpt lat="48.448785" lon="2.661688">
      <ele>141.2</ele>
      <time>2014-05-18T10:22:31Z</time>
    </trkpt>
    <trkpt lat="48.448839" lon="2.661523">
      <ele>141.6</ele>
      <time>2014-05-18T10:22:33Z</time>
    </trkpt>
    <trkpt lat="48.44889" lon="2.6614">
      <ele>142.1</ele>
      <time>2014-05-18T10:22:35Z</time>
    </trkpt>
    <trkpt lat="48.448951" lon="2.661223">
      <ele>142.8</ele>
      <time>2014-05-18T10:22:38Z</time>
    </trkpt>
    <trkpt lat="48.449017" lon="2.66105">
      <ele>143.5</ele>
      <time>2014-05-18T10:22:41Z</time>
    </trkpt>
    <trkpt lat="48.44909" lon="2.660878">
      <ele>144.4</ele>
      <time>2014-05-18T10:22:43Z</time>
    </trkpt>
    <trkpt lat="48.449128" lon="2.660727">
      <ele>145.0</ele>
      <time>2014-05-18T10:22:45Z</time>
    </trkpt>
    <trkpt lat="48.449179" lon="2.660572">
      <ele>145.7</ele>
      <time>2014-05-18T10:22:47Z</time>
    </trkpt>
    <trkpt lat="48.449218" lon="2.660418">
      <ele>146.2</ele>
      <time>2014-05-18T10:22:49Z</time>
    </trkpt>
    <trkpt lat="48.449307" lon="2.660239">
      <ele>147.0</ele>
      <time>2014-05-18T10:22:52Z</time>
    </trkpt>
    <trkpt lat="48.449358" lon="2.660076">
      <ele>147.5</ele>
      <time>2014-05-18T10:22:55Z</time>
    </trkpt>
    <trkpt lat="48.449394" lon="2.659905">
      <ele>147.8</ele>
      <time>2014-05-18T10:22:58Z</time>
    </trkpt>
    <trkpt lat="48.449452" lon="2.659761">
      <ele>148.0</ele>
      <time>2014-05-18T10:23:00Z</time>
    </trkpt>
    <trkpt lat="48.449489" lon="2.659608">
      <ele>148.2</ele>
      <time>2014-05-18T10:23:03Z</time>
    </trkpt>
    <trkpt lat="48.449559" lon="2.659477">
      <ele>148.4</ele>
      <time>2014-05-18T10:23:06Z</time>
    </trkpt>
    <trkpt lat="48.449618" lon="2.65932">
      <ele>148.6</ele>
      <time>2014-05-18T10:23:09Z</time>
    </trkpt>
    <trkpt lat="48.449664" lon="2.65919">
      <ele>148.8</ele>
      <time>2014-05-18T10:23:12Z</time>
    </trkpt>
    <trkpt lat="48.449714" lon="2.659061">
      <ele>149.3</ele>
      <time>2014-05-18T10:23:18Z</time>
    </trkpt>
    <trkpt lat="48.449828" lon="2.659076">
      <ele>149.7</ele>
      <time>2014-05-18T10:23:22Z</time>
    </trkpt>
    <trkpt lat="48.449937" lon="2.659102">
      <ele>150.0</ele>
      <time>2014-05-18T10:23:26Z</time>
    </trkpt>
    <trkpt lat="48.45004" lon="2.659138">
      <ele>150.1</ele>
      <time>2014-05-18T10:23:29Z</time>
    </trkpt>
    <trkpt lat="48.450204" lon="2.659146">
      <ele>150.1</ele>
      <time>2014-05-18T10:23:32Z</time>
    </trkpt>
    <trkpt lat="48.450314" lon="2.659193">
      <ele>150.0</ele>
      <time>2014-05-18T10:23:37Z</time>
    </trkpt>
    <trkpt lat="48.450436" lon="2.659222">
      <ele>150.0</ele>
      <time>2014-05-18T10:23:39Z</time>
    </trkpt>
    <trkpt lat="48.450639" lon="2.659259">
      <ele>149.9</ele>
      <time>2014-05-18T10:23:43Z</time>
    </trkpt>
    <trkpt lat="48.450774" lon="2.659256">
      <ele>149.9</ele>
      <time>2014-05-18T10:23:46Z</time>
    </trkpt>
    <trkpt lat="48.4509" lon="2.659264">
      <ele>149.7</ele>
      <time>2014-05-18T10:23:49Z</time>
    </trkpt>
    <trkpt lat="48.451012" lon="2.659319">
      <ele>149.4</ele>
      <time>2014-05-18T10:23:52Z</time>
    </trkpt>
    <trkpt lat="48.451142" lon="2.659363">
      <ele>149.0</ele>
      <time>2014-05-18T10:23:55Z</time>
    </trkpt>
    <trkpt lat="48.451247" lon="2.659406">
      <ele>148.7</ele>
      <time>2014-05-18T10:23:57Z</time>
    </trkpt>
    <trkpt lat="48.451337" lon="2.659434">
      <ele>148.5</ele>
      <time>2014-05-18T10:23:59Z</time>
    </trkpt>
    <trkpt lat="48.451484" lon="2.65942">
      <ele>148.1</ele>
      <time>2014-05-18T10:24:01Z</time>
    </trkpt>
    <trkpt lat="48.451601" lon="2.659408">
      <ele>147.9</ele>
      <time>2014-05-18T10:24:02Z</time>
    </trkpt>
    <trkpt lat="48.451723" lon="2.659447">
      <ele>147.2</ele>
      <time>2014-05-18T10:24:06Z</time>
    </trkpt>
    <trkpt lat="48.451833" lon="2.659461">
      <ele>146.2</ele>
      <time>2014-05-18T10:24:08Z</time>
    </trkpt>
    <trkpt lat="48.451936" lon="2.659485">
      <ele>145.2</ele>
      <time>2014-05-18T10:24:10Z</time>
    </trkpt>
    <trkpt lat="48.452043" lon="2.659483">
      <ele>144.3</ele>
      <time>2014-05-18T10:24:12Z</time>
    </trkpt>
    <trkpt lat="48.45218" lon="2.659513">
      <ele>143.0</ele>
      <time>2014-05-18T10:24:14Z</time>
    </trkpt>
    <trkpt lat="48.452302" lon="2.659536">
      <ele>141.9</ele>
      <time>2014-05-18T10:24:17Z</time>
    </trkpt>
    <trkpt lat="48.452405" lon="2.659566">
      <ele>140.9</ele>
      <time>2014-05-18T10:24:18Z</time>
    </trkpt>
    <trkpt lat="48.452623" lon="2.659581">
      <ele>139.6</ele>
      <time>2014-05-18T10:24:22Z</time>
    </trkpt>
    <trkpt lat="48.45276" lon="2.659605">
      <ele>139.2</ele>
      <time>2014-05-18T10:24:24Z</time>
    </trkpt>
    <trkpt lat="48.452908" lon="2.659631">
      <ele>138.7</ele>
      <time>2014-05-18T10:24:27Z</time>
    </trkpt>
    <trkpt lat="48.453032" lon="2.659656">
      <ele>138.4</ele>
      <time>2014-05-18T10:24:29Z</time>
    </trkpt>
    <trkpt lat="48.453211" lon="2.659668">
      <ele>137.9</ele>
      <time>2014-05-18T10:24:32Z</time>
    </trkpt>
    <trkpt lat="48.453339" lon="2.659713">
      <ele>137.7</ele>
      <time>2014-05-18T10:24:35Z</time>
    </trkpt>
    <trkpt lat="48.453431" lon="2.659743">
      <ele>137.7</ele>
      <time>2014-05-18T10:24:37Z</time>
    </trkpt>
    <trkpt lat="48.453554" lon="2.659775">
      <ele>137.7</ele>
      <time>2014-05-18T10:24:39Z</time>
    </trkpt>
    <trkpt lat="48.453647" lon="2.659769">
      <ele>137.7</ele>
      <time>2014-05-18T10:24:41Z</time>
    </trkpt>
    <trkpt lat="48.453774" lon="2.659783">
      <ele>137.7</ele>
      <time>2014-05-18T10:24:43Z</time>
    </trkpt>
    <trkpt lat="48.453899" lon="2.659838">
      <ele>137.8</ele>
      <time>2014-05-18T10:24:46Z</time>
    </trkpt>
    <trkpt lat="48.454097" lon="2.659872">
      <ele>137.8</ele>
      <time>2014-05-18T10:24:49Z</time>
    </trkpt>
    <trkpt lat="48.454223" lon="2.65987">
      <ele>137.7</ele>
      <time>2014-05-18T10:24:51Z</time>
    </trkpt>
    <trkpt lat="48.454334" lon="2.659887">
      <ele>137.5</ele>
      <time>2014-05-18T10:24:53Z</time>
    </trkpt>
    <trkpt lat="48.454428" lon="2.659916">
      <ele>137.3</ele>
      <time>2014-05-18T10:24:55Z</time>
    </trkpt>
    <trkpt lat="48.454583" lon="2.659945">
      <ele>137.0</ele>
      <time>2014-05-18T10:24:58Z</time>
    </trkpt>
    <trkpt lat="48.45469" lon="2.659955">
      <ele>136.7</ele>
      <time>2014-05-18T10:25:00Z</time>
    </trkpt>
    <trkpt lat="48.454824" lon="2.659986">
      <ele>136.4</ele>
      <time>2014-05-18T10:25:02Z</time>
    </trkpt>
    <trkpt lat="48.454925" lon="2.659984">
      <ele>136.2</ele>
      <time>2014-05-18T10:25:04Z</time>
    </trkpt>
    <trkpt lat="48.455118" lon="2.660019">
      <ele>135.7</ele>
      <time>2014-05-18T10:25:07Z</time>
    </trkpt>
    <trkpt lat="48.455334" lon="2.660058">
      <ele>135.2</ele>
      <time>2014-05-18T10:25:11Z</time>
    </trkpt>
    <trkpt lat="48.455483" lon="2.660072">
      <ele>134.8</ele>
      <time>2014-05-18T10:25:13Z</time>
    </trkpt>
    <trkpt lat="48.455596" lon="2.660095">
      <ele>134.5</ele>
      <time>2014-05-18T10:25:15Z</time>
    </trkpt>
    <trkpt lat="48.45579" lon="2.660151">
      <ele>133.9</ele>
      <time>2014-05-18T10:25:18Z</time>
    </trkpt>
    <trkpt lat="48.45594" lon="2.660156">
      <ele>133.4</ele>
      <time>2014-05-18T10:25:20Z</time>
    </trkpt>
    <trkpt lat="48.456056" lon="2.660178">
      <ele>132.8</ele>
      <time>2014-05-18T10:25:22Z</time>
    </trkpt>
    <trkpt lat="48.45615" lon="2.660121">
      <ele>132.5</ele>
      <time>2014-05-18T10:25:24Z</time>
    </trkpt>
    <trkpt lat="48.456206" lon="2.659967">
      <ele>132.7</ele>
      <time>2014-05-18T10:25:26Z</time>
    </trkpt>
    <trkpt lat="48.456289" lon="2.659777">
      <ele>132.4</ele>
      <time>2014-05-18T10:25:29Z</time>
    </trkpt>
    <trkpt lat="48.456324" lon="2.659615">
      <ele>132.3</ele>
      <time>2014-05-18T10:25:31Z</time>
    </trkpt>
    <trkpt lat="48.456354" lon="2.659483">
      <ele>132.3</ele>
      <time>2014-05-18T10:25:33Z</time>
    </trkpt>
    <trkpt lat="48.456372" lon="2.659318">
      <ele>132.3</ele>
      <time>2014-05-18T10:25:35Z</time>
    </trkpt>
    <trkpt lat="48.456442" lon="2.659037">
      <ele>132.0</ele>
      <time>2014-05-18T10:25:38Z</time>
    </trkpt>
    <trkpt lat="48.456496" lon="2.65877">
      <ele>131.4</ele>
      <time>2014-05-18T10:25:41Z</time>
    </trkpt>
    <trkpt lat="48.456543" lon="2.658583">
      <ele>130.9</ele>
      <time>2014-05-18T10:25:43Z</time>
    </trkpt>
    <trkpt lat="48.456661" lon="2.658483">
      <ele>130.4</ele>
      <time>2014-05-18T10:25:45Z</time>
    </trkpt>
    <trkpt lat="48.45671" lon="2.658307">
      <ele>129.8</ele>
      <time>2014-05-18T10:25:47Z</time>
    </trkpt>
    <trkpt lat="48.456784" lon="2.658168">
      <ele>129.5</ele>
      <time>2014-05-18T10:25:49Z</time>
    </trkpt>
    <trkpt lat="48.456842" lon="2.658042">
      <ele>129.4</ele>
      <time>2014-05-18T10:25:51Z</time>
    </trkpt>
    <trkpt lat="48.456913" lon="2.657935">
      <ele>129.2</ele>
      <time>2014-05-18T10:25:53Z</time>
    </trkpt>
    <trkpt lat="48.456992" lon="2.657849">
      <ele>129.1</ele>
      <time>2014-05-18T10:25:55Z</time>
    </trkpt>
    <trkpt lat="48.457142" lon="2.657801">
      <ele>128.8</ele>
      <time>2014-05-18T10:25:57Z</time>
    </trkpt>
    <trkpt lat="48.457265" lon="2.657746">
      <ele>128.6</ele>
      <time>2014-05-18T10:25:59Z</time>
    </trkpt>
    <trkpt lat="48.457422" lon="2.657665">
      <ele>128.6</ele>
      <time>2014-05-18T10:26:02Z</time>
    </trkpt>
    <trkpt lat="48.457528" lon="2.657674">
      <ele>128.3</ele>
      <time>2014-05-18T10:26:05Z</time>
    </trkpt>
    <trkpt lat="48.457546" lon="2.657874">
      <ele>127.6</ele>
      <time>2014-05-18T10:26:08Z</time>
    </trkpt>
    <trkpt lat="48.457601" lon="2.658036">
      <ele>126.8</ele>
      <time>2014-05-18T10:26:10Z</time>
    </trkpt>
    <trkpt lat="48.457674" lon="2.658146">
      <ele>126.0</ele>
      <time>2014-05-18T10:26:12Z</time>
    </trkpt>
    <trkpt lat="48.457767" lon="2.65811">
      <ele>125.9</ele>
      <time>2014-05-18T10:26:13Z</time>
    </trkpt>
    <trkpt lat="48.457887" lon="2.658137">
      <ele>125.3</ele>
      <time>2014-05-18T10:26:15Z</time>
    </trkpt>
    <trkpt lat="48.457999" lon="2.658234">
      <ele>124.2</ele>
      <time>2014-05-18T10:26:17Z</time>
    </trkpt>
    <trkpt lat="48.458081" lon="2.658398">
      <ele>122.5</ele>
      <time>2014-05-18T10:26:19Z</time>
    </trkpt>
    <trkpt lat="48.458159" lon="2.658635">
      <ele>119.4</ele>
      <time>2014-05-18T10:26:21Z</time>
    </trkpt>
    <trkpt lat="48.458216" lon="2.658755">
      <ele>117.7</ele>
      <time>2014-05-18T10:26:22Z</time>
    </trkpt>
    <trkpt lat="48.458308" lon="2.658948">
      <ele>114.8</ele>
      <time>2014-05-18T10:26:24Z</time>
    </trkpt>
    <trkpt lat="48.458396" lon="2.659059">
      <ele>112.5</ele>
      <time>2014-05-18T10:26:26Z</time>
    </trkpt>
    <trkpt lat="48.458477" lon="2.659247">
      <ele>109.7</ele>
      <time>2014-05-18T10:26:28Z</time>
    </trkpt>
    <trkpt lat="48.458531" lon="2.659384">
      <ele>108.1</ele>
      <time>2014-05-18T10:26:30Z</time>
    </trkpt>
    <trkpt lat="48.458537" lon="2.659522">
      <ele>107.1</ele>
      <time>2014-05-18T10:26:32Z</time>
    </trkpt>
    <trkpt lat="48.458535" lon="2.659728">
      <ele>105.7</ele>
      <time>2014-05-18T10:26:35Z</time>
    </trkpt>
    <trkpt lat="48.458543" lon="2.659876">
      <ele>104.6</ele>
      <time>2014-05-18T10:26:37Z</time>
    </trkpt>
    <trkpt lat="48.458547" lon="2.660018">
      <ele>103.7</ele>
      <time>2014-05-18T10:26:39Z</time>
    </trkpt>
    <trkpt lat="48.458579" lon="2.660264">
      <ele>103.0</ele>
      <time>2014-05-18T10:26:41Z</time>
    </trkpt>
    <trkpt lat="48.458591" lon="2.660407">
      <ele>102.6</ele>
      <time>2014-05-18T10:26:42Z</time>
    </trkpt>
    <trkpt lat="48.458668" lon="2.660573">
      <ele>101.9</ele>
      <time>2014-05-18T10:26:44Z</time>
    </trkpt>
    <trkpt lat="48.458766" lon="2.660694">
      <ele>101.2</ele>
      <time>2014-05-18T10:26:46Z</time>
    </trkpt>
    <trkpt lat="48.458889" lon="2.660767">
      <ele>100.4</ele>
      <time>2014-05-18T10:26:48Z</time>
    </trkpt>
    <trkpt lat="48.458966" lon="2.660865">
      <ele>100.0</ele>
      <time>2014-05-18T10:26:50Z</time>
    </trkpt>
    <trkpt lat="48.459077" lon="2.660955">
      <ele>99.7</ele>
      <time>2014-05-18T10:26:52Z</time>
    </trkpt>
    <trkpt lat="48.459179" lon="2.661051">
      <ele>99.6</ele>
      <time>2014-05-18T10:26:54Z</time>
    </trkpt>
    <trkpt lat="48.459286" lon="2.661133">
      <ele>100.1</ele>
      <time>2014-05-18T10:26:56Z</time>
    </trkpt>
    <trkpt lat="48.459368" lon="2.6612">
      <ele>100.5</ele>
      <time>2014-05-18T10:26:58Z</time>
    </trkpt>
    <trkpt lat="48.45945" lon="2.661269">
      <ele>100.9</ele>
      <time>2014-05-18T10:27:00Z</time>
    </trkpt>
    <trkpt lat="48.459576" lon="2.661323">
      <ele>101.3</ele>
      <time>2014-05-18T10:27:02Z</time>
    </trkpt>
    <trkpt lat="48.459663" lon="2.661378">
      <ele>101.5</ele>
      <time>2014-05-18T10:27:04Z</time>
    </trkpt>
    <trkpt lat="48.459771" lon="2.661414">
      <ele>101.8</ele>
      <time>2014-05-18T10:27:07Z</time>
    </trkpt>
    <trkpt lat="48.459884" lon="2.661403">
      <ele>102.0</ele>
      <time>2014-05-18T10:27:15Z</time>
    </trkpt>
    <trkpt lat="48.459992" lon="2.66136">
      <ele>102.3</ele>
      <time>2014-05-18T10:27:18Z</time>
    </trkpt>
    <trkpt lat="48.460134" lon="2.661307">
      <ele>103.2</ele>
      <time>2014-05-18T10:27:23Z</time>
    </trkpt>
    <trkpt lat="48.460339" lon="2.661163">
      <ele>104.3</ele>
      <time>2014-05-18T10:27:26Z</time>
    </trkpt>
    <trkpt lat="48.460465" lon="2.661052">
      <ele>104.9</ele>
      <time>2014-05-18T10:27:28Z</time>
    </trkpt>
    <trkpt lat="48.460534" lon="2.660945">
      <ele>105.0</ele>
      <time>2014-05-18T10:27:30Z</time>
    </trkpt>
    <trkpt lat="48.46062" lon="2.660834">
      <ele>105.2</ele>
      <time>2014-05-18T10:27:34Z</time>
    </trkpt>
    <trkpt lat="48.460706" lon="2.660713">
      <ele>105.7</ele>
      <time>2014-05-18T10:27:38Z</time>
    </trkpt>
    <trkpt lat="48.460808" lon="2.660595">
      <ele>106.2</ele>
      <time>2014-05-18T10:27:41Z</time>
    </trkpt>
    <trkpt lat="48.460904" lon="2.660605">
      <ele>105.8</ele>
      <time>2014-05-18T10:27:45Z</time>
    </trkpt>
    <trkpt lat="48.460994" lon="2.660587">
      <ele>105.3</ele>
      <time>2014-05-18T10:27:49Z</time>
    </trkpt>
    <trkpt lat="48.46109" lon="2.660498">
      <ele>104.7</ele>
      <time>2014-05-18T10:27:55Z</time>
    </trkpt>
    <trkpt lat="48.461185" lon="2.660543">
      <ele>104.1</ele>
      <time>2014-05-18T10:27:58Z</time>
    </trkpt>
    <trkpt lat="48.461274" lon="2.660566">
      <ele>103.5</ele>
      <time>2014-05-18T10:28:00Z</time>
    </trkpt>
    <trkpt lat="48.461378" lon="2.660621">
      <ele>102.8</ele>
      <time>2014-05-18T10:28:03Z</time>
    </trkpt>
    <trkpt lat="48.461492" lon="2.660598">
      <ele>102.1</ele>
      <time>2014-05-18T10:28:04Z</time>
    </trkpt>
    <trkpt lat="48.4616" lon="2.660578">
      <ele>101.4</ele>
      <time>2014-05-18T10:28:07Z</time>
    </trkpt>
    <trkpt lat="48.461876" lon="2.660511">
      <ele>100.6</ele>
      <time>2014-05-18T10:28:12Z</time>
    </trkpt>
    <trkpt lat="48.462023" lon="2.660458">
      <ele>100.3</ele>
      <time>2014-05-18T10:28:15Z</time>
    </trkpt>
    <trkpt lat="48.462109" lon="2.660414">
      <ele>100.2</ele>
      <time>2014-05-18T10:28:18Z</time>
    </trkpt>
    <trkpt lat="48.462249" lon="2.660257">
      <ele>100.1</ele>
      <time>2014-05-18T10:28:20Z</time>
    </trkpt>
    <trkpt lat="48.462349" lon="2.660172">
      <ele>100.0</ele>
      <time>2014-05-18T10:28:22Z</time>
    </trkpt>
    <trkpt lat="48.462494" lon="2.660048">
      <ele>100.0</ele>
      <time>2014-05-18T10:28:25Z</time>
    </trkpt>
    <trkpt lat="48.462611" lon="2.659964">
      <ele>100.2</ele>
      <time>2014-05-18T10:28:28Z</time>
    </trkpt>
    <trkpt lat="48.46271" lon="2.659912">
      <ele>100.4</ele>
      <time>2014-05-18T10:28:30Z</time>
    </trkpt>
    <trkpt lat="48.462828" lon="2.659843">
      <ele>100.7</ele>
      <time>2014-05-18T10:28:32Z</time>
    </trkpt>
    <trkpt lat="48.462974" lon="2.659686">
      <ele>101.0</ele>
      <time>2014-05-18T10:28:35Z</time>
    </trkpt>
    <trkpt lat="48.463062" lon="2.659607">
      <ele>101.2</ele>
      <time>2014-05-18T10:28:37Z</time>
    </trkpt>
    <trkpt lat="48.463169" lon="2.659519">
      <ele>101.5</ele>
      <time>2014-05-18T10:28:40Z</time>
    </trkpt>
    <trkpt lat="48.463329" lon="2.659429">
      <ele>102.0</ele>
      <time>2014-05-18T10:28:43Z</time>
    </trkpt>
    <trkpt lat="48.463417" lon="2.659376">
      <ele>101.9</ele>
      <time>2014-05-18T10:28:45Z</time>
    </trkpt>
    <trkpt lat="48.46353" lon="2.659291">
      <ele>101.7</ele>
      <time>2014-05-18T10:28:47Z</time>
    </trkpt>
    <trkpt lat="48.463731" lon="2.659154">
      <ele>101.5</ele>
      <time>2014-05-18T10:28:51Z</time>
    </trkpt>
    <trkpt lat="48.463873" lon="2.659024">
      <ele>101.3</ele>
      <time>2014-05-18T10:28:54Z</time>
    </trkpt>
    <trkpt lat="48.463985" lon="2.658945">
      <ele>101.2</ele>
      <time>2014-05-18T10:28:56Z</time>
    </trkpt>
    <trkpt lat="48.464079" lon="2.658795">
      <ele>101.1</ele>
      <time>2014-05-18T10:28:58Z</time>
    </trkpt>
    <trkpt lat="48.46422" lon="2.658666">
      <ele>100.9</ele>
      <time>2014-05-18T10:29:01Z</time>
    </trkpt>
    <trkpt lat="48.464331" lon="2.658576">
      <ele>100.7</ele>
      <time>2014-05-18T10:29:03Z</time>
    </trkpt>
    <trkpt lat="48.464444" lon="2.658519">
      <ele>100.6</ele>
      <time>2014-05-18T10:29:05Z</time>
    </trkpt>
    <trkpt lat="48.464551" lon="2.658516">
      <ele>100.4</ele>
      <time>2014-05-18T10:29:08Z</time>
    </trkpt>
    <trkpt lat="48.464798" lon="2.658524">
      <ele>100.1</ele>
      <time>2014-05-18T10:29:12Z</time>
    </trkpt>
    <trkpt lat="48.465006" lon="2.658483">
      <ele>99.8</ele>
      <time>2014-05-18T10:29:14Z</time>
    </trkpt>
    <trkpt lat="48.46514" lon="2.65847">
      <ele>99.5</ele>
      <time>2014-05-18T10:29:16Z</time>
    </trkpt>
    <trkpt lat="48.465324" lon="2.658448">
      <ele>99.1</ele>
      <time>2014-05-18T10:29:19Z</time>
    </trkpt>
    <trkpt lat="48.465497" lon="2.658537">
      <ele>98.7</ele>
      <time>2014-05-18T10:29:23Z</time>
    </trkpt>
    <trkpt lat="48.4656" lon="2.658589">
      <ele>98.5</ele>
      <time>2014-05-18T10:29:25Z</time>
    </trkpt>
    <trkpt lat="48.465713" lon="2.658539">
      <ele>98.3</ele>
      <time>2014-05-18T10:29:28Z</time>
    </trkpt>
    <trkpt lat="48.46582" lon="2.658459">
      <ele>98.0</ele>
      <time>2014-05-18T10:29:31Z</time>
    </trkpt>
    <trkpt lat="48.465919" lon="2.658408">
      <ele>98.0</ele>
      <time>2014-05-18T10:29:33Z</time>
    </trkpt>
    <trkpt lat="48.466086" lon="2.658414">
      <ele>98.0</ele>
      <time>2014-05-18T10:29:35Z</time>
    </trkpt>
    <trkpt lat="48.46627" lon="2.658399">
      <ele>98.0</ele>
      <time>2014-05-18T10:29:39Z</time>
    </trkpt>
    <trkpt lat="48.466445" lon="2.658454">
      <ele>97.9</ele>
      <time>2014-05-18T10:29:44Z</time>
    </trkpt>
    <trkpt lat="48.466573" lon="2.658487">
      <ele>97.8</ele>
      <time>2014-05-18T10:29:47Z</time>
    </trkpt>
    <trkpt lat="48.466669" lon="2.658473">
      <ele>97.8</ele>
      <time>2014-05-18T10:29:48Z</time>
    </trkpt>
    <trkpt lat="48.466849" lon="2.658486">
      <ele>97.4</ele>
      <time>2014-05-18T10:29:51Z</time>
    </trkpt>
    <trkpt lat="48.46698" lon="2.658529">
      <ele>97.1</ele>
      <time>2014-05-18T10:29:53Z</time>
    </trkpt>
    <trkpt lat="48.467149" lon="2.658563">
      <ele>96.7</ele>
      <time>2014-05-18T10:29:56Z</time>
    </trkpt>
    <trkpt lat="48.467248" lon="2.658569">
      <ele>96.5</ele>
      <time>2014-05-18T10:29:58Z</time>
    </trkpt>
    <trkpt lat="48.467339" lon="2.658586">
      <ele>96.3</ele>
      <time>2014-05-18T10:30:00Z</time>
    </trkpt>
    <trkpt lat="48.467513" lon="2.658607">
      <ele>96.0</ele>
      <time>2014-05-18T10:30:04Z</time>
    </trkpt>
    <trkpt lat="48.467629" lon="2.658622">
      <ele>95.7</ele>
      <time>2014-05-18T10:30:06Z</time>
    </trkpt>
    <trkpt lat="48.46775" lon="2.658634">
      <ele>95.5</ele>
      <time>2014-05-18T10:30:08Z</time>
    </trkpt>
    <trkpt lat="48.46784" lon="2.658619">
      <ele>95.3</ele>
      <time>2014-05-18T10:30:10Z</time>
    </trkpt>
    <trkpt lat="48.46794" lon="2.658615">
      <ele>95.1</ele>
      <time>2014-05-18T10:30:12Z</time>
    </trkpt>
    <trkpt lat="48.46805" lon="2.658624">
      <ele>94.9</ele>
      <time>2014-05-18T10:30:15Z</time>
    </trkpt>
    <trkpt lat="48.46816" lon="2.658642">
      <ele>94.7</ele>
      <time>2014-05-18T10:30:16Z</time>
    </trkpt>
    <trkpt lat="48.468269" lon="2.658679">
      <ele>94.5</ele>
      <time>2014-05-18T10:30:19Z</time>
    </trkpt>
    <trkpt lat="48.468364" lon="2.658706">
      <ele>94.4</ele>
      <time>2014-05-18T10:30:20Z</time>
    </trkpt>
    <trkpt lat="48.468518" lon="2.658714">
      <ele>94.2</ele>
      <time>2014-05-18T10:30:23Z</time>
    </trkpt>
    <trkpt lat="48.468626" lon="2.658722">
      <ele>94.1</ele>
      <time>2014-05-18T10:30:24Z</time>
    </trkpt>
    <trkpt lat="48.468744" lon="2.658734">
      <ele>94.0</ele>
      <time>2014-05-18T10:30:26Z</time>
    </trkpt>
    <trkpt lat="48.468881" lon="2.658752">
      <ele>93.8</ele>
      <time>2014-05-18T10:30:28Z</time>
    </trkpt>
    <trkpt lat="48.469027" lon="2.658779">
      <ele>93.7</ele>
      <time>2014-05-18T10:30:30Z</time>
    </trkpt>
    <trkpt lat="48.469239" lon="2.658757">
      <ele>93.2</ele>
      <time>2014-05-18T10:30:33Z</time>
    </trkpt>
    <trkpt lat="48.469377" lon="2.658757">
      <ele>92.8</ele>
      <time>2014-05-18T10:30:35Z</time>
    </trkpt>
    <trkpt lat="48.469505" lon="2.658763">
      <ele>92.3</ele>
      <time>2014-05-18T10:30:37Z</time>
    </trkpt>
    <trkpt lat="48.469617" lon="2.658779">
      <ele>92.0</ele>
      <time>2014-05-18T10:30:39Z</time>
    </trkpt>
    <trkpt lat="48.469761" lon="2.658806">
      <ele>91.5</ele>
      <time>2014-05-18T10:30:41Z</time>
    </trkpt>
    <trkpt lat="48.469898" lon="2.658781">
      <ele>91.0</ele>
      <time>2014-05-18T10:30:44Z</time>
    </trkpt>
    <trkpt lat="48.469998" lon="2.65879">
      <ele>90.7</ele>
      <time>2014-05-18T10:30:46Z</time>
    </trkpt>
    <trkpt lat="48.47009" lon="2.658804">
      <ele>90.4</ele>
      <time>2014-05-18T10:30:47Z</time>
    </trkpt>
    <trkpt lat="48.470219" lon="2.658847">
      <ele>90.2</ele>
      <time>2014-05-18T10:30:51Z</time>
    </trkpt>
    <trkpt lat="48.470384" lon="2.658852">
      <ele>89.7</ele>
      <time>2014-05-18T10:30:55Z</time>
    </trkpt>
    <trkpt lat="48.470513" lon="2.658869">
      <ele>89.4</ele>
      <time>2014-05-18T10:30:58Z</time>
    </trkpt>
    <trkpt lat="48.470656" lon="2.65883">
      <ele>88.7</ele>
      <time>2014-05-18T10:31:01Z</time>
    </trkpt>
    <trkpt lat="48.470761" lon="2.658859">
      <ele>88.6</ele>
      <time>2014-05-18T10:31:03Z</time>
    </trkpt>
    <trkpt lat="48.470875" lon="2.658839">
      <ele>88.0</ele>
      <time>2014-05-18T10:31:05Z</time>
    </trkpt>
    <trkpt lat="48.470981" lon="2.658844">
      <ele>87.3</ele>
      <time>2014-05-18T10:31:07Z</time>
    </trkpt>
    <trkpt lat="48.471062" lon="2.658777">
      <ele>86.3</ele>
      <time>2014-05-18T10:31:09Z</time>
    </trkpt>
    <trkpt lat="48.471278" lon="2.658671">
      <ele>84.5</ele>
      <time>2014-05-18T10:31:13Z</time>
    </trkpt>
    <trkpt lat="48.47137" lon="2.658598">
      <ele>83.7</ele>
      <time>2014-05-18T10:31:15Z</time>
    </trkpt>
    <trkpt lat="48.471514" lon="2.658493">
      <ele>82.8</ele>
      <time>2014-05-18T10:31:17Z</time>
    </trkpt>
    <trkpt lat="48.471679" lon="2.658376">
      <ele>82.1</ele>
      <time>2014-05-18T10:31:20Z</time>
    </trkpt>
    <trkpt lat="48.471789" lon="2.658258">
      <ele>82.3</ele>
      <time>2014-05-18T10:31:23Z</time>
    </trkpt>
    <trkpt lat="48.471929" lon="2.65814">
      <ele>82.6</ele>
      <time>2014-05-18T10:31:26Z</time>
    </trkpt>
    <trkpt lat="48.472092" lon="2.658003">
      <ele>82.8</ele>
      <time>2014-05-18T10:31:29Z</time>
    </trkpt>
    <trkpt lat="48.472195" lon="2.65791">
      <ele>82.9</ele>
      <time>2014-05-18T10:31:32Z</time>
    </trkpt>
    <trkpt lat="48.472329" lon="2.657825">
      <ele>83.1</ele>
      <time>2014-05-18T10:31:34Z</time>
    </trkpt>
    <trkpt lat="48.472418" lon="2.657709">
      <ele>83.1</ele>
      <time>2014-05-18T10:31:37Z</time>
    </trkpt>
    <trkpt lat="48.472527" lon="2.657607">
      <ele>83.2</ele>
      <time>2014-05-18T10:31:38Z</time>
    </trkpt>
    <trkpt lat="48.47265" lon="2.657522">
      <ele>83.4</ele>
      <time>2014-05-18T10:31:41Z</time>
    </trkpt>
    <trkpt lat="48.472732" lon="2.657429">
      <ele>83.5</ele>
      <time>2014-05-18T10:31:43Z</time>
    </trkpt>
    <trkpt lat="48.472815" lon="2.657353">
      <ele>83.6</ele>
      <time>2014-05-18T10:31:45Z</time>
    </trkpt>
    <trkpt lat="48.472925" lon="2.657249">
      <ele>83.7</ele>
      <time>2014-05-18T10:31:48Z</time>
    </trkpt>
    <trkpt lat="48.473022" lon="2.657135">
      <ele>83.8</ele>
      <time>2014-05-18T10:31:50Z</time>
    </trkpt>
    <trkpt lat="48.473152" lon="2.65704">
      <ele>84.0</ele>
      <time>2014-05-18T10:31:53Z</time>
    </trkpt>
    <trkpt lat="48.473274" lon="2.656957">
      <ele>84.2</ele>
      <time>2014-05-18T10:31:55Z</time>
    </trkpt>
    <trkpt lat="48.473435" lon="2.656859">
      <ele>84.8</ele>
      <time>2014-05-18T10:31:58Z</time>
    </trkpt>
    <trkpt lat="48.473558" lon="2.656804">
      <ele>85.4</ele>
      <time>2014-05-18T10:32:00Z</time>
    </trkpt>
    <trkpt lat="48.473665" lon="2.656733">
      <ele>86.0</ele>
      <time>2014-05-18T10:32:02Z</time>
    </trkpt>
    <trkpt lat="48.473756" lon="2.656654">
      <ele>86.5</ele>
      <time>2014-05-18T10:32:04Z</time>
    </trkpt>
    <trkpt lat="48.473869" lon="2.656569">
      <ele>87.2</ele>
      <time>2014-05-18T10:32:07Z</time>
    </trkpt>
    <trkpt lat="48.473994" lon="2.65647">
      <ele>88.1</ele>
      <time>2014-05-18T10:32:10Z</time>
    </trkpt>
    <trkpt lat="48.474143" lon="2.656376">
      <ele>89.2</ele>
      <time>2014-05-18T10:32:12Z</time>
    </trkpt>
    <trkpt lat="48.474253" lon="2.656314">
      <ele>89.6</ele>
      <time>2014-05-18T10:32:14Z</time>
    </trkpt>
    <trkpt lat="48.474339" lon="2.656214">
      <ele>89.8</ele>
      <time>2014-05-18T10:32:16Z</time>
    </trkpt>
    <trkpt lat="48.474439" lon="2.656148">
      <ele>90.1</ele>
      <time>2014-05-18T10:32:19Z</time>
    </trkpt>
    <trkpt lat="48.47455" lon="2.656002">
      <ele>90.4</ele>
      <time>2014-05-18T10:32:21Z</time>
    </trkpt>
    <trkpt lat="48.474687" lon="2.655909">
      <ele>90.6</ele>
      <time>2014-05-18T10:32:25Z</time>
    </trkpt>
    <trkpt lat="48.474776" lon="2.655814">
      <ele>90.7</ele>
      <time>2014-05-18T10:32:27Z</time>
    </trkpt>
    <trkpt lat="48.474876" lon="2.655688">
      <ele>90.5</ele>
      <time>2014-05-18T10:32:30Z</time>
    </trkpt>
    <trkpt lat="48.474952" lon="2.655583">
      <ele>90.3</ele>
      <time>2014-05-18T10:32:32Z</time>
    </trkpt>
    <trkpt lat="48.475045" lon="2.65555">
      <ele>90.4</ele>
      <time>2014-05-18T10:32:33Z</time>
    </trkpt>
    <trkpt lat="48.475154" lon="2.655481">
      <ele>90.4</ele>
      <time>2014-05-18T10:32:35Z</time>
    </trkpt>
    <trkpt lat="48.475249" lon="2.655385">
      <ele>90.4</ele>
      <time>2014-05-18T10:32:36Z</time>
    </trkpt>
    <trkpt lat="48.47533" lon="2.655297">
      <ele>90.4</ele>
      <time>2014-05-18T10:32:39Z</time>
    </trkpt>
    <trkpt lat="48.47543" lon="2.655183">
      <ele>90.4</ele>
      <time>2014-05-18T10:32:42Z</time>
    </trkpt>
    <trkpt lat="48.475542" lon="2.65508">
      <ele>90.4</ele>
      <time>2014-05-18T10:32:45Z</time>
    </trkpt>
    <trkpt lat="48.475648" lon="2.65498">
      <ele>90.5</ele>
      <time>2014-05-18T10:32:46Z</time>
    </trkpt>
    <trkpt lat="48.475745" lon="2.654901">
      <ele>90.5</ele>
      <time>2014-05-18T10:32:48Z</time>
    </trkpt>
    <trkpt lat="48.475858" lon="2.654841">
      <ele>90.7</ele>
      <time>2014-05-18T10:32:50Z</time>
    </trkpt>
    <trkpt lat="48.475952" lon="2.654752">
      <ele>90.6</ele>
      <time>2014-05-18T10:32:52Z</time>
    </trkpt>
    <trkpt lat="48.476062" lon="2.654687">
      <ele>90.6</ele>
      <time>2014-05-18T10:32:54Z</time>
    </trkpt>
    <trkpt lat="48.476151" lon="2.654603">
      <ele>90.6</ele>
      <time>2014-05-18T10:32:56Z</time>
    </trkpt>
    <trkpt lat="48.476256" lon="2.654483">
      <ele>90.6</ele>
      <time>2014-05-18T10:32:59Z</time>
    </trkpt>
    <trkpt lat="48.476383" lon="2.654362">
      <ele>90.6</ele>
      <time>2014-05-18T10:33:02Z</time>
    </trkpt>
    <trkpt lat="48.476478" lon="2.65429">
      <ele>90.7</ele>
      <time>2014-05-18T10:33:04Z</time>
    </trkpt>
    <trkpt lat="48.476592" lon="2.654211">
      <ele>90.9</ele>
      <time>2014-05-18T10:33:07Z</time>
    </trkpt>
    <trkpt lat="48.476699" lon="2.654094">
      <ele>90.9</ele>
      <time>2014-05-18T10:33:10Z</time>
    </trkpt>
    <trkpt lat="48.476783" lon="2.653983">
      <ele>90.8</ele>
      <time>2014-05-18T10:33:13Z</time>
    </trkpt>
    <trkpt lat="48.476878" lon="2.653912">
      <ele>90.9</ele>
      <time>2014-05-18T10:33:16Z</time>
    </trkpt>
    <trkpt lat="48.476947" lon="2.653814">
      <ele>90.9</ele>
      <time>2014-05-18T10:33:19Z</time>
    </trkpt>
    <trkpt lat="48.477079" lon="2.653706">
      <ele>91.2</ele>
      <time>2014-05-18T10:33:22Z</time>
    </trkpt>
    <trkpt lat="48.477197" lon="2.653594">
      <ele>91.6</ele>
      <time>2014-05-18T10:33:25Z</time>
    </trkpt>
    <trkpt lat="48.477326" lon="2.653465">
      <ele>92.1</ele>
      <time>2014-05-18T10:33:28Z</time>
    </trkpt>
    <trkpt lat="48.47753" lon="2.653336">
      <ele>93.0</ele>
      <time>2014-05-18T10:33:30Z</time>
    </trkpt>
    <trkpt lat="48.477747" lon="2.653169">
      <ele>93.0</ele>
      <time>2014-05-18T10:33:32Z</time>
    </trkpt>
    <trkpt lat="48.477862" lon="2.653089">
      <ele>92.9</ele>
      <time>2014-05-18T10:33:34Z</time>
    </trkpt>
    <trkpt lat="48.47796" lon="2.653011">
      <ele>92.7</ele>
      <time>2014-05-18T10:33:36Z</time>
    </trkpt>
    <trkpt lat="48.478049" lon="2.652954">
      <ele>92.6</ele>
      <time>2014-05-18T10:33:38Z</time>
    </trkpt>
    <trkpt lat="48.478156" lon="2.652883">
      <ele>92.4</ele>
      <time>2014-05-18T10:33:41Z</time>
    </trkpt>
    <trkpt lat="48.478249" lon="2.652815">
      <ele>92.2</ele>
      <time>2014-05-18T10:33:44Z</time>
    </trkpt>
    <trkpt lat="48.478335" lon="2.652767">
      <ele>92.0</ele>
      <time>2014-05-18T10:33:47Z</time>
    </trkpt>
    <trkpt lat="48.478431" lon="2.652666">
      <ele>91.4</ele>
      <time>2014-05-18T10:33:49Z</time>
    </trkpt>
    <trkpt lat="48.478534" lon="2.65255">
      <ele>90.9</ele>
      <time>2014-05-18T10:33:52Z</time>
    </trkpt>
    <trkpt lat="48.478612" lon="2.652453">
      <ele>90.6</ele>
      <time>2014-05-18T10:33:56Z</time>
    </trkpt>
    <trkpt lat="48.478707" lon="2.652366">
      <ele>90.4</ele>
      <time>2014-05-18T10:34:01Z</time>
    </trkpt>
    <trkpt lat="48.478789" lon="2.652297">
      <ele>90.4</ele>
      <time>2014-05-18T10:34:09Z</time>
    </trkpt>
    <trkpt lat="48.4789" lon="2.65224">
      <ele>90.3</ele>
      <time>2014-05-18T10:34:13Z</time>
    </trkpt>
    <trkpt lat="48.47899" lon="2.652156">
      <ele>90.4</ele>
      <time>2014-05-18T10:34:16Z</time>
    </trkpt>
    <trkpt lat="48.479097" lon="2.652085">
      <ele>90.5</ele>
      <time>2014-05-18T10:34:19Z</time>
    </trkpt>
    <trkpt lat="48.479189" lon="2.652003">
      <ele>90.7</ele>
      <time>2014-05-18T10:34:23Z</time>
    </trkpt>
    <trkpt lat="48.479276" lon="2.651934">
      <ele>91.0</ele>
      <time>2014-05-18T10:34:28Z</time>
    </trkpt>
    <trkpt lat="48.479363" lon="2.651868">
      <ele>91.4</ele>
      <time>2014-05-18T10:34:31Z</time>
    </trkpt>
    <trkpt lat="48.479467" lon="2.651789">
      <ele>91.8</ele>
      <time>2014-05-18T10:34:34Z</time>
    </trkpt>
    <trkpt lat="48.479578" lon="2.651709">
      <ele>92.4</ele>
      <time>2014-05-18T10:34:38Z</time>
    </trkpt>
    <trkpt lat="48.479692" lon="2.651605">
      <ele>92.9</ele>
      <time>2014-05-18T10:34:41Z</time>
    </trkpt>
    <trkpt lat="48.479821" lon="2.651464">
      <ele>93.4</ele>
      <time>2014-05-18T10:34:45Z</time>
    </trkpt>
    <trkpt lat="48.479909" lon="2.651416">
      <ele>93.7</ele>
      <time>2014-05-18T10:34:48Z</time>
    </trkpt>
    <trkpt lat="48.480015" lon="2.651299">
      <ele>94.0</ele>
      <time>2014-05-18T10:34:54Z</time>
    </trkpt>
    <trkpt lat="48.480084" lon="2.651155">
      <ele>94.2</ele>
      <time>2014-05-18T10:34:58Z</time>
    </trkpt>
    <trkpt lat="48.480172" lon="2.651052">
      <ele>94.4</ele>
      <time>2014-05-18T10:35:02Z</time>
    </trkpt>
    <trkpt lat="48.480269" lon="2.650989">
      <ele>94.6</ele>
      <time>2014-05-18T10:35:06Z</time>
    </trkpt>
    <trkpt lat="48.480376" lon="2.65089">
      <ele>94.9</ele>
      <time>2014-05-18T10:35:09Z</time>
    </trkpt>
    <trkpt lat="48.480475" lon="2.650867">
      <ele>95.1</ele>
      <time>2014-05-18T10:35:12Z</time>
    </trkpt>
    <trkpt lat="48.480576" lon="2.650775">
      <ele>95.3</ele>
      <time>2014-05-18T10:35:15Z</time>
    </trkpt>
    <trkpt lat="48.480664" lon="2.650674">
      <ele>95.4</ele>
      <time>2014-05-18T10:35:19Z</time>
    </trkpt>
    <trkpt lat="48.480783" lon="2.650587">
      <ele>95.6</ele>
      <time>2014-05-18T10:35:22Z</time>
    </trkpt>
    <trkpt lat="48.480896" lon="2.65052">
      <ele>96.0</ele>
      <time>2014-05-18T10:35:26Z</time>
    </trkpt>
    <trkpt lat="48.480996" lon="2.650446">
      <ele>96.5</ele>
      <time>2014-05-18T10:35:29Z</time>
    </trkpt>
    <trkpt lat="48.481141" lon="2.650338">
      <ele>97.3</ele>
      <time>2014-05-18T10:35:34Z</time>
    </trkpt>
    <trkpt lat="48.481232" lon="2.650249">
      <ele>97.7</ele>
      <time>2014-05-18T10:35:38Z</time>
    </trkpt>
    <trkpt lat="48.481344" lon="2.650181">
      <ele>98.3</ele>
      <time>2014-05-18T10:35:41Z</time>
    </trkpt>
    <trkpt lat="48.481448" lon="2.650124">
      <ele>98.8</ele>
      <time>2014-05-18T10:35:44Z</time>
    </trkpt>
    <trkpt lat="48.481545" lon="2.650046">
      <ele>99.3</ele>
      <time>2014-05-18T10:35:47Z</time>
    </trkpt>
    <trkpt lat="48.481628" lon="2.649963">
      <ele>99.9</ele>
      <time>2014-05-18T10:35:50Z</time>
    </trkpt>
    <trkpt lat="48.481703" lon="2.649863">
      <ele>100.5</ele>
      <time>2014-05-18T10:35:53Z</time>
    </trkpt>
    <trkpt lat="48.481829" lon="2.649773">
      <ele>101.4</ele>
      <time>2014-05-18T10:35:57Z</time>
    </trkpt>
    <trkpt lat="48.481943" lon="2.649678">
      <ele>102.2</ele>
      <time>2014-05-18T10:36:00Z</time>
    </trkpt>
    <trkpt lat="48.482034" lon="2.649595">
      <ele>102.7</ele>
      <time>2014-05-18T10:36:04Z</time>
    </trkpt>
    <trkpt lat="48.482131" lon="2.649537">
      <ele>103.3</ele>
      <time>2014-05-18T10:36:06Z</time>
    </trkpt>
    <trkpt lat="48.482217" lon="2.649475">
      <ele>103.7</ele>
      <time>2014-05-18T10:36:09Z</time>
    </trkpt>
    <trkpt lat="48.482317" lon="2.649396">
      <ele>104.2</ele>
      <time>2014-05-18T10:36:13Z</time>
    </trkpt>
    <trkpt lat="48.482408" lon="2.649358">
      <ele>104.6</ele>
      <time>2014-05-18T10:36:16Z</time>
    </trkpt>
    <trkpt lat="48.482491" lon="2.649279">
      <ele>105.0</ele>
      <time>2014-05-18T10:36:19Z</time>
    </trkpt>
    <trkpt lat="48.48259" lon="2.649171">
      <ele>104.6</ele>
      <time>2014-05-18T10:36:23Z</time>
    </trkpt>
    <trkpt lat="48.482688" lon="2.649082">
      <ele>104.2</ele>
      <time>2014-05-18T10:36:26Z</time>
    </trkpt>
    <trkpt lat="48.482799" lon="2.648972">
      <ele>103.7</ele>
      <time>2014-05-18T10:36:30Z</time>
    </trkpt>
    <trkpt lat="48.482878" lon="2.6489">
      <ele>103.4</ele>
      <time>2014-05-18T10:36:33Z</time>
    </trkpt>
    <trkpt lat="48.482964" lon="2.648821">
      <ele>103.0</ele>
      <time>2014-05-18T10:36:36Z</time>
    </trkpt>
    <trkpt lat="48.48306" lon="2.648759">
      <ele>102.5</ele>
      <time>2014-05-18T10:36:39Z</time>
    </trkpt>
    <trkpt lat="48.483149" lon="2.64867">
      <ele>102.0</ele>
      <time>2014-05-18T10:36:42Z</time>
    </trkpt>
    <trkpt lat="48.483245" lon="2.648578">
      <ele>101.5</ele>
      <time>2014-05-18T10:36:45Z</time>
    </trkpt>
    <trkpt lat="48.483371" lon="2.648483">
      <ele>100.8</ele>
      <time>2014-05-18T10:36:49Z</time>
    </trkpt>
    <trkpt lat="48.483463" lon="2.648383">
      <ele>100.4</ele>
      <time>2014-05-18T10:36:55Z</time>
    </trkpt>
    <trkpt lat="48.483558" lon="2.648282">
      <ele>99.9</ele>
      <time>2014-05-18T10:36:58Z</time>
    </trkpt>
    <trkpt lat="48.483659" lon="2.648195">
      <ele>99.3</ele>
      <time>2014-05-18T10:37:01Z</time>
    </trkpt>
    <trkpt lat="48.483772" lon="2.648093">
      <ele>98.8</ele>
      <time>2014-05-18T10:37:04Z</time>
    </trkpt>
    <trkpt lat="48.483877" lon="2.648002">
      <ele>98.3</ele>
      <time>2014-05-18T10:37:07Z</time>
    </trkpt>
    <trkpt lat="48.483972" lon="2.647921">
      <ele>97.8</ele>
      <time>2014-05-18T10:37:09Z</time>
    </trkpt>
    <trkpt lat="48.484047" lon="2.647841">
      <ele>97.5</ele>
      <time>2014-05-18T10:37:11Z</time>
    </trkpt>
    <trkpt lat="48.484146" lon="2.647755">
      <ele>97.1</ele>
      <time>2014-05-18T10:37:13Z</time>
    </trkpt>
    <trkpt lat="48.484231" lon="2.647683">
      <ele>97.0</ele>
      <time>2014-05-18T10:37:15Z</time>
    </trkpt>
    <trkpt lat="48.484319" lon="2.647596">
      <ele>97.0</ele>
      <time>2014-05-18T10:37:17Z</time>
    </trkpt>
    <trkpt lat="48.4844" lon="2.647523">
      <ele>97.0</ele>
      <time>2014-05-18T10:37:19Z</time>
    </trkpt>
    <trkpt lat="48.484524" lon="2.647423">
      <ele>97.1</ele>
      <time>2014-05-18T10:37:22Z</time>
    </trkpt>
    <trkpt lat="48.484642" lon="2.647338">
      <ele>97.3</ele>
      <time>2014-05-18T10:37:24Z</time>
    </trkpt>
    <trkpt lat="48.484745" lon="2.647252">
      <ele>97.5</ele>
      <time>2014-05-18T10:37:26Z</time>
    </trkpt>
    <trkpt lat="48.484863" lon="2.647155">
      <ele>97.8</ele>
      <time>2014-05-18T10:37:28Z</time>
    </trkpt>
    <trkpt lat="48.484995" lon="2.647042">
      <ele>98.1</ele>
      <time>2014-05-18T10:37:30Z</time>
    </trkpt>
    <trkpt lat="48.485144" lon="2.646894">
      <ele>98.0</ele>
      <time>2014-05-18T10:37:33Z</time>
    </trkpt>
    <trkpt lat="48.485252" lon="2.64679">
      <ele>97.8</ele>
      <time>2014-05-18T10:37:35Z</time>
    </trkpt>
    <trkpt lat="48.485455" lon="2.646642">
      <ele>97.4</ele>
      <time>2014-05-18T10:37:38Z</time>
    </trkpt>
    <trkpt lat="48.48558" lon="2.646539">
      <ele>96.9</ele>
      <time>2014-05-18T10:37:40Z</time>
    </trkpt>
    <trkpt lat="48.48577" lon="2.646386">
      <ele>96.2</ele>
      <time>2014-05-18T10:37:43Z</time>
    </trkpt>
    <trkpt lat="48.485891" lon="2.646295">
      <ele>95.7</ele>
      <time>2014-05-18T10:37:45Z</time>
    </trkpt>
    <trkpt lat="48.486093" lon="2.646122">
      <ele>94.7</ele>
      <time>2014-05-18T10:37:48Z</time>
    </trkpt>
    <trkpt lat="48.48622" lon="2.645986">
      <ele>93.9</ele>
      <time>2014-05-18T10:37:51Z</time>
    </trkpt>
    <trkpt lat="48.486364" lon="2.64587">
      <ele>92.9</ele>
      <time>2014-05-18T10:37:53Z</time>
    </trkpt>
    <trkpt lat="48.48649" lon="2.645794">
      <ele>92.1</ele>
      <time>2014-05-18T10:37:55Z</time>
    </trkpt>
    <trkpt lat="48.486571" lon="2.645731">
      <ele>91.8</ele>
      <time>2014-05-18T10:37:57Z</time>
    </trkpt>
    <trkpt lat="48.486659" lon="2.64562">
      <ele>91.6</ele>
      <time>2014-05-18T10:37:59Z</time>
    </trkpt>
    <trkpt lat="48.486761" lon="2.645519">
      <ele>92.1</ele>
      <time>2014-05-18T10:38:01Z</time>
    </trkpt>
    <trkpt lat="48.486859" lon="2.645418">
      <ele>92.7</ele>
      <time>2014-05-18T10:38:03Z</time>
    </trkpt>
    <trkpt lat="48.486969" lon="2.645326">
      <ele>93.2</ele>
      <time>2014-05-18T10:38:05Z</time>
    </trkpt>
    <trkpt lat="48.487061" lon="2.64524">
      <ele>93.6</ele>
      <time>2014-05-18T10:38:07Z</time>
    </trkpt>
    <trkpt lat="48.487175" lon="2.645152">
      <ele>94.1</ele>
      <time>2014-05-18T10:38:09Z</time>
    </trkpt>
    <trkpt lat="48.487328" lon="2.645016">
      <ele>94.6</ele>
      <time>2014-05-18T10:38:13Z</time>
    </trkpt>
    <trkpt lat="48.487409" lon="2.6449">
      <ele>94.8</ele>
      <time>2014-05-18T10:38:15Z</time>
    </trkpt>
    <trkpt lat="48.487498" lon="2.64484">
      <ele>95.0</ele>
      <time>2014-05-18T10:38:18Z</time>
    </trkpt>
    <trkpt lat="48.487611" lon="2.644828">
      <ele>95.1</ele>
      <time>2014-05-18T10:38:20Z</time>
    </trkpt>
    <trkpt lat="48.487707" lon="2.644746">
      <ele>95.2</ele>
      <time>2014-05-18T10:38:24Z</time>
    </trkpt>
    <trkpt lat="48.487793" lon="2.644651">
      <ele>95.3</ele>
      <time>2014-05-18T10:38:27Z</time>
    </trkpt>
    <trkpt lat="48.487921" lon="2.644527">
      <ele>95.6</ele>
      <time>2014-05-18T10:38:31Z</time>
    </trkpt>
    <trkpt lat="48.488013" lon="2.644443">
      <ele>95.8</ele>
      <time>2014-05-18T10:38:34Z</time>
    </trkpt>
    <trkpt lat="48.488114" lon="2.644331">
      <ele>96.2</ele>
      <time>2014-05-18T10:38:37Z</time>
    </trkpt>
    <trkpt lat="48.488198" lon="2.644261">
      <ele>96.5</ele>
      <time>2014-05-18T10:38:39Z</time>
    </trkpt>
    <trkpt lat="48.488281" lon="2.644193">
      <ele>96.8</ele>
      <time>2014-05-18T10:38:41Z</time>
    </trkpt>
    <trkpt lat="48.488426" lon="2.644071">
      <ele>97.1</ele>
      <time>2014-05-18T10:38:45Z</time>
    </trkpt>
    <trkpt lat="48.488535" lon="2.644029">
      <ele>97.2</ele>
      <time>2014-05-18T10:38:49Z</time>
    </trkpt>
    <trkpt lat="48.488627" lon="2.643956">
      <ele>97.3</ele>
      <time>2014-05-18T10:38:52Z</time>
    </trkpt>
    <trkpt lat="48.488742" lon="2.643916">
      <ele>97.3</ele>
      <time>2014-05-18T10:38:55Z</time>
    </trkpt>
    <trkpt lat="48.488831" lon="2.643867">
      <ele>97.4</ele>
      <time>2014-05-18T10:38:57Z</time>
    </trkpt>
    <trkpt lat="48.489009" lon="2.643805">
      <ele>97.4</ele>
      <time>2014-05-18T10:39:01Z</time>
    </trkpt>
    <trkpt lat="48.489134" lon="2.643785">
      <ele>97.5</ele>
      <time>2014-05-18T10:39:04Z</time>
    </trkpt>
    <trkpt lat="48.489226" lon="2.643766">
      <ele>97.8</ele>
      <time>2014-05-18T10:39:07Z</time>
    </trkpt>
    <trkpt lat="48.489358" lon="2.643682">
      <ele>98.5</ele>
      <time>2014-05-18T10:39:12Z</time>
    </trkpt>
    <trkpt lat="48.489447" lon="2.643654">
      <ele>99.0</ele>
      <time>2014-05-18T10:39:15Z</time>
    </trkpt>
    <trkpt lat="48.489546" lon="2.64357">
      <ele>99.5</ele>
      <time>2014-05-18T10:39:18Z</time>
    </trkpt>
    <trkpt lat="48.489635" lon="2.643448">
      <ele>100.1</ele>
      <time>2014-05-18T10:39:21Z</time>
    </trkpt>
    <trkpt lat="48.489733" lon="2.643318">
      <ele>100.7</ele>
      <time>2014-05-18T10:39:24Z</time>
    </trkpt>
    <trkpt lat="48.489846" lon="2.643182">
      <ele>101.1</ele>
      <time>2014-05-18T10:39:27Z</time>
    </trkpt>
    <trkpt lat="48.489931" lon="2.643107">
      <ele>101.4</ele>
      <time>2014-05-18T10:39:29Z</time>
    </trkpt>
    <trkpt lat="48.490004" lon="2.643008">
      <ele>101.6</ele>
      <time>2014-05-18T10:39:31Z</time>
    </trkpt>
    <trkpt lat="48.490111" lon="2.642894">
      <ele>101.5</ele>
      <time>2014-05-18T10:39:34Z</time>
    </trkpt>
    <trkpt lat="48.4902" lon="2.642811">
      <ele>101.5</ele>
      <time>2014-05-18T10:39:37Z</time>
    </trkpt>
    <trkpt lat="48.490298" lon="2.642727">
      <ele>101.5</ele>
      <time>2014-05-18T10:39:40Z</time>
    </trkpt>
    <trkpt lat="48.490385" lon="2.642605">
      <ele>101.5</ele>
      <time>2014-05-18T10:39:44Z</time>
    </trkpt>
    <trkpt lat="48.490469" lon="2.642502">
      <ele>101.6</ele>
      <time>2014-05-18T10:39:47Z</time>
    </trkpt>
    <trkpt lat="48.490576" lon="2.642388">
      <ele>101.5</ele>
      <time>2014-05-18T10:39:50Z</time>
    </trkpt>
    <trkpt lat="48.490635" lon="2.642267">
      <ele>101.4</ele>
      <time>2014-05-18T10:39:52Z</time>
    </trkpt>
    <trkpt lat="48.490716" lon="2.642196">
      <ele>101.4</ele>
      <time>2014-05-18T10:39:54Z</time>
    </trkpt>
    <trkpt lat="48.490802" lon="2.642063">
      <ele>101.4</ele>
      <time>2014-05-18T10:39:57Z</time>
    </trkpt>
    <trkpt lat="48.49089" lon="2.641944">
      <ele>101.3</ele>
      <time>2014-05-18T10:40:00Z</time>
    </trkpt>
    <trkpt lat="48.490986" lon="2.641806">
      <ele>101.1</ele>
      <time>2014-05-18T10:40:03Z</time>
    </trkpt>
    <trkpt lat="48.491081" lon="2.641637">
      <ele>101.0</ele>
      <time>2014-05-18T10:40:06Z</time>
    </trkpt>
    <trkpt lat="48.491164" lon="2.641512">
      <ele>101.1</ele>
      <time>2014-05-18T10:40:10Z</time>
    </trkpt>
    <trkpt lat="48.4912" lon="2.641366">
      <ele>101.2</ele>
      <time>2014-05-18T10:40:14Z</time>
    </trkpt>
    <trkpt lat="48.491296" lon="2.641252">
      <ele>101.3</ele>
      <time>2014-05-18T10:40:17Z</time>
    </trkpt>
    <trkpt lat="48.491434" lon="2.641174">
      <ele>101.4</ele>
      <time>2014-05-18T10:40:21Z</time>
    </trkpt>
    <trkpt lat="48.491527" lon="2.641072">
      <ele>101.6</ele>
      <time>2014-05-18T10:40:23Z</time>
    </trkpt>
    <trkpt lat="48.491622" lon="2.640987">
      <ele>101.8</ele>
      <time>2014-05-18T10:40:25Z</time>
    </trkpt>
    <trkpt lat="48.491718" lon="2.640888">
      <ele>101.9</ele>
      <time>2014-05-18T10:40:27Z</time>
    </trkpt>
    <trkpt lat="48.491722" lon="2.64074">
      <ele>101.9</ele>
      <time>2014-05-18T10:40:30Z</time>
    </trkpt>
    <trkpt lat="48.491796" lon="2.64056">
      <ele>101.8</ele>
      <time>2014-05-18T10:40:34Z</time>
    </trkpt>
    <trkpt lat="48.491894" lon="2.640435">
      <ele>101.6</ele>
      <time>2014-05-18T10:40:38Z</time>
    </trkpt>
    <trkpt lat="48.491972" lon="2.640342">
      <ele>101.4</ele>
      <time>2014-05-18T10:40:40Z</time>
    </trkpt>
    <trkpt lat="48.492091" lon="2.640199">
      <ele>101.1</ele>
      <time>2014-05-18T10:40:43Z</time>
    </trkpt>
    <trkpt lat="48.492261" lon="2.640047">
      <ele>100.6</ele>
      <time>2014-05-18T10:40:46Z</time>
    </trkpt>
    <trkpt lat="48.492357" lon="2.639956">
      <ele>100.4</ele>
      <time>2014-05-18T10:40:48Z</time>
    </trkpt>
    <trkpt lat="48.492437" lon="2.639852">
      <ele>100.3</ele>
      <time>2014-05-18T10:40:50Z</time>
    </trkpt>
    <trkpt lat="48.492529" lon="2.63973">
      <ele>100.2</ele>
      <time>2014-05-18T10:40:53Z</time>
    </trkpt>
    <trkpt lat="48.492633" lon="2.639667">
      <ele>99.9</ele>
      <time>2014-05-18T10:40:56Z</time>
    </trkpt>
    <trkpt lat="48.492736" lon="2.639612">
      <ele>99.6</ele>
      <time>2014-05-18T10:40:58Z</time>
    </trkpt>
    <trkpt lat="48.492853" lon="2.639445">
      <ele>99.4</ele>
      <time>2014-05-18T10:41:01Z</time>
    </trkpt>
    <trkpt lat="48.492943" lon="2.639329">
      <ele>99.2</ele>
      <time>2014-05-18T10:41:03Z</time>
    </trkpt>
    <trkpt lat="48.493026" lon="2.639198">
      <ele>99.1</ele>
      <time>2014-05-18T10:41:05Z</time>
    </trkpt>
    <trkpt lat="48.493112" lon="2.639087">
      <ele>98.8</ele>
      <time>2014-05-18T10:41:07Z</time>
    </trkpt>
    <trkpt lat="48.493205" lon="2.638991">
      <ele>98.5</ele>
      <time>2014-05-18T10:41:09Z</time>
    </trkpt>
    <trkpt lat="48.493298" lon="2.638901">
      <ele>98.1</ele>
      <time>2014-05-18T10:41:11Z</time>
    </trkpt>
    <trkpt lat="48.49339" lon="2.638796">
      <ele>97.8</ele>
      <time>2014-05-18T10:41:13Z</time>
    </trkpt>
    <trkpt lat="48.493544" lon="2.638631">
      <ele>97.4</ele>
      <time>2014-05-18T10:41:16Z</time>
    </trkpt>
    <trkpt lat="48.493647" lon="2.638539">
      <ele>97.2</ele>
      <time>2014-05-18T10:41:18Z</time>
    </trkpt>
    <trkpt lat="48.493764" lon="2.638399">
      <ele>96.9</ele>
      <time>2014-05-18T10:41:21Z</time>
    </trkpt>
    <trkpt lat="48.493888" lon="2.63826">
      <ele>96.4</ele>
      <time>2014-05-18T10:41:23Z</time>
    </trkpt>
    <trkpt lat="48.493969" lon="2.638146">
      <ele>95.9</ele>
      <time>2014-05-18T10:41:26Z</time>
    </trkpt>
    <trkpt lat="48.494088" lon="2.637974">
      <ele>95.2</ele>
      <time>2014-05-18T10:41:29Z</time>
    </trkpt>
    <trkpt lat="48.494196" lon="2.637855">
      <ele>94.8</ele>
      <time>2014-05-18T10:41:31Z</time>
    </trkpt>
    <trkpt lat="48.494298" lon="2.637706">
      <ele>94.3</ele>
      <time>2014-05-18T10:41:34Z</time>
    </trkpt>
    <trkpt lat="48.494405" lon="2.637599">
      <ele>93.9</ele>
      <time>2014-05-18T10:41:36Z</time>
    </trkpt>
    <trkpt lat="48.494511" lon="2.637488">
      <ele>93.6</ele>
      <time>2014-05-18T10:41:38Z</time>
    </trkpt>
    <trkpt lat="48.494578" lon="2.63739">
      <ele>93.6</ele>
      <time>2014-05-18T10:41:40Z</time>
    </trkpt>
    <trkpt lat="48.49468" lon="2.637263">
      <ele>93.6</ele>
      <time>2014-05-18T10:41:42Z</time>
    </trkpt>
    <trkpt lat="48.494783" lon="2.637132">
      <ele>93.6</ele>
      <time>2014-05-18T10:41:44Z</time>
    </trkpt>
    <trkpt lat="48.494883" lon="2.636997">
      <ele>93.7</ele>
      <time>2014-05-18T10:41:46Z</time>
    </trkpt>
    <trkpt lat="48.495034" lon="2.636813">
      <ele>93.8</ele>
      <time>2014-05-18T10:41:49Z</time>
    </trkpt>
    <trkpt lat="48.495142" lon="2.636692">
      <ele>93.8</ele>
      <time>2014-05-18T10:41:51Z</time>
    </trkpt>
    <trkpt lat="48.495242" lon="2.63657">
      <ele>93.5</ele>
      <time>2014-05-18T10:41:53Z</time>
    </trkpt>
    <trkpt lat="48.495343" lon="2.636449">
      <ele>93.1</ele>
      <time>2014-05-18T10:41:55Z</time>
    </trkpt>
    <trkpt lat="48.495442" lon="2.636316">
      <ele>92.6</ele>
      <time>2014-05-18T10:41:57Z</time>
    </trkpt>
    <trkpt lat="48.495545" lon="2.636211">
      <ele>92.3</ele>
      <time>2014-05-18T10:41:59Z</time>
    </trkpt>
    <trkpt lat="48.495647" lon="2.636071">
      <ele>91.8</ele>
      <time>2014-05-18T10:42:01Z</time>
    </trkpt>
    <trkpt lat="48.495748" lon="2.635936">
      <ele>91.3</ele>
      <time>2014-05-18T10:42:03Z</time>
    </trkpt>
    <trkpt lat="48.495847" lon="2.63584">
      <ele>91.1</ele>
      <time>2014-05-18T10:42:05Z</time>
    </trkpt>
    <trkpt lat="48.495931" lon="2.635734">
      <ele>91.4</ele>
      <time>2014-05-18T10:42:07Z</time>
    </trkpt>
    <trkpt lat="48.496017" lon="2.635664">
      <ele>91.8</ele>
      <time>2014-05-18T10:42:09Z</time>
    </trkpt>
    <trkpt lat="48.496146" lon="2.635496">
      <ele>92.2</ele>
      <time>2014-05-18T10:42:12Z</time>
    </trkpt>
    <trkpt lat="48.496209" lon="2.635369">
      <ele>92.3</ele>
      <time>2014-05-18T10:42:14Z</time>
    </trkpt>
    <trkpt lat="48.496286" lon="2.635279">
      <ele>92.5</ele>
      <time>2014-05-18T10:42:16Z</time>
    </trkpt>
    <trkpt lat="48.496364" lon="2.635143">
      <ele>92.5</ele>
      <time>2014-05-18T10:42:18Z</time>
    </trkpt>
    <trkpt lat="48.496447" lon="2.635069">
      <ele>92.6</ele>
      <time>2014-05-18T10:42:20Z</time>
    </trkpt>
    <trkpt lat="48.496563" lon="2.634941">
      <ele>92.7</ele>
      <time>2014-05-18T10:42:23Z</time>
    </trkpt>
    <trkpt lat="48.496632" lon="2.634845">
      <ele>92.7</ele>
      <time>2014-05-18T10:42:28Z</time>
    </trkpt>
    <trkpt lat="48.49668" lon="2.634967">
      <ele>93.0</ele>
      <time>2014-05-18T10:42:37Z</time>
    </trkpt>
    <trkpt lat="48.496724" lon="2.634971">
      <ele>93.3</ele>
      <time>2014-05-18T10:49:22Z</time>
    </trkpt>
  </trkseg>
</trk>
</gpx>
